<?xml version='1.0' encoding='UTF-8'?><gpx version="1.1" creator="JPX - https://github.com/jenetics/jpx" xmlns="http://www.topografix.com/GPX/1/1"><trk><trkseg><trkpt lat="45.05202470047773" lon="9.597374070262514"><ele>59.0</ele><time>2026-04-22T12:19:09.059Z</time></trkpt><trkpt lat="45.05200919226506" lon="9.597275665641359"><ele>59.0</ele><time>2026-04-22T12:19:11.961Z</time></trkpt><trkpt lat="45.05200139468805" lon="9.597173881942478"><ele>59.0</ele><time>2026-04-22T12:19:14.968Z</time></trkpt><trkpt lat="45.05201166337531" lon="9.59708486139782"><ele>59.0</ele><time>2026-04-22T12:19:17.974Z</time></trkpt><trkpt lat="45.0520840939602" lon="9.597051505270567"><ele>59.0</ele><time>2026-04-22T12:19:20.979Z</time></trkpt><trkpt lat="45.05215399779564" lon="9.597068196168017"><ele>59.0</ele><time>2026-04-22T12:19:22.982Z</time></trkpt><trkpt lat="45.05223791428206" lon="9.597075589772885"><ele>59.0</ele><time>2026-04-22T12:19:25.985Z</time></trkpt><trkpt lat="45.05230558476044" lon="9.597063521843284"><ele>59.00000000000001</ele><time>2026-04-22T12:19:30.99Z</time></trkpt><trkpt lat="45.052367725049834" lon="9.597023491378405"><ele>59.0</ele><time>2026-04-22T12:19:33.992Z</time></trkpt><trkpt lat="45.05232206492392" lon="9.596957923251267"><ele>59.0</ele><time>2026-04-22T12:19:35.993Z</time></trkpt><trkpt lat="45.05230441630469" lon="9.59684426801514"><ele>59.0</ele><time>2026-04-22T12:19:37.994Z</time></trkpt><trkpt lat="45.052279686178174" lon="9.596728805785826"><ele>59.00000000000001</ele><time>2026-04-22T12:19:39.995Z</time></trkpt><trkpt lat="45.05226378708081" lon="9.596611782882688"><ele>59.0</ele><time>2026-04-22T12:19:41.996Z</time></trkpt><trkpt lat="45.05224596120327" lon="9.596517059276056"><ele>59.16666666666667</ele><time>2026-04-22T12:19:43.996Z</time></trkpt><trkpt lat="45.05221850762365" lon="9.59641117857084"><ele>59.333333333333336</ele><time>2026-04-22T12:19:45.997Z</time></trkpt><trkpt lat="45.052195277469494" lon="9.596288063821511"><ele>59.5</ele><time>2026-04-22T12:19:47.997Z</time></trkpt><trkpt lat="45.05217500350719" lon="9.596190318378955"><ele>59.66666666666667</ele><time>2026-04-22T12:19:49.998Z</time></trkpt><trkpt lat="45.05214096224818" lon="9.596088722717443"><ele>59.833333333333336</ele><time>2026-04-22T12:19:51.998Z</time></trkpt><trkpt lat="45.0521533950796" lon="9.595935320430437"><ele>60.0</ele><time>2026-04-22T12:19:53.999Z</time></trkpt><trkpt lat="45.05215896639712" lon="9.595815612691656"><ele>60.0</ele><time>2026-04-22T12:19:55.999Z</time></trkpt><trkpt lat="45.05215823011129" lon="9.595672993328272"><ele>60.0</ele><time>2026-04-22T12:19:57.999Z</time></trkpt><trkpt lat="45.0521601270543" lon="9.595526612359288"><ele>60.0</ele><time>2026-04-22T12:19:59.999Z</time></trkpt><trkpt lat="45.05214303282048" lon="9.595395933024609"><ele>60.0</ele><time>2026-04-22T12:20:02Z</time></trkpt><trkpt lat="45.05213090939734" lon="9.595252910869949"><ele>60.0</ele><time>2026-04-22T12:20:04Z</time></trkpt><trkpt lat="45.05213299567836" lon="9.595110585367136"><ele>60.0</ele><time>2026-04-22T12:20:06Z</time></trkpt><trkpt lat="45.05214979138531" lon="9.594966509982056"><ele>60.0</ele><time>2026-04-22T12:20:08Z</time></trkpt><trkpt lat="45.05215105198015" lon="9.59483109555425"><ele>60.0</ele><time>2026-04-22T12:20:10Z</time></trkpt><trkpt lat="45.052152538119756" lon="9.5946714527764"><ele>60.0</ele><time>2026-04-22T12:20:12Z</time></trkpt><trkpt lat="45.052154117305676" lon="9.594501814654848"><ele>60.0</ele><time>2026-04-22T12:20:14Z</time></trkpt><trkpt lat="45.05215547274529" lon="9.594356212013793"><ele>59.75</ele><time>2026-04-22T12:20:16.001Z</time></trkpt><trkpt lat="45.05213113650141" lon="9.594210906173418"><ele>59.5</ele><time>2026-04-22T12:20:18.001Z</time></trkpt><trkpt lat="45.05212702853842" lon="9.59403840264534"><ele>59.25</ele><time>2026-04-22T12:20:20.001Z</time></trkpt><trkpt lat="45.05213702583596" lon="9.593871630405323"><ele>59.0</ele><time>2026-04-22T12:20:22.001Z</time></trkpt><trkpt lat="45.05214989137075" lon="9.593711235508502"><ele>59.0</ele><time>2026-04-22T12:20:24.001Z</time></trkpt><trkpt lat="45.052163833755685" lon="9.593542631596126"><ele>59.00000000000001</ele><time>2026-04-22T12:20:26.001Z</time></trkpt><trkpt lat="45.05215862449662" lon="9.593448817690833"><ele>59.00000000000001</ele><time>2026-04-22T12:20:27.001Z</time></trkpt><trkpt lat="45.05216780445714" lon="9.593298614050397"><ele>59.0</ele><time>2026-04-22T12:20:29.001Z</time></trkpt><trkpt lat="45.052170398740486" lon="9.593142153681457"><ele>59.0</ele><time>2026-04-22T12:20:31.001Z</time></trkpt><trkpt lat="45.05217597128664" lon="9.592980629566355"><ele>59.2</ele><time>2026-04-22T12:20:33.001Z</time></trkpt><trkpt lat="45.05217432474551" lon="9.59283917915781"><ele>59.400000000000006</ele><time>2026-04-22T12:20:35.001Z</time></trkpt><trkpt lat="45.05217556121126" lon="9.592690101324774"><ele>59.6</ele><time>2026-04-22T12:20:37.001Z</time></trkpt><trkpt lat="45.0521697303386" lon="9.5925452648603"><ele>59.8</ele><time>2026-04-22T12:20:39.001Z</time></trkpt><trkpt lat="45.05216552779825" lon="9.59239580539086"><ele>60.0</ele><time>2026-04-22T12:20:41.001Z</time></trkpt><trkpt lat="45.05216211186146" lon="9.592262393686127"><ele>60.0</ele><time>2026-04-22T12:20:43.001Z</time></trkpt><trkpt lat="45.052148183121794" lon="9.592097624650966"><ele>60.0</ele><time>2026-04-22T12:20:45.001Z</time></trkpt><trkpt lat="45.052141469272755" lon="9.5919392607253"><ele>60.0</ele><time>2026-04-22T12:20:47.001Z</time></trkpt><trkpt lat="45.052128367654895" lon="9.591777841016002"><ele>60.0</ele><time>2026-04-22T12:20:49.001Z</time></trkpt><trkpt lat="45.05210688666632" lon="9.591620575322644"><ele>60.4</ele><time>2026-04-22T12:20:51.001Z</time></trkpt><trkpt lat="45.05208851028736" lon="9.591474943407084"><ele>60.8</ele><time>2026-04-22T12:20:53.001Z</time></trkpt><trkpt lat="45.05206899490965" lon="9.591323237707671"><ele>61.2</ele><time>2026-04-22T12:20:55.001Z</time></trkpt><trkpt lat="45.05205570856561" lon="9.591170599174204"><ele>61.6</ele><time>2026-04-22T12:20:57.001Z</time></trkpt><trkpt lat="45.05203238139053" lon="9.591020635797635"><ele>62.0</ele><time>2026-04-22T12:20:59.001Z</time></trkpt><trkpt lat="45.052019442820736" lon="9.590866275577818"><ele>62.0</ele><time>2026-04-22T12:21:01.001Z</time></trkpt><trkpt lat="45.052004439588025" lon="9.590742360725988"><ele>62.0</ele><time>2026-04-22T12:21:03.001Z</time></trkpt><trkpt lat="45.051993973301904" lon="9.590606630103977"><ele>62.0</ele><time>2026-04-22T12:21:05.001Z</time></trkpt><trkpt lat="45.051988590487504" lon="9.590467596703556"><ele>62.0</ele><time>2026-04-22T12:21:07.001Z</time></trkpt><trkpt lat="45.051982357638266" lon="9.590320607779637"><ele>62.0</ele><time>2026-04-22T12:21:09.001Z</time></trkpt><trkpt lat="45.05195092310975" lon="9.59017951786202"><ele>61.8</ele><time>2026-04-22T12:21:11.001Z</time></trkpt><trkpt lat="45.05195465676133" lon="9.590029000605707"><ele>61.6</ele><time>2026-04-22T12:21:13.001Z</time></trkpt><trkpt lat="45.051941794166375" lon="9.589883269159747"><ele>61.39999999999999</ele><time>2026-04-22T12:21:15.002Z</time></trkpt><trkpt lat="45.051894560715056" lon="9.589775462305639"><ele>61.199999999999996</ele><time>2026-04-22T12:21:17.001Z</time></trkpt><trkpt lat="45.05189094618181" lon="9.589646608295375"><ele>61.0</ele><time>2026-04-22T12:21:19.001Z</time></trkpt><trkpt lat="45.051878041542786" lon="9.58950064285553"><ele>61.0</ele><time>2026-04-22T12:21:21.001Z</time></trkpt><trkpt lat="45.05185886952034" lon="9.589368934761616"><ele>60.99999999999999</ele><time>2026-04-22T12:21:23.001Z</time></trkpt><trkpt lat="45.05187381609138" lon="9.589266182779342"><ele>60.99999999999999</ele><time>2026-04-22T12:21:26.001Z</time></trkpt><trkpt lat="45.051850413324914" lon="9.58917834210867"><ele>61.0</ele><time>2026-04-22T12:21:28.001Z</time></trkpt><trkpt lat="45.0517737319036" lon="9.58906034775154"><ele>61.0</ele><time>2026-04-22T12:21:30.001Z</time></trkpt><trkpt lat="45.05171954212353" lon="9.588931946829474"><ele>61.0</ele><time>2026-04-22T12:21:32.001Z</time></trkpt><trkpt lat="45.05167880766349" lon="9.588795797376168"><ele>60.99999999999999</ele><time>2026-04-22T12:21:34Z</time></trkpt><trkpt lat="45.051622823447886" lon="9.588696514007802"><ele>60.99999999999999</ele><time>2026-04-22T12:21:36Z</time></trkpt><trkpt lat="45.05157081073771" lon="9.58857454115254"><ele>61.0</ele><time>2026-04-22T12:21:38Z</time></trkpt><trkpt lat="45.051497483852685" lon="9.588476838092495"><ele>61.0</ele><time>2026-04-22T12:21:40Z</time></trkpt><trkpt lat="45.05141060051246" lon="9.588364375279527"><ele>61.4</ele><time>2026-04-22T12:21:42Z</time></trkpt><trkpt lat="45.05136629401231" lon="9.588300635729757"><ele>61.8</ele><time>2026-04-22T12:21:43Z</time></trkpt><trkpt lat="45.05129287833324" lon="9.58819999442094"><ele>62.199999999999996</ele><time>2026-04-22T12:21:45Z</time></trkpt><trkpt lat="45.05120611930891" lon="9.588098649943248"><ele>62.599999999999994</ele><time>2026-04-22T12:21:47Z</time></trkpt><trkpt lat="45.05112390486828" lon="9.587991722762856"><ele>63.0</ele><time>2026-04-22T12:21:49Z</time></trkpt><trkpt lat="45.05104889545853" lon="9.587891137492651"><ele>62.8</ele><time>2026-04-22T12:21:51Z</time></trkpt><trkpt lat="45.05097824361926" lon="9.587781578249322"><ele>62.599999999999994</ele><time>2026-04-22T12:21:53Z</time></trkpt><trkpt lat="45.050902748528536" lon="9.587679389535714"><ele>62.400000000000006</ele><time>2026-04-22T12:21:55Z</time></trkpt><trkpt lat="45.050822686858396" lon="9.587570147491176"><ele>62.2</ele><time>2026-04-22T12:21:57Z</time></trkpt><trkpt lat="45.05074283193077" lon="9.587483759453637"><ele>62.0</ele><time>2026-04-22T12:21:59Z</time></trkpt><trkpt lat="45.05066334226543" lon="9.58734876268541"><ele>62.0</ele><time>2026-04-22T12:22:01Z</time></trkpt><trkpt lat="45.05058839289299" lon="9.587256595043334"><ele>62.0</ele><time>2026-04-22T12:22:03Z</time></trkpt><trkpt lat="45.0505073191207" lon="9.587144180027584"><ele>62.0</ele><time>2026-04-22T12:22:05Z</time></trkpt><trkpt lat="45.05042777833729" lon="9.587038105716786"><ele>62.0</ele><time>2026-04-22T12:22:07Z</time></trkpt><trkpt lat="45.05034250520989" lon="9.58692576166459"><ele>62.0</ele><time>2026-04-22T12:22:09Z</time></trkpt><trkpt lat="45.05025843556757" lon="9.586809357472863"><ele>61.8</ele><time>2026-04-22T12:22:11Z</time></trkpt><trkpt lat="45.050187903801266" lon="9.586695344929915"><ele>61.6</ele><time>2026-04-22T12:22:13Z</time></trkpt><trkpt lat="45.05013871257969" lon="9.586633215952977"><ele>61.39999999999999</ele><time>2026-04-22T12:22:14Z</time></trkpt><trkpt lat="45.05005362545213" lon="9.58653299109045"><ele>61.199999999999996</ele><time>2026-04-22T12:22:16Z</time></trkpt><trkpt lat="45.049972546744236" lon="9.586422539153485"><ele>61.0</ele><time>2026-04-22T12:22:18Z</time></trkpt><trkpt lat="45.04989797722633" lon="9.58632092402246"><ele>61.0</ele><time>2026-04-22T12:22:20Z</time></trkpt><trkpt lat="45.04981961035439" lon="9.586225071782529"><ele>61.0</ele><time>2026-04-22T12:22:22Z</time></trkpt><trkpt lat="45.04974228921399" lon="9.58610639853608"><ele>61.0</ele><time>2026-04-22T12:22:24Z</time></trkpt><trkpt lat="45.04966621119885" lon="9.585984170707405"><ele>61.0</ele><time>2026-04-22T12:22:26Z</time></trkpt><trkpt lat="45.049585296551065" lon="9.585852175072777"><ele>61.199999999999996</ele><time>2026-04-22T12:22:28Z</time></trkpt><trkpt lat="45.04956208583562" lon="9.585765461473368"><ele>61.39999999999999</ele><time>2026-04-22T12:22:29Z</time></trkpt><trkpt lat="45.049498278689256" lon="9.585602935427968"><ele>61.6</ele><time>2026-04-22T12:22:31Z</time></trkpt><trkpt lat="45.04943381219707" lon="9.585442945247056"><ele>61.8</ele><time>2026-04-22T12:22:33Z</time></trkpt><trkpt lat="45.04936469421294" lon="9.585308824982345"><ele>62.0</ele><time>2026-04-22T12:22:35Z</time></trkpt><trkpt lat="45.04931094761979" lon="9.585164904973327"><ele>62.2</ele><time>2026-04-22T12:22:37Z</time></trkpt><trkpt lat="45.04925121923551" lon="9.585044969894842"><ele>62.400000000000006</ele><time>2026-04-22T12:22:39Z</time></trkpt><trkpt lat="45.049215595945675" lon="9.584952475310171"><ele>62.599999999999994</ele><time>2026-04-22T12:22:40Z</time></trkpt><trkpt lat="45.04917957754086" lon="9.584873612707309"><ele>62.8</ele><time>2026-04-22T12:22:41Z</time></trkpt><trkpt lat="45.0491044518421" lon="9.5847460878948"><ele>63.0</ele><time>2026-04-22T12:22:43Z</time></trkpt><trkpt lat="45.049048584069546" lon="9.584611658368276"><ele>62.75</ele><time>2026-04-22T12:22:45Z</time></trkpt><trkpt lat="45.048993943477655" lon="9.584459283233898"><ele>62.5</ele><time>2026-04-22T12:22:47Z</time></trkpt><trkpt lat="45.04893914694311" lon="9.58431393537474"><ele>62.25</ele><time>2026-04-22T12:22:49Z</time></trkpt><trkpt lat="45.048873997929185" lon="9.584194286934778"><ele>62.0</ele><time>2026-04-22T12:22:51Z</time></trkpt><trkpt lat="45.04881044564982" lon="9.584060752871538"><ele>62.0</ele><time>2026-04-22T12:22:53Z</time></trkpt><trkpt lat="45.048756452519655" lon="9.58392198985075"><ele>62.0</ele><time>2026-04-22T12:22:55Z</time></trkpt><trkpt lat="45.04869911138101" lon="9.583775878144856"><ele>62.0</ele><time>2026-04-22T12:22:57Z</time></trkpt><trkpt lat="45.04863422045784" lon="9.583641162595141"><ele>62.0</ele><time>2026-04-22T12:22:59Z</time></trkpt><trkpt lat="45.04859190109498" lon="9.583489901297279"><ele>62.0</ele><time>2026-04-22T12:23:01Z</time></trkpt><trkpt lat="45.048531530557945" lon="9.5833465932375"><ele>62.0</ele><time>2026-04-22T12:23:03Z</time></trkpt><trkpt lat="45.04847348522049" lon="9.583217991372873"><ele>62.0</ele><time>2026-04-22T12:23:05Z</time></trkpt><trkpt lat="45.04840897501641" lon="9.583072310977427"><ele>62.0</ele><time>2026-04-22T12:23:07Z</time></trkpt><trkpt lat="45.04834839484149" lon="9.582933516611838"><ele>62.2</ele><time>2026-04-22T12:23:09Z</time></trkpt><trkpt lat="45.04828428594106" lon="9.582787004350534"><ele>62.400000000000006</ele><time>2026-04-22T12:23:11Z</time></trkpt><trkpt lat="45.04821603986827" lon="9.582653232208163"><ele>62.599999999999994</ele><time>2026-04-22T12:23:13Z</time></trkpt><trkpt lat="45.048181621688016" lon="9.582578159837158"><ele>62.8</ele><time>2026-04-22T12:23:14Z</time></trkpt><trkpt lat="45.048119892379745" lon="9.582448256454454"><ele>63.0</ele><time>2026-04-22T12:23:16Z</time></trkpt><trkpt lat="45.0480842480453" lon="9.58237123467564"><ele>63.0</ele><time>2026-04-22T12:23:17Z</time></trkpt><trkpt lat="45.048010404083705" lon="9.582234105890759"><ele>63.0</ele><time>2026-04-22T12:23:19Z</time></trkpt><trkpt lat="45.04795541981099" lon="9.582083129917097"><ele>63.0</ele><time>2026-04-22T12:23:21.001Z</time></trkpt><trkpt lat="45.04790838393475" lon="9.581945265300627"><ele>63.0</ele><time>2026-04-22T12:23:23.001Z</time></trkpt><trkpt lat="45.04788487870981" lon="9.581850111380215"><ele>63.0</ele><time>2026-04-22T12:23:24.001Z</time></trkpt><trkpt lat="45.04783983852815" lon="9.581778217072202"><ele>63.0</ele><time>2026-04-22T12:23:25.001Z</time></trkpt><trkpt lat="45.0477809254597" lon="9.581633159388739"><ele>63.0</ele><time>2026-04-22T12:23:27Z</time></trkpt><trkpt lat="45.0477171268906" lon="9.581505483272984"><ele>63.0</ele><time>2026-04-22T12:23:29Z</time></trkpt><trkpt lat="45.04768097440853" lon="9.58143077761368"><ele>63.0</ele><time>2026-04-22T12:23:30Z</time></trkpt><trkpt lat="45.047626170560314" lon="9.581277106635593"><ele>63.0</ele><time>2026-04-22T12:23:32Z</time></trkpt><trkpt lat="45.04756878632613" lon="9.581130322577165"><ele>63.0</ele><time>2026-04-22T12:23:34Z</time></trkpt><trkpt lat="45.04752103870195" lon="9.581006867523477"><ele>63.0</ele><time>2026-04-22T12:23:36Z</time></trkpt><trkpt lat="45.047499917127034" lon="9.58091996966295"><ele>63.0</ele><time>2026-04-22T12:23:37Z</time></trkpt><trkpt lat="45.047480123475964" lon="9.580767090979482"><ele>63.0</ele><time>2026-04-22T12:23:39Z</time></trkpt><trkpt lat="45.04742694674991" lon="9.580641393327832"><ele>63.0</ele><time>2026-04-22T12:23:41Z</time></trkpt><trkpt lat="45.04735293793607" lon="9.580491030851187"><ele>63.0</ele><time>2026-04-22T12:23:43Z</time></trkpt><trkpt lat="45.047329681521205" lon="9.580404734219371"><ele>63.0</ele><time>2026-04-22T12:23:44Z</time></trkpt><trkpt lat="45.04727240488063" lon="9.580271064435973"><ele>63.0</ele><time>2026-04-22T12:23:46Z</time></trkpt><trkpt lat="45.04720920512059" lon="9.580122897838072"><ele>63.0</ele><time>2026-04-22T12:23:48Z</time></trkpt><trkpt lat="45.047180713655955" lon="9.580039197967018"><ele>63.0</ele><time>2026-04-22T12:23:49Z</time></trkpt><trkpt lat="45.04712199726864" lon="9.579901271156167"><ele>62.8</ele><time>2026-04-22T12:23:51Z</time></trkpt><trkpt lat="45.04708496034367" lon="9.579819125245837"><ele>62.599999999999994</ele><time>2026-04-22T12:23:52Z</time></trkpt><trkpt lat="45.0470425706834" lon="9.579744301653966"><ele>62.400000000000006</ele><time>2026-04-22T12:23:53Z</time></trkpt><trkpt lat="45.04697731825183" lon="9.579608113329881"><ele>62.2</ele><time>2026-04-22T12:23:55Z</time></trkpt><trkpt lat="45.046933074949266" lon="9.579464147824627"><ele>62.0</ele><time>2026-04-22T12:23:57Z</time></trkpt><trkpt lat="45.04686265442223" lon="9.579301048066682"><ele>62.0</ele><time>2026-04-22T12:23:59Z</time></trkpt><trkpt lat="45.04680242806961" lon="9.579149796925194"><ele>62.0</ele><time>2026-04-22T12:24:01Z</time></trkpt><trkpt lat="45.04674196805823" lon="9.57899206446367"><ele>62.0</ele><time>2026-04-22T12:24:03Z</time></trkpt><trkpt lat="45.04670079981022" lon="9.578849052214167"><ele>62.0</ele><time>2026-04-22T12:24:05Z</time></trkpt><trkpt lat="45.046666985502995" lon="9.578748263671862"><ele>62.0</ele><time>2026-04-22T12:24:06Z</time></trkpt><trkpt lat="45.046609860294915" lon="9.5786370385369"><ele>62.0</ele><time>2026-04-22T12:24:08Z</time></trkpt><trkpt lat="45.046559047744104" lon="9.578487303381996"><ele>62.0</ele><time>2026-04-22T12:24:10Z</time></trkpt><trkpt lat="45.04651029997075" lon="9.578328913919481"><ele>62.0</ele><time>2026-04-22T12:24:12Z</time></trkpt><trkpt lat="45.04649089395232" lon="9.578176390232553"><ele>62.0</ele><time>2026-04-22T12:24:14Z</time></trkpt><trkpt lat="45.046453488781516" lon="9.578082230914706"><ele>62.0</ele><time>2026-04-22T12:24:15Z</time></trkpt><trkpt lat="45.04642155596419" lon="9.577998945782685"><ele>61.8</ele><time>2026-04-22T12:24:16Z</time></trkpt><trkpt lat="45.04636405667457" lon="9.577844056793772"><ele>61.6</ele><time>2026-04-22T12:24:18Z</time></trkpt><trkpt lat="45.04631272225009" lon="9.57769869829012"><ele>61.39999999999999</ele><time>2026-04-22T12:24:20Z</time></trkpt><trkpt lat="45.046264417430244" lon="9.577531258578311"><ele>61.199999999999996</ele><time>2026-04-22T12:24:22Z</time></trkpt><trkpt lat="45.04624071460011" lon="9.577448621376954"><ele>61.0</ele><time>2026-04-22T12:24:23Z</time></trkpt><trkpt lat="45.04620910883009" lon="9.577365420466284"><ele>61.0</ele><time>2026-04-22T12:24:24Z</time></trkpt><trkpt lat="45.04617552362679" lon="9.57726932026052"><ele>60.99999999999999</ele><time>2026-04-22T12:24:26Z</time></trkpt><trkpt lat="45.046126552944905" lon="9.577111174997343"><ele>60.99999999999999</ele><time>2026-04-22T12:24:28Z</time></trkpt><trkpt lat="45.046086272193605" lon="9.576960516765604"><ele>61.0</ele><time>2026-04-22T12:24:30Z</time></trkpt><trkpt lat="45.046025259986095" lon="9.576812597022457"><ele>61.0</ele><time>2026-04-22T12:24:32Z</time></trkpt><trkpt lat="45.04597647045276" lon="9.57667062096508"><ele>61.199999999999996</ele><time>2026-04-22T12:24:34Z</time></trkpt><trkpt lat="45.045925839495595" lon="9.576520454867321"><ele>61.39999999999999</ele><time>2026-04-22T12:24:36Z</time></trkpt><trkpt lat="45.04589783645475" lon="9.57643593414077"><ele>61.6</ele><time>2026-04-22T12:24:37Z</time></trkpt><trkpt lat="45.04587016216133" lon="9.576292908886824"><ele>61.8</ele><time>2026-04-22T12:24:39Z</time></trkpt><trkpt lat="45.045846230020196" lon="9.576202259825866"><ele>62.0</ele><time>2026-04-22T12:24:40Z</time></trkpt><trkpt lat="45.04579551307753" lon="9.57606813904056"><ele>62.2</ele><time>2026-04-22T12:24:42Z</time></trkpt><trkpt lat="45.045761666120455" lon="9.575987955249087"><ele>62.400000000000006</ele><time>2026-04-22T12:24:43Z</time></trkpt><trkpt lat="45.045721415573446" lon="9.575836638114163"><ele>62.599999999999994</ele><time>2026-04-22T12:24:45Z</time></trkpt><trkpt lat="45.04567222673303" lon="9.575679340749446"><ele>62.8</ele><time>2026-04-22T12:24:47Z</time></trkpt><trkpt lat="45.04563799078369" lon="9.575601396153825"><ele>63.0</ele><time>2026-04-22T12:24:48Z</time></trkpt><trkpt lat="45.04559296980559" lon="9.575442677224768"><ele>63.2</ele><time>2026-04-22T12:24:50Z</time></trkpt><trkpt lat="45.04554211830792" lon="9.57529911430561"><ele>63.4</ele><time>2026-04-22T12:24:52Z</time></trkpt><trkpt lat="45.04551179708222" lon="9.5752160338903"><ele>63.60000000000001</ele><time>2026-04-22T12:24:53Z</time></trkpt><trkpt lat="45.04547641185828" lon="9.575057930446304"><ele>63.800000000000004</ele><time>2026-04-22T12:24:55Z</time></trkpt><trkpt lat="45.045435023501824" lon="9.574907780671587"><ele>64.0</ele><time>2026-04-22T12:24:57Z</time></trkpt><trkpt lat="45.04541570259122" lon="9.574755258563316"><ele>64.0</ele><time>2026-04-22T12:24:58.999Z</time></trkpt><trkpt lat="45.04539172423323" lon="9.574662621807532"><ele>64.0</ele><time>2026-04-22T12:24:59.999Z</time></trkpt><trkpt lat="45.04534871920973" lon="9.574527981976798"><ele>64.0</ele><time>2026-04-22T12:25:01.999Z</time></trkpt><trkpt lat="45.04526478208595" lon="9.57437580645614"><ele>64.0</ele><time>2026-04-22T12:25:03.999Z</time></trkpt><trkpt lat="45.0452371476463" lon="9.574270957462439"><ele>64.0</ele><time>2026-04-22T12:25:04.999Z</time></trkpt><trkpt lat="45.04517078494392" lon="9.574100300259165"><ele>64.0</ele><time>2026-04-22T12:25:06.999Z</time></trkpt><trkpt lat="45.045139129728206" lon="9.573941144366966"><ele>64.0</ele><time>2026-04-22T12:25:08.999Z</time></trkpt><trkpt lat="45.04509873810437" lon="9.573840111150894"><ele>64.0</ele><time>2026-04-22T12:25:09.999Z</time></trkpt><trkpt lat="45.04506975775947" lon="9.573745367092851"><ele>64.0</ele><time>2026-04-22T12:25:10.999Z</time></trkpt><trkpt lat="45.04502145307116" lon="9.573601771208976"><ele>64.0</ele><time>2026-04-22T12:25:12.999Z</time></trkpt><trkpt lat="45.04497450421946" lon="9.573491977879296"><ele>63.800000000000004</ele><time>2026-04-22T12:25:13.999Z</time></trkpt><trkpt lat="45.0449429847253" lon="9.573408039928275"><ele>63.60000000000001</ele><time>2026-04-22T12:25:14.999Z</time></trkpt><trkpt lat="45.044907481465735" lon="9.573252880494438"><ele>63.4</ele><time>2026-04-22T12:25:16.999Z</time></trkpt><trkpt lat="45.04484272389913" lon="9.573115941152484"><ele>63.2</ele><time>2026-04-22T12:25:18.999Z</time></trkpt><trkpt lat="45.0448063718823" lon="9.572969149074096"><ele>63.0</ele><time>2026-04-22T12:25:20.999Z</time></trkpt><trkpt lat="45.044773219701064" lon="9.572883119074017"><ele>63.0</ele><time>2026-04-22T12:25:21.999Z</time></trkpt><trkpt lat="45.04472903330811" lon="9.572717067249986"><ele>63.0</ele><time>2026-04-22T12:25:23.999Z</time></trkpt><trkpt lat="45.04472739754544" lon="9.572577072537609"><ele>63.0</ele><time>2026-04-22T12:25:24.999Z</time></trkpt><trkpt lat="45.04473671998421" lon="9.572472331331332"><ele>63.0</ele><time>2026-04-22T12:25:26Z</time></trkpt><trkpt lat="45.044774799413624" lon="9.572305732372403"><ele>63.0</ele><time>2026-04-22T12:25:28Z</time></trkpt><trkpt lat="45.044800044077" lon="9.57212232647717"><ele>63.0</ele><time>2026-04-22T12:25:30Z</time></trkpt><trkpt lat="45.04480689559656" lon="9.572030267565907"><ele>63.0</ele><time>2026-04-22T12:25:31Z</time></trkpt><trkpt lat="45.04482342973666" lon="9.571858081683049"><ele>63.0</ele><time>2026-04-22T12:25:33Z</time></trkpt><trkpt lat="45.04484061548305" lon="9.571691795696008"><ele>63.0</ele><time>2026-04-22T12:25:35Z</time></trkpt><trkpt lat="45.04483665345306" lon="9.57152739332356"><ele>63.0</ele><time>2026-04-22T12:25:37Z</time></trkpt><trkpt lat="45.044843162831285" lon="9.571355401222048"><ele>63.0</ele><time>2026-04-22T12:25:39Z</time></trkpt><trkpt lat="45.04482261298286" lon="9.571257767660741"><ele>63.0</ele><time>2026-04-22T12:25:40Z</time></trkpt><trkpt lat="45.04479383795959" lon="9.571121908806749"><ele>63.0</ele><time>2026-04-22T12:25:42Z</time></trkpt><trkpt lat="45.044701224687415" lon="9.570987035466556"><ele>63.0</ele><time>2026-04-22T12:25:44Z</time></trkpt><trkpt lat="45.04462115542269" lon="9.570847573853412"><ele>63.0</ele><time>2026-04-22T12:25:46Z</time></trkpt><trkpt lat="45.044535403455015" lon="9.570706823693518"><ele>63.166666666666664</ele><time>2026-04-22T12:25:48Z</time></trkpt><trkpt lat="45.04449440474924" lon="9.570637984085673"><ele>63.33333333333333</ele><time>2026-04-22T12:25:49Z</time></trkpt><trkpt lat="45.04441807308713" lon="9.570494344673671"><ele>63.5</ele><time>2026-04-22T12:25:51Z</time></trkpt><trkpt lat="45.044374158398554" lon="9.570416711937384"><ele>63.666666666666664</ele><time>2026-04-22T12:25:52Z</time></trkpt><trkpt lat="45.044303844435454" lon="9.570285491321641"><ele>63.83333333333333</ele><time>2026-04-22T12:25:54Z</time></trkpt><trkpt lat="45.0442729350673" lon="9.570205549029136"><ele>64.0</ele><time>2026-04-22T12:25:55Z</time></trkpt><trkpt lat="45.04419973425494" lon="9.570050857168525"><ele>63.800000000000004</ele><time>2026-04-22T12:25:57Z</time></trkpt><trkpt lat="45.04411919820629" lon="9.569910402479177"><ele>63.60000000000001</ele><time>2026-04-22T12:25:59Z</time></trkpt><trkpt lat="45.04407362881984" lon="9.569831486758789"><ele>63.4</ele><time>2026-04-22T12:26:00Z</time></trkpt><trkpt lat="45.044029487826705" lon="9.569762406623106"><ele>63.2</ele><time>2026-04-22T12:26:01Z</time></trkpt><trkpt lat="45.0439601140134" lon="9.569611971047367"><ele>63.0</ele><time>2026-04-22T12:26:03Z</time></trkpt><trkpt lat="45.04391894654348" lon="9.5694563287525"><ele>63.0</ele><time>2026-04-22T12:26:05Z</time></trkpt><trkpt lat="45.043877315218644" lon="9.569388952478223"><ele>63.0</ele><time>2026-04-22T12:26:06Z</time></trkpt><trkpt lat="45.04380532405524" lon="9.569251237665828"><ele>63.0</ele><time>2026-04-22T12:26:08Z</time></trkpt><trkpt lat="45.04377840815492" lon="9.569169324020649"><ele>63.0</ele><time>2026-04-22T12:26:09Z</time></trkpt><trkpt lat="45.04374169617125" lon="9.56909356841402"><ele>63.0</ele><time>2026-04-22T12:26:10Z</time></trkpt><trkpt lat="45.043703612639106" lon="9.569016117625575"><ele>63.0</ele><time>2026-04-22T12:26:11Z</time></trkpt><trkpt lat="45.04365264328557" lon="9.568881501957433"><ele>63.0</ele><time>2026-04-22T12:26:13Z</time></trkpt><trkpt lat="45.04358128596384" lon="9.568739848230928"><ele>63.0</ele><time>2026-04-22T12:26:15Z</time></trkpt><trkpt lat="45.0435158660633" lon="9.568603658394826"><ele>63.0</ele><time>2026-04-22T12:26:17Z</time></trkpt><trkpt lat="45.04347943182684" lon="9.568528908575285"><ele>63.0</ele><time>2026-04-22T12:26:18Z</time></trkpt><trkpt lat="45.04340905707243" lon="9.56840184775048"><ele>63.0</ele><time>2026-04-22T12:26:20Z</time></trkpt><trkpt lat="45.043356581520165" lon="9.568279810616993"><ele>63.166666666666664</ele><time>2026-04-22T12:26:22Z</time></trkpt><trkpt lat="45.0432885242325" lon="9.568142945619703"><ele>63.33333333333333</ele><time>2026-04-22T12:26:24Z</time></trkpt><trkpt lat="45.043230794620506" lon="9.568100359677075"><ele>63.5</ele><time>2026-04-22T12:26:25Z</time></trkpt><trkpt lat="45.04311792433507" lon="9.568169218103531"><ele>63.666666666666664</ele><time>2026-04-22T12:26:27Z</time></trkpt><trkpt lat="45.04306199374402" lon="9.568212435065613"><ele>63.83333333333333</ele><time>2026-04-22T12:26:28Z</time></trkpt><trkpt lat="45.04300407489036" lon="9.568268015487789"><ele>64.0</ele><time>2026-04-22T12:26:29Z</time></trkpt><trkpt lat="45.04291932197654" lon="9.56836185267579"><ele>64.0</ele><time>2026-04-22T12:26:31Z</time></trkpt><trkpt lat="45.04282274130829" lon="9.56844384984501"><ele>64.0</ele><time>2026-04-22T12:26:33Z</time></trkpt><trkpt lat="45.04273419426316" lon="9.568532383059592"><ele>64.0</ele><time>2026-04-22T12:26:35Z</time></trkpt><trkpt lat="45.0426506183421" lon="9.568619445742303"><ele>64.0</ele><time>2026-04-22T12:26:37Z</time></trkpt><trkpt lat="45.042556444358794" lon="9.568712738698789"><ele>64.0</ele><time>2026-04-22T12:26:39Z</time></trkpt><trkpt lat="45.042470989165196" lon="9.568794852791248"><ele>64.0</ele><time>2026-04-22T12:26:41Z</time></trkpt><trkpt lat="45.042386277554755" lon="9.5688731447432"><ele>64.0</ele><time>2026-04-22T12:26:43Z</time></trkpt><trkpt lat="45.04230090647643" lon="9.568964162235481"><ele>64.0</ele><time>2026-04-22T12:26:45Z</time></trkpt><trkpt lat="45.0422229955747" lon="9.569046341406295"><ele>64.0</ele><time>2026-04-22T12:26:47Z</time></trkpt><trkpt lat="45.04213279825526" lon="9.569135010151143"><ele>64.0</ele><time>2026-04-22T12:26:49Z</time></trkpt><trkpt lat="45.04205761456004" lon="9.569193584360436"><ele>63.99999999999999</ele><time>2026-04-22T12:26:49.999Z</time></trkpt><trkpt lat="45.042001518634976" lon="9.569256684367954"><ele>64.0</ele><time>2026-04-22T12:26:51.999Z</time></trkpt><trkpt lat="45.041938036157354" lon="9.569326392548813"><ele>64.0</ele><time>2026-04-22T12:26:53.999Z</time></trkpt><trkpt lat="45.04186088505455" lon="9.569386508378772"><ele>64.0</ele><time>2026-04-22T12:26:55.999Z</time></trkpt><trkpt lat="45.04179022862297" lon="9.569475113168957"><ele>63.99999999999999</ele><time>2026-04-22T12:26:57.999Z</time></trkpt><trkpt lat="45.04171407066898" lon="9.56955398794822"><ele>64.0</ele><time>2026-04-22T12:26:59.999Z</time></trkpt><trkpt lat="45.041641522167545" lon="9.56961657147359"><ele>64.4</ele><time>2026-04-22T12:27:01.999Z</time></trkpt><trkpt lat="45.04158189039497" lon="9.56969558804445"><ele>64.80000000000001</ele><time>2026-04-22T12:27:03.999Z</time></trkpt><trkpt lat="45.04150823444994" lon="9.569801130400453"><ele>65.19999999999999</ele><time>2026-04-22T12:27:05.999Z</time></trkpt><trkpt lat="45.041424153909226" lon="9.569852461133271"><ele>65.6</ele><time>2026-04-22T12:27:07.999Z</time></trkpt><trkpt lat="45.04134474168493" lon="9.569898074516763"><ele>66.0</ele><time>2026-04-22T12:27:09.999Z</time></trkpt><trkpt lat="45.041270956285395" lon="9.569973130299873"><ele>66.0</ele><time>2026-04-22T12:27:11.999Z</time></trkpt><trkpt lat="45.04122019913801" lon="9.570078798301408"><ele>66.0</ele><time>2026-04-22T12:27:13.999Z</time></trkpt><trkpt lat="45.04114411469277" lon="9.570157022092577"><ele>66.0</ele><time>2026-04-22T12:27:15.999Z</time></trkpt><trkpt lat="45.04106718938971" lon="9.57020899232471"><ele>66.0</ele><time>2026-04-22T12:27:17.999Z</time></trkpt><trkpt lat="45.04101057163204" lon="9.570299652920049"><ele>66.0</ele><time>2026-04-22T12:27:19.999Z</time></trkpt><trkpt lat="45.04093599586332" lon="9.570381796743787"><ele>65.83333333333333</ele><time>2026-04-22T12:27:21.999Z</time></trkpt><trkpt lat="45.04086289985919" lon="9.57046646753304"><ele>65.66666666666667</ele><time>2026-04-22T12:27:23.999Z</time></trkpt><trkpt lat="45.040799679832865" lon="9.570548135532992"><ele>65.5</ele><time>2026-04-22T12:27:25.999Z</time></trkpt><trkpt lat="45.04073173026037" lon="9.570623164776883"><ele>65.33333333333334</ele><time>2026-04-22T12:27:27.999Z</time></trkpt><trkpt lat="45.04067031274769" lon="9.570690622946502"><ele>65.16666666666667</ele><time>2026-04-22T12:27:29.999Z</time></trkpt><trkpt lat="45.040599715737876" lon="9.570770625411217"><ele>65.0</ele><time>2026-04-22T12:27:32Z</time></trkpt><trkpt lat="45.040541499665956" lon="9.57084006559642"><ele>65.0</ele><time>2026-04-22T12:27:34Z</time></trkpt><trkpt lat="45.040484692094424" lon="9.570906060298155"><ele>65.0</ele><time>2026-04-22T12:27:36Z</time></trkpt><trkpt lat="45.040416693737534" lon="9.57098195341324"><ele>65.0</ele><time>2026-04-22T12:27:38Z</time></trkpt><trkpt lat="45.04036493998951" lon="9.57104071311019"><ele>65.0</ele><time>2026-04-22T12:27:40Z</time></trkpt><trkpt lat="45.04029102380838" lon="9.571109604339386"><ele>65.0</ele><time>2026-04-22T12:27:42Z</time></trkpt><trkpt lat="45.040233236611506" lon="9.571193948582124"><ele>65.0</ele><time>2026-04-22T12:27:44Z</time></trkpt><trkpt lat="45.04015345994031" lon="9.57127346508704"><ele>64.66666666666667</ele><time>2026-04-22T12:27:46Z</time></trkpt><trkpt lat="45.040094598414186" lon="9.571332246813254"><ele>64.33333333333334</ele><time>2026-04-22T12:27:48Z</time></trkpt><trkpt lat="45.04003005801654" lon="9.571414863167993"><ele>64.0</ele><time>2026-04-22T12:27:50Z</time></trkpt><trkpt lat="45.039956883497595" lon="9.571496098106465"><ele>63.66666666666667</ele><time>2026-04-22T12:27:52Z</time></trkpt><trkpt lat="45.03988620076511" lon="9.571579522427024"><ele>63.333333333333336</ele><time>2026-04-22T12:27:54Z</time></trkpt><trkpt lat="45.03981097783786" lon="9.571652058947548"><ele>63.0</ele><time>2026-04-22T12:27:56Z</time></trkpt><trkpt lat="45.03974064745524" lon="9.571731961604769"><ele>62.833333333333336</ele><time>2026-04-22T12:27:58Z</time></trkpt><trkpt lat="45.03967606158434" lon="9.571810210738176"><ele>62.66666666666667</ele><time>2026-04-22T12:28:00Z</time></trkpt><trkpt lat="45.03961137394747" lon="9.571880395137637"><ele>62.5</ele><time>2026-04-22T12:28:02Z</time></trkpt><trkpt lat="45.03954864212359" lon="9.571960350192633"><ele>62.333333333333336</ele><time>2026-04-22T12:28:04Z</time></trkpt><trkpt lat="45.039489072331385" lon="9.572036400793165"><ele>62.16666666666667</ele><time>2026-04-22T12:28:06Z</time></trkpt><trkpt lat="45.039420330891375" lon="9.5721098726197"><ele>62.0</ele><time>2026-04-22T12:28:08Z</time></trkpt><trkpt lat="45.039350073949684" lon="9.572171538094596"><ele>62.333333333333336</ele><time>2026-04-22T12:28:10Z</time></trkpt><trkpt lat="45.03929671574727" lon="9.572242196121536"><ele>62.66666666666667</ele><time>2026-04-22T12:28:12Z</time></trkpt><trkpt lat="45.03923692563674" lon="9.572317824621882"><ele>63.0</ele><time>2026-04-22T12:28:14Z</time></trkpt><trkpt lat="45.03916465261176" lon="9.572398350985544"><ele>63.33333333333333</ele><time>2026-04-22T12:28:16Z</time></trkpt><trkpt lat="45.03910261783321" lon="9.572474138122177"><ele>63.666666666666664</ele><time>2026-04-22T12:28:18Z</time></trkpt><trkpt lat="45.03903181487605" lon="9.572542228901966"><ele>64.0</ele><time>2026-04-22T12:28:20Z</time></trkpt><trkpt lat="45.03896999727265" lon="9.572610835770044"><ele>64.16666666666666</ele><time>2026-04-22T12:28:22Z</time></trkpt><trkpt lat="45.038908059156924" lon="9.572682353352231"><ele>64.33333333333333</ele><time>2026-04-22T12:28:24Z</time></trkpt><trkpt lat="45.03883551345713" lon="9.57275728722632"><ele>64.5</ele><time>2026-04-22T12:28:26Z</time></trkpt><trkpt lat="45.038778393509006" lon="9.572819722482512"><ele>64.66666666666667</ele><time>2026-04-22T12:28:28Z</time></trkpt><trkpt lat="45.03870658100368" lon="9.572893308431922"><ele>64.83333333333334</ele><time>2026-04-22T12:28:30Z</time></trkpt><trkpt lat="45.03864872500285" lon="9.57295787966466"><ele>65.0</ele><time>2026-04-22T12:28:32Z</time></trkpt><trkpt lat="45.03857751631647" lon="9.573032012918118"><ele>65.0</ele><time>2026-04-22T12:28:34Z</time></trkpt><trkpt lat="45.03851965840763" lon="9.57311058661436"><ele>65.0</ele><time>2026-04-22T12:28:36Z</time></trkpt><trkpt lat="45.03845092428989" lon="9.57318683186912"><ele>65.0</ele><time>2026-04-22T12:28:38Z</time></trkpt><trkpt lat="45.03837975351345" lon="9.573253021905408"><ele>65.0</ele><time>2026-04-22T12:28:40Z</time></trkpt><trkpt lat="45.038317363791734" lon="9.573343732407677"><ele>65.0</ele><time>2026-04-22T12:28:42Z</time></trkpt><trkpt lat="45.03825831585103" lon="9.573416439819898"><ele>65.0</ele><time>2026-04-22T12:28:44Z</time></trkpt><trkpt lat="45.038192510918186" lon="9.573491387077318"><ele>65.4</ele><time>2026-04-22T12:28:46Z</time></trkpt><trkpt lat="45.03812227666635" lon="9.573575235727791"><ele>65.8</ele><time>2026-04-22T12:28:48Z</time></trkpt><trkpt lat="45.03805830340426" lon="9.573656519498975"><ele>66.2</ele><time>2026-04-22T12:28:49.999Z</time></trkpt><trkpt lat="45.03798981053095" lon="9.57374620964937"><ele>66.6</ele><time>2026-04-22T12:28:51.999Z</time></trkpt><trkpt lat="45.03791885886163" lon="9.573824073737438"><ele>67.0</ele><time>2026-04-22T12:28:53.999Z</time></trkpt><trkpt lat="45.037849222642805" lon="9.57390584813278"><ele>67.16666666666666</ele><time>2026-04-22T12:28:55.999Z</time></trkpt><trkpt lat="45.03778367070129" lon="9.573984813579715"><ele>67.33333333333333</ele><time>2026-04-22T12:28:57.999Z</time></trkpt><trkpt lat="45.03772429412381" lon="9.574075986157146"><ele>67.5</ele><time>2026-04-22T12:28:59.999Z</time></trkpt><trkpt lat="45.03764249874369" lon="9.57414687146811"><ele>67.66666666666667</ele><time>2026-04-22T12:29:01.999Z</time></trkpt><trkpt lat="45.03757380925984" lon="9.574215306764875"><ele>67.83333333333334</ele><time>2026-04-22T12:29:03.999Z</time></trkpt><trkpt lat="45.037501831881414" lon="9.57428649873099"><ele>68.0</ele><time>2026-04-22T12:29:05.999Z</time></trkpt><trkpt lat="45.03742621544696" lon="9.574359840406721"><ele>68.16666666666667</ele><time>2026-04-22T12:29:07.999Z</time></trkpt><trkpt lat="45.037350832823805" lon="9.574424295955323"><ele>68.33333333333334</ele><time>2026-04-22T12:29:09.999Z</time></trkpt><trkpt lat="45.03728000839917" lon="9.574501616024824"><ele>68.5</ele><time>2026-04-22T12:29:11.999Z</time></trkpt><trkpt lat="45.037214578141786" lon="9.574580286745158"><ele>68.66666666666667</ele><time>2026-04-22T12:29:13.999Z</time></trkpt><trkpt lat="45.03714495719885" lon="9.574656660807603"><ele>68.83333333333333</ele><time>2026-04-22T12:29:15.999Z</time></trkpt><trkpt lat="45.03707578892116" lon="9.574724654200264"><ele>69.0</ele><time>2026-04-22T12:29:17.999Z</time></trkpt><trkpt lat="45.03700637967989" lon="9.57480478635105"><ele>69.0</ele><time>2026-04-22T12:29:19.999Z</time></trkpt><trkpt lat="45.03692997368359" lon="9.574888143876755"><ele>69.0</ele><time>2026-04-22T12:29:21.999Z</time></trkpt><trkpt lat="45.036858244792704" lon="9.574963340811461"><ele>69.0</ele><time>2026-04-22T12:29:23.999Z</time></trkpt><trkpt lat="45.03678519890649" lon="9.575050612901753"><ele>69.0</ele><time>2026-04-22T12:29:25.999Z</time></trkpt><trkpt lat="45.03671446300503" lon="9.5751453035047"><ele>69.0</ele><time>2026-04-22T12:29:27.999Z</time></trkpt><trkpt lat="45.03664188448769" lon="9.575221025688046"><ele>69.5</ele><time>2026-04-22T12:29:29.999Z</time></trkpt><trkpt lat="45.036578971294894" lon="9.575268637113334"><ele>70.0</ele><time>2026-04-22T12:29:31.999Z</time></trkpt><trkpt lat="45.03650030333834" lon="9.575343087578165"><ele>70.5</ele><time>2026-04-22T12:29:33.999Z</time></trkpt><trkpt lat="45.036424828175285" lon="9.575379102234415"><ele>71.0</ele><time>2026-04-22T12:29:35.999Z</time></trkpt><trkpt lat="45.036387361147476" lon="9.575490139809334"><ele>71.5</ele><time>2026-04-22T12:29:36.999Z</time></trkpt><trkpt lat="45.03633465535347" lon="9.575551333734115"><ele>72.0</ele><time>2026-04-22T12:29:39Z</time></trkpt><trkpt lat="45.036251355469894" lon="9.57560268075169"><ele>72.16666666666667</ele><time>2026-04-22T12:29:41Z</time></trkpt><trkpt lat="45.03617487292066" lon="9.575666236925905"><ele>72.33333333333333</ele><time>2026-04-22T12:29:43Z</time></trkpt><trkpt lat="45.03610559891386" lon="9.57573220681022"><ele>72.5</ele><time>2026-04-22T12:29:45Z</time></trkpt><trkpt lat="45.03604149590205" lon="9.575724821534433"><ele>72.66666666666666</ele><time>2026-04-22T12:29:47Z</time></trkpt><trkpt lat="45.03596201499937" lon="9.575795160490074"><ele>72.83333333333333</ele><time>2026-04-22T12:29:49Z</time></trkpt><trkpt lat="45.035879039504024" lon="9.575880132761773"><ele>73.0</ele><time>2026-04-22T12:29:51Z</time></trkpt><trkpt lat="45.035797935632246" lon="9.57595853061547"><ele>72.5</ele><time>2026-04-22T12:29:53Z</time></trkpt><trkpt lat="45.03574672458951" lon="9.576014561300477"><ele>72.0</ele><time>2026-04-22T12:29:54Z</time></trkpt><trkpt lat="45.03567467285636" lon="9.576088821256"><ele>71.5</ele><time>2026-04-22T12:29:56Z</time></trkpt><trkpt lat="45.03559624804308" lon="9.576136677518654"><ele>71.0</ele><time>2026-04-22T12:29:58Z</time></trkpt><trkpt lat="45.03549927718901" lon="9.57618595920831"><ele>70.5</ele><time>2026-04-22T12:30:00Z</time></trkpt><trkpt lat="45.03541797699441" lon="9.576205299772317"><ele>70.0</ele><time>2026-04-22T12:30:02Z</time></trkpt><trkpt lat="45.03533244130995" lon="9.576237423687177"><ele>70.0</ele><time>2026-04-22T12:30:04Z</time></trkpt><trkpt lat="45.035242106394804" lon="9.5762711931793"><ele>70.0</ele><time>2026-04-22T12:30:06Z</time></trkpt><trkpt lat="45.0351535957067" lon="9.576314891418688"><ele>70.0</ele><time>2026-04-22T12:30:08Z</time></trkpt><trkpt lat="45.03506023453493" lon="9.576359775370518"><ele>70.0</ele><time>2026-04-22T12:30:10Z</time></trkpt><trkpt lat="45.03496424777684" lon="9.576416736622914"><ele>70.0</ele><time>2026-04-22T12:30:12Z</time></trkpt><trkpt lat="45.034870413212126" lon="9.576453018819162"><ele>70.4</ele><time>2026-04-22T12:30:14Z</time></trkpt><trkpt lat="45.03476989215909" lon="9.576500929203812"><ele>70.8</ele><time>2026-04-22T12:30:16Z</time></trkpt><trkpt lat="45.03466927722189" lon="9.576543679704631"><ele>71.2</ele><time>2026-04-22T12:30:18Z</time></trkpt><trkpt lat="45.034574604975155" lon="9.576580149035513"><ele>71.6</ele><time>2026-04-22T12:30:20Z</time></trkpt><trkpt lat="45.034471257737486" lon="9.57662078184632"><ele>72.0</ele><time>2026-04-22T12:30:22Z</time></trkpt><trkpt lat="45.03437616984598" lon="9.576653581601242"><ele>72.0</ele><time>2026-04-22T12:30:24Z</time></trkpt><trkpt lat="45.03431821554462" lon="9.576700185694362"><ele>72.0</ele><time>2026-04-22T12:30:25Z</time></trkpt><trkpt lat="45.03422439665323" lon="9.576743114375867"><ele>72.0</ele><time>2026-04-22T12:30:27Z</time></trkpt><trkpt lat="45.034130236184694" lon="9.576750663178437"><ele>72.0</ele><time>2026-04-22T12:30:29Z</time></trkpt><trkpt lat="45.03402675718583" lon="9.576802221966846"><ele>72.0</ele><time>2026-04-22T12:30:31Z</time></trkpt><trkpt lat="45.03393253860951" lon="9.576838589000488"><ele>71.6</ele><time>2026-04-22T12:30:33Z</time></trkpt><trkpt lat="45.03384301450059" lon="9.576857394668"><ele>71.2</ele><time>2026-04-22T12:30:35Z</time></trkpt><trkpt lat="45.033743008966134" lon="9.576896783179556"><ele>70.8</ele><time>2026-04-22T12:30:37Z</time></trkpt><trkpt lat="45.033651475823014" lon="9.576928479192711"><ele>70.4</ele><time>2026-04-22T12:30:39Z</time></trkpt><trkpt lat="45.03355396946045" lon="9.57696997858255"><ele>70.0</ele><time>2026-04-22T12:30:41Z</time></trkpt><trkpt lat="45.03344995375647" lon="9.577010760936053"><ele>70.0</ele><time>2026-04-22T12:30:43Z</time></trkpt><trkpt lat="45.03335747631434" lon="9.577041101544141"><ele>70.0</ele><time>2026-04-22T12:30:45Z</time></trkpt><trkpt lat="45.03326888026282" lon="9.577079354881572"><ele>70.0</ele><time>2026-04-22T12:30:47Z</time></trkpt><trkpt lat="45.033175215665324" lon="9.577121877476536"><ele>70.0</ele><time>2026-04-22T12:30:49Z</time></trkpt><trkpt lat="45.0330903057846" lon="9.577155855585332"><ele>70.0</ele><time>2026-04-22T12:30:51Z</time></trkpt><trkpt lat="45.03299162229685" lon="9.577222223378262"><ele>70.0</ele><time>2026-04-22T12:30:53Z</time></trkpt><trkpt lat="45.032902661523714" lon="9.57727647535833"><ele>70.0</ele><time>2026-04-22T12:30:54.999Z</time></trkpt><trkpt lat="45.03281527964903" lon="9.57732362164479"><ele>70.0</ele><time>2026-04-22T12:30:56.999Z</time></trkpt><trkpt lat="45.03273934972415" lon="9.577356476160576"><ele>70.0</ele><time>2026-04-22T12:30:58.999Z</time></trkpt><trkpt lat="45.03264532692936" lon="9.57741053527024"><ele>70.0</ele><time>2026-04-22T12:31:00.999Z</time></trkpt><trkpt lat="45.03256753123563" lon="9.57746564608135"><ele>70.0</ele><time>2026-04-22T12:31:02.999Z</time></trkpt><trkpt lat="45.03249036967718" lon="9.577529740809766"><ele>70.0</ele><time>2026-04-22T12:31:04.999Z</time></trkpt><trkpt lat="45.03244620183626" lon="9.577599730682929"><ele>70.0</ele><time>2026-04-22T12:31:06.999Z</time></trkpt><trkpt lat="45.03237654127324" lon="9.577656937559283"><ele>70.0</ele><time>2026-04-22T12:31:08.999Z</time></trkpt><trkpt lat="45.032320450675314" lon="9.577731968432538"><ele>70.0</ele><time>2026-04-22T12:31:10.999Z</time></trkpt><trkpt lat="45.03228945702258" lon="9.577852231748098"><ele>70.0</ele><time>2026-04-22T12:31:13.999Z</time></trkpt><trkpt lat="45.03228389280672" lon="9.57794712277231"><ele>70.0</ele><time>2026-04-22T12:31:15.999Z</time></trkpt><trkpt lat="45.032300617356256" lon="9.578073126437253"><ele>70.0</ele><time>2026-04-22T12:31:18.999Z</time></trkpt><trkpt lat="45.03228465860488" lon="9.578167285450375"><ele>70.0</ele><time>2026-04-22T12:31:21.999Z</time></trkpt><trkpt lat="45.0322938479042" lon="9.57826074634601"><ele>70.0</ele><time>2026-04-22T12:31:23.999Z</time></trkpt><trkpt lat="45.03224163815275" lon="9.578312058720304"><ele>70.0</ele><time>2026-04-22T12:31:27.999Z</time></trkpt><trkpt lat="45.032190904114906" lon="9.578388240719084"><ele>70.0</ele><time>2026-04-22T12:31:29.999Z</time></trkpt><trkpt lat="45.03218806680114" lon="9.57851561655169"><ele>70.0</ele><time>2026-04-22T12:31:31.999Z</time></trkpt><trkpt lat="45.03220756080525" lon="9.578638311255862"><ele>70.0</ele><time>2026-04-22T12:31:33.999Z</time></trkpt><trkpt lat="45.032227442611784" lon="9.578758388345397"><ele>70.0</ele><time>2026-04-22T12:31:35.999Z</time></trkpt><trkpt lat="45.03225678797912" lon="9.578877771473216"><ele>70.0</ele><time>2026-04-22T12:31:37.999Z</time></trkpt><trkpt lat="45.03227056005217" lon="9.5789890713468"><ele>70.0</ele><time>2026-04-22T12:31:39.999Z</time></trkpt><trkpt lat="45.03229569240205" lon="9.579071389531332"><ele>70.0</ele><time>2026-04-22T12:31:40.999Z</time></trkpt><trkpt lat="45.03232761749094" lon="9.579219131458164"><ele>69.83333333333333</ele><time>2026-04-22T12:31:42.999Z</time></trkpt><trkpt lat="45.03234631625695" lon="9.579363308668928"><ele>69.66666666666666</ele><time>2026-04-22T12:31:45Z</time></trkpt><trkpt lat="45.03238456436602" lon="9.579436596078349"><ele>69.5</ele><time>2026-04-22T12:31:46Z</time></trkpt><trkpt lat="45.032406973023186" lon="9.579563726799394"><ele>69.33333333333333</ele><time>2026-04-22T12:31:48Z</time></trkpt><trkpt lat="45.03244391069658" lon="9.579706212627098"><ele>69.16666666666667</ele><time>2026-04-22T12:31:50Z</time></trkpt><trkpt lat="45.0324659897196" lon="9.579817483729501"><ele>69.0</ele><time>2026-04-22T12:31:52Z</time></trkpt><trkpt lat="45.03251038421496" lon="9.579883628209828"><ele>68.8</ele><time>2026-04-22T12:31:53Z</time></trkpt><trkpt lat="45.032538827685784" lon="9.580015022656514"><ele>68.60000000000001</ele><time>2026-04-22T12:31:55Z</time></trkpt><trkpt lat="45.03256548374291" lon="9.580137905813746"><ele>68.4</ele><time>2026-04-22T12:31:57Z</time></trkpt><trkpt lat="45.0325609797913" lon="9.580276688816246"><ele>68.2</ele><time>2026-04-22T12:31:59Z</time></trkpt><trkpt lat="45.03259162900181" lon="9.580405939628507"><ele>68.0</ele><time>2026-04-22T12:32:01Z</time></trkpt><trkpt lat="45.03261891119023" lon="9.580512330409912"><ele>67.8</ele><time>2026-04-22T12:32:03Z</time></trkpt><trkpt lat="45.03264197230481" lon="9.580635487145054"><ele>67.6</ele><time>2026-04-22T12:32:05Z</time></trkpt><trkpt lat="45.03267283657433" lon="9.58075350497533"><ele>67.4</ele><time>2026-04-22T12:32:07Z</time></trkpt><trkpt lat="45.032701000064456" lon="9.580873867297617"><ele>67.2</ele><time>2026-04-22T12:32:09Z</time></trkpt><trkpt lat="45.032729431676856" lon="9.58099894900215"><ele>67.0</ele><time>2026-04-22T12:32:11Z</time></trkpt><trkpt lat="45.032756428148126" lon="9.58113632111518"><ele>67.2</ele><time>2026-04-22T12:32:13Z</time></trkpt><trkpt lat="45.03277909153868" lon="9.581261086420165"><ele>67.4</ele><time>2026-04-22T12:32:15Z</time></trkpt><trkpt lat="45.03281357395279" lon="9.581394598065362"><ele>67.6</ele><time>2026-04-22T12:32:17Z</time></trkpt><trkpt lat="45.032838647755" lon="9.581518497421197"><ele>67.8</ele><time>2026-04-22T12:32:19Z</time></trkpt><trkpt lat="45.032870103842626" lon="9.581637250155808"><ele>68.0</ele><time>2026-04-22T12:32:21Z</time></trkpt><trkpt lat="45.032892342757194" lon="9.581770768498064"><ele>68.0</ele><time>2026-04-22T12:32:23Z</time></trkpt><trkpt lat="45.03292445971033" lon="9.581892800422127"><ele>68.0</ele><time>2026-04-22T12:32:25Z</time></trkpt><trkpt lat="45.03295008562009" lon="9.582011796535859"><ele>68.0</ele><time>2026-04-22T12:32:27Z</time></trkpt><trkpt lat="45.03298000625586" lon="9.582133315742071"><ele>68.0</ele><time>2026-04-22T12:32:29Z</time></trkpt><trkpt lat="45.033008011217234" lon="9.58225973318259"><ele>68.0</ele><time>2026-04-22T12:32:31Z</time></trkpt><trkpt lat="45.03303700396908" lon="9.582376861525939"><ele>68.0</ele><time>2026-04-22T12:32:33Z</time></trkpt><trkpt lat="45.033062473320705" lon="9.58249433208982"><ele>68.0</ele><time>2026-04-22T12:32:35Z</time></trkpt><trkpt lat="45.033078986978886" lon="9.58262783661769"><ele>68.0</ele><time>2026-04-22T12:32:37Z</time></trkpt><trkpt lat="45.033096539972426" lon="9.582769109636423"><ele>68.0</ele><time>2026-04-22T12:32:39Z</time></trkpt><trkpt lat="45.033115540737064" lon="9.582891807446194"><ele>68.0</ele><time>2026-04-22T12:32:41Z</time></trkpt><trkpt lat="45.03313264157633" lon="9.583040755868183"><ele>68.16666666666667</ele><time>2026-04-22T12:32:43Z</time></trkpt><trkpt lat="45.033157297003186" lon="9.58315639627743"><ele>68.33333333333334</ele><time>2026-04-22T12:32:45Z</time></trkpt><trkpt lat="45.03317728289025" lon="9.58326820178891"><ele>68.5</ele><time>2026-04-22T12:32:47Z</time></trkpt><trkpt lat="45.033205549022966" lon="9.583379552764802"><ele>68.66666666666667</ele><time>2026-04-22T12:32:49Z</time></trkpt><trkpt lat="45.033216548750936" lon="9.583478788974018"><ele>68.83333333333333</ele><time>2026-04-22T12:32:51Z</time></trkpt><trkpt lat="45.03323017334792" lon="9.583590592501245"><ele>69.0</ele><time>2026-04-22T12:32:53Z</time></trkpt><trkpt lat="45.03322131232392" lon="9.583693495106315"><ele>69.0</ele><time>2026-04-22T12:32:55Z</time></trkpt><trkpt lat="45.033176510145644" lon="9.583825796520767"><ele>69.0</ele><time>2026-04-22T12:32:57Z</time></trkpt><trkpt lat="45.033170121452834" lon="9.583947844937562"><ele>69.0</ele><time>2026-04-22T12:32:59Z</time></trkpt><trkpt lat="45.03319415281414" lon="9.584090138477679"><ele>69.0</ele><time>2026-04-22T12:33:00.999Z</time></trkpt><trkpt lat="45.033249199014485" lon="9.584202467478988"><ele>69.0</ele><time>2026-04-22T12:33:02.999Z</time></trkpt><trkpt lat="45.0333109780303" lon="9.584309101779896"><ele>69.0</ele><time>2026-04-22T12:33:04.999Z</time></trkpt><trkpt lat="45.03335779448933" lon="9.584407255153154"><ele>69.0</ele><time>2026-04-22T12:33:06.999Z</time></trkpt><trkpt lat="45.033381634337076" lon="9.584515068587278"><ele>69.0</ele><time>2026-04-22T12:33:08.999Z</time></trkpt><trkpt lat="45.03341029948756" lon="9.5846299986402"><ele>69.0</ele><time>2026-04-22T12:33:10.999Z</time></trkpt><trkpt lat="45.033434585055026" lon="9.584746362436038"><ele>69.0</ele><time>2026-04-22T12:33:12.999Z</time></trkpt><trkpt lat="45.0334697053789" lon="9.584875321366791"><ele>69.0</ele><time>2026-04-22T12:33:14.999Z</time></trkpt><trkpt lat="45.033508111736346" lon="9.584993384096899"><ele>69.0</ele><time>2026-04-22T12:33:16.999Z</time></trkpt><trkpt lat="45.03354211077277" lon="9.585114506650788"><ele>69.0</ele><time>2026-04-22T12:33:18.999Z</time></trkpt><trkpt lat="45.03358888489134" lon="9.585239769698559"><ele>69.0</ele><time>2026-04-22T12:33:20.999Z</time></trkpt><trkpt lat="45.03362664777287" lon="9.58538631536043"><ele>69.0</ele><time>2026-04-22T12:33:22.999Z</time></trkpt><trkpt lat="45.033675706467086" lon="9.585497711766832"><ele>69.0</ele><time>2026-04-22T12:33:24.999Z</time></trkpt><trkpt lat="45.03372947338197" lon="9.585600103893853"><ele>68.8</ele><time>2026-04-22T12:33:26.999Z</time></trkpt><trkpt lat="45.033777880263216" lon="9.585710107308847"><ele>68.60000000000001</ele><time>2026-04-22T12:33:28.999Z</time></trkpt><trkpt lat="45.03382933906573" lon="9.58582180373955"><ele>68.4</ele><time>2026-04-22T12:33:30.999Z</time></trkpt><trkpt lat="45.03387850601237" lon="9.58592512043034"><ele>68.2</ele><time>2026-04-22T12:33:32.999Z</time></trkpt><trkpt lat="45.033932853651386" lon="9.58603225191733"><ele>68.0</ele><time>2026-04-22T12:33:34.999Z</time></trkpt><trkpt lat="45.033978331608886" lon="9.58613940088827"><ele>67.8</ele><time>2026-04-22T12:33:36.999Z</time></trkpt><trkpt lat="45.03402939579316" lon="9.58625505088965"><ele>67.6</ele><time>2026-04-22T12:33:38.999Z</time></trkpt><trkpt lat="45.03407436970005" lon="9.586374370360934"><ele>67.4</ele><time>2026-04-22T12:33:40.999Z</time></trkpt><trkpt lat="45.03412416755826" lon="9.586484099097914"><ele>67.2</ele><time>2026-04-22T12:33:42.999Z</time></trkpt><trkpt lat="45.03417805494157" lon="9.586601182308474"><ele>67.0</ele><time>2026-04-22T12:33:44.999Z</time></trkpt><trkpt lat="45.03422549362394" lon="9.586719208092543"><ele>67.0</ele><time>2026-04-22T12:33:46.999Z</time></trkpt><trkpt lat="45.03426762308249" lon="9.586833233631886"><ele>67.0</ele><time>2026-04-22T12:33:48.999Z</time></trkpt><trkpt lat="45.034288794269166" lon="9.58695360379823"><ele>67.0</ele><time>2026-04-22T12:33:51Z</time></trkpt><trkpt lat="45.034299552140915" lon="9.58708747973599"><ele>67.0</ele><time>2026-04-22T12:33:53Z</time></trkpt><trkpt lat="45.034304151308575" lon="9.587219777195072"><ele>67.0</ele><time>2026-04-22T12:33:55Z</time></trkpt><trkpt lat="45.034306554072636" lon="9.587357697533248"><ele>67.2</ele><time>2026-04-22T12:33:57Z</time></trkpt><trkpt lat="45.03429348224622" lon="9.587469949942204"><ele>67.4</ele><time>2026-04-22T12:33:59Z</time></trkpt><trkpt lat="45.03426335087994" lon="9.587625716615424"><ele>67.6</ele><time>2026-04-22T12:34:01Z</time></trkpt><trkpt lat="45.034234883015955" lon="9.587733982512244"><ele>67.8</ele><time>2026-04-22T12:34:03Z</time></trkpt><trkpt lat="45.03419725969676" lon="9.587841725515098"><ele>68.0</ele><time>2026-04-22T12:34:05Z</time></trkpt><trkpt lat="45.034143398063534" lon="9.587969694184364"><ele>67.8</ele><time>2026-04-22T12:34:07Z</time></trkpt><trkpt lat="45.0340912734936" lon="9.588073101332748"><ele>67.6</ele><time>2026-04-22T12:34:09Z</time></trkpt><trkpt lat="45.034023765306195" lon="9.588174157204364"><ele>67.4</ele><time>2026-04-22T12:34:11Z</time></trkpt><trkpt lat="45.03395335028355" lon="9.588268469949917"><ele>67.2</ele><time>2026-04-22T12:34:13Z</time></trkpt><trkpt lat="45.03387706180918" lon="9.588346869596936"><ele>67.0</ele><time>2026-04-22T12:34:15Z</time></trkpt><trkpt lat="45.03380346545748" lon="9.588422816665735"><ele>67.0</ele><time>2026-04-22T12:34:17Z</time></trkpt><trkpt lat="45.033737525296836" lon="9.588500641257859"><ele>67.0</ele><time>2026-04-22T12:34:19Z</time></trkpt><trkpt lat="45.03365811587679" lon="9.588587620508843"><ele>67.0</ele><time>2026-04-22T12:34:21Z</time></trkpt><trkpt lat="45.033585317351644" lon="9.588668124684894"><ele>67.0</ele><time>2026-04-22T12:34:23Z</time></trkpt><trkpt lat="45.033508184340164" lon="9.588749681930246"><ele>67.0</ele><time>2026-04-22T12:34:25Z</time></trkpt><trkpt lat="45.03342900266276" lon="9.588830322818099"><ele>67.0</ele><time>2026-04-22T12:34:27Z</time></trkpt><trkpt lat="45.03335297546675" lon="9.588898473874206"><ele>67.0</ele><time>2026-04-22T12:34:29Z</time></trkpt><trkpt lat="45.033275368311294" lon="9.588991517597814"><ele>67.0</ele><time>2026-04-22T12:34:31Z</time></trkpt><trkpt lat="45.03320003385848" lon="9.589078822174802"><ele>67.0</ele><time>2026-04-22T12:34:33Z</time></trkpt><trkpt lat="45.03312906933602" lon="9.589166325624387"><ele>67.0</ele><time>2026-04-22T12:34:35Z</time></trkpt><trkpt lat="45.03305921945767" lon="9.589265730966414"><ele>67.0</ele><time>2026-04-22T12:34:37Z</time></trkpt><trkpt lat="45.03299257814572" lon="9.58935396473645"><ele>67.0</ele><time>2026-04-22T12:34:39Z</time></trkpt><trkpt lat="45.032931776876154" lon="9.589432645152979"><ele>67.0</ele><time>2026-04-22T12:34:41Z</time></trkpt><trkpt lat="45.032866622206974" lon="9.589526270759333"><ele>67.0</ele><time>2026-04-22T12:34:43Z</time></trkpt><trkpt lat="45.03279600100536" lon="9.589628550962903"><ele>67.0</ele><time>2026-04-22T12:34:45Z</time></trkpt><trkpt lat="45.03272916162425" lon="9.58973615371798"><ele>67.2</ele><time>2026-04-22T12:34:47Z</time></trkpt><trkpt lat="45.032662274019806" lon="9.58983582148373"><ele>67.4</ele><time>2026-04-22T12:34:49Z</time></trkpt><trkpt lat="45.03259888248618" lon="9.589934272334299"><ele>67.6</ele><time>2026-04-22T12:34:51Z</time></trkpt><trkpt lat="45.0325333542324" lon="9.590039833647777"><ele>67.8</ele><time>2026-04-22T12:34:53Z</time></trkpt><trkpt lat="45.03247656388266" lon="9.590132471026768"><ele>68.0</ele><time>2026-04-22T12:34:55Z</time></trkpt><trkpt lat="45.032414102150526" lon="9.590248568314909"><ele>68.0</ele><time>2026-04-22T12:34:56.999Z</time></trkpt><trkpt lat="45.03235817976287" lon="9.59035183549929"><ele>68.0</ele><time>2026-04-22T12:34:58.999Z</time></trkpt><trkpt lat="45.032298822977005" lon="9.590459328493647"><ele>68.0</ele><time>2026-04-22T12:35:00.999Z</time></trkpt><trkpt lat="45.03224550550121" lon="9.590564356959769"><ele>68.0</ele><time>2026-04-22T12:35:02.999Z</time></trkpt><trkpt lat="45.032194920943816" lon="9.590680767621297"><ele>68.0</ele><time>2026-04-22T12:35:04.999Z</time></trkpt><trkpt lat="45.032137749022844" lon="9.590776782300422"><ele>68.0</ele><time>2026-04-22T12:35:06.999Z</time></trkpt><trkpt lat="45.03209538480541" lon="9.59087442765345"><ele>68.0</ele><time>2026-04-22T12:35:08.999Z</time></trkpt><trkpt lat="45.03204884718798" lon="9.590987760885767"><ele>68.0</ele><time>2026-04-22T12:35:10.999Z</time></trkpt><trkpt lat="45.03201292864106" lon="9.591094326023546"><ele>68.0</ele><time>2026-04-22T12:35:12.999Z</time></trkpt><trkpt lat="45.03197112254495" lon="9.591192447239239"><ele>68.0</ele><time>2026-04-22T12:35:14.999Z</time></trkpt><trkpt lat="45.031930982481754" lon="9.591293707637302"><ele>68.0</ele><time>2026-04-22T12:35:16.999Z</time></trkpt><trkpt lat="45.03190056333749" lon="9.591394906703247"><ele>67.66666666666667</ele><time>2026-04-22T12:35:18.999Z</time></trkpt><trkpt lat="45.03186336831727" lon="9.591498444889861"><ele>67.33333333333334</ele><time>2026-04-22T12:35:20.999Z</time></trkpt><trkpt lat="45.03182006600107" lon="9.591590442269304"><ele>67.0</ele><time>2026-04-22T12:35:24.999Z</time></trkpt><trkpt lat="45.03178307019496" lon="9.591689085962246"><ele>66.66666666666667</ele><time>2026-04-22T12:35:25.999Z</time></trkpt><trkpt lat="45.03176501767123" lon="9.591777298416572"><ele>66.33333333333333</ele><time>2026-04-22T12:35:27.999Z</time></trkpt><trkpt lat="45.03172236264921" lon="9.591920510388556"><ele>66.0</ele><time>2026-04-22T12:35:31.999Z</time></trkpt><trkpt lat="45.031676544441666" lon="9.591994805988891"><ele>66.2</ele><time>2026-04-22T12:35:35.999Z</time></trkpt><trkpt lat="45.03161375089597" lon="9.592137311553824"><ele>66.39999999999999</ele><time>2026-04-22T12:35:37.999Z</time></trkpt><trkpt lat="45.031587421874654" lon="9.592223345147582"><ele>66.6</ele><time>2026-04-22T12:35:38.999Z</time></trkpt><trkpt lat="45.03154628177502" lon="9.592342824412487"><ele>66.8</ele><time>2026-04-22T12:35:40.999Z</time></trkpt><trkpt lat="45.03166321090553" lon="9.592485688759503"><ele>67.0</ele><time>2026-04-22T12:35:41.999Z</time></trkpt><trkpt lat="45.03147263036754" lon="9.592539849669484"><ele>67.0</ele><time>2026-04-22T12:35:43.999Z</time></trkpt><trkpt lat="45.03139388698007" lon="9.592627979099229"><ele>67.0</ele><time>2026-04-22T12:35:45.999Z</time></trkpt><trkpt lat="45.031289701978146" lon="9.59267661963546"><ele>67.0</ele><time>2026-04-22T12:35:47.999Z</time></trkpt><trkpt lat="45.031277886699186" lon="9.592843993346088"><ele>67.0</ele><time>2026-04-22T12:35:49.999Z</time></trkpt><trkpt lat="45.03128835119176" lon="9.592932107203364"><ele>67.0</ele><time>2026-04-22T12:35:50.999Z</time></trkpt><trkpt lat="45.03129153954182" lon="9.593070456981742"><ele>67.0</ele><time>2026-04-22T12:35:52.999Z</time></trkpt><trkpt lat="45.03128394022983" lon="9.593162229400475"><ele>67.0</ele><time>2026-04-22T12:35:53.999Z</time></trkpt><trkpt lat="45.031289234602994" lon="9.593299463274512"><ele>67.0</ele><time>2026-04-22T12:35:56Z</time></trkpt><trkpt lat="45.03127643187999" lon="9.593451073490312"><ele>67.0</ele><time>2026-04-22T12:35:58Z</time></trkpt><trkpt lat="45.031257098423715" lon="9.593590717967782"><ele>67.0</ele><time>2026-04-22T12:36:00Z</time></trkpt><trkpt lat="45.03122778062896" lon="9.593735910417582"><ele>67.0</ele><time>2026-04-22T12:36:02Z</time></trkpt><trkpt lat="45.031203741196016" lon="9.593876218423164"><ele>67.0</ele><time>2026-04-22T12:36:04Z</time></trkpt><trkpt lat="45.03118752652394" lon="9.594007683122996"><ele>67.0</ele><time>2026-04-22T12:36:06Z</time></trkpt><trkpt lat="45.031171938786706" lon="9.59413673618671"><ele>67.0</ele><time>2026-04-22T12:36:08Z</time></trkpt><trkpt lat="45.031148881305974" lon="9.594262137909137"><ele>67.0</ele><time>2026-04-22T12:36:10Z</time></trkpt><trkpt lat="45.031156683263916" lon="9.594406306228903"><ele>67.2</ele><time>2026-04-22T12:36:12Z</time></trkpt><trkpt lat="45.031141490878404" lon="9.594542960753524"><ele>67.4</ele><time>2026-04-22T12:36:14Z</time></trkpt><trkpt lat="45.031117443232894" lon="9.594672323313855"><ele>67.6</ele><time>2026-04-22T12:36:16Z</time></trkpt><trkpt lat="45.03111015473774" lon="9.594796322716252"><ele>67.8</ele><time>2026-04-22T12:36:18Z</time></trkpt><trkpt lat="45.031097300417514" lon="9.594927206163133"><ele>68.0</ele><time>2026-04-22T12:36:20Z</time></trkpt><trkpt lat="45.03108762377281" lon="9.595060262186351"><ele>68.0</ele><time>2026-04-22T12:36:22Z</time></trkpt><trkpt lat="45.031083556640965" lon="9.595192764367562"><ele>68.0</ele><time>2026-04-22T12:36:24Z</time></trkpt><trkpt lat="45.03107612135961" lon="9.595312879669889"><ele>68.0</ele><time>2026-04-22T12:36:26Z</time></trkpt><trkpt lat="45.03106678401542" lon="9.59542817116518"><ele>68.0</ele><time>2026-04-22T12:36:28Z</time></trkpt><trkpt lat="45.03106173946886" lon="9.595574632585794"><ele>68.0</ele><time>2026-04-22T12:36:30Z</time></trkpt><trkpt lat="45.03105674965295" lon="9.59572086776017"><ele>68.0</ele><time>2026-04-22T12:36:32Z</time></trkpt><trkpt lat="45.0310499834137" lon="9.595879988757481"><ele>68.0</ele><time>2026-04-22T12:36:34Z</time></trkpt><trkpt lat="45.0310512013925" lon="9.596031389513414"><ele>68.0</ele><time>2026-04-22T12:36:36Z</time></trkpt><trkpt lat="45.031051561917366" lon="9.596181279518849"><ele>68.0</ele><time>2026-04-22T12:36:38Z</time></trkpt><trkpt lat="45.03105138965525" lon="9.596273122521099"><ele>68.0</ele><time>2026-04-22T12:36:39Z</time></trkpt><trkpt lat="45.03105031655783" lon="9.596419347433297"><ele>67.4</ele><time>2026-04-22T12:36:41Z</time></trkpt><trkpt lat="45.031072644326045" lon="9.596551830201426"><ele>66.8</ele><time>2026-04-22T12:36:43Z</time></trkpt><trkpt lat="45.03114600250754" lon="9.59664366258147"><ele>66.2</ele><time>2026-04-22T12:36:44.999Z</time></trkpt><trkpt lat="45.03121851615233" lon="9.596718640539203"><ele>65.6</ele><time>2026-04-22T12:36:46.999Z</time></trkpt><trkpt lat="45.03129741264833" lon="9.596808057870817"><ele>65.0</ele><time>2026-04-22T12:36:48.999Z</time></trkpt><trkpt lat="45.031380830106066" lon="9.59688921870996"><ele>65.0</ele><time>2026-04-22T12:36:50.999Z</time></trkpt><trkpt lat="45.03146698159856" lon="9.596975165992472"><ele>65.0</ele><time>2026-04-22T12:36:52.999Z</time></trkpt><trkpt lat="45.03145910747585" lon="9.597139513200787"><ele>65.0</ele><time>2026-04-22T12:36:53.999Z</time></trkpt><trkpt lat="45.03153674389426" lon="9.597203285266659"><ele>65.0</ele><time>2026-04-22T12:36:55.999Z</time></trkpt><trkpt lat="45.03159606550958" lon="9.597253079974719"><ele>65.0</ele><time>2026-04-22T12:36:57.999Z</time></trkpt><trkpt lat="45.03177440054321" lon="9.596921697005468"><ele>65.16666666666667</ele><time>2026-04-22T12:37:03.999Z</time></trkpt><trkpt lat="45.03173687903116" lon="9.59683299200118"><ele>65.33333333333334</ele><time>2026-04-22T12:37:05.999Z</time></trkpt><trkpt lat="45.031720573491505" lon="9.596714961382805"><ele>65.5</ele><time>2026-04-22T12:37:07.999Z</time></trkpt><trkpt lat="45.0317004247741" lon="9.596610428202897"><ele>65.66666666666667</ele><time>2026-04-22T12:37:09.999Z</time></trkpt><trkpt lat="45.03167171902419" lon="9.596493880410923"><ele>65.83333333333333</ele><time>2026-04-22T12:37:11.999Z</time></trkpt><trkpt lat="45.031665938389" lon="9.596378966506153"><ele>66.0</ele><time>2026-04-22T12:37:13.999Z</time></trkpt><trkpt lat="45.03164567446658" lon="9.596268530410812"><ele>65.83333333333333</ele><time>2026-04-22T12:37:15.999Z</time></trkpt><trkpt lat="45.03164554201589" lon="9.596136783057936"><ele>65.66666666666667</ele><time>2026-04-22T12:37:17.999Z</time></trkpt><trkpt lat="45.03161063135502" lon="9.596032798473797"><ele>65.5</ele><time>2026-04-22T12:37:19.999Z</time></trkpt><trkpt lat="45.031545557344096" lon="9.595973005711775"><ele>65.33333333333334</ele><time>2026-04-22T12:37:21.999Z</time></trkpt><trkpt lat="45.0314701015493" lon="9.596005241306896"><ele>65.16666666666667</ele><time>2026-04-22T12:37:23.999Z</time></trkpt><trkpt lat="45.03147406069153" lon="9.596110111264574"><ele>65.0</ele><time>2026-04-22T12:37:25.999Z</time></trkpt><trkpt lat="45.03147312654065" lon="9.596239334706173"><ele>65.0</ele><time>2026-04-22T12:37:27.999Z</time></trkpt><trkpt lat="45.031439013783555" lon="9.596348454284248"><ele>65.0</ele><time>2026-04-22T12:37:29.999Z</time></trkpt><trkpt lat="45.03137963919104" lon="9.596436997814404"><ele>65.0</ele><time>2026-04-22T12:37:31.999Z</time></trkpt><trkpt lat="45.03134399597668" lon="9.596536629875214"><ele>65.0</ele><time>2026-04-22T12:37:33.999Z</time></trkpt><trkpt lat="45.03131241922005" lon="9.596654929912367"><ele>65.0</ele><time>2026-04-22T12:37:36.999Z</time></trkpt><trkpt lat="45.03128358513098" lon="9.596782121017675"><ele>65.0</ele><time>2026-04-22T12:37:38.999Z</time></trkpt><trkpt lat="45.0312756963439" lon="9.59692191887254"><ele>64.4</ele><time>2026-04-22T12:37:40.999Z</time></trkpt><trkpt lat="45.03127097865062" lon="9.597050272503377"><ele>63.8</ele><time>2026-04-22T12:37:42.999Z</time></trkpt><trkpt lat="45.03126589103268" lon="9.597227897546583"><ele>63.2</ele><time>2026-04-22T12:37:44.999Z</time></trkpt><trkpt lat="45.03123040693143" lon="9.597304523073932"><ele>62.6</ele><time>2026-04-22T12:37:46.999Z</time></trkpt><trkpt lat="45.03127672308839" lon="9.597435371749087"><ele>62.0</ele><time>2026-04-22T12:37:49.999Z</time></trkpt><trkpt lat="45.03127052154977" lon="9.597548068175225"><ele>62.0</ele><time>2026-04-22T12:37:51.999Z</time></trkpt><trkpt lat="45.0312817109196" lon="9.597720757948714"><ele>62.0</ele><time>2026-04-22T12:37:53.999Z</time></trkpt><trkpt lat="45.03136307313505" lon="9.597988442834312"><ele>62.0</ele><time>2026-04-22T12:37:54.999Z</time></trkpt><trkpt lat="45.03132602278745" lon="9.598137984452048"><ele>62.0</ele><time>2026-04-22T12:37:56.999Z</time></trkpt><trkpt lat="45.03131131200902" lon="9.59831281323145"><ele>62.0</ele><time>2026-04-22T12:37:58.999Z</time></trkpt><trkpt lat="45.031293668607255" lon="9.598434631257739"><ele>62.0</ele><time>2026-04-22T12:38:00.999Z</time></trkpt><trkpt lat="45.03130183166432" lon="9.59858083248199"><ele>62.0</ele><time>2026-04-22T12:38:03Z</time></trkpt><trkpt lat="45.03125700872969" lon="9.598761096824767"><ele>62.0</ele><time>2026-04-22T12:38:05Z</time></trkpt><trkpt lat="45.03125469713177" lon="9.598854185868424"><ele>62.0</ele><time>2026-04-22T12:38:06Z</time></trkpt><trkpt lat="45.03131218094653" lon="9.598996034663093"><ele>62.2</ele><time>2026-04-22T12:38:08Z</time></trkpt><trkpt lat="45.03130924212608" lon="9.599128080666194"><ele>62.400000000000006</ele><time>2026-04-22T12:38:10Z</time></trkpt><trkpt lat="45.031375392308284" lon="9.599268903392888"><ele>62.599999999999994</ele><time>2026-04-22T12:38:12Z</time></trkpt><trkpt lat="45.03133783428736" lon="9.599400609384347"><ele>62.8</ele><time>2026-04-22T12:38:14Z</time></trkpt><trkpt lat="45.0313227959164" lon="9.59954012575897"><ele>63.0</ele><time>2026-04-22T12:38:16Z</time></trkpt><trkpt lat="45.03132711876771" lon="9.599696320459554"><ele>63.2</ele><time>2026-04-22T12:38:18Z</time></trkpt><trkpt lat="45.0313373220897" lon="9.599785881624133"><ele>63.4</ele><time>2026-04-22T12:38:19Z</time></trkpt><trkpt lat="45.031338558814745" lon="9.599957807086048"><ele>63.60000000000001</ele><time>2026-04-22T12:38:21Z</time></trkpt><trkpt lat="45.031316236269284" lon="9.600122784020071"><ele>63.800000000000004</ele><time>2026-04-22T12:38:23Z</time></trkpt><trkpt lat="45.0313263203645" lon="9.600322762614892"><ele>64.0</ele><time>2026-04-22T12:38:25Z</time></trkpt><trkpt lat="45.03138858332876" lon="9.6003657581277"><ele>64.2</ele><time>2026-04-22T12:38:26Z</time></trkpt><trkpt lat="45.03132294256991" lon="9.600428935498046"><ele>64.4</ele><time>2026-04-22T12:38:27Z</time></trkpt><trkpt lat="45.03132366800312" lon="9.60058070896445"><ele>64.6</ele><time>2026-04-22T12:38:29Z</time></trkpt><trkpt lat="45.031324806995485" lon="9.600819007727825"><ele>64.8</ele><time>2026-04-22T12:38:31Z</time></trkpt><trkpt lat="45.031325244344586" lon="9.600910509722912"><ele>65.0</ele><time>2026-04-22T12:38:34Z</time></trkpt><trkpt lat="45.03132596281555" lon="9.601060826128847"><ele>65.0</ele><time>2026-04-22T12:38:36Z</time></trkpt><trkpt lat="45.03134141072181" lon="9.601166760175468"><ele>65.0</ele><time>2026-04-22T12:38:38Z</time></trkpt><trkpt lat="45.03133674021746" lon="9.60130777155295"><ele>65.0</ele><time>2026-04-22T12:38:40Z</time></trkpt><trkpt lat="45.03131188075308" lon="9.601420745205127"><ele>65.0</ele><time>2026-04-22T12:38:42Z</time></trkpt><trkpt lat="45.03131602516539" lon="9.601524195406634"><ele>65.0</ele><time>2026-04-22T12:38:44Z</time></trkpt><trkpt lat="45.03127959089691" lon="9.601658593031638"><ele>65.0</ele><time>2026-04-22T12:38:45Z</time></trkpt><trkpt lat="45.03128680022373" lon="9.601761169500955"><ele>65.0</ele><time>2026-04-22T12:38:46Z</time></trkpt><trkpt lat="45.031287184936275" lon="9.601880225133026"><ele>65.0</ele><time>2026-04-22T12:38:47Z</time></trkpt><trkpt lat="45.03128773673803" lon="9.602085160689368"><ele>65.0</ele><time>2026-04-22T12:38:49Z</time></trkpt><trkpt lat="45.03128798143698" lon="9.602187179908848"><ele>65.0</ele><time>2026-04-22T12:38:51Z</time></trkpt><trkpt lat="45.03128828121543" lon="9.602276836992727"><ele>65.0</ele><time>2026-04-22T12:38:52Z</time></trkpt><trkpt lat="45.03128869293644" lon="9.60239998218587"><ele>65.25</ele><time>2026-04-22T12:38:54Z</time></trkpt><trkpt lat="45.03126196419536" lon="9.602571026374388"><ele>65.5</ele><time>2026-04-22T12:38:56Z</time></trkpt><trkpt lat="45.03128988673548" lon="9.602757032822542"><ele>65.75</ele><time>2026-04-22T12:38:58Z</time></trkpt><trkpt lat="45.031298067773065" lon="9.602896208323175"><ele>66.0</ele><time>2026-04-22T12:39:00Z</time></trkpt><trkpt lat="45.03131803947011" lon="9.603057037575216"><ele>66.0</ele><time>2026-04-22T12:39:02Z</time></trkpt><trkpt lat="45.031336694277655" lon="9.603265561574647"><ele>66.0</ele><time>2026-04-22T12:39:03.999Z</time></trkpt><trkpt lat="45.03133358713636" lon="9.603380134615108"><ele>66.0</ele><time>2026-04-22T12:39:04.999Z</time></trkpt><trkpt lat="45.031334283395516" lon="9.603588378602197"><ele>66.0</ele><time>2026-04-22T12:39:06.999Z</time></trkpt><trkpt lat="45.03129306676591" lon="9.603708145253547"><ele>66.2</ele><time>2026-04-22T12:39:09.999Z</time></trkpt><trkpt lat="45.031283073190885" lon="9.603817885918403"><ele>66.39999999999999</ele><time>2026-04-22T12:39:11.999Z</time></trkpt><trkpt lat="45.03129039976494" lon="9.603916695932144"><ele>66.6</ele><time>2026-04-22T12:39:13.999Z</time></trkpt><trkpt lat="45.031281994082526" lon="9.604066797341794"><ele>66.8</ele><time>2026-04-22T12:39:15.999Z</time></trkpt><trkpt lat="45.031288732780716" lon="9.604251111389328"><ele>67.0</ele><time>2026-04-22T12:39:17.999Z</time></trkpt><trkpt lat="45.03129558668936" lon="9.604385639442587"><ele>67.0</ele><time>2026-04-22T12:39:20.999Z</time></trkpt><trkpt lat="45.031296153477996" lon="9.604517580507034"><ele>67.0</ele><time>2026-04-22T12:39:22.999Z</time></trkpt><trkpt lat="45.03129660709217" lon="9.604623174855854"><ele>67.0</ele><time>2026-04-22T12:39:24.999Z</time></trkpt><trkpt lat="45.03129710543357" lon="9.604739181089624"><ele>67.0</ele><time>2026-04-22T12:39:25.999Z</time></trkpt><trkpt lat="45.031340021865105" lon="9.6050100772698"><ele>67.0</ele><time>2026-04-22T12:39:29.999Z</time></trkpt><trkpt lat="45.03134033912645" lon="9.605175089065117"><ele>67.0</ele><time>2026-04-22T12:39:31.999Z</time></trkpt><trkpt lat="45.03134059935102" lon="9.605310434369553"><ele>67.0</ele><time>2026-04-22T12:39:33.999Z</time></trkpt><trkpt lat="45.03134092660467" lon="9.605471508931068"><ele>67.0</ele><time>2026-04-22T12:39:35.999Z</time></trkpt><trkpt lat="45.031341288691834" lon="9.605640735100083"><ele>67.0</ele><time>2026-04-22T12:39:37.999Z</time></trkpt><trkpt lat="45.03134148376195" lon="9.605731904337704"><ele>67.0</ele><time>2026-04-22T12:39:38.999Z</time></trkpt><trkpt lat="45.031341688421335" lon="9.60582755617741"><ele>67.2</ele><time>2026-04-22T12:39:39.999Z</time></trkpt><trkpt lat="45.03134192519897" lon="9.60593821584967"><ele>67.4</ele><time>2026-04-22T12:39:40.999Z</time></trkpt><trkpt lat="45.03134223323976" lon="9.606082186306399"><ele>67.6</ele><time>2026-04-22T12:39:42.999Z</time></trkpt><trkpt lat="45.03134260213515" lon="9.606254590585053"><ele>67.8</ele><time>2026-04-22T12:39:44.999Z</time></trkpt><trkpt lat="45.03134302159401" lon="9.606360365379675"><ele>68.0</ele><time>2026-04-22T12:39:45.999Z</time></trkpt><trkpt lat="45.03137391738937" lon="9.606513825656364"><ele>67.75</ele><time>2026-04-22T12:39:47.999Z</time></trkpt><trkpt lat="45.03139554418016" lon="9.606703447046097"><ele>67.5</ele><time>2026-04-22T12:39:49.999Z</time></trkpt><trkpt lat="45.0313750427041" lon="9.606882163212733"><ele>67.25</ele><time>2026-04-22T12:39:51.999Z</time></trkpt><trkpt lat="45.03138250576642" lon="9.607062581153082"><ele>67.0</ele><time>2026-04-22T12:39:53.999Z</time></trkpt><trkpt lat="45.03138829037275" lon="9.607165354881712"><ele>67.0</ele><time>2026-04-22T12:39:54.999Z</time></trkpt><trkpt lat="45.03139404389256" lon="9.607348367275163"><ele>67.0</ele><time>2026-04-22T12:39:56.999Z</time></trkpt><trkpt lat="45.03139614047019" lon="9.607445122475237"><ele>67.0</ele><time>2026-04-22T12:39:57.999Z</time></trkpt><trkpt lat="45.0314155838491" lon="9.607613019481"><ele>67.0</ele><time>2026-04-22T12:39:59.999Z</time></trkpt><trkpt lat="45.0314243505311" lon="9.607777564338964"><ele>67.0</ele><time>2026-04-22T12:40:01.999Z</time></trkpt><trkpt lat="45.03143319814474" lon="9.60795164678226"><ele>67.0</ele><time>2026-04-22T12:40:03.999Z</time></trkpt><trkpt lat="45.03143373295253" lon="9.608103335233121"><ele>67.0</ele><time>2026-04-22T12:40:05.999Z</time></trkpt><trkpt lat="45.03144662863009" lon="9.608195003962892"><ele>67.0</ele><time>2026-04-22T12:40:06.999Z</time></trkpt><trkpt lat="45.03145060155904" lon="9.608296792242689"><ele>67.0</ele><time>2026-04-22T12:40:08Z</time></trkpt><trkpt lat="45.03145038505323" lon="9.608456204078756"><ele>67.0</ele><time>2026-04-22T12:40:10Z</time></trkpt><trkpt lat="45.03145998471959" lon="9.608558875549505"><ele>67.0</ele><time>2026-04-22T12:40:11Z</time></trkpt><trkpt lat="45.03145863425888" lon="9.608706463814709"><ele>67.0</ele><time>2026-04-22T12:40:13Z</time></trkpt><trkpt lat="45.03146470947649" lon="9.608853688954364"><ele>67.0</ele><time>2026-04-22T12:40:15Z</time></trkpt><trkpt lat="45.03147806318081" lon="9.608981049061809"><ele>67.0</ele><time>2026-04-22T12:40:17Z</time></trkpt><trkpt lat="45.031500921208334" lon="9.609111861275652"><ele>67.0</ele><time>2026-04-22T12:40:18Z</time></trkpt><trkpt lat="45.031513473769685" lon="9.60921200653094"><ele>67.0</ele><time>2026-04-22T12:40:19Z</time></trkpt><trkpt lat="45.03152553485089" lon="9.609307850801672"><ele>67.0</ele><time>2026-04-22T12:40:20Z</time></trkpt><trkpt lat="45.03153371643099" lon="9.609399076269812"><ele>66.8</ele><time>2026-04-22T12:40:21Z</time></trkpt><trkpt lat="45.031544496328415" lon="9.609580910297367"><ele>66.6</ele><time>2026-04-22T12:40:23Z</time></trkpt><trkpt lat="45.03155290475262" lon="9.609682184493778"><ele>66.39999999999999</ele><time>2026-04-22T12:40:24Z</time></trkpt><trkpt lat="45.03154404754364" lon="9.609840896260987"><ele>66.2</ele><time>2026-04-22T12:40:26Z</time></trkpt><trkpt lat="45.03154210821133" lon="9.609962196433303"><ele>66.0</ele><time>2026-04-22T12:40:27Z</time></trkpt><trkpt lat="45.03153044170749" lon="9.610125185247014"><ele>66.0</ele><time>2026-04-22T12:40:29Z</time></trkpt><trkpt lat="45.03153426701189" lon="9.610216099340578"><ele>66.0</ele><time>2026-04-22T12:40:30Z</time></trkpt><trkpt lat="45.03153363002875" lon="9.610380331222142"><ele>66.0</ele><time>2026-04-22T12:40:32Z</time></trkpt><trkpt lat="45.031536032116854" lon="9.610471762204575"><ele>66.0</ele><time>2026-04-22T12:40:33Z</time></trkpt><trkpt lat="45.03153367856298" lon="9.61056922711346"><ele>66.0</ele><time>2026-04-22T12:40:34Z</time></trkpt><trkpt lat="45.03153520367369" lon="9.61071994534608"><ele>66.0</ele><time>2026-04-22T12:40:36Z</time></trkpt><trkpt lat="45.031535151784766" lon="9.610881893915607"><ele>66.0</ele><time>2026-04-22T12:40:38Z</time></trkpt><trkpt lat="45.03153696672128" lon="9.610992299346284"><ele>66.0</ele><time>2026-04-22T12:40:39Z</time></trkpt><trkpt lat="45.031530094055505" lon="9.611160527897729"><ele>66.0</ele><time>2026-04-22T12:40:41Z</time></trkpt><trkpt lat="45.03151957060884" lon="9.611317454774216"><ele>66.0</ele><time>2026-04-22T12:40:43Z</time></trkpt><trkpt lat="45.03151941886469" lon="9.61149676142609"><ele>66.0</ele><time>2026-04-22T12:40:45Z</time></trkpt><trkpt lat="45.031525495933465" lon="9.611588001377001"><ele>66.0</ele><time>2026-04-22T12:40:46Z</time></trkpt><trkpt lat="45.031516582982" lon="9.61167805447269"><ele>66.0</ele><time>2026-04-22T12:40:47Z</time></trkpt><trkpt lat="45.0315142226886" lon="9.611776178497596"><ele>66.0</ele><time>2026-04-22T12:40:48Z</time></trkpt><trkpt lat="45.031512481746944" lon="9.611942305742422"><ele>66.0</ele><time>2026-04-22T12:40:50Z</time></trkpt><trkpt lat="45.03150831491411" lon="9.612121659709024"><ele>66.0</ele><time>2026-04-22T12:40:52Z</time></trkpt><trkpt lat="45.03152115691818" lon="9.612286770659646"><ele>66.14285714285714</ele><time>2026-04-22T12:40:54Z</time></trkpt><trkpt lat="45.031519508180736" lon="9.612376031527246"><ele>66.28571428571429</ele><time>2026-04-22T12:40:55Z</time></trkpt><trkpt lat="45.03151931806966" lon="9.612475090131138"><ele>66.42857142857143</ele><time>2026-04-22T12:40:56Z</time></trkpt><trkpt lat="45.0315160422077" lon="9.612565811466318"><ele>66.57142857142857</ele><time>2026-04-22T12:40:57Z</time></trkpt><trkpt lat="45.03151347344445" lon="9.612664811759828"><ele>66.71428571428571</ele><time>2026-04-22T12:40:58Z</time></trkpt><trkpt lat="45.03151645274696" lon="9.612760027837043"><ele>66.85714285714286</ele><time>2026-04-22T12:40:59Z</time></trkpt><trkpt lat="45.03151241600636" lon="9.612867018256729"><ele>67.0</ele><time>2026-04-22T12:41:00Z</time></trkpt><trkpt lat="45.031512925921476" lon="9.612972009161844"><ele>67.0</ele><time>2026-04-22T12:41:01Z</time></trkpt><trkpt lat="45.03152015408732" lon="9.613136346811462"><ele>67.0</ele><time>2026-04-22T12:41:03Z</time></trkpt><trkpt lat="45.03152424715101" lon="9.613301829437457"><ele>67.0</ele><time>2026-04-22T12:41:05Z</time></trkpt><trkpt lat="45.03151749850948" lon="9.613400009029018"><ele>67.0</ele><time>2026-04-22T12:41:06Z</time></trkpt><trkpt lat="45.031517754820214" lon="9.613571485056676"><ele>67.0</ele><time>2026-04-22T12:41:08Z</time></trkpt><trkpt lat="45.03151874168789" lon="9.613730875099522"><ele>67.0</ele><time>2026-04-22T12:41:10Z</time></trkpt><trkpt lat="45.03152009288283" lon="9.61382680368871"><ele>67.0</ele><time>2026-04-22T12:41:11Z</time></trkpt><trkpt lat="45.031519610909434" lon="9.613996556857467"><ele>67.0</ele><time>2026-04-22T12:41:13Z</time></trkpt><trkpt lat="45.03152140849959" lon="9.614086934076262"><ele>67.0</ele><time>2026-04-22T12:41:14Z</time></trkpt><trkpt lat="45.031523198675046" lon="9.614268329807574"><ele>67.0</ele><time>2026-04-22T12:41:16Z</time></trkpt><trkpt lat="45.031519469852114" lon="9.61444885717568"><ele>66.8</ele><time>2026-04-22T12:41:18Z</time></trkpt><trkpt lat="45.03152037560159" lon="9.614607579334026"><ele>66.6</ele><time>2026-04-22T12:41:20Z</time></trkpt><trkpt lat="45.031518179076315" lon="9.614777883444424"><ele>66.39999999999999</ele><time>2026-04-22T12:41:21.999Z</time></trkpt><trkpt lat="45.03152381046408" lon="9.61487170471171"><ele>66.2</ele><time>2026-04-22T12:41:22.999Z</time></trkpt><trkpt lat="45.031521196596394" lon="9.615026944960066"><ele>66.0</ele><time>2026-04-22T12:41:24.999Z</time></trkpt><trkpt lat="45.03152417829781" lon="9.615123633487888"><ele>66.0</ele><time>2026-04-22T12:41:25.999Z</time></trkpt><trkpt lat="45.031527223628046" lon="9.615214058242227"><ele>66.0</ele><time>2026-04-22T12:41:26.999Z</time></trkpt><trkpt lat="45.031523096340976" lon="9.615363712627586"><ele>66.0</ele><time>2026-04-22T12:41:28.999Z</time></trkpt><trkpt lat="45.03152297964463" lon="9.61551697953979"><ele>66.0</ele><time>2026-04-22T12:41:30.999Z</time></trkpt><trkpt lat="45.03152699833513" lon="9.615671143322714"><ele>66.0</ele><time>2026-04-22T12:41:32.999Z</time></trkpt><trkpt lat="45.03152566464643" lon="9.615839178917705"><ele>66.0</ele><time>2026-04-22T12:41:34.999Z</time></trkpt><trkpt lat="45.03152527429273" lon="9.615986977320354"><ele>66.0</ele><time>2026-04-22T12:41:36.999Z</time></trkpt><trkpt lat="45.031531935076075" lon="9.616140426484607"><ele>66.0</ele><time>2026-04-22T12:41:38.999Z</time></trkpt><trkpt lat="45.031546649123946" lon="9.616304336693693"><ele>66.0</ele><time>2026-04-22T12:41:40.999Z</time></trkpt><trkpt lat="45.03153771316167" lon="9.616432451141634"><ele>66.0</ele><time>2026-04-22T12:41:42.999Z</time></trkpt><trkpt lat="45.031535341259286" lon="9.616594020670089"><ele>66.0</ele><time>2026-04-22T12:41:44.999Z</time></trkpt><trkpt lat="45.031535614527115" lon="9.616754326728275"><ele>66.0</ele><time>2026-04-22T12:41:46.999Z</time></trkpt><trkpt lat="45.03154028876856" lon="9.616892744900161"><ele>66.0</ele><time>2026-04-22T12:41:48.999Z</time></trkpt><trkpt lat="45.031553492021665" lon="9.617040419631893"><ele>66.0</ele><time>2026-04-22T12:41:50.999Z</time></trkpt><trkpt lat="45.03154171079814" lon="9.617190000204843"><ele>66.0</ele><time>2026-04-22T12:41:52.999Z</time></trkpt><trkpt lat="45.031536095026745" lon="9.617340673362147"><ele>66.0</ele><time>2026-04-22T12:41:54.999Z</time></trkpt><trkpt lat="45.03154215778363" lon="9.617489633997504"><ele>66.0</ele><time>2026-04-22T12:41:56.999Z</time></trkpt><trkpt lat="45.031549821840706" lon="9.617632303800361"><ele>66.0</ele><time>2026-04-22T12:41:58.999Z</time></trkpt><trkpt lat="45.03154677298682" lon="9.617779101922828"><ele>66.0</ele><time>2026-04-22T12:42:00.999Z</time></trkpt><trkpt lat="45.031540569755236" lon="9.617927803852796"><ele>66.0</ele><time>2026-04-22T12:42:02.999Z</time></trkpt><trkpt lat="45.03154434011362" lon="9.61807957733785"><ele>66.0</ele><time>2026-04-22T12:42:04.999Z</time></trkpt><trkpt lat="45.031554473085876" lon="9.618206152482962"><ele>66.0</ele><time>2026-04-22T12:42:06.999Z</time></trkpt><trkpt lat="45.03155296964447" lon="9.61836409918405"><ele>66.0</ele><time>2026-04-22T12:42:08.999Z</time></trkpt><trkpt lat="45.03155058800307" lon="9.61852872522641"><ele>66.0</ele><time>2026-04-22T12:42:10.999Z</time></trkpt><trkpt lat="45.03154535332623" lon="9.618673080695896"><ele>66.0</ele><time>2026-04-22T12:42:12.999Z</time></trkpt><trkpt lat="45.031552910945955" lon="9.61881129283405"><ele>66.0</ele><time>2026-04-22T12:42:15Z</time></trkpt><trkpt lat="45.03155405017266" lon="9.618946551674528"><ele>66.0</ele><time>2026-04-22T12:42:17Z</time></trkpt><trkpt lat="45.03155558318701" lon="9.619090022633454"><ele>66.0</ele><time>2026-04-22T12:42:19Z</time></trkpt><trkpt lat="45.031548206593264" lon="9.619245410225494"><ele>66.0</ele><time>2026-04-22T12:42:21Z</time></trkpt><trkpt lat="45.031541750427465" lon="9.619402915793689"><ele>66.0</ele><time>2026-04-22T12:42:23Z</time></trkpt><trkpt lat="45.031534962905866" lon="9.61953925525153"><ele>66.0</ele><time>2026-04-22T12:42:25Z</time></trkpt><trkpt lat="45.031545502488356" lon="9.619670335740445"><ele>66.0</ele><time>2026-04-22T12:42:27Z</time></trkpt><trkpt lat="45.031541574839764" lon="9.619800343199227"><ele>66.0</ele><time>2026-04-22T12:42:29Z</time></trkpt><trkpt lat="45.03154383293827" lon="9.619940231359656"><ele>66.0</ele><time>2026-04-22T12:42:31Z</time></trkpt><trkpt lat="45.03154070899352" lon="9.620091085681102"><ele>66.0</ele><time>2026-04-22T12:42:33Z</time></trkpt><trkpt lat="45.031542118250655" lon="9.620206275357775"><ele>66.6</ele><time>2026-04-22T12:42:35Z</time></trkpt><trkpt lat="45.03153240579243" lon="9.62034297855196"><ele>67.19999999999999</ele><time>2026-04-22T12:42:37Z</time></trkpt><trkpt lat="45.03152798959152" lon="9.620480062984718"><ele>67.80000000000001</ele><time>2026-04-22T12:42:39Z</time></trkpt><trkpt lat="45.031533448428036" lon="9.620618141095216"><ele>68.4</ele><time>2026-04-22T12:42:41Z</time></trkpt><trkpt lat="45.03153848195058" lon="9.620751305294728"><ele>69.0</ele><time>2026-04-22T12:42:43Z</time></trkpt><trkpt lat="45.03152996402782" lon="9.620894038204057"><ele>69.0</ele><time>2026-04-22T12:42:45Z</time></trkpt><trkpt lat="45.03153607989866" lon="9.62102153359831"><ele>69.0</ele><time>2026-04-22T12:42:47Z</time></trkpt><trkpt lat="45.031537941580424" lon="9.621151889484313"><ele>69.0</ele><time>2026-04-22T12:42:49Z</time></trkpt><trkpt lat="45.031525663648594" lon="9.621284344139394"><ele>69.0</ele><time>2026-04-22T12:42:51Z</time></trkpt><trkpt lat="45.031548649728435" lon="9.621414050787326"><ele>69.0</ele><time>2026-04-22T12:42:53Z</time></trkpt><trkpt lat="45.03153466294375" lon="9.621545274571275"><ele>69.0</ele><time>2026-04-22T12:42:55Z</time></trkpt><trkpt lat="45.0315248097921" lon="9.62167752505864"><ele>69.0</ele><time>2026-04-22T12:42:57Z</time></trkpt><trkpt lat="45.031530078711754" lon="9.62181249120202"><ele>69.0</ele><time>2026-04-22T12:42:59Z</time></trkpt><trkpt lat="45.0315283353001" lon="9.621949928050121"><ele>69.0</ele><time>2026-04-22T12:43:01Z</time></trkpt><trkpt lat="45.03152525913239" lon="9.622103082315967"><ele>69.0</ele><time>2026-04-22T12:43:03Z</time></trkpt><trkpt lat="45.031524051204116" lon="9.622230154179688"><ele>69.0</ele><time>2026-04-22T12:43:05Z</time></trkpt><trkpt lat="45.03153484998134" lon="9.622373728562716"><ele>69.0</ele><time>2026-04-22T12:43:07Z</time></trkpt><trkpt lat="45.031533042720504" lon="9.62250686143117"><ele>69.0</ele><time>2026-04-22T12:43:09Z</time></trkpt><trkpt lat="45.03153007195267" lon="9.622646118244464"><ele>69.0</ele><time>2026-04-22T12:43:11Z</time></trkpt><trkpt lat="45.031531234234954" lon="9.622791299186758"><ele>69.0</ele><time>2026-04-22T12:43:13Z</time></trkpt><trkpt lat="45.03153474696553" lon="9.622931634543749"><ele>69.0</ele><time>2026-04-22T12:43:15Z</time></trkpt><trkpt lat="45.031537112698985" lon="9.62307157759576"><ele>69.0</ele><time>2026-04-22T12:43:17Z</time></trkpt><trkpt lat="45.0315375214708" lon="9.623210917600879"><ele>69.0</ele><time>2026-04-22T12:43:19Z</time></trkpt><trkpt lat="45.031533660672665" lon="9.623342574217466"><ele>69.0</ele><time>2026-04-22T12:43:21Z</time></trkpt><trkpt lat="45.03150037772222" lon="9.62349022471229"><ele>69.0</ele><time>2026-04-22T12:43:23Z</time></trkpt><trkpt lat="45.0315170824615" lon="9.623640424067895"><ele>68.8</ele><time>2026-04-22T12:43:25Z</time></trkpt><trkpt lat="45.031536675854774" lon="9.623776917499052"><ele>68.60000000000001</ele><time>2026-04-22T12:43:27Z</time></trkpt><trkpt lat="45.03155330626349" lon="9.623912794338649"><ele>68.4</ele><time>2026-04-22T12:43:29Z</time></trkpt><trkpt lat="45.0315593915492" lon="9.624040881342404"><ele>68.2</ele><time>2026-04-22T12:43:31Z</time></trkpt><trkpt lat="45.03156203188979" lon="9.624191810473738"><ele>68.0</ele><time>2026-04-22T12:43:32.999Z</time></trkpt><trkpt lat="45.03157190098376" lon="9.624337869637245"><ele>68.0</ele><time>2026-04-22T12:43:34.999Z</time></trkpt><trkpt lat="45.03158901084986" lon="9.62447797509806"><ele>68.0</ele><time>2026-04-22T12:43:36.999Z</time></trkpt><trkpt lat="45.03160327975993" lon="9.624615533220794"><ele>68.0</ele><time>2026-04-22T12:43:38.999Z</time></trkpt><trkpt lat="45.031612246126194" lon="9.624761085294242"><ele>68.0</ele><time>2026-04-22T12:43:40.999Z</time></trkpt><trkpt lat="45.031615812882784" lon="9.624919459505747"><ele>68.0</ele><time>2026-04-22T12:43:42.999Z</time></trkpt><trkpt lat="45.03163518301007" lon="9.62504798468346"><ele>67.8</ele><time>2026-04-22T12:43:44.999Z</time></trkpt><trkpt lat="45.03164661141764" lon="9.625196300677443"><ele>67.6</ele><time>2026-04-22T12:43:46.999Z</time></trkpt><trkpt lat="45.0316621394733" lon="9.625346182783979"><ele>67.4</ele><time>2026-04-22T12:43:48.999Z</time></trkpt><trkpt lat="45.03168062717315" lon="9.62548504678869"><ele>67.2</ele><time>2026-04-22T12:43:50.999Z</time></trkpt><trkpt lat="45.03171156496437" lon="9.625642389696154"><ele>67.0</ele><time>2026-04-22T12:43:52.999Z</time></trkpt><trkpt lat="45.03174247716656" lon="9.625774925270116"><ele>66.8</ele><time>2026-04-22T12:43:54.999Z</time></trkpt><trkpt lat="45.03179152757971" lon="9.625897504720369"><ele>66.6</ele><time>2026-04-22T12:43:56.999Z</time></trkpt><trkpt lat="45.03184403203508" lon="9.626012856930723"><ele>66.39999999999999</ele><time>2026-04-22T12:43:58.999Z</time></trkpt><trkpt lat="45.03189044414692" lon="9.626132194979522"><ele>66.2</ele><time>2026-04-22T12:44:00.999Z</time></trkpt><trkpt lat="45.03193448097291" lon="9.626264763406155"><ele>66.0</ele><time>2026-04-22T12:44:02.999Z</time></trkpt><trkpt lat="45.031961666471126" lon="9.626407561333815"><ele>66.0</ele><time>2026-04-22T12:44:04.999Z</time></trkpt><trkpt lat="45.03197579762787" lon="9.626533111177292"><ele>66.0</ele><time>2026-04-22T12:44:06.999Z</time></trkpt><trkpt lat="45.03198416301995" lon="9.626686383368273"><ele>66.0</ele><time>2026-04-22T12:44:08.999Z</time></trkpt><trkpt lat="45.03198206548128" lon="9.626841430190703"><ele>66.0</ele><time>2026-04-22T12:44:10.999Z</time></trkpt><trkpt lat="45.03198932089997" lon="9.626957273182533"><ele>66.0</ele><time>2026-04-22T12:44:12.999Z</time></trkpt><trkpt lat="45.031975732541845" lon="9.627101707187936"><ele>66.16666666666667</ele><time>2026-04-22T12:44:14.999Z</time></trkpt><trkpt lat="45.031954105209344" lon="9.627238184297687"><ele>66.33333333333333</ele><time>2026-04-22T12:44:16.999Z</time></trkpt><trkpt lat="45.03194490900838" lon="9.627360792254823"><ele>66.5</ele><time>2026-04-22T12:44:18.999Z</time></trkpt><trkpt lat="45.03197017664776" lon="9.62748458599666"><ele>66.66666666666666</ele><time>2026-04-22T12:44:21Z</time></trkpt><trkpt lat="45.03199174974412" lon="9.62760314329833"><ele>66.83333333333333</ele><time>2026-04-22T12:44:23Z</time></trkpt><trkpt lat="45.03202521699683" lon="9.627710746116565"><ele>67.0</ele><time>2026-04-22T12:44:25Z</time></trkpt><trkpt lat="45.03206757282118" lon="9.627832438585514"><ele>67.0</ele><time>2026-04-22T12:44:27Z</time></trkpt><trkpt lat="45.032114417661575" lon="9.62795005815076"><ele>67.0</ele><time>2026-04-22T12:44:29Z</time></trkpt><trkpt lat="45.032154137580854" lon="9.628050659469041"><ele>67.0</ele><time>2026-04-22T12:44:31Z</time></trkpt><trkpt lat="45.0322003098472" lon="9.628169834780604"><ele>67.0</ele><time>2026-04-22T12:44:33Z</time></trkpt><trkpt lat="45.03224091082787" lon="9.628292662853903"><ele>67.0</ele><time>2026-04-22T12:44:35Z</time></trkpt><trkpt lat="45.03228256263884" lon="9.628401317991225"><ele>67.0</ele><time>2026-04-22T12:44:37Z</time></trkpt><trkpt lat="45.032325004528474" lon="9.628477157250973"><ele>67.0</ele><time>2026-04-22T12:44:39Z</time></trkpt><trkpt lat="45.0323570748439" lon="9.628629021062169"><ele>67.0</ele><time>2026-04-22T12:44:41Z</time></trkpt><trkpt lat="45.03240682322219" lon="9.628739833857495"><ele>67.0</ele><time>2026-04-22T12:44:43Z</time></trkpt><trkpt lat="45.03244400975579" lon="9.628848399612972"><ele>67.0</ele><time>2026-04-22T12:44:45Z</time></trkpt><trkpt lat="45.03249094402966" lon="9.628973512182123"><ele>67.0</ele><time>2026-04-22T12:44:47Z</time></trkpt><trkpt lat="45.032548502259786" lon="9.629097837141487"><ele>67.0</ele><time>2026-04-22T12:44:49Z</time></trkpt><trkpt lat="45.03259047673469" lon="9.62923938590263"><ele>67.0</ele><time>2026-04-22T12:44:51Z</time></trkpt><trkpt lat="45.032622083336385" lon="9.629382691139206"><ele>67.0</ele><time>2026-04-22T12:44:53Z</time></trkpt><trkpt lat="45.03266406897725" lon="9.629519371820189"><ele>67.0</ele><time>2026-04-22T12:44:55Z</time></trkpt><trkpt lat="45.03271925513769" lon="9.629631536650567"><ele>67.0</ele><time>2026-04-22T12:44:57Z</time></trkpt><trkpt lat="45.03274807947128" lon="9.629753263373166"><ele>67.0</ele><time>2026-04-22T12:44:59Z</time></trkpt><trkpt lat="45.03278791169782" lon="9.629883795484258"><ele>67.0</ele><time>2026-04-22T12:45:01Z</time></trkpt><trkpt lat="45.03284210024011" lon="9.630011877426455"><ele>67.0</ele><time>2026-04-22T12:45:03Z</time></trkpt><trkpt lat="45.03288231863281" lon="9.630132266757938"><ele>67.0</ele><time>2026-04-22T12:45:05Z</time></trkpt><trkpt lat="45.032920924530366" lon="9.630253628181757"><ele>66.8</ele><time>2026-04-22T12:45:07Z</time></trkpt><trkpt lat="45.032957820817835" lon="9.630354947616803"><ele>66.6</ele><time>2026-04-22T12:45:09Z</time></trkpt><trkpt lat="45.03301021185365" lon="9.630491725527067"><ele>66.39999999999999</ele><time>2026-04-22T12:45:11Z</time></trkpt><trkpt lat="45.03305624989372" lon="9.63061238540888"><ele>66.2</ele><time>2026-04-22T12:45:13Z</time></trkpt><trkpt lat="45.0330977152722" lon="9.630726812314478"><ele>66.0</ele><time>2026-04-22T12:45:15Z</time></trkpt><trkpt lat="45.03313904330213" lon="9.63085276735961"><ele>66.0</ele><time>2026-04-22T12:45:17Z</time></trkpt><trkpt lat="45.033186151230375" lon="9.630973182392577"><ele>66.0</ele><time>2026-04-22T12:45:19Z</time></trkpt><trkpt lat="45.03324315302694" lon="9.631091640327899"><ele>66.0</ele><time>2026-04-22T12:45:21Z</time></trkpt><trkpt lat="45.03327747485818" lon="9.63122164682616"><ele>66.0</ele><time>2026-04-22T12:45:23Z</time></trkpt><trkpt lat="45.03331921240029" lon="9.631336671154383"><ele>66.0</ele><time>2026-04-22T12:45:25Z</time></trkpt><trkpt lat="45.03335813499613" lon="9.631453954735548"><ele>66.0</ele><time>2026-04-22T12:45:27Z</time></trkpt><trkpt lat="45.033398119722776" lon="9.631585450116601"><ele>66.0</ele><time>2026-04-22T12:45:29Z</time></trkpt><trkpt lat="45.03343572204706" lon="9.631696175869818"><ele>66.0</ele><time>2026-04-22T12:45:31Z</time></trkpt><trkpt lat="45.03347510898292" lon="9.631808720276732"><ele>66.0</ele><time>2026-04-22T12:45:32.999Z</time></trkpt><trkpt lat="45.03352176524829" lon="9.631932691118926"><ele>66.0</ele><time>2026-04-22T12:45:34.999Z</time></trkpt><trkpt lat="45.03356167738732" lon="9.632048006740845"><ele>66.0</ele><time>2026-04-22T12:45:36.999Z</time></trkpt><trkpt lat="45.033603371288955" lon="9.632172119597687"><ele>66.0</ele><time>2026-04-22T12:45:38.999Z</time></trkpt><trkpt lat="45.03363353709493" lon="9.632293904488572"><ele>66.0</ele><time>2026-04-22T12:45:40.999Z</time></trkpt><trkpt lat="45.03367800295052" lon="9.632410297485494"><ele>66.0</ele><time>2026-04-22T12:45:42.999Z</time></trkpt><trkpt lat="45.033719155701924" lon="9.632538409982669"><ele>66.0</ele><time>2026-04-22T12:45:44.999Z</time></trkpt><trkpt lat="45.03377118857735" lon="9.63265299784088"><ele>66.0</ele><time>2026-04-22T12:45:46.999Z</time></trkpt><trkpt lat="45.03381348030401" lon="9.632784220718001"><ele>66.0</ele><time>2026-04-22T12:45:48.999Z</time></trkpt><trkpt lat="45.033863002746536" lon="9.632900142999327"><ele>66.0</ele><time>2026-04-22T12:45:50.999Z</time></trkpt><trkpt lat="45.03392514171948" lon="9.633011857124426"><ele>66.0</ele><time>2026-04-22T12:45:52.999Z</time></trkpt><trkpt lat="45.033954370031346" lon="9.633142384166408"><ele>66.0</ele><time>2026-04-22T12:45:54.999Z</time></trkpt><trkpt lat="45.03399397382333" lon="9.633272727451423"><ele>66.0</ele><time>2026-04-22T12:45:56.999Z</time></trkpt><trkpt lat="45.03403646929678" lon="9.633406791731607"><ele>66.0</ele><time>2026-04-22T12:45:58.999Z</time></trkpt><trkpt lat="45.03408462495018" lon="9.633530376167691"><ele>66.0</ele><time>2026-04-22T12:46:00.999Z</time></trkpt><trkpt lat="45.03411837109176" lon="9.633666759762258"><ele>66.0</ele><time>2026-04-22T12:46:02.999Z</time></trkpt><trkpt lat="45.03416436827254" lon="9.63378482121991"><ele>66.0</ele><time>2026-04-22T12:46:04.999Z</time></trkpt><trkpt lat="45.034225546153664" lon="9.633942817268762"><ele>66.0</ele><time>2026-04-22T12:46:06.999Z</time></trkpt><trkpt lat="45.034265843362974" lon="9.634042959866365"><ele>66.0</ele><time>2026-04-22T12:46:08.999Z</time></trkpt><trkpt lat="45.03429633785951" lon="9.634162171413067"><ele>66.0</ele><time>2026-04-22T12:46:10.999Z</time></trkpt><trkpt lat="45.03434511848248" lon="9.634272622721063"><ele>66.0</ele><time>2026-04-22T12:46:12.999Z</time></trkpt><trkpt lat="45.034385404689964" lon="9.634396465119977"><ele>66.0</ele><time>2026-04-22T12:46:14.999Z</time></trkpt><trkpt lat="45.0344297240448" lon="9.634484879885132"><ele>66.0</ele><time>2026-04-22T12:46:16.999Z</time></trkpt><trkpt lat="45.034468790104" lon="9.634602673041059"><ele>66.0</ele><time>2026-04-22T12:46:18.999Z</time></trkpt><trkpt lat="45.034503714905576" lon="9.63475491666735"><ele>66.0</ele><time>2026-04-22T12:46:20.999Z</time></trkpt><trkpt lat="45.034550716030665" lon="9.63489713109301"><ele>66.0</ele><time>2026-04-22T12:46:22.999Z</time></trkpt><trkpt lat="45.0346010925544" lon="9.635043720937103"><ele>66.0</ele><time>2026-04-22T12:46:24.999Z</time></trkpt><trkpt lat="45.03464905764204" lon="9.635169169649378"><ele>66.0</ele><time>2026-04-22T12:46:27Z</time></trkpt><trkpt lat="45.034700896348205" lon="9.635313302863453"><ele>66.0</ele><time>2026-04-22T12:46:29Z</time></trkpt><trkpt lat="45.03474382609109" lon="9.635439742803385"><ele>66.0</ele><time>2026-04-22T12:46:31Z</time></trkpt><trkpt lat="45.034798757583005" lon="9.635573810376878"><ele>66.0</ele><time>2026-04-22T12:46:33Z</time></trkpt><trkpt lat="45.034839919359804" lon="9.635726202076507"><ele>66.0</ele><time>2026-04-22T12:46:35Z</time></trkpt><trkpt lat="45.03489460639869" lon="9.635859113004297"><ele>66.0</ele><time>2026-04-22T12:46:37Z</time></trkpt><trkpt lat="45.034954395476674" lon="9.635985598938994"><ele>66.2</ele><time>2026-04-22T12:46:39Z</time></trkpt><trkpt lat="45.034996655327014" lon="9.636111853009037"><ele>66.39999999999999</ele><time>2026-04-22T12:46:41Z</time></trkpt><trkpt lat="45.035043187686554" lon="9.636253246400704"><ele>66.6</ele><time>2026-04-22T12:46:43Z</time></trkpt><trkpt lat="45.03510288856176" lon="9.636381144307771"><ele>66.8</ele><time>2026-04-22T12:46:45Z</time></trkpt><trkpt lat="45.035151122889914" lon="9.63651219815763"><ele>67.0</ele><time>2026-04-22T12:46:47Z</time></trkpt><trkpt lat="45.035206233656226" lon="9.636647362732992"><ele>67.0</ele><time>2026-04-22T12:46:49Z</time></trkpt><trkpt lat="45.0352526503445" lon="9.63678770495954"><ele>67.0</ele><time>2026-04-22T12:46:51Z</time></trkpt><trkpt lat="45.035296911523595" lon="9.636926871415207"><ele>67.0</ele><time>2026-04-22T12:46:53Z</time></trkpt><trkpt lat="45.03534472754822" lon="9.637064529524501"><ele>67.0</ele><time>2026-04-22T12:46:55Z</time></trkpt><trkpt lat="45.035395630395946" lon="9.637208306080257"><ele>67.0</ele><time>2026-04-22T12:46:57Z</time></trkpt><trkpt lat="45.0354441662936" lon="9.63735538870468"><ele>67.0</ele><time>2026-04-22T12:46:59Z</time></trkpt><trkpt lat="45.03549788372264" lon="9.637485180239162"><ele>67.0</ele><time>2026-04-22T12:47:01Z</time></trkpt><trkpt lat="45.03556027016248" lon="9.637615598049125"><ele>67.0</ele><time>2026-04-22T12:47:03Z</time></trkpt><trkpt lat="45.035625093376574" lon="9.637759774309064"><ele>67.0</ele><time>2026-04-22T12:47:05Z</time></trkpt><trkpt lat="45.035678936041286" lon="9.63790801779415"><ele>67.0</ele><time>2026-04-22T12:47:07Z</time></trkpt><trkpt lat="45.03572472451223" lon="9.638046562243689"><ele>67.0</ele><time>2026-04-22T12:47:09Z</time></trkpt><trkpt lat="45.03578453241941" lon="9.638183258546276"><ele>67.0</ele><time>2026-04-22T12:47:11Z</time></trkpt><trkpt lat="45.03583600430322" lon="9.638322261362951"><ele>67.0</ele><time>2026-04-22T12:47:13Z</time></trkpt><trkpt lat="45.035880814003875" lon="9.638466619039901"><ele>67.0</ele><time>2026-04-22T12:47:15Z</time></trkpt><trkpt lat="45.03593019939904" lon="9.638579277871342"><ele>66.83333333333333</ele><time>2026-04-22T12:47:17Z</time></trkpt><trkpt lat="45.03596572452157" lon="9.638660508985353"><ele>66.66666666666666</ele><time>2026-04-22T12:47:18Z</time></trkpt><trkpt lat="45.03601569097078" lon="9.638773742873234"><ele>66.5</ele><time>2026-04-22T12:47:20Z</time></trkpt><trkpt lat="45.0360383330564" lon="9.638857574643351"><ele>66.33333333333333</ele><time>2026-04-22T12:47:21Z</time></trkpt><trkpt lat="45.03607355019607" lon="9.639003927961987"><ele>66.16666666666667</ele><time>2026-04-22T12:47:23Z</time></trkpt><trkpt lat="45.036110082765546" lon="9.639079365695501"><ele>66.0</ele><time>2026-04-22T12:47:24Z</time></trkpt><trkpt lat="45.036155098968806" lon="9.639219921797872"><ele>66.0</ele><time>2026-04-22T12:47:26Z</time></trkpt><trkpt lat="45.036217186080414" lon="9.639338726899615"><ele>66.0</ele><time>2026-04-22T12:47:28Z</time></trkpt><trkpt lat="45.03624591421577" lon="9.639475776363966"><ele>66.0</ele><time>2026-04-22T12:47:30Z</time></trkpt><trkpt lat="45.03627744176161" lon="9.63955853354938"><ele>66.0</ele><time>2026-04-22T12:47:31Z</time></trkpt><trkpt lat="45.036283158838366" lon="9.639712580771237"><ele>66.0</ele><time>2026-04-22T12:47:33Z</time></trkpt><trkpt lat="45.03632181436568" lon="9.639791677061773"><ele>66.0</ele><time>2026-04-22T12:47:33.999Z</time></trkpt><trkpt lat="45.036383213088456" lon="9.639940056158894"><ele>66.0</ele><time>2026-04-22T12:47:35.999Z</time></trkpt><trkpt lat="45.0364340763093" lon="9.640086969919196"><ele>66.0</ele><time>2026-04-22T12:47:37.999Z</time></trkpt><trkpt lat="45.03647979875766" lon="9.640216205920918"><ele>66.0</ele><time>2026-04-22T12:47:39.999Z</time></trkpt><trkpt lat="45.036509471984125" lon="9.640315018926522"><ele>66.0</ele><time>2026-04-22T12:47:40.999Z</time></trkpt><trkpt lat="45.036563057571314" lon="9.640464642420763"><ele>66.0</ele><time>2026-04-22T12:47:42.999Z</time></trkpt><trkpt lat="45.03660734592099" lon="9.640604648851893"><ele>66.39999999999999</ele><time>2026-04-22T12:47:44.999Z</time></trkpt><trkpt lat="45.03667476676066" lon="9.640726085028447"><ele>66.8</ele><time>2026-04-22T12:47:46.999Z</time></trkpt><trkpt lat="45.03672836853068" lon="9.64086715563152"><ele>67.19999999999999</ele><time>2026-04-22T12:47:48.999Z</time></trkpt><trkpt lat="45.0367791741973" lon="9.640996950392974"><ele>67.6</ele><time>2026-04-22T12:47:50.999Z</time></trkpt><trkpt lat="45.03684180636831" lon="9.641101350631414"><ele>68.0</ele><time>2026-04-22T12:47:52.999Z</time></trkpt><trkpt lat="45.03685590250697" lon="9.641214935855125"><ele>68.0</ele><time>2026-04-22T12:47:53.999Z</time></trkpt><trkpt lat="45.03690223803495" lon="9.641372116722303"><ele>68.0</ele><time>2026-04-22T12:47:55.999Z</time></trkpt><trkpt lat="45.0369306107345" lon="9.64145278495113"><ele>68.0</ele><time>2026-04-22T12:47:56.999Z</time></trkpt><trkpt lat="45.03697560855165" lon="9.641583130421088"><ele>68.0</ele><time>2026-04-22T12:47:58.999Z</time></trkpt><trkpt lat="45.03702384529658" lon="9.641655674442495"><ele>68.0</ele><time>2026-04-22T12:47:59.999Z</time></trkpt><trkpt lat="45.037048450762924" lon="9.6417436037979"><ele>68.0</ele><time>2026-04-22T12:48:00.999Z</time></trkpt><trkpt lat="45.03709883626819" lon="9.641872380399466"><ele>67.6</ele><time>2026-04-22T12:48:02.999Z</time></trkpt><trkpt lat="45.03713921809095" lon="9.642011729618256"><ele>67.19999999999999</ele><time>2026-04-22T12:48:04.999Z</time></trkpt><trkpt lat="45.03719542125855" lon="9.642130491220726"><ele>66.8</ele><time>2026-04-22T12:48:06.999Z</time></trkpt><trkpt lat="45.03722973048213" lon="9.642285393358916"><ele>66.39999999999999</ele><time>2026-04-22T12:48:08.999Z</time></trkpt><trkpt lat="45.03728753663367" lon="9.642421416435406"><ele>66.0</ele><time>2026-04-22T12:48:10.999Z</time></trkpt><trkpt lat="45.03732760246448" lon="9.642559652898038"><ele>66.0</ele><time>2026-04-22T12:48:12.999Z</time></trkpt><trkpt lat="45.037355284302876" lon="9.64269276680401"><ele>66.0</ele><time>2026-04-22T12:48:14.999Z</time></trkpt><trkpt lat="45.037406428484246" lon="9.642826719526331"><ele>66.0</ele><time>2026-04-22T12:48:16.999Z</time></trkpt><trkpt lat="45.03745957560685" lon="9.642954788938415"><ele>66.0</ele><time>2026-04-22T12:48:18.999Z</time></trkpt><trkpt lat="45.03748420920348" lon="9.643102618179354"><ele>66.0</ele><time>2026-04-22T12:48:20.999Z</time></trkpt><trkpt lat="45.037549335651576" lon="9.643234596163696"><ele>66.2</ele><time>2026-04-22T12:48:22.999Z</time></trkpt><trkpt lat="45.03759649560914" lon="9.643365641282236"><ele>66.39999999999999</ele><time>2026-04-22T12:48:24.999Z</time></trkpt><trkpt lat="45.03765792181022" lon="9.643492363279671"><ele>66.6</ele><time>2026-04-22T12:48:26.999Z</time></trkpt><trkpt lat="45.03768991324658" lon="9.64363282096859"><ele>66.8</ele><time>2026-04-22T12:48:28.999Z</time></trkpt><trkpt lat="45.03771741541344" lon="9.643716171429093"><ele>67.0</ele><time>2026-04-22T12:48:29.999Z</time></trkpt><trkpt lat="45.03778171491316" lon="9.643850443200837"><ele>66.5</ele><time>2026-04-22T12:48:32Z</time></trkpt><trkpt lat="45.03783744861002" lon="9.644000441582202"><ele>66.0</ele><time>2026-04-22T12:48:34Z</time></trkpt><trkpt lat="45.037879036801435" lon="9.644148689302549"><ele>65.5</ele><time>2026-04-22T12:48:36Z</time></trkpt><trkpt lat="45.03793374034067" lon="9.644288989635253"><ele>65.0</ele><time>2026-04-22T12:48:38Z</time></trkpt><trkpt lat="45.03798898957029" lon="9.644423505698429"><ele>65.4</ele><time>2026-04-22T12:48:40Z</time></trkpt><trkpt lat="45.03803026892636" lon="9.644568435338618"><ele>65.8</ele><time>2026-04-22T12:48:42Z</time></trkpt><trkpt lat="45.03807188421363" lon="9.644706029898511"><ele>66.2</ele><time>2026-04-22T12:48:44Z</time></trkpt><trkpt lat="45.0381176210779" lon="9.644842248563402"><ele>66.6</ele><time>2026-04-22T12:48:46Z</time></trkpt><trkpt lat="45.03817037717405" lon="9.64498621518456"><ele>67.0</ele><time>2026-04-22T12:48:48Z</time></trkpt><trkpt lat="45.038214386281616" lon="9.645115830482045"><ele>67.0</ele><time>2026-04-22T12:48:50Z</time></trkpt><trkpt lat="45.038264773526485" lon="9.645258404100916"><ele>67.0</ele><time>2026-04-22T12:48:52Z</time></trkpt><trkpt lat="45.03831791800653" lon="9.645406889159194"><ele>67.0</ele><time>2026-04-22T12:48:54Z</time></trkpt><trkpt lat="45.038363340299874" lon="9.64552271192986"><ele>67.0</ele><time>2026-04-22T12:48:56Z</time></trkpt><trkpt lat="45.03841660509315" lon="9.645667097428813"><ele>67.0</ele><time>2026-04-22T12:48:58Z</time></trkpt><trkpt lat="45.03845459382448" lon="9.645815557300919"><ele>66.6</ele><time>2026-04-22T12:49:00Z</time></trkpt><trkpt lat="45.03849931296685" lon="9.64594563994807"><ele>66.2</ele><time>2026-04-22T12:49:02Z</time></trkpt><trkpt lat="45.03854412353862" lon="9.646094888437787"><ele>65.8</ele><time>2026-04-22T12:49:04Z</time></trkpt><trkpt lat="45.038588974231004" lon="9.646233957166352"><ele>65.4</ele><time>2026-04-22T12:49:06Z</time></trkpt><trkpt lat="45.03863772811584" lon="9.64636309957884"><ele>65.0</ele><time>2026-04-22T12:49:08Z</time></trkpt><trkpt lat="45.03869225997896" lon="9.646498072976113"><ele>64.8</ele><time>2026-04-22T12:49:10Z</time></trkpt><trkpt lat="45.038740076285734" lon="9.646631343137567"><ele>64.6</ele><time>2026-04-22T12:49:12Z</time></trkpt><trkpt lat="45.03878137713141" lon="9.646772073404879"><ele>64.4</ele><time>2026-04-22T12:49:14Z</time></trkpt><trkpt lat="45.03883277900412" lon="9.64691208712161"><ele>64.2</ele><time>2026-04-22T12:49:16Z</time></trkpt><trkpt lat="45.03888973288687" lon="9.64704443920879"><ele>64.0</ele><time>2026-04-22T12:49:18Z</time></trkpt><trkpt lat="45.038938325952145" lon="9.647176915427885"><ele>64.4</ele><time>2026-04-22T12:49:20Z</time></trkpt><trkpt lat="45.03898884986324" lon="9.647306000785047"><ele>64.80000000000001</ele><time>2026-04-22T12:49:22Z</time></trkpt><trkpt lat="45.03905306731001" lon="9.647439031514867"><ele>65.19999999999999</ele><time>2026-04-22T12:49:24Z</time></trkpt><trkpt lat="45.03909962667624" lon="9.647574431102388"><ele>65.6</ele><time>2026-04-22T12:49:26Z</time></trkpt><trkpt lat="45.03916548169511" lon="9.647701426709476"><ele>66.0</ele><time>2026-04-22T12:49:28Z</time></trkpt><trkpt lat="45.03920256496942" lon="9.647782544804997"><ele>65.0</ele><time>2026-04-22T12:49:29Z</time></trkpt><trkpt lat="45.03924999179988" lon="9.647922377381022"><ele>63.99999999999999</ele><time>2026-04-22T12:49:31Z</time></trkpt><trkpt lat="45.03929700659491" lon="9.648063868414283"><ele>62.99999999999999</ele><time>2026-04-22T12:49:32.999Z</time></trkpt><trkpt lat="45.039343082385166" lon="9.648196955248613"><ele>62.0</ele><time>2026-04-22T12:49:34.999Z</time></trkpt><trkpt lat="45.03938866665318" lon="9.648333979199466"><ele>61.0</ele><time>2026-04-22T12:49:36.999Z</time></trkpt><trkpt lat="45.03944865943552" lon="9.64847804252199"><ele>61.0</ele><time>2026-04-22T12:49:38.999Z</time></trkpt><trkpt lat="45.03949715346918" lon="9.648623275277544"><ele>60.99999999999999</ele><time>2026-04-22T12:49:40.999Z</time></trkpt><trkpt lat="45.039541611792885" lon="9.648766574630416"><ele>60.99999999999999</ele><time>2026-04-22T12:49:42.999Z</time></trkpt><trkpt lat="45.039588252414894" lon="9.648905112306991"><ele>61.0</ele><time>2026-04-22T12:49:44.999Z</time></trkpt><trkpt lat="45.039639492770604" lon="9.649042670955088"><ele>61.0</ele><time>2026-04-22T12:49:46.999Z</time></trkpt><trkpt lat="45.03967795256386" lon="9.649182382643817"><ele>61.0</ele><time>2026-04-22T12:49:48.999Z</time></trkpt><trkpt lat="45.03972801546882" lon="9.649324903387129"><ele>60.99999999999999</ele><time>2026-04-22T12:49:50.999Z</time></trkpt><trkpt lat="45.03978701471389" lon="9.64946481478464"><ele>60.99999999999999</ele><time>2026-04-22T12:49:52.999Z</time></trkpt><trkpt lat="45.03982596522262" lon="9.649599640817822"><ele>61.0</ele><time>2026-04-22T12:49:54.999Z</time></trkpt><trkpt lat="45.039876751572024" lon="9.649740955981782"><ele>61.0</ele><time>2026-04-22T12:49:56.999Z</time></trkpt><trkpt lat="45.03992242232997" lon="9.649886607655802"><ele>61.0</ele><time>2026-04-22T12:49:58.999Z</time></trkpt><trkpt lat="45.0399698769789" lon="9.650014782030784"><ele>60.99999999999999</ele><time>2026-04-22T12:50:00.999Z</time></trkpt><trkpt lat="45.04002022461988" lon="9.650144014165111"><ele>60.99999999999999</ele><time>2026-04-22T12:50:02.999Z</time></trkpt><trkpt lat="45.04006390999919" lon="9.65027805357848"><ele>61.0</ele><time>2026-04-22T12:50:04.999Z</time></trkpt><trkpt lat="45.04011275462251" lon="9.65040827021817"><ele>61.0</ele><time>2026-04-22T12:50:06.999Z</time></trkpt><trkpt lat="45.04016258659795" lon="9.650533813109146"><ele>61.0</ele><time>2026-04-22T12:50:08.999Z</time></trkpt><trkpt lat="45.04020767929306" lon="9.650670904055147"><ele>60.99999999999999</ele><time>2026-04-22T12:50:10.999Z</time></trkpt><trkpt lat="45.04025012969505" lon="9.650779007277514"><ele>60.99999999999999</ele><time>2026-04-22T12:50:12.999Z</time></trkpt><trkpt lat="45.04029854689127" lon="9.650933732316998"><ele>61.0</ele><time>2026-04-22T12:50:14.999Z</time></trkpt><trkpt lat="45.0403555958321" lon="9.651069533539314"><ele>61.0</ele><time>2026-04-22T12:50:16.999Z</time></trkpt><trkpt lat="45.04039377172607" lon="9.651200317714673"><ele>60.8</ele><time>2026-04-22T12:50:18.999Z</time></trkpt><trkpt lat="45.04044310033618" lon="9.65133678390332"><ele>60.599999999999994</ele><time>2026-04-22T12:50:20.999Z</time></trkpt><trkpt lat="45.04048860813423" lon="9.651467449336266"><ele>60.4</ele><time>2026-04-22T12:50:22.999Z</time></trkpt><trkpt lat="45.04054200047818" lon="9.651602289113614"><ele>60.2</ele><time>2026-04-22T12:50:24.999Z</time></trkpt><trkpt lat="45.040590485719" lon="9.65172878999457"><ele>60.0</ele><time>2026-04-22T12:50:26.999Z</time></trkpt><trkpt lat="45.040631149759555" lon="9.651858324905994"><ele>60.0</ele><time>2026-04-22T12:50:28.999Z</time></trkpt><trkpt lat="45.04068545022125" lon="9.651986854441125"><ele>60.0</ele><time>2026-04-22T12:50:30.999Z</time></trkpt><trkpt lat="45.04073135684223" lon="9.652124984239714"><ele>60.0</ele><time>2026-04-22T12:50:32.999Z</time></trkpt><trkpt lat="45.0407823123575" lon="9.652255603903535"><ele>60.0</ele><time>2026-04-22T12:50:34.999Z</time></trkpt><trkpt lat="45.040833951474426" lon="9.652382039403687"><ele>60.0</ele><time>2026-04-22T12:50:36.999Z</time></trkpt><trkpt lat="45.040861513042834" lon="9.652530028550148"><ele>60.0</ele><time>2026-04-22T12:50:39Z</time></trkpt><trkpt lat="45.040907061993714" lon="9.652661611714272"><ele>60.0</ele><time>2026-04-22T12:50:41Z</time></trkpt><trkpt lat="45.04095920079137" lon="9.652798719047292"><ele>60.0</ele><time>2026-04-22T12:50:43Z</time></trkpt><trkpt lat="45.04100673256414" lon="9.652941362394913"><ele>60.0</ele><time>2026-04-22T12:50:45Z</time></trkpt><trkpt lat="45.04104565652019" lon="9.653077755602407"><ele>60.0</ele><time>2026-04-22T12:50:47Z</time></trkpt><trkpt lat="45.0410845517218" lon="9.65322015820437"><ele>60.0</ele><time>2026-04-22T12:50:49Z</time></trkpt><trkpt lat="45.041128242750645" lon="9.653353004879756"><ele>60.0</ele><time>2026-04-22T12:50:51Z</time></trkpt><trkpt lat="45.04118493865225" lon="9.653485341755065"><ele>60.0</ele><time>2026-04-22T12:50:53Z</time></trkpt><trkpt lat="45.04125755330257" lon="9.653617192349802"><ele>60.0</ele><time>2026-04-22T12:50:55Z</time></trkpt><trkpt lat="45.04129096731066" lon="9.653749764106163"><ele>60.0</ele><time>2026-04-22T12:50:57Z</time></trkpt><trkpt lat="45.041339730609636" lon="9.653889420952513"><ele>60.0</ele><time>2026-04-22T12:50:59Z</time></trkpt><trkpt lat="45.04138949105777" lon="9.65402731840631"><ele>60.0</ele><time>2026-04-22T12:51:01Z</time></trkpt><trkpt lat="45.0414520215882" lon="9.654156045001143"><ele>60.0</ele><time>2026-04-22T12:51:03Z</time></trkpt><trkpt lat="45.04149183243572" lon="9.65429339771781"><ele>60.0</ele><time>2026-04-22T12:51:05Z</time></trkpt><trkpt lat="45.04155340408884" lon="9.65443390655431"><ele>60.0</ele><time>2026-04-22T12:51:07Z</time></trkpt><trkpt lat="45.04159653044533" lon="9.654571393185165"><ele>60.8</ele><time>2026-04-22T12:51:09Z</time></trkpt><trkpt lat="45.04164961579981" lon="9.654710695932783"><ele>61.6</ele><time>2026-04-22T12:51:11Z</time></trkpt><trkpt lat="45.04169701037122" lon="9.654854355563629"><ele>62.400000000000006</ele><time>2026-04-22T12:51:13Z</time></trkpt><trkpt lat="45.041751092346374" lon="9.65498672695275"><ele>63.2</ele><time>2026-04-22T12:51:15Z</time></trkpt><trkpt lat="45.04178658804466" lon="9.655122059573621"><ele>64.0</ele><time>2026-04-22T12:51:17Z</time></trkpt><trkpt lat="45.04183586124111" lon="9.655269708791927"><ele>63.800000000000004</ele><time>2026-04-22T12:51:19Z</time></trkpt><trkpt lat="45.041890109895746" lon="9.655397470807884"><ele>63.60000000000001</ele><time>2026-04-22T12:51:21Z</time></trkpt><trkpt lat="45.04192786037398" lon="9.655528756113252"><ele>63.4</ele><time>2026-04-22T12:51:23Z</time></trkpt><trkpt lat="45.04198507206104" lon="9.655658735283055"><ele>63.2</ele><time>2026-04-22T12:51:25Z</time></trkpt><trkpt lat="45.04202901915703" lon="9.655787699489437"><ele>63.0</ele><time>2026-04-22T12:51:27Z</time></trkpt><trkpt lat="45.04208005494083" lon="9.65590281185311"><ele>63.0</ele><time>2026-04-22T12:51:29Z</time></trkpt><trkpt lat="45.04211246360368" lon="9.656032482112023"><ele>63.0</ele><time>2026-04-22T12:51:31Z</time></trkpt><trkpt lat="45.0421594946493" lon="9.656159155677797"><ele>63.0</ele><time>2026-04-22T12:51:33Z</time></trkpt><trkpt lat="45.04220734297588" lon="9.656287661025075"><ele>63.0</ele><time>2026-04-22T12:51:35Z</time></trkpt><trkpt lat="45.042258638705654" lon="9.656410222362348"><ele>63.0</ele><time>2026-04-22T12:51:37Z</time></trkpt><trkpt lat="45.04230285814095" lon="9.656540878710484"><ele>63.2</ele><time>2026-04-22T12:51:39Z</time></trkpt><trkpt lat="45.04233954320462" lon="9.65665800122383"><ele>63.4</ele><time>2026-04-22T12:51:41Z</time></trkpt><trkpt lat="45.04238615673206" lon="9.65678585662544"><ele>63.60000000000001</ele><time>2026-04-22T12:51:43Z</time></trkpt><trkpt lat="45.04242547689841" lon="9.656907563523324"><ele>63.800000000000004</ele><time>2026-04-22T12:51:44.999Z</time></trkpt><trkpt lat="45.04248287304116" lon="9.657028272655774"><ele>64.0</ele><time>2026-04-22T12:51:46.999Z</time></trkpt><trkpt lat="45.0425196570584" lon="9.657160649620423"><ele>63.400000000000006</ele><time>2026-04-22T12:51:48.999Z</time></trkpt><trkpt lat="45.042559901628216" lon="9.65729137736382"><ele>62.800000000000004</ele><time>2026-04-22T12:51:50.999Z</time></trkpt><trkpt lat="45.0426033063926" lon="9.657425626165836"><ele>62.199999999999996</ele><time>2026-04-22T12:51:52.999Z</time></trkpt><trkpt lat="45.042643268471245" lon="9.657534583130923"><ele>61.599999999999994</ele><time>2026-04-22T12:51:54.999Z</time></trkpt><trkpt lat="45.04268694525926" lon="9.65765936560486"><ele>61.0</ele><time>2026-04-22T12:51:56.999Z</time></trkpt><trkpt lat="45.04272873269531" lon="9.657787412791581"><ele>61.0</ele><time>2026-04-22T12:51:58.999Z</time></trkpt><trkpt lat="45.04277376342322" lon="9.65790935932788"><ele>60.99999999999999</ele><time>2026-04-22T12:52:00.999Z</time></trkpt><trkpt lat="45.042815125148984" lon="9.658040433706605"><ele>60.99999999999999</ele><time>2026-04-22T12:52:02.999Z</time></trkpt><trkpt lat="45.042857762361145" lon="9.658163741484973"><ele>61.0</ele><time>2026-04-22T12:52:04.999Z</time></trkpt><trkpt lat="45.04291435288289" lon="9.658303846741893"><ele>61.0</ele><time>2026-04-22T12:52:06.999Z</time></trkpt><trkpt lat="45.04295353122939" lon="9.65840605935681"><ele>61.0</ele><time>2026-04-22T12:52:08.999Z</time></trkpt><trkpt lat="45.043002992821926" lon="9.658531232248453"><ele>60.99999999999999</ele><time>2026-04-22T12:52:10.999Z</time></trkpt><trkpt lat="45.04304943913919" lon="9.658651219512771"><ele>60.99999999999999</ele><time>2026-04-22T12:52:12.999Z</time></trkpt><trkpt lat="45.04309355564772" lon="9.65876902184921"><ele>61.0</ele><time>2026-04-22T12:52:14.999Z</time></trkpt><trkpt lat="45.04312986373476" lon="9.658892379943703"><ele>61.0</ele><time>2026-04-22T12:52:16.999Z</time></trkpt><trkpt lat="45.04316526269058" lon="9.659019061895254"><ele>60.8</ele><time>2026-04-22T12:52:18.999Z</time></trkpt><trkpt lat="45.04320939184117" lon="9.659140847001721"><ele>60.599999999999994</ele><time>2026-04-22T12:52:20.999Z</time></trkpt><trkpt lat="45.04325505758968" lon="9.659264562453721"><ele>60.4</ele><time>2026-04-22T12:52:22.999Z</time></trkpt><trkpt lat="45.04329651940458" lon="9.659387022947348"><ele>60.2</ele><time>2026-04-22T12:52:24.999Z</time></trkpt><trkpt lat="45.04333964465426" lon="9.659525876523693"><ele>60.0</ele><time>2026-04-22T12:52:26.999Z</time></trkpt><trkpt lat="45.043380294589376" lon="9.659642992875623"><ele>60.0</ele><time>2026-04-22T12:52:28.999Z</time></trkpt><trkpt lat="45.04341747714778" lon="9.659768990288883"><ele>60.0</ele><time>2026-04-22T12:52:30.999Z</time></trkpt><trkpt lat="45.04343606747132" lon="9.659906522962832"><ele>60.0</ele><time>2026-04-22T12:52:32.999Z</time></trkpt><trkpt lat="45.04344980231432" lon="9.660043521486129"><ele>60.0</ele><time>2026-04-22T12:52:34.999Z</time></trkpt><trkpt lat="45.04345379808178" lon="9.660166816376861"><ele>60.0</ele><time>2026-04-22T12:52:36.999Z</time></trkpt><trkpt lat="45.043443781845404" lon="9.660294399210407"><ele>60.4</ele><time>2026-04-22T12:52:38.999Z</time></trkpt><trkpt lat="45.04344257398265" lon="9.660402313959388"><ele>60.8</ele><time>2026-04-22T12:52:40.999Z</time></trkpt><trkpt lat="45.04347280214022" lon="9.660500627671524"><ele>61.2</ele><time>2026-04-22T12:52:42.999Z</time></trkpt><trkpt lat="45.04369122265937" lon="9.660509402958668"><ele>61.6</ele><time>2026-04-22T12:52:49Z</time></trkpt><trkpt lat="45.04374578281976" lon="9.660455241356496"><ele>62.0</ele><time>2026-04-22T12:52:51Z</time></trkpt><trkpt lat="45.043794599275955" lon="9.660372641726603"><ele>62.00000000000001</ele><time>2026-04-22T12:52:53Z</time></trkpt><trkpt lat="45.04384377023533" lon="9.660290331074824"><ele>62.0</ele><time>2026-04-22T12:52:55Z</time></trkpt><trkpt lat="45.04392401806382" lon="9.660257021940833"><ele>62.0</ele><time>2026-04-22T12:52:59Z</time></trkpt><trkpt lat="45.04399289110016" lon="9.660243290436158"><ele>62.0</ele><time>2026-04-22T12:53:02Z</time></trkpt><trkpt lat="45.044094198062666" lon="9.660240227428407"><ele>62.00000000000001</ele><time>2026-04-22T12:53:05Z</time></trkpt><trkpt lat="45.04416948024274" lon="9.660274601643168"><ele>62.0</ele><time>2026-04-22T12:53:07Z</time></trkpt><trkpt lat="45.044236628261494" lon="9.660332979403222"><ele>61.333333333333336</ele><time>2026-04-22T12:53:09Z</time></trkpt><trkpt lat="45.044288961552134" lon="9.660401487580547"><ele>60.66666666666667</ele><time>2026-04-22T12:53:11Z</time></trkpt><trkpt lat="45.04436162431285" lon="9.66047095706038"><ele>60.0</ele><time>2026-04-22T12:53:13Z</time></trkpt><trkpt lat="45.044421258715296" lon="9.660525457104699"><ele>59.33333333333333</ele><time>2026-04-22T12:53:15Z</time></trkpt><trkpt lat="45.04444151374641" lon="9.66061731263814"><ele>58.666666666666664</ele><time>2026-04-22T12:53:17Z</time></trkpt><trkpt lat="45.0444480684411" lon="9.660757633480515"><ele>58.0</ele><time>2026-04-22T12:53:19Z</time></trkpt><trkpt lat="45.04446343596527" lon="9.660882357724715"><ele>57.99999999999999</ele><time>2026-04-22T12:53:21Z</time></trkpt><trkpt lat="45.04447118731037" lon="9.661016053190744"><ele>58.0</ele><time>2026-04-22T12:53:24Z</time></trkpt><trkpt lat="45.04449043421844" lon="9.661134193645982"><ele>58.0</ele><time>2026-04-22T12:53:26Z</time></trkpt><trkpt lat="45.044502262022164" lon="9.66125034106426"><ele>58.0</ele><time>2026-04-22T12:53:28Z</time></trkpt><trkpt lat="45.04452035835117" lon="9.661372810577822"><ele>57.99999999999999</ele><time>2026-04-22T12:53:30Z</time></trkpt><trkpt lat="45.04454644741013" lon="9.661471545508457"><ele>58.0</ele><time>2026-04-22T12:53:32Z</time></trkpt><trkpt lat="45.04455866180615" lon="9.661595247641541"><ele>58.666666666666664</ele><time>2026-04-22T12:53:34Z</time></trkpt><trkpt lat="45.04457941299498" lon="9.66171247741397"><ele>59.33333333333333</ele><time>2026-04-22T12:53:36Z</time></trkpt><trkpt lat="45.04459191405324" lon="9.661826387973965"><ele>60.0</ele><time>2026-04-22T12:53:38Z</time></trkpt><trkpt lat="45.044612193873775" lon="9.661954043161899"><ele>60.66666666666667</ele><time>2026-04-22T12:53:40Z</time></trkpt><trkpt lat="45.044633122152646" lon="9.66208081735195"><ele>61.333333333333336</ele><time>2026-04-22T12:53:42Z</time></trkpt><trkpt lat="45.04464952694089" lon="9.662193910074938"><ele>62.0</ele><time>2026-04-22T12:53:44Z</time></trkpt><trkpt lat="45.044666592008184" lon="9.66231181920007"><ele>62.00000000000001</ele><time>2026-04-22T12:53:45.999Z</time></trkpt><trkpt lat="45.04468498308251" lon="9.662422467551924"><ele>62.0</ele><time>2026-04-22T12:53:47.999Z</time></trkpt><trkpt lat="45.04471171734574" lon="9.662558822715782"><ele>62.0</ele><time>2026-04-22T12:53:49.999Z</time></trkpt><trkpt lat="45.0447301470645" lon="9.662677872193665"><ele>62.0</ele><time>2026-04-22T12:53:51.999Z</time></trkpt><trkpt lat="45.04474584621118" lon="9.662803164133573"><ele>62.00000000000001</ele><time>2026-04-22T12:53:53.999Z</time></trkpt><trkpt lat="45.044764179343225" lon="9.662918534891975"><ele>62.0</ele><time>2026-04-22T12:53:55.999Z</time></trkpt><trkpt lat="45.04477765680376" lon="9.663044721818975"><ele>62.00000000000001</ele><time>2026-04-22T12:53:57.999Z</time></trkpt><trkpt lat="45.04481206159067" lon="9.663156544877323"><ele>62.0</ele><time>2026-04-22T12:53:59.999Z</time></trkpt><trkpt lat="45.044838647322656" lon="9.663253907184556"><ele>62.0</ele><time>2026-04-22T12:54:01.999Z</time></trkpt><trkpt lat="45.044883581705896" lon="9.663378465998631"><ele>62.0</ele><time>2026-04-22T12:54:03.999Z</time></trkpt><trkpt lat="45.044908643901316" lon="9.663499841638151"><ele>62.00000000000001</ele><time>2026-04-22T12:54:05.999Z</time></trkpt><trkpt lat="45.04492870918869" lon="9.66363182772366"><ele>62.0</ele><time>2026-04-22T12:54:07.999Z</time></trkpt><trkpt lat="45.04495220265034" lon="9.663756005083705"><ele>61.333333333333336</ele><time>2026-04-22T12:54:09.999Z</time></trkpt><trkpt lat="45.04498142964241" lon="9.663864732865918"><ele>60.66666666666667</ele><time>2026-04-22T12:54:11.999Z</time></trkpt><trkpt lat="45.04502368200959" lon="9.663990155831641"><ele>60.0</ele><time>2026-04-22T12:54:13.999Z</time></trkpt><trkpt lat="45.04505488059571" lon="9.664106886875556"><ele>59.33333333333333</ele><time>2026-04-22T12:54:15.999Z</time></trkpt><trkpt lat="45.0451009260233" lon="9.664224113494193"><ele>58.666666666666664</ele><time>2026-04-22T12:54:17.999Z</time></trkpt><trkpt lat="45.04513090727909" lon="9.664329324179617"><ele>58.0</ele><time>2026-04-22T12:54:19.999Z</time></trkpt><trkpt lat="45.04518207926701" lon="9.664440033633326"><ele>58.666666666666664</ele><time>2026-04-22T12:54:21.999Z</time></trkpt><trkpt lat="45.04521363649775" lon="9.664523642379217"><ele>59.33333333333333</ele><time>2026-04-22T12:54:23.999Z</time></trkpt><trkpt lat="45.04524836804302" lon="9.664621029949673"><ele>60.0</ele><time>2026-04-22T12:54:25.999Z</time></trkpt><trkpt lat="45.04530363490466" lon="9.664698243589926"><ele>60.66666666666667</ele><time>2026-04-22T12:54:27.999Z</time></trkpt><trkpt lat="45.04535522934911" lon="9.664803449533776"><ele>61.333333333333336</ele><time>2026-04-22T12:54:29.999Z</time></trkpt><trkpt lat="45.04540565987113" lon="9.664909992111292"><ele>62.0</ele><time>2026-04-22T12:54:31.999Z</time></trkpt><trkpt lat="45.04544791090332" lon="9.66501817615809"><ele>62.0</ele><time>2026-04-22T12:54:33.999Z</time></trkpt><trkpt lat="45.045473861299755" lon="9.66511263129566"><ele>62.00000000000001</ele><time>2026-04-22T12:54:35.999Z</time></trkpt><trkpt lat="45.04553638526737" lon="9.6651453276297"><ele>62.0</ele><time>2026-04-22T12:54:37.999Z</time></trkpt><trkpt lat="45.045598606855926" lon="9.6651950092966"><ele>62.0</ele><time>2026-04-22T12:54:42.999Z</time></trkpt><trkpt lat="45.04558055130426" lon="9.665298150185258"><ele>62.00000000000001</ele><time>2026-04-22T12:54:44.999Z</time></trkpt><trkpt lat="45.045551875914626" lon="9.6653859217558"><ele>62.0</ele><time>2026-04-22T12:54:46.999Z</time></trkpt><trkpt lat="45.045556919213034" lon="9.665496889868226"><ele>62.0</ele><time>2026-04-22T12:54:49Z</time></trkpt><trkpt lat="45.0455908647322" lon="9.66558952664573"><ele>62.00000000000001</ele><time>2026-04-22T12:54:51Z</time></trkpt><trkpt lat="45.045622611600145" lon="9.665686781889347"><ele>62.0</ele><time>2026-04-22T12:54:53Z</time></trkpt><trkpt lat="45.04565520415376" lon="9.66578944883215"><ele>62.0</ele><time>2026-04-22T12:54:55Z</time></trkpt><trkpt lat="45.04568252103093" lon="9.665873023804558"><ele>62.0</ele><time>2026-04-22T12:54:57Z</time></trkpt><trkpt lat="45.04571847228956" lon="9.665983647371489"><ele>62.00000000000001</ele><time>2026-04-22T12:55:00Z</time></trkpt><trkpt lat="45.04569259817893" lon="9.666090926858582"><ele>62.0</ele><time>2026-04-22T12:55:04Z</time></trkpt><trkpt lat="45.045674925255405" lon="9.66619332645986"><ele>62.0</ele><time>2026-04-22T12:55:11Z</time></trkpt><trkpt lat="45.045668932923626" lon="9.666316093403053"><ele>62.0</ele><time>2026-04-22T12:55:14Z</time></trkpt><trkpt lat="45.045705097779134" lon="9.666455584829224"><ele>62.0</ele><time>2026-04-22T12:55:16Z</time></trkpt><trkpt lat="45.04574679429387" lon="9.666561295299152"><ele>62.0</ele><time>2026-04-22T12:55:18Z</time></trkpt><trkpt lat="45.04581148764876" lon="9.666674554531417"><ele>62.0</ele><time>2026-04-22T12:55:20Z</time></trkpt><trkpt lat="45.0458654675422" lon="9.666790124633348"><ele>62.00000000000001</ele><time>2026-04-22T12:55:22Z</time></trkpt><trkpt lat="45.04591212172272" lon="9.66689412274905"><ele>62.0</ele><time>2026-04-22T12:55:24Z</time></trkpt><trkpt lat="45.04596146270777" lon="9.666987986818139"><ele>62.0</ele><time>2026-04-22T12:55:26Z</time></trkpt><trkpt lat="45.04599504434209" lon="9.667071286630534"><ele>62.0</ele><time>2026-04-22T12:55:28Z</time></trkpt><trkpt lat="45.045905791638745" lon="9.66713953372729"><ele>62.00000000000001</ele><time>2026-04-22T12:55:31Z</time></trkpt><trkpt lat="45.04582313016528" lon="9.667190005447493"><ele>62.0</ele><time>2026-04-22T12:55:33Z</time></trkpt><trkpt lat="45.04576370284446" lon="9.667229271097595"><ele>61.66666666666667</ele><time>2026-04-22T12:55:35Z</time></trkpt><trkpt lat="45.04569455944809" lon="9.667298836617375"><ele>61.333333333333336</ele><time>2026-04-22T12:55:37Z</time></trkpt><trkpt lat="45.045614190325566" lon="9.66736390184509"><ele>61.0</ele><time>2026-04-22T12:55:39Z</time></trkpt><trkpt lat="45.045610618652645" lon="9.667480611026628"><ele>60.66666666666667</ele><time>2026-04-22T12:55:42Z</time></trkpt><trkpt lat="45.0455217923537" lon="9.66755742441403"><ele>60.333333333333336</ele><time>2026-04-22T12:55:44Z</time></trkpt><trkpt lat="45.045448695932784" lon="9.667613546952827"><ele>60.0</ele><time>2026-04-22T12:55:46Z</time></trkpt><trkpt lat="45.045375184395745" lon="9.667680135634349"><ele>60.0</ele><time>2026-04-22T12:55:48Z</time></trkpt><trkpt lat="45.04529886398855" lon="9.667770133897433"><ele>60.0</ele><time>2026-04-22T12:55:50Z</time></trkpt><trkpt lat="45.045238317870336" lon="9.667844071786119"><ele>60.0</ele><time>2026-04-22T12:55:51.999Z</time></trkpt><trkpt lat="45.045181701578386" lon="9.667915683149452"><ele>60.0</ele><time>2026-04-22T12:55:53.999Z</time></trkpt><trkpt lat="45.045104684156954" lon="9.667999190091196"><ele>60.0</ele><time>2026-04-22T12:55:55.999Z</time></trkpt><trkpt lat="45.04502309916129" lon="9.668070278231138"><ele>60.0</ele><time>2026-04-22T12:55:57.999Z</time></trkpt><trkpt lat="45.04495744700518" lon="9.668127462947753"><ele>59.833333333333336</ele><time>2026-04-22T12:55:59.999Z</time></trkpt><trkpt lat="45.044888882706694" lon="9.668181914955177"><ele>59.66666666666667</ele><time>2026-04-22T12:56:01.999Z</time></trkpt><trkpt lat="45.044816762992454" lon="9.668257071889009"><ele>59.5</ele><time>2026-04-22T12:56:03.999Z</time></trkpt><trkpt lat="45.044755098564366" lon="9.668312354237159"><ele>59.333333333333336</ele><time>2026-04-22T12:56:05.999Z</time></trkpt><trkpt lat="45.04469036037698" lon="9.668394397525118"><ele>59.16666666666667</ele><time>2026-04-22T12:56:07.999Z</time></trkpt><trkpt lat="45.044610239763955" lon="9.668465785126786"><ele>59.0</ele><time>2026-04-22T12:56:09.999Z</time></trkpt><trkpt lat="45.044548811072985" lon="9.668522881186426"><ele>59.00000000000001</ele><time>2026-04-22T12:56:11.999Z</time></trkpt><trkpt lat="45.044467307397255" lon="9.668603881396054"><ele>59.0</ele><time>2026-04-22T12:56:13.999Z</time></trkpt><trkpt lat="45.0443908605045" lon="9.668667251561196"><ele>59.0</ele><time>2026-04-22T12:56:15.999Z</time></trkpt><trkpt lat="45.04433049357705" lon="9.668721030181782"><ele>59.0</ele><time>2026-04-22T12:56:17.999Z</time></trkpt><trkpt lat="45.04425961779114" lon="9.668781299812258"><ele>59.00000000000001</ele><time>2026-04-22T12:56:19.999Z</time></trkpt><trkpt lat="45.044181654423355" lon="9.66882911016311"><ele>59.0</ele><time>2026-04-22T12:56:21.999Z</time></trkpt><trkpt lat="45.04411522963686" lon="9.6689022989868"><ele>59.16666666666667</ele><time>2026-04-22T12:56:23.999Z</time></trkpt><trkpt lat="45.04404929143768" lon="9.668931250923011"><ele>59.333333333333336</ele><time>2026-04-22T12:56:25.999Z</time></trkpt><trkpt lat="45.04398525646114" lon="9.669017078821126"><ele>59.5</ele><time>2026-04-22T12:56:27.999Z</time></trkpt><trkpt lat="45.04391561779307" lon="9.669087590531898"><ele>59.66666666666667</ele><time>2026-04-22T12:56:29.999Z</time></trkpt><trkpt lat="45.04382757822894" lon="9.669172746735175"><ele>59.833333333333336</ele><time>2026-04-22T12:56:32.999Z</time></trkpt><trkpt lat="45.0437731406232" lon="9.669236321849832"><ele>60.0</ele><time>2026-04-22T12:56:34.999Z</time></trkpt><trkpt lat="45.043740892420274" lon="9.669326666844954"><ele>60.0</ele><time>2026-04-22T12:56:36.999Z</time></trkpt><trkpt lat="45.043665107508204" lon="9.669427708787289"><ele>60.0</ele><time>2026-04-22T12:56:38.999Z</time></trkpt><trkpt lat="45.04363035625553" lon="9.669526212994182"><ele>60.0</ele><time>2026-04-22T12:56:40.999Z</time></trkpt><trkpt lat="45.04356094151307" lon="9.669592194943442"><ele>60.0</ele><time>2026-04-22T12:56:42.999Z</time></trkpt><trkpt lat="45.04349177776016" lon="9.66964393404617"><ele>60.0</ele><time>2026-04-22T12:56:44.999Z</time></trkpt><trkpt lat="45.043426610244985" lon="9.669748919146237"><ele>60.0</ele><time>2026-04-22T12:56:46.999Z</time></trkpt><trkpt lat="45.04336178775836" lon="9.669856182103594"><ele>60.0</ele><time>2026-04-22T12:56:48.999Z</time></trkpt><trkpt lat="45.043299634839336" lon="9.669946475695905"><ele>60.0</ele><time>2026-04-22T12:56:50.999Z</time></trkpt><trkpt lat="45.04322908277144" lon="9.670044172706836"><ele>60.0</ele><time>2026-04-22T12:56:52.999Z</time></trkpt><trkpt lat="45.0431833139127" lon="9.670110176255063"><ele>60.0</ele><time>2026-04-22T12:56:55Z</time></trkpt><trkpt lat="45.04312200738978" lon="9.670212473853923"><ele>60.0</ele><time>2026-04-22T12:56:57Z</time></trkpt><trkpt lat="45.043052231246804" lon="9.670316597913168"><ele>60.0</ele><time>2026-04-22T12:56:59Z</time></trkpt><trkpt lat="45.042989790981004" lon="9.670377676424097"><ele>60.333333333333336</ele><time>2026-04-22T12:57:01Z</time></trkpt><trkpt lat="45.04293431360937" lon="9.670460826641506"><ele>60.66666666666667</ele><time>2026-04-22T12:57:03Z</time></trkpt><trkpt lat="45.04289152991053" lon="9.670544872691748"><ele>61.0</ele><time>2026-04-22T12:57:04Z</time></trkpt><trkpt lat="45.04282529404939" lon="9.670624542546877"><ele>61.333333333333336</ele><time>2026-04-22T12:57:06Z</time></trkpt><trkpt lat="45.04273962893569" lon="9.670731666375783"><ele>61.66666666666667</ele><time>2026-04-22T12:57:09Z</time></trkpt><trkpt lat="45.04269470676591" lon="9.670810930289157"><ele>62.0</ele><time>2026-04-22T12:57:11Z</time></trkpt><trkpt lat="45.04262082738957" lon="9.670892280811131"><ele>62.0</ele><time>2026-04-22T12:57:13Z</time></trkpt><trkpt lat="45.042538247574875" lon="9.67097949615679"><ele>62.0</ele><time>2026-04-22T12:57:15Z</time></trkpt><trkpt lat="45.04247274567555" lon="9.671047855445261"><ele>62.0</ele><time>2026-04-22T12:57:17Z</time></trkpt><trkpt lat="45.042396165602085" lon="9.671155316573058"><ele>62.0</ele><time>2026-04-22T12:57:19Z</time></trkpt><trkpt lat="45.04232583386382" lon="9.671261740746473"><ele>62.0</ele><time>2026-04-22T12:57:21Z</time></trkpt><trkpt lat="45.042271007191054" lon="9.671344607107102"><ele>61.833333333333336</ele><time>2026-04-22T12:57:23Z</time></trkpt><trkpt lat="45.042201475748534" lon="9.671419410356036"><ele>61.66666666666667</ele><time>2026-04-22T12:57:25Z</time></trkpt><trkpt lat="45.042131637752256" lon="9.671487192489078"><ele>61.5</ele><time>2026-04-22T12:57:27Z</time></trkpt><trkpt lat="45.04207092619456" lon="9.671576887306472"><ele>61.33333333333333</ele><time>2026-04-22T12:57:29Z</time></trkpt><trkpt lat="45.04200638574647" lon="9.671668715576763"><ele>61.166666666666664</ele><time>2026-04-22T12:57:31Z</time></trkpt><trkpt lat="45.0419530281142" lon="9.671747549956205"><ele>61.0</ele><time>2026-04-22T12:57:33Z</time></trkpt><trkpt lat="45.04189404939322" lon="9.671820710619416"><ele>60.99999999999999</ele><time>2026-04-22T12:57:35Z</time></trkpt><trkpt lat="45.04182672004525" lon="9.671879267682362"><ele>61.0</ele><time>2026-04-22T12:57:37Z</time></trkpt><trkpt lat="45.04176393355778" lon="9.671844592406561"><ele>61.0</ele><time>2026-04-22T12:57:39Z</time></trkpt><trkpt lat="45.04171799107552" lon="9.671729007922625"><ele>61.0</ele><time>2026-04-22T12:57:41Z</time></trkpt><trkpt lat="45.04166543113527" lon="9.671633276618776"><ele>60.99999999999999</ele><time>2026-04-22T12:57:43Z</time></trkpt><trkpt lat="45.04162065525584" lon="9.671533897987523"><ele>61.0</ele><time>2026-04-22T12:57:45Z</time></trkpt><trkpt lat="45.041574304943914" lon="9.671432507927886"><ele>61.0</ele><time>2026-04-22T12:57:47Z</time></trkpt><trkpt lat="45.04151799456281" lon="9.671313128237376"><ele>60.99999999999999</ele><time>2026-04-22T12:57:49Z</time></trkpt><trkpt lat="45.0414348415243" lon="9.671205917156911"><ele>60.99999999999999</ele><time>2026-04-22T12:57:51Z</time></trkpt><trkpt lat="45.04141661384597" lon="9.671056286954197"><ele>61.0</ele><time>2026-04-22T12:57:52.999Z</time></trkpt><trkpt lat="45.041354313575965" lon="9.670956027945941"><ele>61.0</ele><time>2026-04-22T12:57:54.999Z</time></trkpt><trkpt lat="45.041276541475085" lon="9.670836519745372"><ele>60.99999999999999</ele><time>2026-04-22T12:57:56.999Z</time></trkpt><trkpt lat="45.04122543785758" lon="9.670768251048232"><ele>61.0</ele><time>2026-04-22T12:57:57.999Z</time></trkpt><trkpt lat="45.04118030039237" lon="9.670673468266372"><ele>61.0</ele><time>2026-04-22T12:57:59.999Z</time></trkpt><trkpt lat="45.04114995702908" lon="9.670583955928823"><ele>61.0</ele><time>2026-04-22T12:58:01.999Z</time></trkpt><trkpt lat="45.041144548530546" lon="9.670452121848585"><ele>60.99999999999999</ele><time>2026-04-22T12:58:04.999Z</time></trkpt><trkpt lat="45.04106029331161" lon="9.670457685020581"><ele>61.0</ele><time>2026-04-22T12:58:07.999Z</time></trkpt><trkpt lat="45.040988505493715" lon="9.670501281681275"><ele>60.99999999999999</ele><time>2026-04-22T12:58:09.999Z</time></trkpt><trkpt lat="45.04093134822591" lon="9.670562455418324"><ele>61.0</ele><time>2026-04-22T12:58:11.999Z</time></trkpt><trkpt lat="45.04087356130021" lon="9.670633381089903"><ele>61.0</ele><time>2026-04-22T12:58:13.999Z</time></trkpt><trkpt lat="45.04081748852172" lon="9.670684067096023"><ele>61.0</ele><time>2026-04-22T12:58:15.999Z</time></trkpt><trkpt lat="45.04073674627648" lon="9.67065681458449"><ele>60.99999999999999</ele><time>2026-04-22T12:58:18.999Z</time></trkpt><trkpt lat="45.040705603095574" lon="9.670536167724714"><ele>61.0</ele><time>2026-04-22T12:58:20.999Z</time></trkpt><trkpt lat="45.04066666404074" lon="9.670442860100398"><ele>61.166666666666664</ele><time>2026-04-22T12:58:22.999Z</time></trkpt><trkpt lat="45.04062836600551" lon="9.670345099391005"><ele>61.33333333333333</ele><time>2026-04-22T12:58:24.999Z</time></trkpt><trkpt lat="45.04060439426385" lon="9.670225984052374"><ele>61.5</ele><time>2026-04-22T12:58:26.999Z</time></trkpt><trkpt lat="45.04057730829055" lon="9.67010550541171"><ele>61.66666666666667</ele><time>2026-04-22T12:58:28.999Z</time></trkpt><trkpt lat="45.04053918870711" lon="9.669975854631955"><ele>61.833333333333336</ele><time>2026-04-22T12:58:30.999Z</time></trkpt><trkpt lat="45.04050435933172" lon="9.66985707612311"><ele>62.0</ele><time>2026-04-22T12:58:32.999Z</time></trkpt><trkpt lat="45.04046172377939" lon="9.669733522082542"><ele>61.66666666666667</ele><time>2026-04-22T12:58:34.999Z</time></trkpt><trkpt lat="45.04043140018538" lon="9.669603905927131"><ele>61.333333333333336</ele><time>2026-04-22T12:58:36.999Z</time></trkpt><trkpt lat="45.04040245062931" lon="9.669481507044702"><ele>61.0</ele><time>2026-04-22T12:58:38.999Z</time></trkpt><trkpt lat="45.040367105923366" lon="9.669379024418681"><ele>60.66666666666667</ele><time>2026-04-22T12:58:40.999Z</time></trkpt><trkpt lat="45.04034122520017" lon="9.669259315816557"><ele>60.333333333333336</ele><time>2026-04-22T12:58:42.999Z</time></trkpt><trkpt lat="45.040298209779124" lon="9.66914595437248"><ele>60.0</ele><time>2026-04-22T12:58:44.999Z</time></trkpt><trkpt lat="45.04027148302233" lon="9.669009527288782"><ele>60.0</ele><time>2026-04-22T12:58:46.999Z</time></trkpt><trkpt lat="45.0402044605743" lon="9.668852393442416"><ele>60.0</ele><time>2026-04-22T12:58:48.999Z</time></trkpt><trkpt lat="45.0401690094468" lon="9.668750350307254"><ele>60.0</ele><time>2026-04-22T12:58:50.999Z</time></trkpt><trkpt lat="45.040125167437964" lon="9.668635259960508"><ele>60.0</ele><time>2026-04-22T12:58:52.999Z</time></trkpt><trkpt lat="45.040097963479326" lon="9.66855346226143"><ele>60.0</ele><time>2026-04-22T12:58:53.999Z</time></trkpt><trkpt lat="45.0400580557038" lon="9.668423330518367"><ele>60.2</ele><time>2026-04-22T12:58:55.999Z</time></trkpt><trkpt lat="45.04000773942876" lon="9.668266177354194"><ele>60.4</ele><time>2026-04-22T12:58:57.999Z</time></trkpt><trkpt lat="45.03996621229651" lon="9.668167755587591"><ele>60.599999999999994</ele><time>2026-04-22T12:58:59.999Z</time></trkpt><trkpt lat="45.039929355767654" lon="9.668059968862064"><ele>60.8</ele><time>2026-04-22T12:59:02Z</time></trkpt><trkpt lat="45.03989795206094" lon="9.667946088453473"><ele>61.0</ele><time>2026-04-22T12:59:04Z</time></trkpt><trkpt lat="45.03986801333953" lon="9.66782833145362"><ele>59.8</ele><time>2026-04-22T12:59:06Z</time></trkpt><trkpt lat="45.03983871281568" lon="9.667714029445325"><ele>58.599999999999994</ele><time>2026-04-22T12:59:08Z</time></trkpt><trkpt lat="45.039811085834714" lon="9.667591038573986"><ele>57.4</ele><time>2026-04-22T12:59:10Z</time></trkpt><trkpt lat="45.03978209924421" lon="9.667453127660313"><ele>56.2</ele><time>2026-04-22T12:59:12Z</time></trkpt><trkpt lat="45.03972820311977" lon="9.667325191764746"><ele>55.0</ele><time>2026-04-22T12:59:14Z</time></trkpt><trkpt lat="45.03966269393537" lon="9.66720660491454"><ele>55.0</ele><time>2026-04-22T12:59:16Z</time></trkpt><trkpt lat="45.03961099522954" lon="9.667082739662147"><ele>55.0</ele><time>2026-04-22T12:59:18Z</time></trkpt><trkpt lat="45.03958471795049" lon="9.666963606423659"><ele>55.0</ele><time>2026-04-22T12:59:20Z</time></trkpt><trkpt lat="45.03953803717505" lon="9.666823900893165"><ele>55.0</ele><time>2026-04-22T12:59:22Z</time></trkpt><trkpt lat="45.03950642433966" lon="9.666683157227705"><ele>55.0</ele><time>2026-04-22T12:59:24Z</time></trkpt><trkpt lat="45.03947271256046" lon="9.666551426436884"><ele>55.8</ele><time>2026-04-22T12:59:26Z</time></trkpt><trkpt lat="45.03943622523172" lon="9.666427203211708"><ele>56.6</ele><time>2026-04-22T12:59:28Z</time></trkpt><trkpt lat="45.03940057007284" lon="9.666293567034954"><ele>57.400000000000006</ele><time>2026-04-22T12:59:30Z</time></trkpt><trkpt lat="45.039362367299034" lon="9.666160569893883"><ele>58.2</ele><time>2026-04-22T12:59:32Z</time></trkpt><trkpt lat="45.03933930019653" lon="9.666010153693895"><ele>59.0</ele><time>2026-04-22T12:59:34Z</time></trkpt><trkpt lat="45.039330980985945" lon="9.665857590491228"><ele>59.2</ele><time>2026-04-22T12:59:36Z</time></trkpt><trkpt lat="45.03934369102561" lon="9.665716799486722"><ele>59.400000000000006</ele><time>2026-04-22T12:59:38Z</time></trkpt><trkpt lat="45.039338886498065" lon="9.665559903684562"><ele>59.6</ele><time>2026-04-22T12:59:40Z</time></trkpt><trkpt lat="45.039327938691514" lon="9.665462807705822"><ele>59.8</ele><time>2026-04-22T12:59:41Z</time></trkpt><trkpt lat="45.03932620271509" lon="9.665333883105106"><ele>60.0</ele><time>2026-04-22T12:59:43Z</time></trkpt><trkpt lat="45.03930604327089" lon="9.665189940386258"><ele>60.0</ele><time>2026-04-22T12:59:45Z</time></trkpt><trkpt lat="45.03929219565839" lon="9.665078155892303"><ele>60.0</ele><time>2026-04-22T12:59:47Z</time></trkpt><trkpt lat="45.03927739906125" lon="9.664987137017388"><ele>60.0</ele><time>2026-04-22T12:59:48Z</time></trkpt><trkpt lat="45.03923678832731" lon="9.664820238986302"><ele>60.0</ele><time>2026-04-22T12:59:50Z</time></trkpt><trkpt lat="45.03920863981508" lon="9.664677580305964"><ele>60.0</ele><time>2026-04-22T12:59:52Z</time></trkpt><trkpt lat="45.03919134093995" lon="9.664534270964202"><ele>60.0</ele><time>2026-04-22T12:59:54Z</time></trkpt><trkpt lat="45.03916097953726" lon="9.664383803186523"><ele>60.0</ele><time>2026-04-22T12:59:56Z</time></trkpt><trkpt lat="45.03913308541431" lon="9.66423185074606"><ele>60.0</ele><time>2026-04-22T12:59:58Z</time></trkpt><trkpt lat="45.03910998777317" lon="9.664089752584399"><ele>60.0</ele><time>2026-04-22T13:00:00Z</time></trkpt><trkpt lat="45.03909037664335" lon="9.663957911287673"><ele>60.0</ele><time>2026-04-22T13:00:01.999Z</time></trkpt><trkpt lat="45.039066370720754" lon="9.663837704895968"><ele>60.166666666666664</ele><time>2026-04-22T13:00:03.999Z</time></trkpt><trkpt lat="45.039047229401966" lon="9.663713288822791"><ele>60.33333333333333</ele><time>2026-04-22T13:00:05.999Z</time></trkpt><trkpt lat="45.03900751054492" lon="9.663567987276323"><ele>60.5</ele><time>2026-04-22T13:00:07.999Z</time></trkpt><trkpt lat="45.03899335468179" lon="9.663433097867948"><ele>60.666666666666664</ele><time>2026-04-22T13:00:10.999Z</time></trkpt><trkpt lat="45.038994379437796" lon="9.663339670451748"><ele>60.83333333333333</ele><time>2026-04-22T13:00:13.999Z</time></trkpt><trkpt lat="45.03896118175697" lon="9.66326242446651"><ele>61.0</ele><time>2026-04-22T13:00:16.999Z</time></trkpt><trkpt lat="45.03887528674455" lon="9.66329397809109"><ele>61.33333333333333</ele><time>2026-04-22T13:00:18.999Z</time></trkpt><trkpt lat="45.03878615406253" lon="9.663278078707176"><ele>61.666666666666664</ele><time>2026-04-22T13:00:20.999Z</time></trkpt><trkpt lat="45.038712085202725" lon="9.663260839747412"><ele>62.0</ele><time>2026-04-22T13:00:22.999Z</time></trkpt><trkpt lat="45.038622185007995" lon="9.663235602408278"><ele>62.33333333333333</ele><time>2026-04-22T13:00:24.999Z</time></trkpt><trkpt lat="45.03853720346012" lon="9.663220131602644"><ele>62.666666666666664</ele><time>2026-04-22T13:00:26.999Z</time></trkpt><trkpt lat="45.03844737792718" lon="9.663204446913564"><ele>63.0</ele><time>2026-04-22T13:00:28.999Z</time></trkpt><trkpt lat="45.0383703098107" lon="9.663180406149149"><ele>63.166666666666664</ele><time>2026-04-22T13:00:30.999Z</time></trkpt><trkpt lat="45.03828555660175" lon="9.663170272544395"><ele>63.33333333333333</ele><time>2026-04-22T13:00:32.999Z</time></trkpt><trkpt lat="45.03821699037091" lon="9.663159700390992"><ele>63.5</ele><time>2026-04-22T13:00:34.999Z</time></trkpt><trkpt lat="45.03812848524228" lon="9.663133426860563"><ele>63.666666666666664</ele><time>2026-04-22T13:00:36.999Z</time></trkpt><trkpt lat="45.03803502695284" lon="9.663083413584818"><ele>63.83333333333333</ele><time>2026-04-22T13:00:38.999Z</time></trkpt><trkpt lat="45.03794299435456" lon="9.663073702858343"><ele>64.0</ele><time>2026-04-22T13:00:40.999Z</time></trkpt><trkpt lat="45.0378503140583" lon="9.66306296806555"><ele>63.99999999999999</ele><time>2026-04-22T13:00:42.999Z</time></trkpt><trkpt lat="45.03777482635795" lon="9.663051005286574"><ele>64.0</ele><time>2026-04-22T13:00:44.999Z</time></trkpt><trkpt lat="45.03770294780513" lon="9.663045751198489"><ele>64.0</ele><time>2026-04-22T13:00:46.999Z</time></trkpt><trkpt lat="45.03762709587898" lon="9.663035588816093"><ele>64.0</ele><time>2026-04-22T13:00:48.999Z</time></trkpt><trkpt lat="45.037543118301265" lon="9.663015237854784"><ele>63.99999999999999</ele><time>2026-04-22T13:00:50.999Z</time></trkpt><trkpt lat="45.037465727487756" lon="9.66299747949752"><ele>64.0</ele><time>2026-04-22T13:00:52.999Z</time></trkpt><trkpt lat="45.037398242657225" lon="9.66296766344291"><ele>64.16666666666666</ele><time>2026-04-22T13:00:54.999Z</time></trkpt><trkpt lat="45.03733001280811" lon="9.66295576595421"><ele>64.33333333333333</ele><time>2026-04-22T13:00:56.999Z</time></trkpt><trkpt lat="45.03725332953445" lon="9.662934412761636"><ele>64.5</ele><time>2026-04-22T13:00:58.999Z</time></trkpt><trkpt lat="45.03717286529425" lon="9.662928221412956"><ele>64.66666666666667</ele><time>2026-04-22T13:01:00.999Z</time></trkpt><trkpt lat="45.03709160265246" lon="9.662907755432554"><ele>64.83333333333334</ele><time>2026-04-22T13:01:02.999Z</time></trkpt><trkpt lat="45.037008444099875" lon="9.662889528607476"><ele>65.0</ele><time>2026-04-22T13:01:04.999Z</time></trkpt><trkpt lat="45.03689003654677" lon="9.662857430589916"><ele>65.0</ele><time>2026-04-22T13:01:08Z</time></trkpt><trkpt lat="45.03679009912418" lon="9.66282081812243"><ele>65.0</ele><time>2026-04-22T13:01:10Z</time></trkpt><trkpt lat="45.036714244440375" lon="9.662778319326023"><ele>65.0</ele><time>2026-04-22T13:01:12Z</time></trkpt><trkpt lat="45.036613686501404" lon="9.662790333766575"><ele>65.0</ele><time>2026-04-22T13:01:14Z</time></trkpt><trkpt lat="45.03651772410752" lon="9.662774133535093"><ele>65.0</ele><time>2026-04-22T13:01:16Z</time></trkpt><trkpt lat="45.036433586204794" lon="9.6627592780686"><ele>65.16666666666667</ele><time>2026-04-22T13:01:18Z</time></trkpt><trkpt lat="45.036350755376446" lon="9.66270902049796"><ele>65.33333333333334</ele><time>2026-04-22T13:01:20Z</time></trkpt><trkpt lat="45.036261970894905" lon="9.662708188768297"><ele>65.5</ele><time>2026-04-22T13:01:22Z</time></trkpt><trkpt lat="45.036166065653184" lon="9.662687965953534"><ele>65.66666666666667</ele><time>2026-04-22T13:01:24Z</time></trkpt><trkpt lat="45.03608728497778" lon="9.662670120860888"><ele>65.83333333333333</ele><time>2026-04-22T13:01:26Z</time></trkpt><trkpt lat="45.03599965391004" lon="9.662648858406458"><ele>66.0</ele><time>2026-04-22T13:01:28Z</time></trkpt><trkpt lat="45.03590755129964" lon="9.6626252579482"><ele>66.0</ele><time>2026-04-22T13:01:30Z</time></trkpt><trkpt lat="45.03580469932616" lon="9.66261001187282"><ele>66.0</ele><time>2026-04-22T13:01:32Z</time></trkpt><trkpt lat="45.035719913730674" lon="9.662577046949627"><ele>66.0</ele><time>2026-04-22T13:01:34Z</time></trkpt><trkpt lat="45.03564445677375" lon="9.662568049637093"><ele>66.0</ele><time>2026-04-22T13:01:36Z</time></trkpt><trkpt lat="45.035560168554355" lon="9.662548358823402"><ele>66.0</ele><time>2026-04-22T13:01:38Z</time></trkpt><trkpt lat="45.03546175490229" lon="9.66255750737259"><ele>65.83333333333333</ele><time>2026-04-22T13:01:40Z</time></trkpt><trkpt lat="45.035381930279755" lon="9.66251015915415"><ele>65.66666666666667</ele><time>2026-04-22T13:01:42Z</time></trkpt><trkpt lat="45.03530663780247" lon="9.6624820079992"><ele>65.5</ele><time>2026-04-22T13:01:44Z</time></trkpt><trkpt lat="45.035218296938496" lon="9.662467953641082"><ele>65.33333333333334</ele><time>2026-04-22T13:01:46Z</time></trkpt><trkpt lat="45.03512692960399" lon="9.662442699808455"><ele>65.16666666666667</ele><time>2026-04-22T13:01:48Z</time></trkpt><trkpt lat="45.035037817322454" lon="9.662411738812878"><ele>65.0</ele><time>2026-04-22T13:01:50Z</time></trkpt><trkpt lat="45.034948804285946" lon="9.662395888484781"><ele>65.0</ele><time>2026-04-22T13:01:52Z</time></trkpt><trkpt lat="45.03486535642085" lon="9.662379720420953"><ele>65.0</ele><time>2026-04-22T13:01:54Z</time></trkpt><trkpt lat="45.034774486574214" lon="9.662356866552633"><ele>65.0</ele><time>2026-04-22T13:01:56Z</time></trkpt><trkpt lat="45.03467632463819" lon="9.662334423488876"><ele>65.0</ele><time>2026-04-22T13:01:58Z</time></trkpt><trkpt lat="45.03459025754262" lon="9.662303561424126"><ele>65.0</ele><time>2026-04-22T13:02:00Z</time></trkpt><trkpt lat="45.03448806534039" lon="9.662292559127632"><ele>65.0</ele><time>2026-04-22T13:02:01.999Z</time></trkpt><trkpt lat="45.034404809193205" lon="9.662275561225224"><ele>65.0</ele><time>2026-04-22T13:02:03.999Z</time></trkpt><trkpt lat="45.034316805197356" lon="9.662246920984218"><ele>65.0</ele><time>2026-04-22T13:02:05.999Z</time></trkpt><trkpt lat="45.03421704726446" lon="9.66225813283728"><ele>65.0</ele><time>2026-04-22T13:02:07.999Z</time></trkpt><trkpt lat="45.03414072122738" lon="9.662306255148968"><ele>65.0</ele><time>2026-04-22T13:02:09.999Z</time></trkpt><trkpt lat="45.03407532900925" lon="9.66237924769403"><ele>65.0</ele><time>2026-04-22T13:02:11.999Z</time></trkpt><trkpt lat="45.03400643384051" lon="9.662476472627588"><ele>65.0</ele><time>2026-04-22T13:02:13.999Z</time></trkpt><trkpt lat="45.033941972749815" lon="9.662567157018739"><ele>65.0</ele><time>2026-04-22T13:02:15.999Z</time></trkpt><trkpt lat="45.03388173314635" lon="9.662626745670897"><ele>65.0</ele><time>2026-04-22T13:02:17.999Z</time></trkpt><trkpt lat="45.03380686472085" lon="9.6627486287037"><ele>65.0</ele><time>2026-04-22T13:02:19.999Z</time></trkpt><trkpt lat="45.03374444783848" lon="9.662870792516731"><ele>65.0</ele><time>2026-04-22T13:02:21.999Z</time></trkpt><trkpt lat="45.03368167550803" lon="9.662949892588935"><ele>65.0</ele><time>2026-04-22T13:02:23.999Z</time></trkpt><trkpt lat="45.033624145551336" lon="9.663054461276502"><ele>65.0</ele><time>2026-04-22T13:02:25.999Z</time></trkpt><trkpt lat="45.033570305537474" lon="9.663167619359282"><ele>65.0</ele><time>2026-04-22T13:02:27.999Z</time></trkpt><trkpt lat="45.03349652500857" lon="9.663258216544461"><ele>65.0</ele><time>2026-04-22T13:02:29.999Z</time></trkpt><trkpt lat="45.03343320415256" lon="9.663350130524972"><ele>65.0</ele><time>2026-04-22T13:02:31.999Z</time></trkpt><trkpt lat="45.03336491933788" lon="9.663441323341813"><ele>65.0</ele><time>2026-04-22T13:02:33.999Z</time></trkpt><trkpt lat="45.033298547368254" lon="9.663520079449729"><ele>65.0</ele><time>2026-04-22T13:02:35.999Z</time></trkpt><trkpt lat="45.033237043114774" lon="9.663617121255768"><ele>65.0</ele><time>2026-04-22T13:02:37.999Z</time></trkpt><trkpt lat="45.03316842375482" lon="9.663705645551326"><ele>65.0</ele><time>2026-04-22T13:02:39.999Z</time></trkpt><trkpt lat="45.03309898041144" lon="9.663794868812994"><ele>65.0</ele><time>2026-04-22T13:02:41.999Z</time></trkpt><trkpt lat="45.03302953268378" lon="9.66390428435204"><ele>65.0</ele><time>2026-04-22T13:02:43.999Z</time></trkpt><trkpt lat="45.03296451331216" lon="9.664006114606854"><ele>65.0</ele><time>2026-04-22T13:02:45.999Z</time></trkpt><trkpt lat="45.032918464216344" lon="9.664075282422099"><ele>65.0</ele><time>2026-04-22T13:02:46.999Z</time></trkpt><trkpt lat="45.032840234359" lon="9.6641209451235"><ele>65.0</ele><time>2026-04-22T13:02:48.999Z</time></trkpt><trkpt lat="45.03279077092065" lon="9.664193605433057"><ele>65.0</ele><time>2026-04-22T13:02:49.999Z</time></trkpt><trkpt lat="45.032739454948924" lon="9.66429960762941"><ele>65.0</ele><time>2026-04-22T13:02:51.999Z</time></trkpt><trkpt lat="45.03266424426019" lon="9.664351754669214"><ele>65.0</ele><time>2026-04-22T13:02:53.999Z</time></trkpt><trkpt lat="45.032581903484264" lon="9.664427186786844"><ele>65.0</ele><time>2026-04-22T13:02:55.999Z</time></trkpt><trkpt lat="45.032479778914514" lon="9.664498769410873"><ele>65.0</ele><time>2026-04-22T13:02:57.999Z</time></trkpt><trkpt lat="45.03237679588723" lon="9.66451167390846"><ele>65.0</ele><time>2026-04-22T13:02:59.999Z</time></trkpt><trkpt lat="45.03228183389136" lon="9.664505606426225"><ele>65.0</ele><time>2026-04-22T13:03:01.999Z</time></trkpt><trkpt lat="45.03219933772642" lon="9.664447391457431"><ele>65.4</ele><time>2026-04-22T13:03:03.999Z</time></trkpt><trkpt lat="45.0321129485796" lon="9.664405816975892"><ele>65.8</ele><time>2026-04-22T13:03:05.999Z</time></trkpt><trkpt lat="45.03202176921273" lon="9.664378488079526"><ele>66.2</ele><time>2026-04-22T13:03:07.999Z</time></trkpt><trkpt lat="45.031936567991266" lon="9.664333894123871"><ele>66.6</ele><time>2026-04-22T13:03:09.999Z</time></trkpt><trkpt lat="45.03185057048763" lon="9.664285283753102"><ele>67.0</ele><time>2026-04-22T13:03:11.999Z</time></trkpt><trkpt lat="45.03177942350065" lon="9.664190020247222"><ele>67.0</ele><time>2026-04-22T13:03:14Z</time></trkpt><trkpt lat="45.03171016966991" lon="9.664105983295492"><ele>67.0</ele><time>2026-04-22T13:03:16Z</time></trkpt><trkpt lat="45.031623324014944" lon="9.66399912794333"><ele>67.0</ele><time>2026-04-22T13:03:18Z</time></trkpt><trkpt lat="45.031557187103445" lon="9.663883243348518"><ele>67.0</ele><time>2026-04-22T13:03:20Z</time></trkpt><trkpt lat="45.031470314934495" lon="9.66379115433169"><ele>67.0</ele><time>2026-04-22T13:03:22Z</time></trkpt><trkpt lat="45.03138796494514" lon="9.663706553413862"><ele>67.6</ele><time>2026-04-22T13:03:24Z</time></trkpt><trkpt lat="45.031303818756825" lon="9.663622016131907"><ele>68.2</ele><time>2026-04-22T13:03:26Z</time></trkpt><trkpt lat="45.031234684382724" lon="9.663544379120607"><ele>68.8</ele><time>2026-04-22T13:03:28Z</time></trkpt><trkpt lat="45.031164109327946" lon="9.663430508989261"><ele>69.4</ele><time>2026-04-22T13:03:30Z</time></trkpt><trkpt lat="45.03108954688238" lon="9.663332696191162"><ele>70.0</ele><time>2026-04-22T13:03:32Z</time></trkpt><trkpt lat="45.031029164441236" lon="9.663230586847932"><ele>70.0</ele><time>2026-04-22T13:03:34Z</time></trkpt><trkpt lat="45.03096935755176" lon="9.663124719134428"><ele>70.0</ele><time>2026-04-22T13:03:37Z</time></trkpt><trkpt lat="45.03089494793668" lon="9.663017291180283"><ele>70.0</ele><time>2026-04-22T13:03:39Z</time></trkpt><trkpt lat="45.030832274320574" lon="9.662962432026644"><ele>70.0</ele><time>2026-04-22T13:03:40Z</time></trkpt><trkpt lat="45.03078249805376" lon="9.662879097853857"><ele>70.0</ele><time>2026-04-22T13:03:41Z</time></trkpt><trkpt lat="45.03071229353522" lon="9.662767768584368"><ele>69.8</ele><time>2026-04-22T13:03:43Z</time></trkpt><trkpt lat="45.030643294499264" lon="9.66267305532351"><ele>69.6</ele><time>2026-04-22T13:03:45Z</time></trkpt><trkpt lat="45.030550571235196" lon="9.662555894566509"><ele>69.4</ele><time>2026-04-22T13:03:47Z</time></trkpt><trkpt lat="45.03049606356629" lon="9.662497529148286"><ele>69.2</ele><time>2026-04-22T13:03:48Z</time></trkpt><trkpt lat="45.03044618597957" lon="9.662423444510521"><ele>69.0</ele><time>2026-04-22T13:03:49Z</time></trkpt><trkpt lat="45.03035678453412" lon="9.662286909155695"><ele>69.0</ele><time>2026-04-22T13:03:51Z</time></trkpt><trkpt lat="45.03027598793916" lon="9.662169279178135"><ele>69.0</ele><time>2026-04-22T13:03:53Z</time></trkpt><trkpt lat="45.03020790590346" lon="9.662046229352717"><ele>69.0</ele><time>2026-04-22T13:03:55Z</time></trkpt><trkpt lat="45.03012406591709" lon="9.66192743512899"><ele>69.0</ele><time>2026-04-22T13:03:57Z</time></trkpt><trkpt lat="45.03005724265657" lon="9.661833366097747"><ele>69.0</ele><time>2026-04-22T13:03:58Z</time></trkpt><trkpt lat="45.029983667552386" lon="9.661708263762273"><ele>69.16666666666667</ele><time>2026-04-22T13:04:00Z</time></trkpt><trkpt lat="45.02990043249463" lon="9.66158959859294"><ele>69.33333333333333</ele><time>2026-04-22T13:04:02Z</time></trkpt><trkpt lat="45.029810147730785" lon="9.661474809254722"><ele>69.5</ele><time>2026-04-22T13:04:04Z</time></trkpt><trkpt lat="45.02975806794217" lon="9.661396882649017"><ele>69.66666666666666</ele><time>2026-04-22T13:04:05Z</time></trkpt><trkpt lat="45.02970417553504" lon="9.661332286726392"><ele>69.83333333333333</ele><time>2026-04-22T13:04:06Z</time></trkpt><trkpt lat="45.02966750869037" lon="9.66125945618965"><ele>70.0</ele><time>2026-04-22T13:04:07Z</time></trkpt><trkpt lat="45.029623178348544" lon="9.661189179501932"><ele>69.6</ele><time>2026-04-22T13:04:08Z</time></trkpt><trkpt lat="45.029593696778086" lon="9.66110658795463"><ele>69.2</ele><time>2026-04-22T13:04:09Z</time></trkpt><trkpt lat="45.02949331574083" lon="9.660972349460227"><ele>68.8</ele><time>2026-04-22T13:04:11Z</time></trkpt><trkpt lat="45.029407008039804" lon="9.660840285833654"><ele>68.4</ele><time>2026-04-22T13:04:13Z</time></trkpt><trkpt lat="45.029345914964956" lon="9.660763519576044"><ele>68.0</ele><time>2026-04-22T13:04:14Z</time></trkpt><trkpt lat="45.029253328697756" lon="9.660645963125958"><ele>68.0</ele><time>2026-04-22T13:04:16Z</time></trkpt><trkpt lat="45.029167593385694" lon="9.660529865662731"><ele>68.0</ele><time>2026-04-22T13:04:17.999Z</time></trkpt><trkpt lat="45.029086878645636" lon="9.660400905172033"><ele>68.0</ele><time>2026-04-22T13:04:19.999Z</time></trkpt><trkpt lat="45.02900983611635" lon="9.660257319419808"><ele>68.0</ele><time>2026-04-22T13:04:21.999Z</time></trkpt><trkpt lat="45.028958426693166" lon="9.660189735193093"><ele>68.0</ele><time>2026-04-22T13:04:22.999Z</time></trkpt><trkpt lat="45.028910250231306" lon="9.660132380628202"><ele>68.33333333333334</ele><time>2026-04-22T13:04:23.999Z</time></trkpt><trkpt lat="45.0288597605053" lon="9.660073125537366"><ele>68.66666666666667</ele><time>2026-04-22T13:04:24.999Z</time></trkpt><trkpt lat="45.02881661182607" lon="9.66000699459951"><ele>69.0</ele><time>2026-04-22T13:04:25.999Z</time></trkpt><trkpt lat="45.02877107422484" lon="9.659940636364809"><ele>69.33333333333333</ele><time>2026-04-22T13:04:26.999Z</time></trkpt><trkpt lat="45.02868419048268" lon="9.65981721269845"><ele>69.66666666666666</ele><time>2026-04-22T13:04:28.999Z</time></trkpt><trkpt lat="45.028590509402875" lon="9.659687244138599"><ele>70.0</ele><time>2026-04-22T13:04:30.999Z</time></trkpt><trkpt lat="45.028545029148" lon="9.659615314394461"><ele>70.0</ele><time>2026-04-22T13:04:31.999Z</time></trkpt><trkpt lat="45.02849805135216" lon="9.65955035918007"><ele>70.0</ele><time>2026-04-22T13:04:32.999Z</time></trkpt><trkpt lat="45.02841647310296" lon="9.659432488516329"><ele>70.0</ele><time>2026-04-22T13:04:34.999Z</time></trkpt><trkpt lat="45.02837097116286" lon="9.659370037707737"><ele>70.0</ele><time>2026-04-22T13:04:35.999Z</time></trkpt><trkpt lat="45.02827636580505" lon="9.659238984829544"><ele>70.0</ele><time>2026-04-22T13:04:37.999Z</time></trkpt><trkpt lat="45.02822949722263" lon="9.659169266579383"><ele>70.0</ele><time>2026-04-22T13:04:38.999Z</time></trkpt><trkpt lat="45.02818710205268" lon="9.659102480809395"><ele>69.83333333333333</ele><time>2026-04-22T13:04:39.999Z</time></trkpt><trkpt lat="45.02809810904204" lon="9.658975038355731"><ele>69.66666666666666</ele><time>2026-04-22T13:04:41.999Z</time></trkpt><trkpt lat="45.02804683201243" lon="9.658911760599844"><ele>69.5</ele><time>2026-04-22T13:04:42.999Z</time></trkpt><trkpt lat="45.02800353611816" lon="9.658846324535602"><ele>69.33333333333333</ele><time>2026-04-22T13:04:43.999Z</time></trkpt><trkpt lat="45.02795682619231" lon="9.658776385120055"><ele>69.16666666666667</ele><time>2026-04-22T13:04:44.999Z</time></trkpt><trkpt lat="45.02790543647413" lon="9.658701127605141"><ele>69.0</ele><time>2026-04-22T13:04:45.999Z</time></trkpt><trkpt lat="45.02781857094384" lon="9.658581092882699"><ele>68.66666666666667</ele><time>2026-04-22T13:04:47.999Z</time></trkpt><trkpt lat="45.02777255044411" lon="9.658511342555597"><ele>68.33333333333333</ele><time>2026-04-22T13:04:48.999Z</time></trkpt><trkpt lat="45.02772577170645" lon="9.658448510837385"><ele>68.0</ele><time>2026-04-22T13:04:49.999Z</time></trkpt><trkpt lat="45.0276826107266" lon="9.658382549718638"><ele>67.66666666666666</ele><time>2026-04-22T13:04:50.999Z</time></trkpt><trkpt lat="45.02763566540651" lon="9.658317125101513"><ele>67.33333333333333</ele><time>2026-04-22T13:04:51.999Z</time></trkpt><trkpt lat="45.02753642892621" lon="9.658199336785488"><ele>67.0</ele><time>2026-04-22T13:04:53.999Z</time></trkpt><trkpt lat="45.027496630457975" lon="9.658128527427067"><ele>67.0</ele><time>2026-04-22T13:04:54.999Z</time></trkpt><trkpt lat="45.027445370300605" lon="9.658062801307553"><ele>67.0</ele><time>2026-04-22T13:04:55.999Z</time></trkpt><trkpt lat="45.027356763573906" lon="9.657923209947699"><ele>67.0</ele><time>2026-04-22T13:04:57.999Z</time></trkpt><trkpt lat="45.02730219734899" lon="9.657852596758707"><ele>67.0</ele><time>2026-04-22T13:04:58.999Z</time></trkpt><trkpt lat="45.02725226651074" lon="9.657781805570638"><ele>67.0</ele><time>2026-04-22T13:04:59.999Z</time></trkpt><trkpt lat="45.02716372480109" lon="9.657647243108395"><ele>67.0</ele><time>2026-04-22T13:05:01.999Z</time></trkpt><trkpt lat="45.027113476439595" lon="9.657578024751254"><ele>67.0</ele><time>2026-04-22T13:05:02.999Z</time></trkpt><trkpt lat="45.02706758202325" lon="9.657508424605307"><ele>67.0</ele><time>2026-04-22T13:05:03.999Z</time></trkpt><trkpt lat="45.02702106464017" lon="9.657434451883592"><ele>67.0</ele><time>2026-04-22T13:05:04.999Z</time></trkpt><trkpt lat="45.02692740608296" lon="9.65730837374668"><ele>67.0</ele><time>2026-04-22T13:05:06.999Z</time></trkpt><trkpt lat="45.02687981653461" lon="9.6572424351717"><ele>67.0</ele><time>2026-04-22T13:05:07.999Z</time></trkpt><trkpt lat="45.02683374953141" lon="9.657170575531648"><ele>67.0</ele><time>2026-04-22T13:05:08.999Z</time></trkpt><trkpt lat="45.026788152232136" lon="9.657102839990053"><ele>67.0</ele><time>2026-04-22T13:05:09.999Z</time></trkpt><trkpt lat="45.026742000674865" lon="9.657035922808998"><ele>67.0</ele><time>2026-04-22T13:05:10.999Z</time></trkpt><trkpt lat="45.026693837754195" lon="9.656968824698845"><ele>67.0</ele><time>2026-04-22T13:05:11.999Z</time></trkpt><trkpt lat="45.02664369533721" lon="9.656904515914155"><ele>67.0</ele><time>2026-04-22T13:05:12.999Z</time></trkpt><trkpt lat="45.02659557671417" lon="9.656842657834474"><ele>67.0</ele><time>2026-04-22T13:05:13.999Z</time></trkpt><trkpt lat="45.026542663814446" lon="9.65678215097363"><ele>67.0</ele><time>2026-04-22T13:05:14.999Z</time></trkpt><trkpt lat="45.02649681840204" lon="9.65671835532552"><ele>67.8</ele><time>2026-04-22T13:05:15.999Z</time></trkpt><trkpt lat="45.02645191836495" lon="9.656644745792864"><ele>68.6</ele><time>2026-04-22T13:05:16.999Z</time></trkpt><trkpt lat="45.02640644559305" lon="9.656577331858228"><ele>69.39999999999999</ele><time>2026-04-22T13:05:17.999Z</time></trkpt><trkpt lat="45.02630799487579" lon="9.65644596357263"><ele>70.2</ele><time>2026-04-22T13:05:20Z</time></trkpt><trkpt lat="45.02622561801857" lon="9.656319844151422"><ele>71.0</ele><time>2026-04-22T13:05:22Z</time></trkpt><trkpt lat="45.026140040460106" lon="9.656193413601775"><ele>70.75</ele><time>2026-04-22T13:05:24Z</time></trkpt><trkpt lat="45.026057319405176" lon="9.656071524988628"><ele>70.5</ele><time>2026-04-22T13:05:26Z</time></trkpt><trkpt lat="45.02596897511369" lon="9.655936233229488"><ele>70.25</ele><time>2026-04-22T13:05:28Z</time></trkpt><trkpt lat="45.02587984635465" lon="9.6558185513611"><ele>70.0</ele><time>2026-04-22T13:05:30Z</time></trkpt><trkpt lat="45.025793801358446" lon="9.655690634271261"><ele>70.0</ele><time>2026-04-22T13:05:32Z</time></trkpt><trkpt lat="45.025711677367084" lon="9.655566983113166"><ele>70.0</ele><time>2026-04-22T13:05:34Z</time></trkpt><trkpt lat="45.025668833548586" lon="9.655499662643642"><ele>70.0</ele><time>2026-04-22T13:05:35Z</time></trkpt><trkpt lat="45.025620431482864" lon="9.655436829838909"><ele>70.0</ele><time>2026-04-22T13:05:36Z</time></trkpt><trkpt lat="45.02553761665476" lon="9.655310330609934"><ele>70.0</ele><time>2026-04-22T13:05:38Z</time></trkpt><trkpt lat="45.02548858117029" lon="9.655247486519466"><ele>70.0</ele><time>2026-04-22T13:05:39Z</time></trkpt><trkpt lat="45.02544200084549" lon="9.655182081714763"><ele>70.28571428571429</ele><time>2026-04-22T13:05:40Z</time></trkpt><trkpt lat="45.02539187392873" lon="9.65511221291943"><ele>70.57142857142857</ele><time>2026-04-22T13:05:41Z</time></trkpt><trkpt lat="45.02534465728688" lon="9.65504001864021"><ele>70.85714285714286</ele><time>2026-04-22T13:05:42Z</time></trkpt><trkpt lat="45.02530588446203" lon="9.654963936713134"><ele>71.14285714285714</ele><time>2026-04-22T13:05:43Z</time></trkpt><trkpt lat="45.02527395238244" lon="9.654882792910884"><ele>71.42857142857143</ele><time>2026-04-22T13:05:44Z</time></trkpt><trkpt lat="45.02523947502442" lon="9.654795285934068"><ele>71.71428571428572</ele><time>2026-04-22T13:05:45Z</time></trkpt><trkpt lat="45.02520028375942" lon="9.654710161838109"><ele>72.0</ele><time>2026-04-22T13:05:46Z</time></trkpt><trkpt lat="45.02515272030772" lon="9.654644311886578"><ele>72.00000000000001</ele><time>2026-04-22T13:05:47Z</time></trkpt><trkpt lat="45.02510465281823" lon="9.654579410302082"><ele>72.0</ele><time>2026-04-22T13:05:48Z</time></trkpt><trkpt lat="45.02505122426634" lon="9.654510887330805"><ele>72.0</ele><time>2026-04-22T13:05:49Z</time></trkpt><trkpt lat="45.02499823242801" lon="9.654452410029258"><ele>72.0</ele><time>2026-04-22T13:05:50Z</time></trkpt><trkpt lat="45.024946616982355" lon="9.654385545277027"><ele>72.0</ele><time>2026-04-22T13:05:51Z</time></trkpt><trkpt lat="45.02489649240385" lon="9.654325498133142"><ele>72.00000000000001</ele><time>2026-04-22T13:05:52Z</time></trkpt><trkpt lat="45.024842628602215" lon="9.654250807587493"><ele>72.0</ele><time>2026-04-22T13:05:53Z</time></trkpt><trkpt lat="45.02479451335679" lon="9.654193026170834"><ele>72.28571428571429</ele><time>2026-04-22T13:05:54Z</time></trkpt><trkpt lat="45.02474737433012" lon="9.65412743833479"><ele>72.57142857142857</ele><time>2026-04-22T13:05:55Z</time></trkpt><trkpt lat="45.024701633501465" lon="9.654065457143805"><ele>72.85714285714286</ele><time>2026-04-22T13:05:56Z</time></trkpt><trkpt lat="45.02465358727096" lon="9.654006260689025"><ele>73.14285714285714</ele><time>2026-04-22T13:05:57Z</time></trkpt><trkpt lat="45.024608204469665" lon="9.653938478911101"><ele>73.42857142857143</ele><time>2026-04-22T13:05:58Z</time></trkpt><trkpt lat="45.02456028822635" lon="9.653872492580867"><ele>73.71428571428572</ele><time>2026-04-22T13:05:59Z</time></trkpt><trkpt lat="45.02450940732895" lon="9.653813355219297"><ele>74.0</ele><time>2026-04-22T13:06:00Z</time></trkpt><trkpt lat="45.02438520212723" lon="9.653776747129177"><ele>74.0</ele><time>2026-04-22T13:06:02Z</time></trkpt><trkpt lat="45.02438356520731" lon="9.653649034233185"><ele>74.0</ele><time>2026-04-22T13:06:03Z</time></trkpt><trkpt lat="45.02433367241096" lon="9.653588932561727"><ele>74.0</ele><time>2026-04-22T13:06:04Z</time></trkpt><trkpt lat="45.024291197864414" lon="9.65352083926756"><ele>74.0</ele><time>2026-04-22T13:06:05Z</time></trkpt><trkpt lat="45.024201859153685" lon="9.653407558802453"><ele>74.0</ele><time>2026-04-22T13:06:07Z</time></trkpt><trkpt lat="45.02414199874887" lon="9.653249852347988"><ele>73.4</ele><time>2026-04-22T13:06:09Z</time></trkpt><trkpt lat="45.0240931754069" lon="9.653087045162367"><ele>72.80000000000001</ele><time>2026-04-22T13:06:11Z</time></trkpt><trkpt lat="45.02406625422286" lon="9.653000204365007"><ele>72.19999999999999</ele><time>2026-04-22T13:06:12Z</time></trkpt><trkpt lat="45.02403397078851" lon="9.652922261793025"><ele>71.6</ele><time>2026-04-22T13:06:13Z</time></trkpt><trkpt lat="45.02397130922216" lon="9.652780140759562"><ele>71.0</ele><time>2026-04-22T13:06:15Z</time></trkpt><trkpt lat="45.023873437071124" lon="9.652647786673453"><ele>71.0</ele><time>2026-04-22T13:06:17Z</time></trkpt><trkpt lat="45.023822195273" lon="9.652589382593428"><ele>71.0</ele><time>2026-04-22T13:06:18Z</time></trkpt><trkpt lat="45.02372835901253" lon="9.65247151212186"><ele>71.0</ele><time>2026-04-22T13:06:20Z</time></trkpt><trkpt lat="45.02367400222174" lon="9.652400336692699"><ele>71.0</ele><time>2026-04-22T13:06:20.999Z</time></trkpt><trkpt lat="45.023625558705895" lon="9.652328417330324"><ele>71.0</ele><time>2026-04-22T13:06:21.999Z</time></trkpt><trkpt lat="45.02356306548519" lon="9.652203111297364"><ele>71.0</ele><time>2026-04-22T13:06:23.999Z</time></trkpt><trkpt lat="45.023500136589824" lon="9.652081585781998"><ele>71.0</ele><time>2026-04-22T13:06:25.999Z</time></trkpt><trkpt lat="45.02347343731981" lon="9.652000834493748"><ele>71.0</ele><time>2026-04-22T13:06:26.999Z</time></trkpt><trkpt lat="45.02338783338155" lon="9.651857057735922"><ele>71.0</ele><time>2026-04-22T13:06:28.999Z</time></trkpt><trkpt lat="45.023333634220485" lon="9.651795744098086"><ele>71.0</ele><time>2026-04-22T13:06:29.999Z</time></trkpt><trkpt lat="45.02327712803102" lon="9.651738179830632"><ele>71.0</ele><time>2026-04-22T13:06:30.999Z</time></trkpt><trkpt lat="45.02321272570177" lon="9.65169712222654"><ele>71.0</ele><time>2026-04-22T13:06:31.999Z</time></trkpt><trkpt lat="45.023092017275665" lon="9.651620093966166"><ele>71.6</ele><time>2026-04-22T13:06:33.999Z</time></trkpt><trkpt lat="45.02303105016451" lon="9.651589292816741"><ele>72.19999999999999</ele><time>2026-04-22T13:06:34.999Z</time></trkpt><trkpt lat="45.02295244653467" lon="9.651556610238021"><ele>72.80000000000001</ele><time>2026-04-22T13:06:35.999Z</time></trkpt><trkpt lat="45.02283595136623" lon="9.65152684178445"><ele>73.4</ele><time>2026-04-22T13:06:37.999Z</time></trkpt><trkpt lat="45.02274424867929" lon="9.651425603508981"><ele>74.0</ele><time>2026-04-22T13:06:39.999Z</time></trkpt><trkpt lat="45.02266782828322" lon="9.651291311119492"><ele>74.0</ele><time>2026-04-22T13:06:41.999Z</time></trkpt><trkpt lat="45.022609881558154" lon="9.65124235949166"><ele>74.0</ele><time>2026-04-22T13:06:42.999Z</time></trkpt><trkpt lat="45.022572785448205" lon="9.651160336791781"><ele>74.0</ele><time>2026-04-22T13:06:43.999Z</time></trkpt><trkpt lat="45.022525505715066" lon="9.651072860047615"><ele>74.0</ele><time>2026-04-22T13:06:44.999Z</time></trkpt><trkpt lat="45.022477841385445" lon="9.650985929118292"><ele>74.0</ele><time>2026-04-22T13:06:45.999Z</time></trkpt><trkpt lat="45.02242374972479" lon="9.65092126146611"><ele>74.0</ele><time>2026-04-22T13:06:46.999Z</time></trkpt><trkpt lat="45.02234359992008" lon="9.65079406935153"><ele>73.60000000000001</ele><time>2026-04-22T13:06:48.999Z</time></trkpt><trkpt lat="45.02229872080963" lon="9.650730307573333"><ele>73.2</ele><time>2026-04-22T13:06:49.999Z</time></trkpt><trkpt lat="45.02221615106953" lon="9.650626539169348"><ele>72.80000000000001</ele><time>2026-04-22T13:06:51.999Z</time></trkpt><trkpt lat="45.022125666810034" lon="9.650469286450814"><ele>72.4</ele><time>2026-04-22T13:06:53.999Z</time></trkpt><trkpt lat="45.02207911448539" lon="9.65039477287531"><ele>72.0</ele><time>2026-04-22T13:06:54.999Z</time></trkpt><trkpt lat="45.02203778003883" lon="9.650315069597974"><ele>71.6</ele><time>2026-04-22T13:06:55.999Z</time></trkpt><trkpt lat="45.02199025597625" lon="9.650239205358139"><ele>71.2</ele><time>2026-04-22T13:06:56.999Z</time></trkpt><trkpt lat="45.02190505407631" lon="9.650122631960121"><ele>70.8</ele><time>2026-04-22T13:06:58.999Z</time></trkpt><trkpt lat="45.02181492184767" lon="9.649979801385163"><ele>70.4</ele><time>2026-04-22T13:07:00.999Z</time></trkpt><trkpt lat="45.02176268100779" lon="9.649927825054984"><ele>70.0</ele><time>2026-04-22T13:07:01.999Z</time></trkpt><trkpt lat="45.021673593611666" lon="9.649809440423015"><ele>70.8</ele><time>2026-04-22T13:07:03.999Z</time></trkpt><trkpt lat="45.02162977189956" lon="9.649731924205843"><ele>71.6</ele><time>2026-04-22T13:07:04.999Z</time></trkpt><trkpt lat="45.02154139050754" lon="9.649617933612534"><ele>72.4</ele><time>2026-04-22T13:07:06.999Z</time></trkpt><trkpt lat="45.02145247017355" lon="9.649484733370313"><ele>73.2</ele><time>2026-04-22T13:07:08.999Z</time></trkpt><trkpt lat="45.02140339998669" lon="9.649419868351051"><ele>74.0</ele><time>2026-04-22T13:07:09.999Z</time></trkpt><trkpt lat="45.02131510128815" lon="9.649291310513036"><ele>74.0</ele><time>2026-04-22T13:07:11.999Z</time></trkpt><trkpt lat="45.021227189980294" lon="9.64915405402629"><ele>74.0</ele><time>2026-04-22T13:07:13.999Z</time></trkpt><trkpt lat="45.02118097537717" lon="9.649082413695464"><ele>74.0</ele><time>2026-04-22T13:07:14.999Z</time></trkpt><trkpt lat="45.02113180186141" lon="9.649020597688848"><ele>74.0</ele><time>2026-04-22T13:07:15.999Z</time></trkpt><trkpt lat="45.021053082320925" lon="9.648892341437461"><ele>74.0</ele><time>2026-04-22T13:07:17.999Z</time></trkpt><trkpt lat="45.020953458411896" lon="9.648789450108373"><ele>74.0</ele><time>2026-04-22T13:07:19.999Z</time></trkpt><trkpt lat="45.0208640617931" lon="9.64866962238958"><ele>74.0</ele><time>2026-04-22T13:07:21.999Z</time></trkpt><trkpt lat="45.02082137148188" lon="9.64858441512258"><ele>74.0</ele><time>2026-04-22T13:07:22.999Z</time></trkpt><trkpt lat="45.02077702221518" lon="9.648518945747439"><ele>74.0</ele><time>2026-04-22T13:07:23.999Z</time></trkpt><trkpt lat="45.02068497637814" lon="9.648410309663168"><ele>74.0</ele><time>2026-04-22T13:07:26Z</time></trkpt><trkpt lat="45.02060256210099" lon="9.648291838936743"><ele>74.4</ele><time>2026-04-22T13:07:28Z</time></trkpt><trkpt lat="45.02051240567212" lon="9.648153967958843"><ele>74.80000000000001</ele><time>2026-04-22T13:07:30Z</time></trkpt><trkpt lat="45.02046526820531" lon="9.648083514288857"><ele>75.19999999999999</ele><time>2026-04-22T13:07:31Z</time></trkpt><trkpt lat="45.02038243669442" lon="9.647949934359541"><ele>75.6</ele><time>2026-04-22T13:07:33Z</time></trkpt><trkpt lat="45.02033562493367" lon="9.647889130089068"><ele>76.0</ele><time>2026-04-22T13:07:34Z</time></trkpt><trkpt lat="45.02028126937355" lon="9.647822013848579"><ele>76.16666666666666</ele><time>2026-04-22T13:07:35Z</time></trkpt><trkpt lat="45.02019442315728" lon="9.64768163999671"><ele>76.33333333333333</ele><time>2026-04-22T13:07:37Z</time></trkpt><trkpt lat="45.020148514488845" lon="9.647615206946774"><ele>76.5</ele><time>2026-04-22T13:07:38Z</time></trkpt><trkpt lat="45.020096909184716" lon="9.647545539416273"><ele>76.66666666666667</ele><time>2026-04-22T13:07:39Z</time></trkpt><trkpt lat="45.02002079854698" lon="9.647441856410516"><ele>76.83333333333334</ele><time>2026-04-22T13:07:41Z</time></trkpt><trkpt lat="45.019972653210786" lon="9.647381053930522"><ele>77.0</ele><time>2026-04-22T13:07:42Z</time></trkpt><trkpt lat="45.01988198081135" lon="9.647250412283872"><ele>76.6</ele><time>2026-04-22T13:07:44Z</time></trkpt><trkpt lat="45.01979938613728" lon="9.647121716821536"><ele>76.2</ele><time>2026-04-22T13:07:46Z</time></trkpt><trkpt lat="45.01975743695803" lon="9.64705464313745"><ele>75.8</ele><time>2026-04-22T13:07:47Z</time></trkpt><trkpt lat="45.01970395630791" lon="9.646994147498932"><ele>75.4</ele><time>2026-04-22T13:07:48Z</time></trkpt><trkpt lat="45.01962973402653" lon="9.646865604613918"><ele>75.0</ele><time>2026-04-22T13:07:50Z</time></trkpt><trkpt lat="45.01953200100746" lon="9.646746481047781"><ele>74.8</ele><time>2026-04-22T13:07:52Z</time></trkpt><trkpt lat="45.01944846023162" lon="9.646620856311092"><ele>74.6</ele><time>2026-04-22T13:07:54Z</time></trkpt><trkpt lat="45.01939777492292" lon="9.646557927877623"><ele>74.4</ele><time>2026-04-22T13:07:55Z</time></trkpt><trkpt lat="45.01935243650887" lon="9.646484362123639"><ele>74.2</ele><time>2026-04-22T13:07:56Z</time></trkpt><trkpt lat="45.01926386763053" lon="9.64637578368655"><ele>74.0</ele><time>2026-04-22T13:07:58Z</time></trkpt><trkpt lat="45.01917355144493" lon="9.646245090441958"><ele>74.0</ele><time>2026-04-22T13:08:00Z</time></trkpt><trkpt lat="45.01909593437377" lon="9.646121176562088"><ele>74.0</ele><time>2026-04-22T13:08:02Z</time></trkpt><trkpt lat="45.01905533883513" lon="9.646051788920943"><ele>74.0</ele><time>2026-04-22T13:08:03Z</time></trkpt><trkpt lat="45.01899418854514" lon="9.645970916752331"><ele>74.0</ele><time>2026-04-22T13:08:05Z</time></trkpt><trkpt lat="45.01892021051745" lon="9.645864214223685"><ele>74.0</ele><time>2026-04-22T13:08:07Z</time></trkpt><trkpt lat="45.01884066982488" lon="9.64577391376592"><ele>74.0</ele><time>2026-04-22T13:08:09Z</time></trkpt><trkpt lat="45.018769550868214" lon="9.645684102487433"><ele>74.0</ele><time>2026-04-22T13:08:11Z</time></trkpt><trkpt lat="45.018673824921684" lon="9.645735194561233"><ele>74.0</ele><time>2026-04-22T13:08:12Z</time></trkpt><trkpt lat="45.01861009837668" lon="9.645645918564009"><ele>74.0</ele><time>2026-04-22T13:08:14Z</time></trkpt><trkpt lat="45.01854783803743" lon="9.645558696748239"><ele>74.0</ele><time>2026-04-22T13:08:16Z</time></trkpt><trkpt lat="45.01848290908559" lon="9.645467736385795"><ele>74.0</ele><time>2026-04-22T13:08:18Z</time></trkpt><trkpt lat="45.01840793570452" lon="9.64536270320034"><ele>74.0</ele><time>2026-04-22T13:08:20Z</time></trkpt><trkpt lat="45.01834121988411" lon="9.645269235239816"><ele>74.0</ele><time>2026-04-22T13:08:22Z</time></trkpt><trkpt lat="45.01828387563614" lon="9.645189758377082"><ele>74.0</ele><time>2026-04-22T13:08:24Z</time></trkpt><trkpt lat="45.01821258204549" lon="9.64509030353787"><ele>74.0</ele><time>2026-04-22T13:08:26Z</time></trkpt><trkpt lat="45.01812421334454" lon="9.644967029374843"><ele>73.5</ele><time>2026-04-22T13:08:28Z</time></trkpt><trkpt lat="45.01805984990492" lon="9.644877243147262"><ele>73.0</ele><time>2026-04-22T13:08:29.999Z</time></trkpt><trkpt lat="45.018092897360134" lon="9.644642049823975"><ele>72.5</ele><time>2026-04-22T13:08:31.999Z</time></trkpt><trkpt lat="45.01805567202992" lon="9.644526054741243"><ele>72.0</ele><time>2026-04-22T13:08:33.999Z</time></trkpt><trkpt lat="45.01800445352761" lon="9.644396945527026"><ele>72.0</ele><time>2026-04-22T13:08:35.999Z</time></trkpt><trkpt lat="45.01795227578732" lon="9.64429242380411"><ele>72.0</ele><time>2026-04-22T13:08:37.999Z</time></trkpt><trkpt lat="45.01788530367966" lon="9.644185161727558"><ele>72.0</ele><time>2026-04-22T13:08:39.999Z</time></trkpt><trkpt lat="45.01783621512959" lon="9.644115458380606"><ele>72.0</ele><time>2026-04-22T13:08:41.999Z</time></trkpt><trkpt lat="45.017791959013984" lon="9.644029924631356"><ele>72.0</ele><time>2026-04-22T13:08:43.999Z</time></trkpt><trkpt lat="45.01772727638722" lon="9.643954501612072"><ele>72.0</ele><time>2026-04-22T13:08:45.999Z</time></trkpt><trkpt lat="45.01766652462259" lon="9.643866992348878"><ele>72.0</ele><time>2026-04-22T13:08:47.999Z</time></trkpt><trkpt lat="45.01756818674903" lon="9.643812071633455"><ele>72.0</ele><time>2026-04-22T13:08:49.999Z</time></trkpt><trkpt lat="45.01749968556964" lon="9.643887466841065"><ele>72.0</ele><time>2026-04-22T13:08:51.999Z</time></trkpt><trkpt lat="45.017434075769415" lon="9.643933469469479"><ele>72.0</ele><time>2026-04-22T13:08:53.999Z</time></trkpt><trkpt lat="45.017370354606896" lon="9.643878952772168"><ele>72.0</ele><time>2026-04-22T13:08:55.999Z</time></trkpt><trkpt lat="45.01731400784585" lon="9.643794707542552"><ele>72.0</ele><time>2026-04-22T13:08:57.999Z</time></trkpt><trkpt lat="45.01725463703172" lon="9.643715496442663"><ele>72.8</ele><time>2026-04-22T13:08:59.999Z</time></trkpt><trkpt lat="45.01717931674481" lon="9.643626142066278"><ele>73.6</ele><time>2026-04-22T13:09:01.999Z</time></trkpt><trkpt lat="45.01711531229304" lon="9.643540767089524"><ele>74.39999999999999</ele><time>2026-04-22T13:09:03.999Z</time></trkpt><trkpt lat="45.01704503704922" lon="9.643442646141159"><ele>75.2</ele><time>2026-04-22T13:09:05.999Z</time></trkpt><trkpt lat="45.016980799636244" lon="9.64334085048351"><ele>76.0</ele><time>2026-04-22T13:09:07.999Z</time></trkpt><trkpt lat="45.01691445746168" lon="9.643241813883442"><ele>76.0</ele><time>2026-04-22T13:09:09.999Z</time></trkpt><trkpt lat="45.01686320772683" lon="9.643131846586028"><ele>76.0</ele><time>2026-04-22T13:09:11.999Z</time></trkpt><trkpt lat="45.01684646298002" lon="9.643006657715375"><ele>76.0</ele><time>2026-04-22T13:09:13.999Z</time></trkpt><trkpt lat="45.01677511376356" lon="9.642923373585944"><ele>76.0</ele><time>2026-04-22T13:09:15.999Z</time></trkpt><trkpt lat="45.01670775183233" lon="9.64282987659181"><ele>76.0</ele><time>2026-04-22T13:09:17.999Z</time></trkpt><trkpt lat="45.016636005811584" lon="9.642732509336735"><ele>76.2</ele><time>2026-04-22T13:09:19.999Z</time></trkpt><trkpt lat="45.01656855510504" lon="9.642632707139645"><ele>76.39999999999999</ele><time>2026-04-22T13:09:21.999Z</time></trkpt><trkpt lat="45.01650103555412" lon="9.642531395846518"><ele>76.6</ele><time>2026-04-22T13:09:23.999Z</time></trkpt><trkpt lat="45.01642886621058" lon="9.642440659590873"><ele>76.8</ele><time>2026-04-22T13:09:25.999Z</time></trkpt><trkpt lat="45.01635777289925" lon="9.64232487269887"><ele>77.0</ele><time>2026-04-22T13:09:27.999Z</time></trkpt><trkpt lat="45.016264472258264" lon="9.642357420949956"><ele>77.0</ele><time>2026-04-22T13:09:28.999Z</time></trkpt><trkpt lat="45.01624220736497" lon="9.642185362307007"><ele>77.0</ele><time>2026-04-22T13:09:31Z</time></trkpt><trkpt lat="45.01616698571664" lon="9.642083614151144"><ele>77.0</ele><time>2026-04-22T13:09:33Z</time></trkpt><trkpt lat="45.01609222419142" lon="9.641984121048376"><ele>77.0</ele><time>2026-04-22T13:09:35Z</time></trkpt><trkpt lat="45.016018065397176" lon="9.641911925687813"><ele>77.0</ele><time>2026-04-22T13:09:37Z</time></trkpt><trkpt lat="45.015945985377016" lon="9.641849497830728"><ele>76.83333333333334</ele><time>2026-04-22T13:09:39Z</time></trkpt><trkpt lat="45.01589867939321" lon="9.641765447028451"><ele>76.66666666666667</ele><time>2026-04-22T13:09:41Z</time></trkpt><trkpt lat="45.0158420568691" lon="9.641680823689805"><ele>76.5</ele><time>2026-04-22T13:09:43Z</time></trkpt><trkpt lat="45.015780635579695" lon="9.641600893453777"><ele>76.33333333333333</ele><time>2026-04-22T13:09:45Z</time></trkpt><trkpt lat="45.01570500020684" lon="9.641503601821386"><ele>76.16666666666666</ele><time>2026-04-22T13:09:47Z</time></trkpt><trkpt lat="45.01563725284581" lon="9.641413083808184"><ele>76.0</ele><time>2026-04-22T13:09:49Z</time></trkpt><trkpt lat="45.01557683367417" lon="9.641326777515955"><ele>76.0</ele><time>2026-04-22T13:09:51Z</time></trkpt><trkpt lat="45.01551032564096" lon="9.64123313113976"><ele>76.0</ele><time>2026-04-22T13:09:53Z</time></trkpt><trkpt lat="45.01544556761989" lon="9.641146335244398"><ele>76.0</ele><time>2026-04-22T13:09:55Z</time></trkpt><trkpt lat="45.015378969974165" lon="9.64104951200798"><ele>76.0</ele><time>2026-04-22T13:09:57Z</time></trkpt><trkpt lat="45.0153188974871" lon="9.640961613759444"><ele>76.0</ele><time>2026-04-22T13:09:59Z</time></trkpt><trkpt lat="45.01524412536761" lon="9.640863643526759"><ele>75.6</ele><time>2026-04-22T13:10:01Z</time></trkpt><trkpt lat="45.01517096940225" lon="9.64077885392365"><ele>75.19999999999999</ele><time>2026-04-22T13:10:03Z</time></trkpt><trkpt lat="45.015111199670606" lon="9.640680261619716"><ele>74.80000000000001</ele><time>2026-04-22T13:10:05Z</time></trkpt><trkpt lat="45.01504494799089" lon="9.640593817766627"><ele>74.4</ele><time>2026-04-22T13:10:07Z</time></trkpt><trkpt lat="45.0149819766532" lon="9.640498203300504"><ele>74.0</ele><time>2026-04-22T13:10:09Z</time></trkpt><trkpt lat="45.014920094458496" lon="9.640414221140864"><ele>75.0</ele><time>2026-04-22T13:10:11Z</time></trkpt><trkpt lat="45.014850344326085" lon="9.640325102418721"><ele>76.0</ele><time>2026-04-22T13:10:13Z</time></trkpt><trkpt lat="45.01478604126701" lon="9.640228208354916"><ele>77.0</ele><time>2026-04-22T13:10:15Z</time></trkpt><trkpt lat="45.01472413990535" lon="9.640138181267154"><ele>78.0</ele><time>2026-04-22T13:10:17Z</time></trkpt><trkpt lat="45.01465984932961" lon="9.640054321570936"><ele>79.0</ele><time>2026-04-22T13:10:19Z</time></trkpt><trkpt lat="45.01459374959492" lon="9.639961725905742"><ele>79.2</ele><time>2026-04-22T13:10:21Z</time></trkpt><trkpt lat="45.014524277380985" lon="9.639866973253325"><ele>79.4</ele><time>2026-04-22T13:10:23Z</time></trkpt><trkpt lat="45.0144622295167" lon="9.639778838234365"><ele>79.6</ele><time>2026-04-22T13:10:25Z</time></trkpt><trkpt lat="45.01439738980186" lon="9.639677825289425"><ele>79.8</ele><time>2026-04-22T13:10:27Z</time></trkpt><trkpt lat="45.01432846651759" lon="9.639586971463306"><ele>80.0</ele><time>2026-04-22T13:10:29Z</time></trkpt><trkpt lat="45.01425843311734" lon="9.639489610815259"><ele>80.0</ele><time>2026-04-22T13:10:31Z</time></trkpt><trkpt lat="45.01418665346262" lon="9.639389735140155"><ele>80.0</ele><time>2026-04-22T13:10:33Z</time></trkpt><trkpt lat="45.01412292529018" lon="9.639296332161708"><ele>80.0</ele><time>2026-04-22T13:10:34.999Z</time></trkpt><trkpt lat="45.01405482643842" lon="9.639202448109556"><ele>80.0</ele><time>2026-04-22T13:10:36.999Z</time></trkpt><trkpt lat="45.01399029117845" lon="9.63910268809849"><ele>80.0</ele><time>2026-04-22T13:10:38.999Z</time></trkpt><trkpt lat="45.013920830232465" lon="9.639003883222035"><ele>79.8</ele><time>2026-04-22T13:10:40.999Z</time></trkpt><trkpt lat="45.0138592758564" lon="9.638908469443255"><ele>79.6</ele><time>2026-04-22T13:10:42.999Z</time></trkpt><trkpt lat="45.01379370109379" lon="9.638820161745128"><ele>79.4</ele><time>2026-04-22T13:10:44.999Z</time></trkpt><trkpt lat="45.01373056311921" lon="9.638723603150025"><ele>79.2</ele><time>2026-04-22T13:10:46.999Z</time></trkpt><trkpt lat="45.013665022690645" lon="9.638634536787384"><ele>79.0</ele><time>2026-04-22T13:10:48.999Z</time></trkpt><trkpt lat="45.01360146581532" lon="9.638552165667202"><ele>79.0</ele><time>2026-04-22T13:10:50.999Z</time></trkpt><trkpt lat="45.013529417175896" lon="9.63849037275046"><ele>79.0</ele><time>2026-04-22T13:10:52.999Z</time></trkpt><trkpt lat="45.01346169579305" lon="9.638426954464999"><ele>79.0</ele><time>2026-04-22T13:10:54.999Z</time></trkpt><trkpt lat="45.01340315837495" lon="9.638340821183332"><ele>79.0</ele><time>2026-04-22T13:10:56.999Z</time></trkpt><trkpt lat="45.01335746321186" lon="9.638252709695312"><ele>79.0</ele><time>2026-04-22T13:10:58.999Z</time></trkpt><trkpt lat="45.013294520466125" lon="9.638167937286417"><ele>79.0</ele><time>2026-04-22T13:11:00.999Z</time></trkpt><trkpt lat="45.01323628733201" lon="9.638077450346369"><ele>79.4</ele><time>2026-04-22T13:11:02.999Z</time></trkpt><trkpt lat="45.013178489148835" lon="9.637980971860973"><ele>79.80000000000001</ele><time>2026-04-22T13:11:04.999Z</time></trkpt><trkpt lat="45.013106395553415" lon="9.63789214738814"><ele>80.19999999999999</ele><time>2026-04-22T13:11:06.999Z</time></trkpt><trkpt lat="45.01304161837475" lon="9.637799341670975"><ele>80.6</ele><time>2026-04-22T13:11:08.999Z</time></trkpt><trkpt lat="45.01298002498423" lon="9.637713352834941"><ele>81.0</ele><time>2026-04-22T13:11:10.999Z</time></trkpt><trkpt lat="45.01292224210277" lon="9.637613870090929"><ele>81.0</ele><time>2026-04-22T13:11:12.999Z</time></trkpt><trkpt lat="45.01285290734891" lon="9.637518801165905"><ele>81.0</ele><time>2026-04-22T13:11:14.999Z</time></trkpt><trkpt lat="45.01278571865106" lon="9.637429953132902"><ele>81.0</ele><time>2026-04-22T13:11:16.999Z</time></trkpt><trkpt lat="45.01273423336431" lon="9.637347227335004"><ele>81.0</ele><time>2026-04-22T13:11:18.999Z</time></trkpt><trkpt lat="45.01268638325327" lon="9.63728265668337"><ele>81.0</ele><time>2026-04-22T13:11:19.999Z</time></trkpt><trkpt lat="45.01262308192215" lon="9.63719147636983"><ele>81.0</ele><time>2026-04-22T13:11:21.999Z</time></trkpt><trkpt lat="45.01255946048036" lon="9.637097011288217"><ele>81.0</ele><time>2026-04-22T13:11:23.999Z</time></trkpt><trkpt lat="45.01249798301722" lon="9.636994267246852"><ele>81.0</ele><time>2026-04-22T13:11:25.999Z</time></trkpt><trkpt lat="45.01242796589963" lon="9.63690715077414"><ele>81.0</ele><time>2026-04-22T13:11:27.999Z</time></trkpt><trkpt lat="45.012355916198054" lon="9.636809945980175"><ele>81.0</ele><time>2026-04-22T13:11:29.999Z</time></trkpt><trkpt lat="45.01228664525725" lon="9.63672536391044"><ele>81.0</ele><time>2026-04-22T13:11:31.999Z</time></trkpt><trkpt lat="45.01221018444832" lon="9.636617392865649"><ele>81.0</ele><time>2026-04-22T13:11:33.999Z</time></trkpt><trkpt lat="45.012150514673664" lon="9.636527253330815"><ele>81.0</ele><time>2026-04-22T13:11:35.999Z</time></trkpt><trkpt lat="45.0121133569575" lon="9.636402738167853"><ele>81.0</ele><time>2026-04-22T13:11:38Z</time></trkpt><trkpt lat="45.012052715847396" lon="9.636292029611628"><ele>81.0</ele><time>2026-04-22T13:11:40Z</time></trkpt><trkpt lat="45.011981461487125" lon="9.636208373026259"><ele>81.0</ele><time>2026-04-22T13:11:42Z</time></trkpt><trkpt lat="45.01191400097679" lon="9.636106297769283"><ele>81.19999999999999</ele><time>2026-04-22T13:11:44Z</time></trkpt><trkpt lat="45.011845407911885" lon="9.636012623923927"><ele>81.39999999999999</ele><time>2026-04-22T13:11:46Z</time></trkpt><trkpt lat="45.01178262768422" lon="9.635922654494406"><ele>81.6</ele><time>2026-04-22T13:11:48Z</time></trkpt><trkpt lat="45.01170886829915" lon="9.635819238811333"><ele>81.8</ele><time>2026-04-22T13:11:50Z</time></trkpt><trkpt lat="45.01163460636468" lon="9.635711080633035"><ele>82.0</ele><time>2026-04-22T13:11:52Z</time></trkpt><trkpt lat="45.01155610845888" lon="9.635615127299902"><ele>82.0</ele><time>2026-04-22T13:11:54Z</time></trkpt><trkpt lat="45.011500465567025" lon="9.635524971988257"><ele>82.0</ele><time>2026-04-22T13:11:56Z</time></trkpt><trkpt lat="45.01143027958554" lon="9.635425859492813"><ele>82.0</ele><time>2026-04-22T13:11:58Z</time></trkpt><trkpt lat="45.01136982120434" lon="9.635336824360799"><ele>82.0</ele><time>2026-04-22T13:12:00Z</time></trkpt><trkpt lat="45.011308618907286" lon="9.635227862141761"><ele>82.0</ele><time>2026-04-22T13:12:02Z</time></trkpt><trkpt lat="45.01123847947544" lon="9.635126585365665"><ele>82.0</ele><time>2026-04-22T13:12:04Z</time></trkpt><trkpt lat="45.01118073577105" lon="9.635028798516204"><ele>82.0</ele><time>2026-04-22T13:12:06Z</time></trkpt><trkpt lat="45.011112841350304" lon="9.634930741322739"><ele>82.0</ele><time>2026-04-22T13:12:08Z</time></trkpt><trkpt lat="45.011052365636004" lon="9.634835958219764"><ele>82.0</ele><time>2026-04-22T13:12:10Z</time></trkpt><trkpt lat="45.010978284604604" lon="9.634755018843913"><ele>82.0</ele><time>2026-04-22T13:12:12Z</time></trkpt><trkpt lat="45.01090660501526" lon="9.634681116412285"><ele>82.0</ele><time>2026-04-22T13:12:14Z</time></trkpt><trkpt lat="45.01083824684345" lon="9.634595975451429"><ele>82.0</ele><time>2026-04-22T13:12:16Z</time></trkpt><trkpt lat="45.010763708366596" lon="9.63453882354469"><ele>82.0</ele><time>2026-04-22T13:12:18Z</time></trkpt><trkpt lat="45.01069453813678" lon="9.634468041860112"><ele>82.0</ele><time>2026-04-22T13:12:20Z</time></trkpt><trkpt lat="45.010618149922436" lon="9.634369176893976"><ele>82.0</ele><time>2026-04-22T13:12:22Z</time></trkpt><trkpt lat="45.01056645133101" lon="9.634297046576672"><ele>82.0</ele><time>2026-04-22T13:12:24Z</time></trkpt><trkpt lat="45.0104999548989" lon="9.634222928661327"><ele>81.8</ele><time>2026-04-22T13:12:26Z</time></trkpt><trkpt lat="45.010439928208456" lon="9.6341307544124"><ele>81.6</ele><time>2026-04-22T13:12:28Z</time></trkpt><trkpt lat="45.0103745400158" lon="9.634028801261083"><ele>81.39999999999999</ele><time>2026-04-22T13:12:30Z</time></trkpt><trkpt lat="45.01031482332745" lon="9.63393557921651"><ele>81.19999999999999</ele><time>2026-04-22T13:12:32Z</time></trkpt><trkpt lat="45.01024505970921" lon="9.633842803907784"><ele>81.0</ele><time>2026-04-22T13:12:34Z</time></trkpt><trkpt lat="45.01018048097298" lon="9.633751608675324"><ele>81.0</ele><time>2026-04-22T13:12:35.999Z</time></trkpt><trkpt lat="45.01012625922811" lon="9.633671104189345"><ele>81.0</ele><time>2026-04-22T13:12:37.999Z</time></trkpt><trkpt lat="45.01008561082104" lon="9.633542629995244"><ele>81.0</ele><time>2026-04-22T13:12:39.999Z</time></trkpt><trkpt lat="45.01002510109938" lon="9.633466955418678"><ele>81.0</ele><time>2026-04-22T13:12:41.999Z</time></trkpt><trkpt lat="45.009964440108426" lon="9.633376261027808"><ele>81.0</ele><time>2026-04-22T13:12:43.999Z</time></trkpt><trkpt lat="45.00989232098463" lon="9.633274649218372"><ele>81.0</ele><time>2026-04-22T13:12:45.999Z</time></trkpt><trkpt lat="45.00981643023561" lon="9.633175431439975"><ele>81.0</ele><time>2026-04-22T13:12:47.999Z</time></trkpt><trkpt lat="45.00974298534369" lon="9.633078758261538"><ele>81.0</ele><time>2026-04-22T13:12:49.999Z</time></trkpt><trkpt lat="45.00967962179788" lon="9.632985407297395"><ele>81.0</ele><time>2026-04-22T13:12:51.999Z</time></trkpt><trkpt lat="45.009600536842115" lon="9.632878490190178"><ele>81.0</ele><time>2026-04-22T13:12:53.999Z</time></trkpt><trkpt lat="45.0095312433897" lon="9.63277400773413"><ele>81.0</ele><time>2026-04-22T13:12:55.999Z</time></trkpt><trkpt lat="45.00946087584426" lon="9.63267802181428"><ele>81.0</ele><time>2026-04-22T13:12:57.999Z</time></trkpt><trkpt lat="45.00939489648865" lon="9.63258424214388"><ele>81.0</ele><time>2026-04-22T13:12:59.999Z</time></trkpt><trkpt lat="45.00932302383912" lon="9.632477380505533"><ele>81.0</ele><time>2026-04-22T13:13:01.999Z</time></trkpt><trkpt lat="45.0092553028751" lon="9.632391602646"><ele>81.0</ele><time>2026-04-22T13:13:03.999Z</time></trkpt><trkpt lat="45.00917453282886" lon="9.632288080172225"><ele>81.0</ele><time>2026-04-22T13:13:05.999Z</time></trkpt><trkpt lat="45.00911056328457" lon="9.632192003341876"><ele>80.8</ele><time>2026-04-22T13:13:07.999Z</time></trkpt><trkpt lat="45.009035820101175" lon="9.632098162337742"><ele>80.6</ele><time>2026-04-22T13:13:09.999Z</time></trkpt><trkpt lat="45.008969640843404" lon="9.632010630310855"><ele>80.4</ele><time>2026-04-22T13:13:11.999Z</time></trkpt><trkpt lat="45.008900241969485" lon="9.631911448404287"><ele>80.2</ele><time>2026-04-22T13:13:13.999Z</time></trkpt><trkpt lat="45.00882693315874" lon="9.631818702375435"><ele>80.0</ele><time>2026-04-22T13:13:15.999Z</time></trkpt><trkpt lat="45.00876194345429" lon="9.631713236514166"><ele>80.0</ele><time>2026-04-22T13:13:17.999Z</time></trkpt><trkpt lat="45.00869815508755" lon="9.631616927084792"><ele>80.0</ele><time>2026-04-22T13:13:19.999Z</time></trkpt><trkpt lat="45.008647550744946" lon="9.631531693249848"><ele>80.0</ele><time>2026-04-22T13:13:21.999Z</time></trkpt><trkpt lat="45.00857690961413" lon="9.63143777479011"><ele>80.0</ele><time>2026-04-22T13:13:23.999Z</time></trkpt><trkpt lat="45.00852017591798" lon="9.631356283569149"><ele>80.0</ele><time>2026-04-22T13:13:25.999Z</time></trkpt><trkpt lat="45.00844930515602" lon="9.63126579784506"><ele>80.0</ele><time>2026-04-22T13:13:27.999Z</time></trkpt><trkpt lat="45.00838992264399" lon="9.631173789404015"><ele>80.2</ele><time>2026-04-22T13:13:29.999Z</time></trkpt><trkpt lat="45.00832347998553" lon="9.631082853804362"><ele>80.4</ele><time>2026-04-22T13:13:31.999Z</time></trkpt><trkpt lat="45.0082579624214" lon="9.630994923008107"><ele>80.6</ele><time>2026-04-22T13:13:33.999Z</time></trkpt><trkpt lat="45.00818331187512" lon="9.63089724230447"><ele>80.8</ele><time>2026-04-22T13:13:35.999Z</time></trkpt><trkpt lat="45.008124635377584" lon="9.630803928219343"><ele>81.0</ele><time>2026-04-22T13:13:37.999Z</time></trkpt><trkpt lat="45.00806185272884" lon="9.63071317715878"><ele>81.0</ele><time>2026-04-22T13:13:39.999Z</time></trkpt><trkpt lat="45.00799033893785" lon="9.630618715818237"><ele>81.0</ele><time>2026-04-22T13:13:41.999Z</time></trkpt><trkpt lat="45.007925159715235" lon="9.630523401680327"><ele>81.0</ele><time>2026-04-22T13:13:44Z</time></trkpt><trkpt lat="45.00786571054673" lon="9.630423998290047"><ele>81.0</ele><time>2026-04-22T13:13:46Z</time></trkpt><trkpt lat="45.00780943436722" lon="9.630332405476398"><ele>81.0</ele><time>2026-04-22T13:13:48Z</time></trkpt><trkpt lat="45.007756644169405" lon="9.6302280508916"><ele>80.83333333333333</ele><time>2026-04-22T13:13:50Z</time></trkpt><trkpt lat="45.0077074465059" lon="9.630128722369768"><ele>80.66666666666667</ele><time>2026-04-22T13:13:52Z</time></trkpt><trkpt lat="45.00771684217365" lon="9.63000027322066"><ele>80.5</ele><time>2026-04-22T13:13:54Z</time></trkpt><trkpt lat="45.007707780286964" lon="9.629896819856846"><ele>80.33333333333334</ele><time>2026-04-22T13:13:56Z</time></trkpt><trkpt lat="45.0076138697091" lon="9.629924292654593"><ele>80.16666666666667</ele><time>2026-04-22T13:13:58Z</time></trkpt><trkpt lat="45.00755873361097" lon="9.629980532100825"><ele>80.0</ele><time>2026-04-22T13:14:00Z</time></trkpt><trkpt lat="45.0074968645485" lon="9.629914334045251"><ele>80.5</ele><time>2026-04-22T13:14:02Z</time></trkpt><trkpt lat="45.00745768050467" lon="9.629827042822178"><ele>81.0</ele><time>2026-04-22T13:14:04Z</time></trkpt><trkpt lat="45.00742235929926" lon="9.629750378857931"><ele>81.5</ele><time>2026-04-22T13:14:06Z</time></trkpt><trkpt lat="45.007366732744934" lon="9.629671750156037"><ele>82.0</ele><time>2026-04-22T13:14:08Z</time></trkpt><trkpt lat="45.00731904508652" lon="9.629590023411634"><ele>82.5</ele><time>2026-04-22T13:14:10Z</time></trkpt><trkpt lat="45.007255960492365" lon="9.62951677577176"><ele>83.0</ele><time>2026-04-22T13:14:12Z</time></trkpt><trkpt lat="45.00720038560727" lon="9.629440638404272"><ele>83.0</ele><time>2026-04-22T13:14:14Z</time></trkpt><trkpt lat="45.00714202831933" lon="9.629366882142238"><ele>83.0</ele><time>2026-04-22T13:14:16Z</time></trkpt><trkpt lat="45.00707372034393" lon="9.629288390437566"><ele>83.0</ele><time>2026-04-22T13:14:18Z</time></trkpt><trkpt lat="45.00701460728667" lon="9.629195193921445"><ele>83.0</ele><time>2026-04-22T13:14:20Z</time></trkpt><trkpt lat="45.006957903562785" lon="9.629125335637825"><ele>83.0</ele><time>2026-04-22T13:14:22Z</time></trkpt><trkpt lat="45.00689220616241" lon="9.629055192583635"><ele>83.0</ele><time>2026-04-22T13:14:24Z</time></trkpt><trkpt lat="45.006824364647876" lon="9.628961379608494"><ele>83.0</ele><time>2026-04-22T13:14:26Z</time></trkpt><trkpt lat="45.006752539434835" lon="9.6288940183769"><ele>83.0</ele><time>2026-04-22T13:14:28Z</time></trkpt><trkpt lat="45.006693038294216" lon="9.628817120987911"><ele>83.0</ele><time>2026-04-22T13:14:30Z</time></trkpt><trkpt lat="45.00663024016253" lon="9.628733324014886"><ele>83.0</ele><time>2026-04-22T13:14:32Z</time></trkpt><trkpt lat="45.006576442690275" lon="9.628663605447747"><ele>83.0</ele><time>2026-04-22T13:14:34Z</time></trkpt><trkpt lat="45.00651556847447" lon="9.628589713234447"><ele>83.0</ele><time>2026-04-22T13:14:36Z</time></trkpt><trkpt lat="45.006471938787115" lon="9.628502461143729"><ele>83.0</ele><time>2026-04-22T13:14:38Z</time></trkpt><trkpt lat="45.00642962815809" lon="9.628405222811313"><ele>83.0</ele><time>2026-04-22T13:14:40Z</time></trkpt><trkpt lat="45.006389747695614" lon="9.628322515442873"><ele>83.0</ele><time>2026-04-22T13:14:42Z</time></trkpt><trkpt lat="45.00634414325419" lon="9.628229325626732"><ele>83.0</ele><time>2026-04-22T13:14:44Z</time></trkpt><trkpt lat="45.0062920150125" lon="9.62814050146859"><ele>83.0</ele><time>2026-04-22T13:14:46Z</time></trkpt><trkpt lat="45.00625411228567" lon="9.628059955111164"><ele>83.0</ele><time>2026-04-22T13:14:48Z</time></trkpt><trkpt lat="45.00620845248324" lon="9.627980481439417"><ele>83.0</ele><time>2026-04-22T13:14:49.999Z</time></trkpt><trkpt lat="45.00614191893112" lon="9.62790071604415"><ele>83.0</ele><time>2026-04-22T13:14:52.999Z</time></trkpt><trkpt lat="45.00605429358592" lon="9.627927630714105"><ele>83.0</ele><time>2026-04-22T13:14:56.999Z</time></trkpt><trkpt lat="45.005992891204954" lon="9.627989212266549"><ele>83.0</ele><time>2026-04-22T13:14:58.999Z</time></trkpt><trkpt lat="45.005910525158534" lon="9.628068208607182"><ele>83.0</ele><time>2026-04-22T13:15:00.999Z</time></trkpt><trkpt lat="45.00583831579102" lon="9.628110180174605"><ele>83.0</ele><time>2026-04-22T13:15:02.999Z</time></trkpt><trkpt lat="45.005752514992025" lon="9.62812262303631"><ele>82.5</ele><time>2026-04-22T13:15:04.999Z</time></trkpt><trkpt lat="45.00566957730681" lon="9.62810922564254"><ele>82.0</ele><time>2026-04-22T13:15:06.999Z</time></trkpt><trkpt lat="45.005589826826245" lon="9.628088386889246"><ele>81.5</ele><time>2026-04-22T13:15:08.999Z</time></trkpt><trkpt lat="45.00550958575487" lon="9.628062201775677"><ele>81.0</ele><time>2026-04-22T13:15:10.999Z</time></trkpt><trkpt lat="45.00543309001871" lon="9.62806544458816"><ele>80.5</ele><time>2026-04-22T13:15:12.999Z</time></trkpt><trkpt lat="45.00535630664446" lon="9.628063464239444"><ele>80.0</ele><time>2026-04-22T13:15:14.999Z</time></trkpt><trkpt lat="45.00528733979259" lon="9.628055056757338"><ele>80.0</ele><time>2026-04-22T13:15:16.999Z</time></trkpt><trkpt lat="45.00521553066711" lon="9.628026022453373"><ele>80.0</ele><time>2026-04-22T13:15:18.999Z</time></trkpt><trkpt lat="45.00514706333466" lon="9.627992749413965"><ele>80.0</ele><time>2026-04-22T13:15:20.999Z</time></trkpt><trkpt lat="45.005075254348455" lon="9.627943683966256"><ele>80.0</ele><time>2026-04-22T13:15:22.999Z</time></trkpt><trkpt lat="45.00499688173762" lon="9.62789915432592"><ele>80.0</ele><time>2026-04-22T13:15:24.999Z</time></trkpt><trkpt lat="45.00493002714626" lon="9.627842136071612"><ele>80.0</ele><time>2026-04-22T13:15:26.999Z</time></trkpt><trkpt lat="45.00485496386826" lon="9.627787638573073"><ele>80.66666666666667</ele><time>2026-04-22T13:15:28.999Z</time></trkpt><trkpt lat="45.004782936595284" lon="9.627729906481633"><ele>81.33333333333334</ele><time>2026-04-22T13:15:30.999Z</time></trkpt><trkpt lat="45.004708304307165" lon="9.627665095283021"><ele>82.0</ele><time>2026-04-22T13:15:32.999Z</time></trkpt><trkpt lat="45.00464499140602" lon="9.627606393137006"><ele>82.66666666666667</ele><time>2026-04-22T13:15:34.999Z</time></trkpt><trkpt lat="45.0045761839624" lon="9.627538679461253"><ele>83.33333333333333</ele><time>2026-04-22T13:15:36.999Z</time></trkpt><trkpt lat="45.004503209747945" lon="9.62746927941502"><ele>84.0</ele><time>2026-04-22T13:15:38.999Z</time></trkpt><trkpt lat="45.00443329788528" lon="9.627395422818395"><ele>84.0</ele><time>2026-04-22T13:15:40.999Z</time></trkpt><trkpt lat="45.0043605504078" lon="9.627323368046172"><ele>84.0</ele><time>2026-04-22T13:15:42.999Z</time></trkpt><trkpt lat="45.0043003317074" lon="9.627235771031621"><ele>84.0</ele><time>2026-04-22T13:15:44.999Z</time></trkpt><trkpt lat="45.004229365376915" lon="9.627155090226413"><ele>84.0</ele><time>2026-04-22T13:15:46.999Z</time></trkpt><trkpt lat="45.004161572717024" lon="9.627058870474906"><ele>84.0</ele><time>2026-04-22T13:15:50Z</time></trkpt><trkpt lat="45.00410052925509" lon="9.626986687667724"><ele>84.0</ele><time>2026-04-22T13:15:53Z</time></trkpt><trkpt lat="45.004067364464646" lon="9.626895685644865"><ele>84.6</ele><time>2026-04-22T13:15:56Z</time></trkpt><trkpt lat="45.003995743613615" lon="9.626800807173456"><ele>85.2</ele><time>2026-04-22T13:15:59Z</time></trkpt><trkpt lat="45.00395567885835" lon="9.626709918566748"><ele>85.8</ele><time>2026-04-22T13:16:00Z</time></trkpt><trkpt lat="45.00392155244928" lon="9.626626853039635"><ele>86.39999999999999</ele><time>2026-04-22T13:16:01Z</time></trkpt><trkpt lat="45.00384252343581" lon="9.626496438997382"><ele>87.0</ele><time>2026-04-22T13:16:03Z</time></trkpt><trkpt lat="45.00376029248783" lon="9.62636143257307"><ele>87.0</ele><time>2026-04-22T13:16:05Z</time></trkpt><trkpt lat="45.003710145330935" lon="9.626292239216957"><ele>87.0</ele><time>2026-04-22T13:16:06Z</time></trkpt><trkpt lat="45.003627195074976" lon="9.626166945655202"><ele>87.0</ele><time>2026-04-22T13:16:08Z</time></trkpt><trkpt lat="45.00354863253498" lon="9.62604450327799"><ele>87.0</ele><time>2026-04-22T13:16:10Z</time></trkpt><trkpt lat="45.00347363595542" lon="9.62591207189317"><ele>87.0</ele><time>2026-04-22T13:16:12Z</time></trkpt><trkpt lat="45.003403876570914" lon="9.625770115963189"><ele>87.0</ele><time>2026-04-22T13:16:14Z</time></trkpt><trkpt lat="45.00334068984688" lon="9.625634979126751"><ele>87.0</ele><time>2026-04-22T13:16:16Z</time></trkpt><trkpt lat="45.00328152351229" lon="9.625501542384919"><ele>87.0</ele><time>2026-04-22T13:16:18Z</time></trkpt><trkpt lat="45.003224908616325" lon="9.625371414020451"><ele>87.0</ele><time>2026-04-22T13:16:20Z</time></trkpt><trkpt lat="45.00317918228485" lon="9.625256941064913"><ele>87.0</ele><time>2026-04-22T13:16:22Z</time></trkpt><trkpt lat="45.0031238047315" lon="9.625129151009356"><ele>86.8</ele><time>2026-04-22T13:16:24Z</time></trkpt><trkpt lat="45.00307000175911" lon="9.625003761492996"><ele>86.6</ele><time>2026-04-22T13:16:26Z</time></trkpt><trkpt lat="45.00302014636662" lon="9.624889835312915"><ele>86.39999999999999</ele><time>2026-04-22T13:16:28Z</time></trkpt><trkpt lat="45.00297142293344" lon="9.624783433629721"><ele>86.19999999999999</ele><time>2026-04-22T13:16:30Z</time></trkpt><trkpt lat="45.00294445399716" lon="9.624670709093376"><ele>86.0</ele><time>2026-04-22T13:16:32Z</time></trkpt><trkpt lat="45.00280673329215" lon="9.624629077153834"><ele>86.0</ele><time>2026-04-22T13:16:33Z</time></trkpt><trkpt lat="45.00293898779763" lon="9.624512350721393"><ele>86.0</ele><time>2026-04-22T13:16:34Z</time></trkpt><trkpt lat="45.00298217229057" lon="9.624429066094187"><ele>86.0</ele><time>2026-04-22T13:16:36Z</time></trkpt><trkpt lat="45.00302967543306" lon="9.624329702102855"><ele>86.0</ele><time>2026-04-22T13:16:39Z</time></trkpt><trkpt lat="45.00297695626545" lon="9.624226903048335"><ele>86.0</ele><time>2026-04-22T13:16:42Z</time></trkpt><trkpt lat="45.00289989493539" lon="9.624171351631322"><ele>85.8</ele><time>2026-04-22T13:16:44Z</time></trkpt><trkpt lat="45.00279140559378" lon="9.624169851242952"><ele>85.6</ele><time>2026-04-22T13:16:46Z</time></trkpt><trkpt lat="45.0026913506414" lon="9.624166351111958"><ele>85.4</ele><time>2026-04-22T13:16:47.999Z</time></trkpt><trkpt lat="45.002599203845" lon="9.624157860137824"><ele>85.2</ele><time>2026-04-22T13:16:49.999Z</time></trkpt><trkpt lat="45.00250396823112" lon="9.624110289679159"><ele>85.0</ele><time>2026-04-22T13:16:51.999Z</time></trkpt><trkpt lat="45.00242249398166" lon="9.624027861828816"><ele>85.0</ele><time>2026-04-22T13:16:53.999Z</time></trkpt><trkpt lat="45.00234547133095" lon="9.623943975917078"><ele>85.0</ele><time>2026-04-22T13:16:55.999Z</time></trkpt><trkpt lat="45.00226965985568" lon="9.623841496286003"><ele>85.0</ele><time>2026-04-22T13:16:57.999Z</time></trkpt><trkpt lat="45.00219092388203" lon="9.62376121927205"><ele>85.0</ele><time>2026-04-22T13:16:59.999Z</time></trkpt><trkpt lat="45.00211305516037" lon="9.623667515003728"><ele>85.0</ele><time>2026-04-22T13:17:01.999Z</time></trkpt><trkpt lat="45.00203304285061" lon="9.623561344126514"><ele>85.2</ele><time>2026-04-22T13:17:03.999Z</time></trkpt><trkpt lat="45.00195905688207" lon="9.62347469629344"><ele>85.4</ele><time>2026-04-22T13:17:05.999Z</time></trkpt><trkpt lat="45.00188350373672" lon="9.62338093033236"><ele>85.6</ele><time>2026-04-22T13:17:07.999Z</time></trkpt><trkpt lat="45.00181351121301" lon="9.623267491326153"><ele>85.8</ele><time>2026-04-22T13:17:09.999Z</time></trkpt><trkpt lat="45.00175058198469" lon="9.623156716156705"><ele>86.0</ele><time>2026-04-22T13:17:11.999Z</time></trkpt><trkpt lat="45.00168758812986" lon="9.623043106665442"><ele>86.0</ele><time>2026-04-22T13:17:13.999Z</time></trkpt><trkpt lat="45.00161846641091" lon="9.622928718137487"><ele>86.0</ele><time>2026-04-22T13:17:15.999Z</time></trkpt><trkpt lat="45.00154840620244" lon="9.62280760625398"><ele>86.0</ele><time>2026-04-22T13:17:17.999Z</time></trkpt><trkpt lat="45.001473941863175" lon="9.622683042613275"><ele>86.0</ele><time>2026-04-22T13:17:19.999Z</time></trkpt><trkpt lat="45.0014071322494" lon="9.622561488406083"><ele>86.0</ele><time>2026-04-22T13:17:21.999Z</time></trkpt><trkpt lat="45.001324915516754" lon="9.62244498004356"><ele>86.0</ele><time>2026-04-22T13:17:23.999Z</time></trkpt><trkpt lat="45.001243283230586" lon="9.622318162822992"><ele>86.0</ele><time>2026-04-22T13:17:25.999Z</time></trkpt><trkpt lat="45.001160050223724" lon="9.62220915910501"><ele>86.0</ele><time>2026-04-22T13:17:27.999Z</time></trkpt><trkpt lat="45.001102575845586" lon="9.622068002193355"><ele>86.0</ele><time>2026-04-22T13:17:29.999Z</time></trkpt><trkpt lat="45.00102300165617" lon="9.621951949457724"><ele>86.0</ele><time>2026-04-22T13:17:31.999Z</time></trkpt><trkpt lat="45.000947622200094" lon="9.62182169728422"><ele>86.0</ele><time>2026-04-22T13:17:33.999Z</time></trkpt><trkpt lat="45.00087100923931" lon="9.621703702764966"><ele>86.0</ele><time>2026-04-22T13:17:35.999Z</time></trkpt><trkpt lat="45.00078856368226" lon="9.621580957917699"><ele>86.0</ele><time>2026-04-22T13:17:37.999Z</time></trkpt><trkpt lat="45.00071210920697" lon="9.621448009962695"><ele>86.0</ele><time>2026-04-22T13:17:39.999Z</time></trkpt><trkpt lat="45.000628749974965" lon="9.62131409332973"><ele>86.0</ele><time>2026-04-22T13:17:41.999Z</time></trkpt><trkpt lat="45.00055223694727" lon="9.621185759786664"><ele>86.0</ele><time>2026-04-22T13:17:43.999Z</time></trkpt><trkpt lat="45.00047125239324" lon="9.62104959484299"><ele>86.0</ele><time>2026-04-22T13:17:45.999Z</time></trkpt><trkpt lat="45.000402019268726" lon="9.620926142918504"><ele>86.0</ele><time>2026-04-22T13:17:47.999Z</time></trkpt><trkpt lat="45.00035451393255" lon="9.620858082997584"><ele>86.0</ele><time>2026-04-22T13:17:48.999Z</time></trkpt><trkpt lat="45.00028560092223" lon="9.620730043379151"><ele>86.0</ele><time>2026-04-22T13:17:50.999Z</time></trkpt><trkpt lat="45.000199786346364" lon="9.620600039782651"><ele>86.0</ele><time>2026-04-22T13:17:52.999Z</time></trkpt><trkpt lat="45.000123640904064" lon="9.620469091282377"><ele>86.0</ele><time>2026-04-22T13:17:55Z</time></trkpt><trkpt lat="45.00007426941411" lon="9.620397094858953"><ele>86.0</ele><time>2026-04-22T13:17:56Z</time></trkpt><trkpt lat="44.99999157595176" lon="9.620268976376495"><ele>86.0</ele><time>2026-04-22T13:17:58Z</time></trkpt><trkpt lat="44.999949498235836" lon="9.620199343995298"><ele>86.0</ele><time>2026-04-22T13:17:59Z</time></trkpt><trkpt lat="44.99986793533864" lon="9.620069172951943"><ele>86.0</ele><time>2026-04-22T13:18:01Z</time></trkpt><trkpt lat="44.99978639363071" lon="9.619940991940684"><ele>86.0</ele><time>2026-04-22T13:18:03Z</time></trkpt><trkpt lat="44.999694113461096" lon="9.61980962103718"><ele>86.0</ele><time>2026-04-22T13:18:05Z</time></trkpt><trkpt lat="44.99965091579897" lon="9.619742922076064"><ele>86.0</ele><time>2026-04-22T13:18:06Z</time></trkpt><trkpt lat="44.99957977493038" lon="9.619610744315379"><ele>86.0</ele><time>2026-04-22T13:18:08Z</time></trkpt><trkpt lat="44.99949844087534" lon="9.619491172775199"><ele>86.0</ele><time>2026-04-22T13:18:10Z</time></trkpt><trkpt lat="44.99940701359514" lon="9.619367979671349"><ele>86.0</ele><time>2026-04-22T13:18:12Z</time></trkpt><trkpt lat="44.99932282749115" lon="9.619244759897674"><ele>86.0</ele><time>2026-04-22T13:18:14Z</time></trkpt><trkpt lat="44.99927735304559" lon="9.61918028909186"><ele>86.0</ele><time>2026-04-22T13:18:15Z</time></trkpt><trkpt lat="44.999189524988296" lon="9.619062044032281"><ele>86.0</ele><time>2026-04-22T13:18:17Z</time></trkpt><trkpt lat="44.999100489576456" lon="9.61894724191357"><ele>86.0</ele><time>2026-04-22T13:18:19Z</time></trkpt><trkpt lat="44.99900487160236" lon="9.618833141023792"><ele>86.0</ele><time>2026-04-22T13:18:21Z</time></trkpt><trkpt lat="44.998956899359825" lon="9.618772029821404"><ele>86.0</ele><time>2026-04-22T13:18:22Z</time></trkpt><trkpt lat="44.99886371300074" lon="9.618677750116094"><ele>86.0</ele><time>2026-04-22T13:18:24Z</time></trkpt><trkpt lat="44.99877080501009" lon="9.618571348409937"><ele>86.0</ele><time>2026-04-22T13:18:26Z</time></trkpt><trkpt lat="44.99869361586124" lon="9.618477487424526"><ele>86.0</ele><time>2026-04-22T13:18:28Z</time></trkpt><trkpt lat="44.99860443734159" lon="9.61840201815443"><ele>86.0</ele><time>2026-04-22T13:18:30Z</time></trkpt><trkpt lat="44.99852113232421" lon="9.618306536622645"><ele>86.0</ele><time>2026-04-22T13:18:32Z</time></trkpt><trkpt lat="44.99842661230623" lon="9.618210700385095"><ele>86.0</ele><time>2026-04-22T13:18:34Z</time></trkpt><trkpt lat="44.99833480173384" lon="9.618113650091047"><ele>86.0</ele><time>2026-04-22T13:18:36Z</time></trkpt><trkpt lat="44.998233671495456" lon="9.618029880625086"><ele>86.0</ele><time>2026-04-22T13:18:38Z</time></trkpt><trkpt lat="44.99818008760742" lon="9.617973662890819"><ele>86.0</ele><time>2026-04-22T13:18:39Z</time></trkpt><trkpt lat="44.99808281242239" lon="9.617871606308583"><ele>85.8</ele><time>2026-04-22T13:18:41Z</time></trkpt><trkpt lat="44.99798955602099" lon="9.617773766063472"><ele>85.6</ele><time>2026-04-22T13:18:43Z</time></trkpt><trkpt lat="44.99793252796839" lon="9.617719972602254"><ele>85.4</ele><time>2026-04-22T13:18:44Z</time></trkpt><trkpt lat="44.99783792177147" lon="9.617614678455359"><ele>85.2</ele><time>2026-04-22T13:18:46Z</time></trkpt><trkpt lat="44.997752650362735" lon="9.617525215647946"><ele>85.0</ele><time>2026-04-22T13:18:48Z</time></trkpt><trkpt lat="44.9976925242784" lon="9.61746213418841"><ele>85.0</ele><time>2026-04-22T13:18:49Z</time></trkpt><trkpt lat="44.99760320206813" lon="9.617368421530731"><ele>85.0</ele><time>2026-04-22T13:18:51Z</time></trkpt><trkpt lat="44.997506948242346" lon="9.617267436449618"><ele>85.0</ele><time>2026-04-22T13:18:53Z</time></trkpt><trkpt lat="44.99740766827253" lon="9.6171632765661"><ele>85.0</ele><time>2026-04-22T13:18:55Z</time></trkpt><trkpt lat="44.997327487178886" lon="9.617035272621182"><ele>85.6</ele><time>2026-04-22T13:18:56.999Z</time></trkpt><trkpt lat="44.99724664373546" lon="9.61693541408572"><ele>86.2</ele><time>2026-04-22T13:18:58.999Z</time></trkpt><trkpt lat="44.99718875907226" lon="9.616885368786374"><ele>86.80000000000001</ele><time>2026-04-22T13:18:59.999Z</time></trkpt><trkpt lat="44.99708844755828" lon="9.616784948897585"><ele>87.4</ele><time>2026-04-22T13:19:01.999Z</time></trkpt><trkpt lat="44.9969860738116" lon="9.616686309444711"><ele>88.0</ele><time>2026-04-22T13:19:03.999Z</time></trkpt><trkpt lat="44.996882068299605" lon="9.616589013947111"><ele>88.0</ele><time>2026-04-22T13:19:05.999Z</time></trkpt><trkpt lat="44.99683151804089" lon="9.616531724684954"><ele>88.0</ele><time>2026-04-22T13:19:06.999Z</time></trkpt><trkpt lat="44.996733885820284" lon="9.616437410642318"><ele>88.0</ele><time>2026-04-22T13:19:08.999Z</time></trkpt><trkpt lat="44.996682681921506" lon="9.616383788880487"><ele>88.0</ele><time>2026-04-22T13:19:09.999Z</time></trkpt><trkpt lat="44.99658665322004" lon="9.616284379346524"><ele>88.0</ele><time>2026-04-22T13:19:11.999Z</time></trkpt><trkpt lat="44.99653131373793" lon="9.61623455626886"><ele>88.0</ele><time>2026-04-22T13:19:12.999Z</time></trkpt><trkpt lat="44.99642999608369" lon="9.616128422696441"><ele>88.2</ele><time>2026-04-22T13:19:14.999Z</time></trkpt><trkpt lat="44.99633650589353" lon="9.616046755230666"><ele>88.4</ele><time>2026-04-22T13:19:16.999Z</time></trkpt><trkpt lat="44.99625683845941" lon="9.615960347984231"><ele>88.60000000000001</ele><time>2026-04-22T13:19:18.999Z</time></trkpt><trkpt lat="44.996156898743486" lon="9.615875770076126"><ele>88.80000000000001</ele><time>2026-04-22T13:19:20.999Z</time></trkpt><trkpt lat="44.99607531058404" lon="9.615786625718465"><ele>89.0</ele><time>2026-04-22T13:19:22.999Z</time></trkpt><trkpt lat="44.996009482558584" lon="9.615713103255217"><ele>89.0</ele><time>2026-04-22T13:19:24.999Z</time></trkpt><trkpt lat="44.99598291180128" lon="9.615566497568304"><ele>89.0</ele><time>2026-04-22T13:19:26.999Z</time></trkpt><trkpt lat="44.99599255831453" lon="9.615430801094204"><ele>89.0</ele><time>2026-04-22T13:19:28.999Z</time></trkpt><trkpt lat="44.99604449095982" lon="9.615337742339996"><ele>89.0</ele><time>2026-04-22T13:19:30.999Z</time></trkpt><trkpt lat="44.99611549131538" lon="9.615242652248805"><ele>89.0</ele><time>2026-04-22T13:19:32.999Z</time></trkpt><trkpt lat="44.996169727627404" lon="9.615154055952447"><ele>89.0</ele><time>2026-04-22T13:19:34.999Z</time></trkpt><trkpt lat="44.99621579477678" lon="9.61504897274454"><ele>89.0</ele><time>2026-04-22T13:19:36.999Z</time></trkpt><trkpt lat="44.99626972613312" lon="9.614952932957419"><ele>89.0</ele><time>2026-04-22T13:19:38.999Z</time></trkpt><trkpt lat="44.9963349871639" lon="9.614863432231752"><ele>89.0</ele><time>2026-04-22T13:19:40.999Z</time></trkpt><trkpt lat="44.99639428577684" lon="9.614765995069183"><ele>89.0</ele><time>2026-04-22T13:19:42.999Z</time></trkpt><trkpt lat="44.99646606198061" lon="9.614655138733594"><ele>89.0</ele><time>2026-04-22T13:19:44.999Z</time></trkpt><trkpt lat="44.99653899013863" lon="9.614557471403613"><ele>89.0</ele><time>2026-04-22T13:19:46.999Z</time></trkpt><trkpt lat="44.9966163352426" lon="9.614477147476249"><ele>89.0</ele><time>2026-04-22T13:19:48.999Z</time></trkpt><trkpt lat="44.996685097884686" lon="9.614377102888032"><ele>89.0</ele><time>2026-04-22T13:19:50.999Z</time></trkpt><trkpt lat="44.99675541747328" lon="9.614269823777557"><ele>89.0</ele><time>2026-04-22T13:19:52.999Z</time></trkpt><trkpt lat="44.996828461782364" lon="9.614184911031089"><ele>89.0</ele><time>2026-04-22T13:19:54.999Z</time></trkpt><trkpt lat="44.996897999434246" lon="9.614085850784681"><ele>89.0</ele><time>2026-04-22T13:19:56.999Z</time></trkpt><trkpt lat="44.996972071261105" lon="9.613983375546916"><ele>89.0</ele><time>2026-04-22T13:19:58.999Z</time></trkpt><trkpt lat="44.99703428744636" lon="9.61388163760835"><ele>89.0</ele><time>2026-04-22T13:20:01Z</time></trkpt><trkpt lat="44.99710122591974" lon="9.613773039947775"><ele>89.0</ele><time>2026-04-22T13:20:03Z</time></trkpt><trkpt lat="44.99717305705645" lon="9.613680957661932"><ele>89.0</ele><time>2026-04-22T13:20:05Z</time></trkpt><trkpt lat="44.997241832342915" lon="9.613584128772963"><ele>89.0</ele><time>2026-04-22T13:20:07Z</time></trkpt><trkpt lat="44.99732025448501" lon="9.613486601253289"><ele>89.0</ele><time>2026-04-22T13:20:09Z</time></trkpt><trkpt lat="44.99739048082196" lon="9.613375116438354"><ele>89.0</ele><time>2026-04-22T13:20:11Z</time></trkpt><trkpt lat="44.997462538440246" lon="9.613264271922548"><ele>89.0</ele><time>2026-04-22T13:20:13Z</time></trkpt><trkpt lat="44.997559718060394" lon="9.613184322125687"><ele>88.80000000000001</ele><time>2026-04-22T13:20:15Z</time></trkpt><trkpt lat="44.99764794691285" lon="9.613098383261981"><ele>88.60000000000001</ele><time>2026-04-22T13:20:17Z</time></trkpt><trkpt lat="44.99774402097264" lon="9.613034916290609"><ele>88.4</ele><time>2026-04-22T13:20:19Z</time></trkpt><trkpt lat="44.99783019560718" lon="9.613001542732924"><ele>88.2</ele><time>2026-04-22T13:20:21Z</time></trkpt><trkpt lat="44.99793705579818" lon="9.612990641150818"><ele>88.0</ele><time>2026-04-22T13:20:23Z</time></trkpt><trkpt lat="44.99803242746673" lon="9.612989113225133"><ele>88.0</ele><time>2026-04-22T13:20:25Z</time></trkpt><trkpt lat="44.99814466781898" lon="9.613008134594974"><ele>88.0</ele><time>2026-04-22T13:20:27Z</time></trkpt><trkpt lat="44.998234556266326" lon="9.613024126688337"><ele>88.0</ele><time>2026-04-22T13:20:29Z</time></trkpt><trkpt lat="44.99833725433465" lon="9.613056638925476"><ele>88.0</ele><time>2026-04-22T13:20:31Z</time></trkpt><trkpt lat="44.998430008179135" lon="9.613104169924677"><ele>88.0</ele><time>2026-04-22T13:20:33Z</time></trkpt><trkpt lat="44.99852601623965" lon="9.613157428262294"><ele>88.0</ele><time>2026-04-22T13:20:35Z</time></trkpt><trkpt lat="44.99861888208483" lon="9.6132014835349"><ele>88.0</ele><time>2026-04-22T13:20:37Z</time></trkpt><trkpt lat="44.99870812721154" lon="9.6132646329289"><ele>88.0</ele><time>2026-04-22T13:20:39Z</time></trkpt><trkpt lat="44.9987663717186" lon="9.61329861797798"><ele>88.0</ele><time>2026-04-22T13:20:40Z</time></trkpt><trkpt lat="44.99886281705527" lon="9.61335291641671"><ele>88.0</ele><time>2026-04-22T13:20:42Z</time></trkpt><trkpt lat="44.99894879253655" lon="9.613418153791306"><ele>88.0</ele><time>2026-04-22T13:20:44Z</time></trkpt><trkpt lat="44.99902628653274" lon="9.613477092803288"><ele>88.0</ele><time>2026-04-22T13:20:46Z</time></trkpt><trkpt lat="44.99912120274766" lon="9.61351742657673"><ele>88.0</ele><time>2026-04-22T13:20:48Z</time></trkpt><trkpt lat="44.99923825820817" lon="9.613569429910688"><ele>88.0</ele><time>2026-04-22T13:20:50Z</time></trkpt><trkpt lat="44.99933933315595" lon="9.613628148232841"><ele>88.0</ele><time>2026-04-22T13:20:52Z</time></trkpt><trkpt lat="44.99943717917996" lon="9.613638659633091"><ele>88.0</ele><time>2026-04-22T13:20:54Z</time></trkpt><trkpt lat="44.99952986940807" lon="9.613712174033346"><ele>88.0</ele><time>2026-04-22T13:20:56Z</time></trkpt><trkpt lat="44.999625831155846" lon="9.613744112597091"><ele>88.0</ele><time>2026-04-22T13:20:58Z</time></trkpt><trkpt lat="44.999715638585165" lon="9.613757402848496"><ele>88.0</ele><time>2026-04-22T13:20:59Z</time></trkpt><trkpt lat="44.99981712988953" lon="9.613804371269568"><ele>88.0</ele><time>2026-04-22T13:21:01Z</time></trkpt><trkpt lat="44.99991812976362" lon="9.613850404661951"><ele>88.0</ele><time>2026-04-22T13:21:03Z</time></trkpt><trkpt lat="44.99998113252998" lon="9.613912132729164"><ele>88.0</ele><time>2026-04-22T13:21:05Z</time></trkpt><trkpt lat="45.00008791199452" lon="9.613750802121377"><ele>88.0</ele><time>2026-04-22T13:21:06Z</time></trkpt><trkpt lat="45.000190671688344" lon="9.6136900319394"><ele>88.0</ele><time>2026-04-22T13:21:07.999Z</time></trkpt><trkpt lat="45.000296052301245" lon="9.613639994176806"><ele>87.80000000000001</ele><time>2026-04-22T13:21:09.999Z</time></trkpt><trkpt lat="45.000358370937334" lon="9.613612845004893"><ele>87.6</ele><time>2026-04-22T13:21:10.999Z</time></trkpt><trkpt lat="45.00046721830365" lon="9.613598830508307"><ele>87.4</ele><time>2026-04-22T13:21:12.999Z</time></trkpt><trkpt lat="45.00057632868951" lon="9.613586897487895"><ele>87.19999999999999</ele><time>2026-04-22T13:21:14.999Z</time></trkpt><trkpt lat="45.00068697007861" lon="9.61357285549338"><ele>87.0</ele><time>2026-04-22T13:21:16.999Z</time></trkpt><trkpt lat="45.00079069272048" lon="9.613577232122426"><ele>86.8</ele><time>2026-04-22T13:21:18.999Z</time></trkpt><trkpt lat="45.000892175023836" lon="9.613584232818912"><ele>86.6</ele><time>2026-04-22T13:21:20.999Z</time></trkpt><trkpt lat="45.00102316865521" lon="9.613587258238468"><ele>86.39999999999999</ele><time>2026-04-22T13:21:22.999Z</time></trkpt><trkpt lat="45.00113349219818" lon="9.613587717804183"><ele>86.19999999999999</ele><time>2026-04-22T13:21:24.999Z</time></trkpt><trkpt lat="45.00122214014299" lon="9.613588760078985"><ele>86.0</ele><time>2026-04-22T13:21:26.999Z</time></trkpt><trkpt lat="45.0013198517262" lon="9.61360585279449"><ele>86.0</ele><time>2026-04-22T13:21:28.999Z</time></trkpt><trkpt lat="45.00142218821424" lon="9.613627393285991"><ele>86.0</ele><time>2026-04-22T13:21:30.999Z</time></trkpt><trkpt lat="45.001533442341945" lon="9.613640845388836"><ele>86.0</ele><time>2026-04-22T13:21:32.999Z</time></trkpt><trkpt lat="45.00159572835311" lon="9.613663710530316"><ele>86.0</ele><time>2026-04-22T13:21:33.999Z</time></trkpt><trkpt lat="45.001702419597564" lon="9.613660322351327"><ele>86.0</ele><time>2026-04-22T13:21:35.999Z</time></trkpt><trkpt lat="45.00180679747603" lon="9.613692563076901"><ele>86.0</ele><time>2026-04-22T13:21:37.999Z</time></trkpt><trkpt lat="45.00192348261405" lon="9.61372118481236"><ele>86.0</ele><time>2026-04-22T13:21:39.999Z</time></trkpt><trkpt lat="45.00200456290209" lon="9.61373973626463"><ele>86.0</ele><time>2026-04-22T13:21:40.999Z</time></trkpt><trkpt lat="45.00206644360386" lon="9.613769666268235"><ele>86.0</ele><time>2026-04-22T13:21:41.999Z</time></trkpt><trkpt lat="45.002165165019036" lon="9.61382882762205"><ele>86.0</ele><time>2026-04-22T13:21:43.999Z</time></trkpt><trkpt lat="45.002281082861934" lon="9.613868768135193"><ele>86.0</ele><time>2026-04-22T13:21:45.999Z</time></trkpt><trkpt lat="45.00238074749294" lon="9.613922409998745"><ele>86.0</ele><time>2026-04-22T13:21:47.999Z</time></trkpt><trkpt lat="45.00247720643245" lon="9.613975505911991"><ele>86.0</ele><time>2026-04-22T13:21:49.999Z</time></trkpt><trkpt lat="45.00259694091003" lon="9.614003501857736"><ele>86.0</ele><time>2026-04-22T13:21:51.999Z</time></trkpt><trkpt lat="45.00268340602713" lon="9.614026632007707"><ele>86.0</ele><time>2026-04-22T13:21:53.999Z</time></trkpt><trkpt lat="45.00279612548648" lon="9.614069619245564"><ele>85.8</ele><time>2026-04-22T13:21:55.999Z</time></trkpt><trkpt lat="45.00290130763084" lon="9.614098523017685"><ele>85.6</ele><time>2026-04-22T13:21:57.999Z</time></trkpt><trkpt lat="45.0030050417664" lon="9.614137352965663"><ele>85.4</ele><time>2026-04-22T13:21:59.999Z</time></trkpt><trkpt lat="45.00309322840769" lon="9.614127557233116"><ele>85.2</ele><time>2026-04-22T13:22:01.999Z</time></trkpt><trkpt lat="45.00321148680273" lon="9.614140521015507"><ele>85.0</ele><time>2026-04-22T13:22:03.999Z</time></trkpt><trkpt lat="45.003327004314755" lon="9.61413650736838"><ele>85.0</ele><time>2026-04-22T13:22:05.999Z</time></trkpt><trkpt lat="45.00343995919019" lon="9.614146333853864"><ele>85.0</ele><time>2026-04-22T13:22:08Z</time></trkpt><trkpt lat="45.00356216379927" lon="9.614146945853241"><ele>85.0</ele><time>2026-04-22T13:22:10Z</time></trkpt><trkpt lat="45.00367286197981" lon="9.614155670281432"><ele>85.0</ele><time>2026-04-22T13:22:12Z</time></trkpt><trkpt lat="45.0037851889522" lon="9.614163954928836"><ele>85.0</ele><time>2026-04-22T13:22:14Z</time></trkpt><trkpt lat="45.00389330894093" lon="9.614171143815375"><ele>85.0</ele><time>2026-04-22T13:22:16Z</time></trkpt><trkpt lat="45.00400566929835" lon="9.614175838615223"><ele>85.0</ele><time>2026-04-22T13:22:18Z</time></trkpt><trkpt lat="45.00412950297544" lon="9.614195477218416"><ele>85.0</ele><time>2026-04-22T13:22:20Z</time></trkpt><trkpt lat="45.004230279365764" lon="9.614222460604607"><ele>85.0</ele><time>2026-04-22T13:22:22Z</time></trkpt><trkpt lat="45.004296481311755" lon="9.614261089453375"><ele>85.2</ele><time>2026-04-22T13:22:23Z</time></trkpt><trkpt lat="45.004390345420525" lon="9.614306342814698"><ele>85.4</ele><time>2026-04-22T13:22:25Z</time></trkpt><trkpt lat="45.00445588822718" lon="9.614329881676179"><ele>85.6</ele><time>2026-04-22T13:22:26Z</time></trkpt><trkpt lat="45.0045732773738" lon="9.614374624529985"><ele>85.8</ele><time>2026-04-22T13:22:28Z</time></trkpt><trkpt lat="45.004675443844945" lon="9.614425588018817"><ele>86.0</ele><time>2026-04-22T13:22:30Z</time></trkpt><trkpt lat="45.00475232287313" lon="9.614453458568056"><ele>85.8</ele><time>2026-04-22T13:22:31Z</time></trkpt><trkpt lat="45.00485869253265" lon="9.614512037905289"><ele>85.6</ele><time>2026-04-22T13:22:33Z</time></trkpt><trkpt lat="45.004929593575184" lon="9.614529793498834"><ele>85.4</ele><time>2026-04-22T13:22:34Z</time></trkpt><trkpt lat="45.00503723554188" lon="9.614584278499683"><ele>85.2</ele><time>2026-04-22T13:22:36Z</time></trkpt><trkpt lat="45.00515300669383" lon="9.61462661862658"><ele>85.0</ele><time>2026-04-22T13:22:38Z</time></trkpt><trkpt lat="45.005219500239974" lon="9.614651560964365"><ele>84.83333333333333</ele><time>2026-04-22T13:22:39Z</time></trkpt><trkpt lat="45.005281901075435" lon="9.614673255187515"><ele>84.66666666666666</ele><time>2026-04-22T13:22:40Z</time></trkpt><trkpt lat="45.005391891353554" lon="9.614722695461023"><ele>84.5</ele><time>2026-04-22T13:22:42Z</time></trkpt><trkpt lat="45.005452791494875" lon="9.614759462377652"><ele>84.33333333333333</ele><time>2026-04-22T13:22:43Z</time></trkpt><trkpt lat="45.005508756639" lon="9.614804110569922"><ele>84.16666666666667</ele><time>2026-04-22T13:22:44Z</time></trkpt><trkpt lat="45.0055795138594" lon="9.61485557990745"><ele>84.0</ele><time>2026-04-22T13:22:45Z</time></trkpt><trkpt lat="45.00567354705973" lon="9.614943970423301"><ele>84.0</ele><time>2026-04-22T13:22:47Z</time></trkpt><trkpt lat="45.00577312937286" lon="9.614963673284885"><ele>84.0</ele><time>2026-04-22T13:22:49Z</time></trkpt><trkpt lat="45.005895611247745" lon="9.614947131597159"><ele>84.0</ele><time>2026-04-22T13:22:51Z</time></trkpt><trkpt lat="45.00602437666746" lon="9.614930704218047"><ele>84.0</ele><time>2026-04-22T13:22:53Z</time></trkpt><trkpt lat="45.006143536828745" lon="9.614913565134673"><ele>83.80000000000001</ele><time>2026-04-22T13:22:55Z</time></trkpt><trkpt lat="45.006257741090565" lon="9.614901730977971"><ele>83.60000000000001</ele><time>2026-04-22T13:22:57Z</time></trkpt><trkpt lat="45.00637740759068" lon="9.614885623195622"><ele>83.4</ele><time>2026-04-22T13:22:59Z</time></trkpt><trkpt lat="45.00648235576213" lon="9.614937573221274"><ele>83.2</ele><time>2026-04-22T13:23:01Z</time></trkpt><trkpt lat="45.00655550810431" lon="9.614965932380537"><ele>83.0</ele><time>2026-04-22T13:23:02Z</time></trkpt><trkpt lat="45.0066616964538" lon="9.614889316090125"><ele>82.2</ele><time>2026-04-22T13:23:04Z</time></trkpt><trkpt lat="45.00673228795467" lon="9.61486997789944"><ele>81.4</ele><time>2026-04-22T13:23:05Z</time></trkpt><trkpt lat="45.00680109585741" lon="9.614889656306396"><ele>80.60000000000001</ele><time>2026-04-22T13:23:06Z</time></trkpt><trkpt lat="45.006910911902146" lon="9.614922926000025"><ele>79.80000000000001</ele><time>2026-04-22T13:23:08Z</time></trkpt><trkpt lat="45.00704058774536" lon="9.614952200100461"><ele>79.0</ele><time>2026-04-22T13:23:10Z</time></trkpt><trkpt lat="45.00710413789191" lon="9.614965051482883"><ele>79.0</ele><time>2026-04-22T13:23:11Z</time></trkpt><trkpt lat="45.00722937692452" lon="9.614981404378614"><ele>79.0</ele><time>2026-04-22T13:23:13Z</time></trkpt><trkpt lat="45.007294372344845" lon="9.614993967172945"><ele>79.0</ele><time>2026-04-22T13:23:14Z</time></trkpt><trkpt lat="45.007364475991565" lon="9.615002192069344"><ele>79.0</ele><time>2026-04-22T13:23:15Z</time></trkpt><trkpt lat="45.00748474199546" lon="9.615022740855098"><ele>79.0</ele><time>2026-04-22T13:23:17Z</time></trkpt><trkpt lat="45.0075635380751" lon="9.615044682927095"><ele>79.80000000000001</ele><time>2026-04-22T13:23:18Z</time></trkpt><trkpt lat="45.0076795642053" lon="9.615081912711412"><ele>80.60000000000001</ele><time>2026-04-22T13:23:19.999Z</time></trkpt><trkpt lat="45.00774687348384" lon="9.61512123934766"><ele>81.4</ele><time>2026-04-22T13:23:20.999Z</time></trkpt><trkpt lat="45.00786813717001" lon="9.61517185115733"><ele>82.2</ele><time>2026-04-22T13:23:22.999Z</time></trkpt><trkpt lat="45.00797502790593" lon="9.61520246284435"><ele>83.0</ele><time>2026-04-22T13:23:24.999Z</time></trkpt><trkpt lat="45.008086273283375" lon="9.615240448508327"><ele>83.0</ele><time>2026-04-22T13:23:26.999Z</time></trkpt><trkpt lat="45.00819422620182" lon="9.615288100632986"><ele>83.0</ele><time>2026-04-22T13:23:28.999Z</time></trkpt><trkpt lat="45.008438688033685" lon="9.615294834285283"><ele>83.0</ele><time>2026-04-22T13:23:35.999Z</time></trkpt><trkpt lat="45.00845804952738" lon="9.615170576984925"><ele>83.0</ele><time>2026-04-22T13:23:37.999Z</time></trkpt><trkpt lat="45.00843259627605" lon="9.615007248010205"><ele>82.80000000000001</ele><time>2026-04-22T13:23:39.999Z</time></trkpt><trkpt lat="45.00845268300798" lon="9.61487422167113"><ele>82.6</ele><time>2026-04-22T13:23:41.999Z</time></trkpt><trkpt lat="45.00845989483457" lon="9.614722611927636"><ele>82.4</ele><time>2026-04-22T13:23:43.999Z</time></trkpt><trkpt lat="45.00847133342969" lon="9.614545748291297"><ele>82.19999999999999</ele><time>2026-04-22T13:23:45.999Z</time></trkpt><trkpt lat="45.008480808177644" lon="9.614407780734249"><ele>82.0</ele><time>2026-04-22T13:23:47.999Z</time></trkpt><trkpt lat="45.008480486137756" lon="9.614227667205668"><ele>82.0</ele><time>2026-04-22T13:23:49.999Z</time></trkpt><trkpt lat="45.00847977944253" lon="9.614038566171782"><ele>82.0</ele><time>2026-04-22T13:23:51.999Z</time></trkpt><trkpt lat="45.0084980137727" lon="9.613938120304775"><ele>82.0</ele><time>2026-04-22T13:23:52.999Z</time></trkpt><trkpt lat="45.00862780210321" lon="9.613909999362502"><ele>82.0</ele><time>2026-04-22T13:23:54.999Z</time></trkpt><trkpt lat="45.00869952139371" lon="9.613941284087158"><ele>82.0</ele><time>2026-04-22T13:23:55.999Z</time></trkpt><trkpt lat="45.00883383678405" lon="9.613998172847829"><ele>82.0</ele><time>2026-04-22T13:23:57.999Z</time></trkpt><trkpt lat="45.008900109439736" lon="9.614043501019868"><ele>82.0</ele><time>2026-04-22T13:23:58.999Z</time></trkpt><trkpt lat="45.0089619853179" lon="9.614071263859328"><ele>82.0</ele><time>2026-04-22T13:23:59.999Z</time></trkpt><trkpt lat="45.00902443152324" lon="9.61410022614202"><ele>82.0</ele><time>2026-04-22T13:24:00.999Z</time></trkpt><trkpt lat="45.00909090490928" lon="9.61412242522937"><ele>82.0</ele><time>2026-04-22T13:24:01.999Z</time></trkpt><trkpt lat="45.009163661386886" lon="9.614130077368952"><ele>82.0</ele><time>2026-04-22T13:24:02.999Z</time></trkpt><trkpt lat="45.00928768536986" lon="9.614185980540194"><ele>81.83333333333333</ele><time>2026-04-22T13:24:04.999Z</time></trkpt><trkpt lat="45.0094030771515" lon="9.614243686337492"><ele>81.66666666666666</ele><time>2026-04-22T13:24:06.999Z</time></trkpt><trkpt lat="45.00952440980217" lon="9.61429476071565"><ele>81.5</ele><time>2026-04-22T13:24:08.999Z</time></trkpt><trkpt lat="45.009582832220275" lon="9.614330694796081"><ele>81.33333333333333</ele><time>2026-04-22T13:24:09.999Z</time></trkpt><trkpt lat="45.00964660675683" lon="9.614356216074832"><ele>81.16666666666667</ele><time>2026-04-22T13:24:10.999Z</time></trkpt><trkpt lat="45.00971055063841" lon="9.614377233987952"><ele>81.0</ele><time>2026-04-22T13:24:11.999Z</time></trkpt><trkpt lat="45.00977566574012" lon="9.614403197647922"><ele>81.0</ele><time>2026-04-22T13:24:13Z</time></trkpt><trkpt lat="45.00989288509293" lon="9.614465130732578"><ele>81.0</ele><time>2026-04-22T13:24:15Z</time></trkpt><trkpt lat="45.010009558917176" lon="9.614518555635419"><ele>81.0</ele><time>2026-04-22T13:24:17Z</time></trkpt><trkpt lat="45.0101335951704" lon="9.61456966410337"><ele>81.0</ele><time>2026-04-22T13:24:19Z</time></trkpt><trkpt lat="45.010253181359296" lon="9.614623453319826"><ele>80.5</ele><time>2026-04-22T13:24:21Z</time></trkpt><trkpt lat="45.01031459551437" lon="9.614649124867952"><ele>80.0</ele><time>2026-04-22T13:24:22Z</time></trkpt><trkpt lat="45.01043258725989" lon="9.614699379539903"><ele>79.5</ele><time>2026-04-22T13:24:24Z</time></trkpt><trkpt lat="45.010502561693265" lon="9.614734333473912"><ele>79.0</ele><time>2026-04-22T13:24:25Z</time></trkpt><trkpt lat="45.01056573109028" lon="9.614757423093904"><ele>78.5</ele><time>2026-04-22T13:24:26Z</time></trkpt><trkpt lat="45.010629948710616" lon="9.614778627547285"><ele>78.0</ele><time>2026-04-22T13:24:27Z</time></trkpt><trkpt lat="45.010746416738456" lon="9.61481627046005"><ele>78.0</ele><time>2026-04-22T13:24:29Z</time></trkpt><trkpt lat="45.010862200808035" lon="9.614867849769924"><ele>78.0</ele><time>2026-04-22T13:24:31Z</time></trkpt><trkpt lat="45.01098178960605" lon="9.61493633489813"><ele>78.0</ele><time>2026-04-22T13:24:33Z</time></trkpt><trkpt lat="45.01104550946377" lon="9.614958682013567"><ele>78.0</ele><time>2026-04-22T13:24:34Z</time></trkpt><trkpt lat="45.011172545087824" lon="9.61500641546758"><ele>78.0</ele><time>2026-04-22T13:24:36Z</time></trkpt><trkpt lat="45.01128949523498" lon="9.615045756798072"><ele>78.0</ele><time>2026-04-22T13:24:38Z</time></trkpt><trkpt lat="45.011413279545046" lon="9.615093129748674"><ele>78.0</ele><time>2026-04-22T13:24:40Z</time></trkpt><trkpt lat="45.01148280005516" lon="9.615117699813622"><ele>78.0</ele><time>2026-04-22T13:24:41Z</time></trkpt><trkpt lat="45.01160167616008" lon="9.615167163863113"><ele>78.0</ele><time>2026-04-22T13:24:43Z</time></trkpt><trkpt lat="45.011672260764286" lon="9.615194196023259"><ele>78.0</ele><time>2026-04-22T13:24:44Z</time></trkpt><trkpt lat="45.01173704818427" lon="9.61521730810451"><ele>77.66666666666667</ele><time>2026-04-22T13:24:45Z</time></trkpt><trkpt lat="45.01185530435678" lon="9.615274157570644"><ele>77.33333333333333</ele><time>2026-04-22T13:24:47Z</time></trkpt><trkpt lat="45.011919806635085" lon="9.615301731154569"><ele>77.0</ele><time>2026-04-22T13:24:48Z</time></trkpt><trkpt lat="45.01198966625996" lon="9.615326423573558"><ele>76.66666666666666</ele><time>2026-04-22T13:24:49Z</time></trkpt><trkpt lat="45.01205884598289" lon="9.615351361248033"><ele>76.33333333333333</ele><time>2026-04-22T13:24:50Z</time></trkpt><trkpt lat="45.01212406060741" lon="9.615377410583465"><ele>76.0</ele><time>2026-04-22T13:24:51Z</time></trkpt><trkpt lat="45.01218690266167" lon="9.615404954809556"><ele>76.0</ele><time>2026-04-22T13:24:52Z</time></trkpt><trkpt lat="45.012250790512255" lon="9.615432567825975"><ele>76.0</ele><time>2026-04-22T13:24:53Z</time></trkpt><trkpt lat="45.01231674684204" lon="9.615459459200641"><ele>76.0</ele><time>2026-04-22T13:24:54Z</time></trkpt><trkpt lat="45.01238702387295" lon="9.61548671431093"><ele>76.0</ele><time>2026-04-22T13:24:55Z</time></trkpt><trkpt lat="45.01245429585406" lon="9.615512505473827"><ele>76.0</ele><time>2026-04-22T13:24:56Z</time></trkpt><trkpt lat="45.01257650425628" lon="9.615554324911999"><ele>76.0</ele><time>2026-04-22T13:24:58Z</time></trkpt><trkpt lat="45.01270155064718" lon="9.615606495238445"><ele>75.85714285714285</ele><time>2026-04-22T13:25:00Z</time></trkpt><trkpt lat="45.012816087722044" lon="9.61565769242799"><ele>75.71428571428572</ele><time>2026-04-22T13:25:02Z</time></trkpt><trkpt lat="45.01287784651496" lon="9.615683386119274"><ele>75.57142857142857</ele><time>2026-04-22T13:25:03Z</time></trkpt><trkpt lat="45.01293907860878" lon="9.615709126371886"><ele>75.42857142857142</ele><time>2026-04-22T13:25:04Z</time></trkpt><trkpt lat="45.01300171785622" lon="9.61573589234057"><ele>75.28571428571428</ele><time>2026-04-22T13:25:05Z</time></trkpt><trkpt lat="45.01306490551562" lon="9.615765556147302"><ele>75.14285714285714</ele><time>2026-04-22T13:25:06Z</time></trkpt><trkpt lat="45.01312770203844" lon="9.615796244210168"><ele>75.0</ele><time>2026-04-22T13:25:07Z</time></trkpt><trkpt lat="45.013250085788165" lon="9.615849743879384"><ele>74.99999999999999</ele><time>2026-04-22T13:25:09Z</time></trkpt><trkpt lat="45.01331266507369" lon="9.615877700978348"><ele>75.0</ele><time>2026-04-22T13:25:10Z</time></trkpt><trkpt lat="45.0133745753592" lon="9.615906027510427"><ele>75.0</ele><time>2026-04-22T13:25:11Z</time></trkpt><trkpt lat="45.01344298887222" lon="9.615928382162792"><ele>75.0</ele><time>2026-04-22T13:25:12Z</time></trkpt><trkpt lat="45.01352220476757" lon="9.615959795189125"><ele>75.0</ele><time>2026-04-22T13:25:13Z</time></trkpt><trkpt lat="45.01359268918047" lon="9.615986257271546"><ele>74.99999999999999</ele><time>2026-04-22T13:25:14Z</time></trkpt><trkpt lat="45.01365968795502" lon="9.61600886905051"><ele>75.0</ele><time>2026-04-22T13:25:15Z</time></trkpt><trkpt lat="45.013724070235924" lon="9.6160345589205"><ele>74.99999999999999</ele><time>2026-04-22T13:25:16Z</time></trkpt><trkpt lat="45.01378671017228" lon="9.616061471467136"><ele>75.0</ele><time>2026-04-22T13:25:17Z</time></trkpt><trkpt lat="45.013854882609984" lon="9.616089253012898"><ele>75.0</ele><time>2026-04-22T13:25:18Z</time></trkpt><trkpt lat="45.01391807484656" lon="9.61611285913437"><ele>75.0</ele><time>2026-04-22T13:25:19Z</time></trkpt><trkpt lat="45.0139822318665" lon="9.616131617513505"><ele>75.0</ele><time>2026-04-22T13:25:20Z</time></trkpt><trkpt lat="45.014049741296134" lon="9.61615397557033"><ele>74.99999999999999</ele><time>2026-04-22T13:25:21Z</time></trkpt><trkpt lat="45.01411740576258" lon="9.616181007440838"><ele>75.0</ele><time>2026-04-22T13:25:22Z</time></trkpt><trkpt lat="45.01418325826935" lon="9.616202680187783"><ele>75.16666666666667</ele><time>2026-04-22T13:25:23Z</time></trkpt><trkpt lat="45.01425280798074" lon="9.616252116777682"><ele>75.33333333333333</ele><time>2026-04-22T13:25:24Z</time></trkpt><trkpt lat="45.01431483425809" lon="9.61627754002989"><ele>75.5</ele><time>2026-04-22T13:25:25Z</time></trkpt><trkpt lat="45.01443984016381" lon="9.616324924080436"><ele>75.66666666666666</ele><time>2026-04-22T13:25:27Z</time></trkpt><trkpt lat="45.01451077807037" lon="9.616352143145622"><ele>75.83333333333333</ele><time>2026-04-22T13:25:28Z</time></trkpt><trkpt lat="45.01457816962089" lon="9.616379047637114"><ele>76.0</ele><time>2026-04-22T13:25:29Z</time></trkpt><trkpt lat="45.014640927708264" lon="9.616404044703378"><ele>76.0</ele><time>2026-04-22T13:25:30Z</time></trkpt><trkpt lat="45.01471073990508" lon="9.616429743807437"><ele>76.0</ele><time>2026-04-22T13:25:30.999Z</time></trkpt><trkpt lat="45.0147778658426" lon="9.616454324331299"><ele>76.0</ele><time>2026-04-22T13:25:31.999Z</time></trkpt><trkpt lat="45.01484549837899" lon="9.616480082432904"><ele>76.0</ele><time>2026-04-22T13:25:32.999Z</time></trkpt><trkpt lat="45.014912889908004" lon="9.616514781295317"><ele>76.0</ele><time>2026-04-22T13:25:33.999Z</time></trkpt><trkpt lat="45.01498138997039" lon="9.616545074469919"><ele>76.0</ele><time>2026-04-22T13:25:34.999Z</time></trkpt><trkpt lat="45.01505043297722" lon="9.616575841094965"><ele>76.0</ele><time>2026-04-22T13:25:35.999Z</time></trkpt><trkpt lat="45.01512226539568" lon="9.616602707321338"><ele>75.85714285714285</ele><time>2026-04-22T13:25:36.999Z</time></trkpt><trkpt lat="45.01519274893107" lon="9.616631232623554"><ele>75.71428571428572</ele><time>2026-04-22T13:25:37.999Z</time></trkpt><trkpt lat="45.015263872456586" lon="9.616660923110553"><ele>75.57142857142857</ele><time>2026-04-22T13:25:38.999Z</time></trkpt><trkpt lat="45.01532831928193" lon="9.616685409593629"><ele>75.42857142857142</ele><time>2026-04-22T13:25:39.999Z</time></trkpt><trkpt lat="45.01539678364353" lon="9.616711497375682"><ele>75.28571428571428</ele><time>2026-04-22T13:25:40.999Z</time></trkpt><trkpt lat="45.01546787041969" lon="9.616738347399014"><ele>75.14285714285714</ele><time>2026-04-22T13:25:41.999Z</time></trkpt><trkpt lat="45.01553549828159" lon="9.61676904621528"><ele>75.0</ele><time>2026-04-22T13:25:42.999Z</time></trkpt><trkpt lat="45.015603158579076" lon="9.61679405095005"><ele>74.99999999999999</ele><time>2026-04-22T13:25:43.999Z</time></trkpt><trkpt lat="45.01567605342009" lon="9.616818124227493"><ele>75.0</ele><time>2026-04-22T13:25:44.999Z</time></trkpt><trkpt lat="45.01573889827289" lon="9.616843695889617"><ele>75.0</ele><time>2026-04-22T13:25:45.999Z</time></trkpt><trkpt lat="45.01580710344495" lon="9.616877232016611"><ele>75.0</ele><time>2026-04-22T13:25:46.999Z</time></trkpt><trkpt lat="45.01587907958648" lon="9.616911042362032"><ele>75.0</ele><time>2026-04-22T13:25:47.999Z</time></trkpt><trkpt lat="45.01594980065635" lon="9.616940370930278"><ele>74.99999999999999</ele><time>2026-04-22T13:25:48.999Z</time></trkpt><trkpt lat="45.01601878101248" lon="9.616967094283055"><ele>75.0</ele><time>2026-04-22T13:25:49.999Z</time></trkpt><trkpt lat="45.01608705345334" lon="9.617002744374101"><ele>75.2</ele><time>2026-04-22T13:25:50.999Z</time></trkpt><trkpt lat="45.016198847032115" lon="9.61704753178314"><ele>75.4</ele><time>2026-04-22T13:25:52.999Z</time></trkpt><trkpt lat="45.01626724091778" lon="9.617076184182649"><ele>75.6</ele><time>2026-04-22T13:25:53.999Z</time></trkpt><trkpt lat="45.01633826429547" lon="9.617107111142406"><ele>75.8</ele><time>2026-04-22T13:25:54.999Z</time></trkpt><trkpt lat="45.016407951427155" lon="9.617136394692482"><ele>76.0</ele><time>2026-04-22T13:25:55.999Z</time></trkpt><trkpt lat="45.01653936909653" lon="9.617183086013164"><ele>76.0</ele><time>2026-04-22T13:25:57.999Z</time></trkpt><trkpt lat="45.01660084112669" lon="9.617209001910965"><ele>76.0</ele><time>2026-04-22T13:25:58.999Z</time></trkpt><trkpt lat="45.01666613605358" lon="9.617235741616941"><ele>76.0</ele><time>2026-04-22T13:25:59.999Z</time></trkpt><trkpt lat="45.01673336699442" lon="9.617260476402766"><ele>76.0</ele><time>2026-04-22T13:26:00.999Z</time></trkpt><trkpt lat="45.01680482057066" lon="9.617289972346985"><ele>76.0</ele><time>2026-04-22T13:26:01.999Z</time></trkpt><trkpt lat="45.01687787884158" lon="9.617320535145963"><ele>76.0</ele><time>2026-04-22T13:26:02.999Z</time></trkpt><trkpt lat="45.01694934774108" lon="9.617349914819242"><ele>76.0</ele><time>2026-04-22T13:26:03.999Z</time></trkpt><trkpt lat="45.017016862227266" lon="9.61738387704196"><ele>75.85714285714285</ele><time>2026-04-22T13:26:04.999Z</time></trkpt><trkpt lat="45.01708849235569" lon="9.617416153764294"><ele>75.71428571428572</ele><time>2026-04-22T13:26:05.999Z</time></trkpt><trkpt lat="45.017158293323156" lon="9.617440040870017"><ele>75.57142857142857</ele><time>2026-04-22T13:26:06.999Z</time></trkpt><trkpt lat="45.0172333648313" lon="9.61746723749278"><ele>75.42857142857142</ele><time>2026-04-22T13:26:07.999Z</time></trkpt><trkpt lat="45.01730138918834" lon="9.617502399695029"><ele>75.28571428571428</ele><time>2026-04-22T13:26:08.999Z</time></trkpt><trkpt lat="45.01737025177201" lon="9.617526033730279"><ele>75.14285714285714</ele><time>2026-04-22T13:26:09.999Z</time></trkpt><trkpt lat="45.01744061432443" lon="9.617553308017495"><ele>75.0</ele><time>2026-04-22T13:26:10.999Z</time></trkpt><trkpt lat="45.01751159649647" lon="9.61758058808746"><ele>74.71428571428571</ele><time>2026-04-22T13:26:11.999Z</time></trkpt><trkpt lat="45.017574849753714" lon="9.617608575849504"><ele>74.42857142857143</ele><time>2026-04-22T13:26:12.999Z</time></trkpt><trkpt lat="45.017642721571114" lon="9.61763460768914"><ele>74.14285714285714</ele><time>2026-04-22T13:26:13.999Z</time></trkpt><trkpt lat="45.01770908135437" lon="9.61766316716645"><ele>73.85714285714286</ele><time>2026-04-22T13:26:14.999Z</time></trkpt><trkpt lat="45.017777489047546" lon="9.617691770951954"><ele>73.57142857142857</ele><time>2026-04-22T13:26:15.999Z</time></trkpt><trkpt lat="45.01784654521828" lon="9.617716204068191"><ele>73.28571428571428</ele><time>2026-04-22T13:26:16.999Z</time></trkpt><trkpt lat="45.017912815565225" lon="9.617743225106594"><ele>73.0</ele><time>2026-04-22T13:26:17.999Z</time></trkpt><trkpt lat="45.01798670334984" lon="9.617779002143969"><ele>73.0</ele><time>2026-04-22T13:26:19Z</time></trkpt><trkpt lat="45.018048231753056" lon="9.617807926255978"><ele>73.0</ele><time>2026-04-22T13:26:20Z</time></trkpt><trkpt lat="45.01811738461587" lon="9.61782724997069"><ele>73.0</ele><time>2026-04-22T13:26:21Z</time></trkpt><trkpt lat="45.01819408943762" lon="9.61784542801489"><ele>73.0</ele><time>2026-04-22T13:26:22Z</time></trkpt><trkpt lat="45.01826344124792" lon="9.617872546875448"><ele>73.0</ele><time>2026-04-22T13:26:23Z</time></trkpt><trkpt lat="45.0183371902108" lon="9.617898756667485"><ele>73.0</ele><time>2026-04-22T13:26:24Z</time></trkpt><trkpt lat="45.01840400696631" lon="9.61792383693598"><ele>73.0</ele><time>2026-04-22T13:26:25Z</time></trkpt><trkpt lat="45.01846873221647" lon="9.617949111764874"><ele>73.0</ele><time>2026-04-22T13:26:26Z</time></trkpt><trkpt lat="45.01853350721016" lon="9.617975997222473"><ele>73.0</ele><time>2026-04-22T13:26:27Z</time></trkpt><trkpt lat="45.01860371223913" lon="9.618003953269609"><ele>73.0</ele><time>2026-04-22T13:26:28Z</time></trkpt><trkpt lat="45.01867269683097" lon="9.61802938180397"><ele>73.0</ele><time>2026-04-22T13:26:29Z</time></trkpt><trkpt lat="45.018736264399614" lon="9.618053632612579"><ele>73.0</ele><time>2026-04-22T13:26:30Z</time></trkpt><trkpt lat="45.018808496781475" lon="9.618080227739034"><ele>73.0</ele><time>2026-04-22T13:26:31Z</time></trkpt><trkpt lat="45.01887846770629" lon="9.618107318977184"><ele>73.0</ele><time>2026-04-22T13:26:32Z</time></trkpt><trkpt lat="45.018948570295656" lon="9.61813455255383"><ele>73.0</ele><time>2026-04-22T13:26:33Z</time></trkpt><trkpt lat="45.0190203467691" lon="9.618153902378936"><ele>73.0</ele><time>2026-04-22T13:26:34Z</time></trkpt><trkpt lat="45.01909020656401" lon="9.618177029339265"><ele>73.0</ele><time>2026-04-22T13:26:35Z</time></trkpt><trkpt lat="45.0191529201767" lon="9.618202894432054"><ele>73.0</ele><time>2026-04-22T13:26:36Z</time></trkpt><trkpt lat="45.01921961911845" lon="9.618227022443667"><ele>73.0</ele><time>2026-04-22T13:26:37Z</time></trkpt><trkpt lat="45.01928352583168" lon="9.61825446925716"><ele>73.0</ele><time>2026-04-22T13:26:38Z</time></trkpt><trkpt lat="45.01935115911696" lon="9.61828015866459"><ele>73.0</ele><time>2026-04-22T13:26:39Z</time></trkpt><trkpt lat="45.01941804181219" lon="9.61830341255117"><ele>73.14285714285714</ele><time>2026-04-22T13:26:40Z</time></trkpt><trkpt lat="45.01948102835149" lon="9.618326096093487"><ele>73.28571428571429</ele><time>2026-04-22T13:26:41Z</time></trkpt><trkpt lat="45.019542288749534" lon="9.618349884182111"><ele>73.42857142857143</ele><time>2026-04-22T13:26:42Z</time></trkpt><trkpt lat="45.01961006326887" lon="9.618373101434903"><ele>73.57142857142857</ele><time>2026-04-22T13:26:43Z</time></trkpt><trkpt lat="45.01967289273746" lon="9.618404210844776"><ele>73.71428571428571</ele><time>2026-04-22T13:26:44Z</time></trkpt><trkpt lat="45.01978064788246" lon="9.618416561792317"><ele>73.85714285714286</ele><time>2026-04-22T13:26:46Z</time></trkpt><trkpt lat="45.01984701200364" lon="9.618431594548486"><ele>74.0</ele><time>2026-04-22T13:26:47Z</time></trkpt><trkpt lat="45.019962104725636" lon="9.618435039135473"><ele>74.33333333333334</ele><time>2026-04-22T13:26:49Z</time></trkpt><trkpt lat="45.02007987574103" lon="9.618403075825919"><ele>74.66666666666667</ele><time>2026-04-22T13:26:51Z</time></trkpt><trkpt lat="45.02014505350098" lon="9.618394776940374"><ele>75.0</ele><time>2026-04-22T13:26:52Z</time></trkpt><trkpt lat="45.02021004584625" lon="9.618384767227019"><ele>75.33333333333333</ele><time>2026-04-22T13:26:53Z</time></trkpt><trkpt lat="45.020274002674576" lon="9.61837640351765"><ele>75.66666666666666</ele><time>2026-04-22T13:26:54Z</time></trkpt><trkpt lat="45.02034148285222" lon="9.618375324926507"><ele>76.0</ele><time>2026-04-22T13:26:55Z</time></trkpt><trkpt lat="45.020410156362004" lon="9.618368074922325"><ele>76.0</ele><time>2026-04-22T13:26:56Z</time></trkpt><trkpt lat="45.02048535473648" lon="9.618376635800676"><ele>76.0</ele><time>2026-04-22T13:26:57Z</time></trkpt><trkpt lat="45.02061688729593" lon="9.618379541080047"><ele>76.0</ele><time>2026-04-22T13:26:59Z</time></trkpt><trkpt lat="45.02068896977815" lon="9.618380775869793"><ele>76.0</ele><time>2026-04-22T13:27:00Z</time></trkpt><trkpt lat="45.020757831129664" lon="9.61838486091272"><ele>76.0</ele><time>2026-04-22T13:27:01Z</time></trkpt><trkpt lat="45.02082648420284" lon="9.61839061809675"><ele>76.0</ele><time>2026-04-22T13:27:02Z</time></trkpt><trkpt lat="45.02089489371899" lon="9.618394362401531"><ele>75.33333333333333</ele><time>2026-04-22T13:27:03Z</time></trkpt><trkpt lat="45.02096447040557" lon="9.618397142325405"><ele>74.66666666666666</ele><time>2026-04-22T13:27:04Z</time></trkpt><trkpt lat="45.02103453688292" lon="9.618402197325473"><ele>74.0</ele><time>2026-04-22T13:27:05Z</time></trkpt><trkpt lat="45.02110214017631" lon="9.618404839647154"><ele>73.33333333333333</ele><time>2026-04-22T13:27:06Z</time></trkpt><trkpt lat="45.02123172207248" lon="9.61840457388"><ele>72.66666666666667</ele><time>2026-04-22T13:27:08Z</time></trkpt><trkpt lat="45.02130172396905" lon="9.618409447482732"><ele>72.0</ele><time>2026-04-22T13:27:09Z</time></trkpt><trkpt lat="45.0214253521629" lon="9.618414907351958"><ele>72.0</ele><time>2026-04-22T13:27:11Z</time></trkpt><trkpt lat="45.02155654436003" lon="9.618419342560015"><ele>72.0</ele><time>2026-04-22T13:27:13Z</time></trkpt><trkpt lat="45.02167935103201" lon="9.61842366168557"><ele>72.0</ele><time>2026-04-22T13:27:15Z</time></trkpt><trkpt lat="45.021744507342454" lon="9.618428431555367"><ele>72.0</ele><time>2026-04-22T13:27:16Z</time></trkpt><trkpt lat="45.02182073614459" lon="9.6184414811562"><ele>72.0</ele><time>2026-04-22T13:27:17Z</time></trkpt><trkpt lat="45.021891332991466" lon="9.618449548204506"><ele>72.33333333333333</ele><time>2026-04-22T13:27:18Z</time></trkpt><trkpt lat="45.02195489736742" lon="9.618452628901533"><ele>72.66666666666667</ele><time>2026-04-22T13:27:19Z</time></trkpt><trkpt lat="45.022082527972636" lon="9.618454691526779"><ele>73.0</ele><time>2026-04-22T13:27:21Z</time></trkpt><trkpt lat="45.02215330282198" lon="9.618462527163107"><ele>73.33333333333334</ele><time>2026-04-22T13:27:22Z</time></trkpt><trkpt lat="45.0222183921069" lon="9.618462775879761"><ele>73.66666666666667</ele><time>2026-04-22T13:27:23Z</time></trkpt><trkpt lat="45.022285164410974" lon="9.618467949085993"><ele>74.0</ele><time>2026-04-22T13:27:24Z</time></trkpt><trkpt lat="45.022352891469055" lon="9.618472705480592"><ele>74.0</ele><time>2026-04-22T13:27:25Z</time></trkpt><trkpt lat="45.02247806998583" lon="9.618468737743052"><ele>74.0</ele><time>2026-04-22T13:27:27Z</time></trkpt><trkpt lat="45.02254401268627" lon="9.618475732008815"><ele>74.0</ele><time>2026-04-22T13:27:28Z</time></trkpt><trkpt lat="45.02260905931136" lon="9.618480639112883"><ele>74.0</ele><time>2026-04-22T13:27:29Z</time></trkpt><trkpt lat="45.022678804804755" lon="9.618482803229554"><ele>74.0</ele><time>2026-04-22T13:27:29.999Z</time></trkpt><trkpt lat="45.022791800058705" lon="9.618526433833077"><ele>74.0</ele><time>2026-04-22T13:27:31.999Z</time></trkpt><trkpt lat="45.02290522274309" lon="9.618598134009646"><ele>74.0</ele><time>2026-04-22T13:27:33.999Z</time></trkpt><trkpt lat="45.023017705773974" lon="9.618669420528478"><ele>74.0</ele><time>2026-04-22T13:27:35.999Z</time></trkpt><trkpt lat="45.023090595953086" lon="9.6187072480161"><ele>74.0</ele><time>2026-04-22T13:27:36.999Z</time></trkpt><trkpt lat="45.02314992800637" lon="9.618744123493109"><ele>74.0</ele><time>2026-04-22T13:27:37.999Z</time></trkpt><trkpt lat="45.023269878483504" lon="9.618808184256384"><ele>74.0</ele><time>2026-04-22T13:27:39.999Z</time></trkpt><trkpt lat="45.02337725872041" lon="9.618887047315058"><ele>73.4</ele><time>2026-04-22T13:27:41.999Z</time></trkpt><trkpt lat="45.023444797295895" lon="9.618927246962306"><ele>72.80000000000001</ele><time>2026-04-22T13:27:42.999Z</time></trkpt><trkpt lat="45.02354887255689" lon="9.618999940802794"><ele>72.19999999999999</ele><time>2026-04-22T13:27:44.999Z</time></trkpt><trkpt lat="45.023613260839696" lon="9.619030631522891"><ele>71.6</ele><time>2026-04-22T13:27:45.999Z</time></trkpt><trkpt lat="45.023715389125925" lon="9.619107181434112"><ele>71.0</ele><time>2026-04-22T13:27:47.999Z</time></trkpt><trkpt lat="45.02384134631073" lon="9.619182421143945"><ele>71.0</ele><time>2026-04-22T13:27:49.999Z</time></trkpt><trkpt lat="45.0239327845908" lon="9.619251982405043"><ele>71.0</ele><time>2026-04-22T13:27:51.999Z</time></trkpt><trkpt lat="45.02399451961255" lon="9.619285744068451"><ele>71.0</ele><time>2026-04-22T13:27:52.999Z</time></trkpt><trkpt lat="45.02409190311141" lon="9.619357366482392"><ele>71.0</ele><time>2026-04-22T13:27:54.999Z</time></trkpt><trkpt lat="45.024151160474126" lon="9.619390734402108"><ele>71.0</ele><time>2026-04-22T13:27:55.999Z</time></trkpt><trkpt lat="45.024265811301376" lon="9.619457128855464"><ele>71.39999999999999</ele><time>2026-04-22T13:27:57.999Z</time></trkpt><trkpt lat="45.02436308690618" lon="9.619528523729118"><ele>71.8</ele><time>2026-04-22T13:27:59.999Z</time></trkpt><trkpt lat="45.02447190006347" lon="9.619593979775624"><ele>72.19999999999999</ele><time>2026-04-22T13:28:01.999Z</time></trkpt><trkpt lat="45.02457880011069" lon="9.619661169357835"><ele>72.6</ele><time>2026-04-22T13:28:03.999Z</time></trkpt><trkpt lat="45.02464043919855" lon="9.619698423757091"><ele>73.0</ele><time>2026-04-22T13:28:04.999Z</time></trkpt><trkpt lat="45.02474299598036" lon="9.619769034860859"><ele>73.0</ele><time>2026-04-22T13:28:06.999Z</time></trkpt><trkpt lat="45.02480286474135" lon="9.619803467066058"><ele>73.0</ele><time>2026-04-22T13:28:07.999Z</time></trkpt><trkpt lat="45.0248698365543" lon="9.61984317768376"><ele>73.0</ele><time>2026-04-22T13:28:08.999Z</time></trkpt><trkpt lat="45.02496780074577" lon="9.619895122961934"><ele>73.0</ele><time>2026-04-22T13:28:10.999Z</time></trkpt><trkpt lat="45.025027774881316" lon="9.619932512716712"><ele>73.0</ele><time>2026-04-22T13:28:11.999Z</time></trkpt><trkpt lat="45.025083223334356" lon="9.61998384824415"><ele>73.0</ele><time>2026-04-22T13:28:12.999Z</time></trkpt><trkpt lat="45.02518505074648" lon="9.620049015433386"><ele>72.6</ele><time>2026-04-22T13:28:14.999Z</time></trkpt><trkpt lat="45.0252977450251" lon="9.620125284553776"><ele>72.19999999999999</ele><time>2026-04-22T13:28:16.999Z</time></trkpt><trkpt lat="45.02536193902568" lon="9.62016426360762"><ele>71.8</ele><time>2026-04-22T13:28:17.999Z</time></trkpt><trkpt lat="45.02546158514263" lon="9.620240663679386"><ele>71.39999999999999</ele><time>2026-04-22T13:28:19.999Z</time></trkpt><trkpt lat="45.02555907516436" lon="9.620335346293707"><ele>71.0</ele><time>2026-04-22T13:28:21.999Z</time></trkpt><trkpt lat="45.02565396481609" lon="9.620381038189853"><ele>71.0</ele><time>2026-04-22T13:28:23.999Z</time></trkpt><trkpt lat="45.025757540007476" lon="9.620379348510683"><ele>71.0</ele><time>2026-04-22T13:28:26Z</time></trkpt><trkpt lat="45.02586052500289" lon="9.620350369555759"><ele>71.0</ele><time>2026-04-22T13:28:28Z</time></trkpt><trkpt lat="45.02595062192493" lon="9.620345267319824"><ele>71.0</ele><time>2026-04-22T13:28:30Z</time></trkpt><trkpt lat="45.02604834087974" lon="9.620342315241947"><ele>71.0</ele><time>2026-04-22T13:28:32Z</time></trkpt><trkpt lat="45.02615840441415" lon="9.6203389063114"><ele>70.8</ele><time>2026-04-22T13:28:34Z</time></trkpt><trkpt lat="45.02626525934987" lon="9.620336723545414"><ele>70.6</ele><time>2026-04-22T13:28:36Z</time></trkpt><trkpt lat="45.026373680812824" lon="9.620331430662773"><ele>70.4</ele><time>2026-04-22T13:28:38Z</time></trkpt><trkpt lat="45.026481600496204" lon="9.620334188085753"><ele>70.2</ele><time>2026-04-22T13:28:40Z</time></trkpt><trkpt lat="45.026596687017665" lon="9.620326820001303"><ele>70.0</ele><time>2026-04-22T13:28:42Z</time></trkpt><trkpt lat="45.026711759662454" lon="9.620323233297496"><ele>70.0</ele><time>2026-04-22T13:28:44Z</time></trkpt><trkpt lat="45.026828217492216" lon="9.620320382451423"><ele>70.0</ele><time>2026-04-22T13:28:46Z</time></trkpt><trkpt lat="45.02694026458404" lon="9.620318109551695"><ele>70.0</ele><time>2026-04-22T13:28:48Z</time></trkpt><trkpt lat="45.027057503912935" lon="9.620319585292847"><ele>70.0</ele><time>2026-04-22T13:28:50Z</time></trkpt><trkpt lat="45.027172407733296" lon="9.620330551959245"><ele>70.0</ele><time>2026-04-22T13:28:52Z</time></trkpt><trkpt lat="45.0272891562681" lon="9.62035217068891"><ele>70.0</ele><time>2026-04-22T13:28:54Z</time></trkpt><trkpt lat="45.027352985421714" lon="9.620357210817847"><ele>70.0</ele><time>2026-04-22T13:28:55Z</time></trkpt><trkpt lat="45.027467360110656" lon="9.620387004255443"><ele>70.0</ele><time>2026-04-22T13:28:57Z</time></trkpt><trkpt lat="45.02758209217457" lon="9.620406790799878"><ele>70.0</ele><time>2026-04-22T13:28:59Z</time></trkpt><trkpt lat="45.02764939722975" lon="9.620413921653842"><ele>70.75</ele><time>2026-04-22T13:29:00Z</time></trkpt><trkpt lat="45.027766435568765" lon="9.620430242705673"><ele>71.5</ele><time>2026-04-22T13:29:02Z</time></trkpt><trkpt lat="45.02788496430857" lon="9.620452018252395"><ele>72.25</ele><time>2026-04-22T13:29:04Z</time></trkpt><trkpt lat="45.028005471666866" lon="9.620484416718734"><ele>73.0</ele><time>2026-04-22T13:29:06Z</time></trkpt><trkpt lat="45.02812329731889" lon="9.620500618034196"><ele>73.0</ele><time>2026-04-22T13:29:08Z</time></trkpt><trkpt lat="45.028233861054034" lon="9.620528935607537"><ele>73.0</ele><time>2026-04-22T13:29:10Z</time></trkpt><trkpt lat="45.02834868516412" lon="9.62055649791351"><ele>73.0</ele><time>2026-04-22T13:29:12Z</time></trkpt><trkpt lat="45.02847812312733" lon="9.620579644209439"><ele>73.0</ele><time>2026-04-22T13:29:14Z</time></trkpt><trkpt lat="45.02859560789098" lon="9.62060142737084"><ele>72.4</ele><time>2026-04-22T13:29:16Z</time></trkpt><trkpt lat="45.02871126177483" lon="9.62064777634492"><ele>71.8</ele><time>2026-04-22T13:29:18Z</time></trkpt><trkpt lat="45.02881280157292" lon="9.62068846585781"><ele>71.2</ele><time>2026-04-22T13:29:20Z</time></trkpt><trkpt lat="45.02892140584928" lon="9.620727596613728"><ele>70.6</ele><time>2026-04-22T13:29:22Z</time></trkpt><trkpt lat="45.029024120050124" lon="9.620783763960175"><ele>70.0</ele><time>2026-04-22T13:29:24Z</time></trkpt><trkpt lat="45.02913498197994" lon="9.620849826467238"><ele>70.0</ele><time>2026-04-22T13:29:26Z</time></trkpt><trkpt lat="45.02922937787785" lon="9.620892248360201"><ele>70.0</ele><time>2026-04-22T13:29:28Z</time></trkpt><trkpt lat="45.029295617239" lon="9.620932676525538"><ele>70.0</ele><time>2026-04-22T13:29:29Z</time></trkpt><trkpt lat="45.029411704549524" lon="9.62100570153053"><ele>70.0</ele><time>2026-04-22T13:29:31Z</time></trkpt><trkpt lat="45.02949104761022" lon="9.62107478362144"><ele>70.0</ele><time>2026-04-22T13:29:33Z</time></trkpt><trkpt lat="45.029570737925134" lon="9.621155825602182"><ele>70.0</ele><time>2026-04-22T13:29:34.999Z</time></trkpt><trkpt lat="45.02965768865637" lon="9.621228572924782"><ele>70.0</ele><time>2026-04-22T13:29:36.999Z</time></trkpt><trkpt lat="45.029715934740416" lon="9.62130397870269"><ele>70.0</ele><time>2026-04-22T13:29:38.999Z</time></trkpt><trkpt lat="45.0297661417596" lon="9.62140727108362"><ele>70.0</ele><time>2026-04-22T13:29:40.999Z</time></trkpt><trkpt lat="45.029811917281485" lon="9.621537988300418"><ele>70.0</ele><time>2026-04-22T13:29:42.999Z</time></trkpt><trkpt lat="45.02986260051008" lon="9.621671949011972"><ele>70.0</ele><time>2026-04-22T13:29:44.999Z</time></trkpt><trkpt lat="45.02991308553407" lon="9.621798438931558"><ele>70.0</ele><time>2026-04-22T13:29:46.999Z</time></trkpt><trkpt lat="45.02995046396328" lon="9.621930479822144"><ele>70.0</ele><time>2026-04-22T13:29:48.999Z</time></trkpt><trkpt lat="45.030006798859084" lon="9.622051861062102"><ele>70.0</ele><time>2026-04-22T13:29:50.999Z</time></trkpt><trkpt lat="45.03004782457368" lon="9.622169192874145"><ele>70.0</ele><time>2026-04-22T13:29:52.999Z</time></trkpt><trkpt lat="45.030095072039906" lon="9.622304318549126"><ele>70.0</ele><time>2026-04-22T13:29:54.999Z</time></trkpt><trkpt lat="45.0301019012344" lon="9.622432845051877"><ele>70.0</ele><time>2026-04-22T13:29:56.999Z</time></trkpt><trkpt lat="45.030136477044614" lon="9.622540321300505"><ele>70.0</ele><time>2026-04-22T13:29:58.999Z</time></trkpt><trkpt lat="45.03017462210563" lon="9.622653300518992"><ele>70.0</ele><time>2026-04-22T13:30:00.999Z</time></trkpt><trkpt lat="45.030216517892086" lon="9.622772101709472"><ele>70.0</ele><time>2026-04-22T13:30:02.999Z</time></trkpt><trkpt lat="45.030264799439955" lon="9.622880900736519"><ele>70.0</ele><time>2026-04-22T13:30:04.999Z</time></trkpt><trkpt lat="45.03030165000767" lon="9.622994837924583"><ele>69.6</ele><time>2026-04-22T13:30:06.999Z</time></trkpt><trkpt lat="45.03033250622589" lon="9.623110766503018"><ele>69.2</ele><time>2026-04-22T13:30:08.999Z</time></trkpt><trkpt lat="45.030394407435644" lon="9.623214268090202"><ele>68.8</ele><time>2026-04-22T13:30:10.999Z</time></trkpt><trkpt lat="45.03047650429048" lon="9.623291516097071"><ele>68.4</ele><time>2026-04-22T13:30:12.999Z</time></trkpt><trkpt lat="45.03055054742016" lon="9.623387491521326"><ele>68.0</ele><time>2026-04-22T13:30:14.999Z</time></trkpt><trkpt lat="45.03058919237815" lon="9.62350063633055"><ele>68.0</ele><time>2026-04-22T13:30:16.999Z</time></trkpt><trkpt lat="45.03062770749354" lon="9.623596332967981"><ele>68.0</ele><time>2026-04-22T13:30:18.999Z</time></trkpt><trkpt lat="45.03066415852097" lon="9.623705997442949"><ele>68.0</ele><time>2026-04-22T13:30:20.999Z</time></trkpt><trkpt lat="45.03068519452536" lon="9.62379489145878"><ele>68.0</ele><time>2026-04-22T13:30:22.999Z</time></trkpt><trkpt lat="45.03072623225631" lon="9.623910350205309"><ele>68.0</ele><time>2026-04-22T13:30:24.999Z</time></trkpt><trkpt lat="45.03075716507509" lon="9.62399749786502"><ele>68.0</ele><time>2026-04-22T13:30:26.999Z</time></trkpt><trkpt lat="45.030792783627646" lon="9.624093791438343"><ele>68.0</ele><time>2026-04-22T13:30:28.999Z</time></trkpt><trkpt lat="45.0308268675608" lon="9.624174662731802"><ele>68.0</ele><time>2026-04-22T13:30:31Z</time></trkpt><trkpt lat="45.03085225900717" lon="9.624273018094112"><ele>68.0</ele><time>2026-04-22T13:30:33Z</time></trkpt><trkpt lat="45.03090381767891" lon="9.624376811317141"><ele>68.0</ele><time>2026-04-22T13:30:36Z</time></trkpt><trkpt lat="45.03092822065165" lon="9.62447532534621"><ele>68.0</ele><time>2026-04-22T13:30:38Z</time></trkpt><trkpt lat="45.030967001679656" lon="9.624575134644958"><ele>68.0</ele><time>2026-04-22T13:30:40Z</time></trkpt><trkpt lat="45.03098345797433" lon="9.624669572313476"><ele>68.0</ele><time>2026-04-22T13:30:42Z</time></trkpt><trkpt lat="45.03102134391486" lon="9.624767370239388"><ele>68.0</ele><time>2026-04-22T13:30:44Z</time></trkpt><trkpt lat="45.031064307548945" lon="9.624910191728052"><ele>68.0</ele><time>2026-04-22T13:30:46Z</time></trkpt><trkpt lat="45.03110744375527" lon="9.625040795534463"><ele>68.0</ele><time>2026-04-22T13:30:48Z</time></trkpt><trkpt lat="45.031149930465595" lon="9.625144834436632"><ele>68.0</ele><time>2026-04-22T13:30:50Z</time></trkpt><trkpt lat="45.03117351988666" lon="9.625232116270325"><ele>68.0</ele><time>2026-04-22T13:30:51Z</time></trkpt><trkpt lat="45.031219299455906" lon="9.625375660439003"><ele>68.0</ele><time>2026-04-22T13:30:53Z</time></trkpt><trkpt lat="45.031283454134055" lon="9.62554746593916"><ele>68.0</ele><time>2026-04-22T13:30:55Z</time></trkpt><trkpt lat="45.03130953039945" lon="9.62562876250521"><ele>68.0</ele><time>2026-04-22T13:30:56Z</time></trkpt><trkpt lat="45.03134660778011" lon="9.62571423776933"><ele>68.0</ele><time>2026-04-22T13:30:57Z</time></trkpt><trkpt lat="45.03139033165365" lon="9.625795716960639"><ele>68.0</ele><time>2026-04-22T13:30:58Z</time></trkpt><trkpt lat="45.03145123926914" lon="9.625866119580856"><ele>68.0</ele><time>2026-04-22T13:30:59Z</time></trkpt><trkpt lat="45.03151649860203" lon="9.625921887033053"><ele>67.99999999999999</ele><time>2026-04-22T13:31:00Z</time></trkpt><trkpt lat="45.03157188753979" lon="9.625983471208187"><ele>68.0</ele><time>2026-04-22T13:31:01Z</time></trkpt><trkpt lat="45.031623964961646" lon="9.626047676903616"><ele>68.0</ele><time>2026-04-22T13:31:02Z</time></trkpt><trkpt lat="45.03167649636783" lon="9.62611311406366"><ele>68.0</ele><time>2026-04-22T13:31:03Z</time></trkpt><trkpt lat="45.03172950138074" lon="9.626178233932013"><ele>68.0</ele><time>2026-04-22T13:31:04Z</time></trkpt><trkpt lat="45.03178508155776" lon="9.626230889860006"><ele>67.99999999999999</ele><time>2026-04-22T13:31:05Z</time></trkpt><trkpt lat="45.031849822565846" lon="9.626321082412103"><ele>68.0</ele><time>2026-04-22T13:31:07Z</time></trkpt><trkpt lat="45.0316969616804" lon="9.626529333040967"><ele>67.8</ele><time>2026-04-22T13:31:09Z</time></trkpt><trkpt lat="45.031715464249075" lon="9.62663777149337"><ele>67.6</ele><time>2026-04-22T13:31:11Z</time></trkpt><trkpt lat="45.031732838052484" lon="9.626736799565116"><ele>67.4</ele><time>2026-04-22T13:31:13Z</time></trkpt><trkpt lat="45.031752160041854" lon="9.626846512814797"><ele>67.2</ele><time>2026-04-22T13:31:15Z</time></trkpt><trkpt lat="45.03177189738453" lon="9.626958585261493"><ele>67.0</ele><time>2026-04-22T13:31:17Z</time></trkpt><trkpt lat="45.031915403778" lon="9.626979105755618"><ele>67.0</ele><time>2026-04-22T13:31:19Z</time></trkpt><trkpt lat="45.03193609793022" lon="9.62706455467135"><ele>67.0</ele><time>2026-04-22T13:31:21Z</time></trkpt><trkpt lat="45.032000077055024" lon="9.627041527259735"><ele>67.0</ele><time>2026-04-22T13:31:23Z</time></trkpt><trkpt lat="45.03203136420776" lon="9.626932845692354"><ele>67.0</ele><time>2026-04-22T13:31:25Z</time></trkpt><trkpt lat="45.0320168701124" lon="9.62680052719126"><ele>67.0</ele><time>2026-04-22T13:31:27Z</time></trkpt><trkpt lat="45.03200475509628" lon="9.626674753233587"><ele>67.0</ele><time>2026-04-22T13:31:29Z</time></trkpt><trkpt lat="45.03199877890688" lon="9.626486672500485"><ele>66.8</ele><time>2026-04-22T13:31:30.999Z</time></trkpt><trkpt lat="45.03199392262885" lon="9.626381365726038"><ele>66.6</ele><time>2026-04-22T13:31:32.999Z</time></trkpt><trkpt lat="45.03197887552813" lon="9.626246876433706"><ele>66.39999999999999</ele><time>2026-04-22T13:31:34.999Z</time></trkpt><trkpt lat="45.03194922687925" lon="9.626129330483227"><ele>66.2</ele><time>2026-04-22T13:31:36.999Z</time></trkpt><trkpt lat="45.03190256391644" lon="9.626016114519645"><ele>66.0</ele><time>2026-04-22T13:31:38.999Z</time></trkpt><trkpt lat="45.03185219883189" lon="9.625895207770714"><ele>65.8</ele><time>2026-04-22T13:31:40.999Z</time></trkpt><trkpt lat="45.03179682092841" lon="9.62577108305355"><ele>65.6</ele><time>2026-04-22T13:31:42.999Z</time></trkpt><trkpt lat="45.03175074982325" lon="9.62562324776243"><ele>65.4</ele><time>2026-04-22T13:31:44.999Z</time></trkpt><trkpt lat="45.03172612355998" lon="9.625474627904136"><ele>65.2</ele><time>2026-04-22T13:31:46.999Z</time></trkpt><trkpt lat="45.03171351713991" lon="9.625318810640627"><ele>65.0</ele><time>2026-04-22T13:31:48.999Z</time></trkpt><trkpt lat="45.031699367592616" lon="9.625151815763369"><ele>65.4</ele><time>2026-04-22T13:31:50.999Z</time></trkpt><trkpt lat="45.03167836109079" lon="9.624993587929076"><ele>65.8</ele><time>2026-04-22T13:31:52.999Z</time></trkpt><trkpt lat="45.031659373280796" lon="9.624821259454075"><ele>66.2</ele><time>2026-04-22T13:31:54.999Z</time></trkpt><trkpt lat="45.031637909506" lon="9.624677970520397"><ele>66.6</ele><time>2026-04-22T13:31:56.999Z</time></trkpt><trkpt lat="45.03163923076048" lon="9.624525414916212"><ele>67.0</ele><time>2026-04-22T13:31:58.999Z</time></trkpt><trkpt lat="45.03162428639429" lon="9.624419038906364"><ele>67.25</ele><time>2026-04-22T13:31:59.999Z</time></trkpt><trkpt lat="45.031622360883446" lon="9.6242773323352"><ele>67.5</ele><time>2026-04-22T13:32:01.999Z</time></trkpt><trkpt lat="45.03161373531374" lon="9.624106342919385"><ele>67.75</ele><time>2026-04-22T13:32:03.999Z</time></trkpt><trkpt lat="45.03159778797421" lon="9.623939804701777"><ele>68.0</ele><time>2026-04-22T13:32:05.999Z</time></trkpt><trkpt lat="45.03159113676845" lon="9.623781032716936"><ele>68.0</ele><time>2026-04-22T13:32:07.999Z</time></trkpt><trkpt lat="45.03159156799328" lon="9.623684223629017"><ele>68.0</ele><time>2026-04-22T13:32:08.999Z</time></trkpt><trkpt lat="45.03159021174087" lon="9.623506175879282"><ele>68.0</ele><time>2026-04-22T13:32:10.999Z</time></trkpt><trkpt lat="45.031584857869106" lon="9.623345237602583"><ele>68.0</ele><time>2026-04-22T13:32:12.999Z</time></trkpt><trkpt lat="45.031578626683206" lon="9.623170113475924"><ele>68.0</ele><time>2026-04-22T13:32:14.999Z</time></trkpt><trkpt lat="45.031578939010245" lon="9.62300667336669"><ele>68.0</ele><time>2026-04-22T13:32:16.999Z</time></trkpt><trkpt lat="45.0315794000614" lon="9.622913607548744"><ele>68.0</ele><time>2026-04-22T13:32:17.999Z</time></trkpt><trkpt lat="45.03157551704498" lon="9.622745123552045"><ele>68.0</ele><time>2026-04-22T13:32:19.999Z</time></trkpt><trkpt lat="45.03157698563475" lon="9.62258241701964"><ele>68.0</ele><time>2026-04-22T13:32:21.999Z</time></trkpt><trkpt lat="45.03157462470184" lon="9.62249338536259"><ele>68.0</ele><time>2026-04-22T13:32:22.999Z</time></trkpt><trkpt lat="45.03158070549177" lon="9.622337321406745"><ele>68.0</ele><time>2026-04-22T13:32:24.999Z</time></trkpt><trkpt lat="45.03157947521417" lon="9.622247837850711"><ele>68.0</ele><time>2026-04-22T13:32:25.999Z</time></trkpt><trkpt lat="45.03157534663648" lon="9.62208573128399"><ele>68.0</ele><time>2026-04-22T13:32:27.999Z</time></trkpt><trkpt lat="45.03156829421023" lon="9.621904416190905"><ele>68.0</ele><time>2026-04-22T13:32:29.999Z</time></trkpt><trkpt lat="45.031566275153104" lon="9.621734519105448"><ele>68.0</ele><time>2026-04-22T13:32:31.999Z</time></trkpt><trkpt lat="45.03157243378813" lon="9.621566242298345"><ele>68.25</ele><time>2026-04-22T13:32:33.999Z</time></trkpt><trkpt lat="45.03156375871873" lon="9.621397575738227"><ele>68.5</ele><time>2026-04-22T13:32:35.999Z</time></trkpt><trkpt lat="45.03156821725237" lon="9.621232225106246"><ele>68.75</ele><time>2026-04-22T13:32:38Z</time></trkpt><trkpt lat="45.03157050595308" lon="9.621066941026369"><ele>69.0</ele><time>2026-04-22T13:32:40Z</time></trkpt><trkpt lat="45.031578448205636" lon="9.620901836592466"><ele>69.0</ele><time>2026-04-22T13:32:42Z</time></trkpt><trkpt lat="45.031575367377464" lon="9.620728419676714"><ele>69.0</ele><time>2026-04-22T13:32:44Z</time></trkpt><trkpt lat="45.031579552476956" lon="9.62057984970676"><ele>69.0</ele><time>2026-04-22T13:32:46Z</time></trkpt><trkpt lat="45.03157530232354" lon="9.620481699351693"><ele>69.0</ele><time>2026-04-22T13:32:47Z</time></trkpt><trkpt lat="45.03157727618846" lon="9.620387396157906"><ele>69.0</ele><time>2026-04-22T13:32:48Z</time></trkpt><trkpt lat="45.0315688475293" lon="9.620278501379467"><ele>69.0</ele><time>2026-04-22T13:32:49Z</time></trkpt><trkpt lat="45.03157275165747" lon="9.620184273633592"><ele>68.4</ele><time>2026-04-22T13:32:50Z</time></trkpt><trkpt lat="45.03156825842912" lon="9.62002287455436"><ele>67.80000000000001</ele><time>2026-04-22T13:32:52Z</time></trkpt><trkpt lat="45.031571928391436" lon="9.61985640726669"><ele>67.19999999999999</ele><time>2026-04-22T13:32:54Z</time></trkpt><trkpt lat="45.03156936321127" lon="9.61975555322819"><ele>66.6</ele><time>2026-04-22T13:32:55Z</time></trkpt><trkpt lat="45.03156512417412" lon="9.619585402883166"><ele>66.0</ele><time>2026-04-22T13:32:57Z</time></trkpt><trkpt lat="45.0315665587179" lon="9.619419468372048"><ele>65.75</ele><time>2026-04-22T13:32:59Z</time></trkpt><trkpt lat="45.03156497675142" lon="9.619248693635871"><ele>65.5</ele><time>2026-04-22T13:33:01Z</time></trkpt><trkpt lat="45.03156839295136" lon="9.619096204557804"><ele>65.25</ele><time>2026-04-22T13:33:03Z</time></trkpt><trkpt lat="45.03157277747807" lon="9.61894150512797"><ele>65.0</ele><time>2026-04-22T13:33:05Z</time></trkpt><trkpt lat="45.03157760260488" lon="9.618769680424691"><ele>65.0</ele><time>2026-04-22T13:33:07Z</time></trkpt><trkpt lat="45.031576977197815" lon="9.618672286414272"><ele>65.0</ele><time>2026-04-22T13:33:08Z</time></trkpt><trkpt lat="45.03157182600869" lon="9.618580734999718"><ele>65.0</ele><time>2026-04-22T13:33:09Z</time></trkpt><trkpt lat="45.03156850209057" lon="9.61840206939432"><ele>65.0</ele><time>2026-04-22T13:33:11Z</time></trkpt><trkpt lat="45.031569504529855" lon="9.618310496873278"><ele>65.0</ele><time>2026-04-22T13:33:12Z</time></trkpt><trkpt lat="45.03157065082723" lon="9.61813195017982"><ele>65.2</ele><time>2026-04-22T13:33:14Z</time></trkpt><trkpt lat="45.031571959710995" lon="9.617962406190694"><ele>65.4</ele><time>2026-04-22T13:33:16Z</time></trkpt><trkpt lat="45.03157397590289" lon="9.61787305001377"><ele>65.6</ele><time>2026-04-22T13:33:17Z</time></trkpt><trkpt lat="45.03157226110881" lon="9.61769982302014"><ele>65.8</ele><time>2026-04-22T13:33:19Z</time></trkpt><trkpt lat="45.03157020858533" lon="9.61761012620002"><ele>66.0</ele><time>2026-04-22T13:33:20Z</time></trkpt><trkpt lat="45.031564668864064" lon="9.617462772555083"><ele>66.0</ele><time>2026-04-22T13:33:22Z</time></trkpt><trkpt lat="45.03155368647444" lon="9.617315705000442"><ele>66.0</ele><time>2026-04-22T13:33:24Z</time></trkpt><trkpt lat="45.031557266102816" lon="9.617215286931357"><ele>66.0</ele><time>2026-04-22T13:33:25Z</time></trkpt><trkpt lat="45.031560643814345" lon="9.617036003412133"><ele>66.0</ele><time>2026-04-22T13:33:27Z</time></trkpt><trkpt lat="45.031560950341735" lon="9.616943509953737"><ele>66.0</ele><time>2026-04-22T13:33:28Z</time></trkpt><trkpt lat="45.03156207048924" lon="9.616767845579695"><ele>66.0</ele><time>2026-04-22T13:33:30Z</time></trkpt><trkpt lat="45.03156149412182" lon="9.616604597845692"><ele>66.0</ele><time>2026-04-22T13:33:32Z</time></trkpt><trkpt lat="45.03156122564582" lon="9.616505717929893"><ele>66.0</ele><time>2026-04-22T13:33:33Z</time></trkpt><trkpt lat="45.031559674080796" lon="9.616334421705927"><ele>66.0</ele><time>2026-04-22T13:33:34.999Z</time></trkpt><trkpt lat="45.031560463255765" lon="9.616245057547097"><ele>66.0</ele><time>2026-04-22T13:33:35.999Z</time></trkpt><trkpt lat="45.031563734390524" lon="9.616074528031893"><ele>66.0</ele><time>2026-04-22T13:33:37.999Z</time></trkpt><trkpt lat="45.03155603696349" lon="9.61598495230749"><ele>66.0</ele><time>2026-04-22T13:33:38.999Z</time></trkpt><trkpt lat="45.031557839434846" lon="9.61588208085237"><ele>66.0</ele><time>2026-04-22T13:33:39.999Z</time></trkpt><trkpt lat="45.03156029340983" lon="9.615714591213665"><ele>66.0</ele><time>2026-04-22T13:33:41.999Z</time></trkpt><trkpt lat="45.03156420291338" lon="9.61553454636413"><ele>66.0</ele><time>2026-04-22T13:33:43.999Z</time></trkpt><trkpt lat="45.031564136282356" lon="9.615445429795066"><ele>66.0</ele><time>2026-04-22T13:33:44.999Z</time></trkpt><trkpt lat="45.031555737565114" lon="9.61535470690683"><ele>66.0</ele><time>2026-04-22T13:33:45.999Z</time></trkpt><trkpt lat="45.031568783542376" lon="9.61518260420825"><ele>66.0</ele><time>2026-04-22T13:33:47.999Z</time></trkpt><trkpt lat="45.03156757601867" lon="9.615025264552722"><ele>66.0</ele><time>2026-04-22T13:33:49.999Z</time></trkpt><trkpt lat="45.03156403625219" lon="9.6148431562288"><ele>66.0</ele><time>2026-04-22T13:33:51.999Z</time></trkpt><trkpt lat="45.031567971388554" lon="9.614743079394968"><ele>66.0</ele><time>2026-04-22T13:33:52.999Z</time></trkpt><trkpt lat="45.031567086474816" lon="9.614653604299669"><ele>66.25</ele><time>2026-04-22T13:33:53.999Z</time></trkpt><trkpt lat="45.031561135626454" lon="9.614477195705215"><ele>66.5</ele><time>2026-04-22T13:33:55.999Z</time></trkpt><trkpt lat="45.0315567408154" lon="9.614300485469547"><ele>66.75</ele><time>2026-04-22T13:33:57.999Z</time></trkpt><trkpt lat="45.0315566367245" lon="9.614128614492767"><ele>67.0</ele><time>2026-04-22T13:33:59.999Z</time></trkpt><trkpt lat="45.03155994303609" lon="9.61395119102484"><ele>67.0</ele><time>2026-04-22T13:34:01.999Z</time></trkpt><trkpt lat="45.03155839826942" lon="9.613860778851548"><ele>67.0</ele><time>2026-04-22T13:34:02.999Z</time></trkpt><trkpt lat="45.031557407227545" lon="9.613703425533762"><ele>67.0</ele><time>2026-04-22T13:34:04.999Z</time></trkpt><trkpt lat="45.03156264108674" lon="9.613603951404906"><ele>67.0</ele><time>2026-04-22T13:34:05.999Z</time></trkpt><trkpt lat="45.0315535690403" lon="9.61350570688851"><ele>67.0</ele><time>2026-04-22T13:34:06.999Z</time></trkpt><trkpt lat="45.03155111973719" lon="9.613408309759523"><ele>67.0</ele><time>2026-04-22T13:34:07.999Z</time></trkpt><trkpt lat="45.03154966988281" lon="9.613238893739386"><ele>67.0</ele><time>2026-04-22T13:34:09.999Z</time></trkpt><trkpt lat="45.03156121135808" lon="9.613081431176875"><ele>67.0</ele><time>2026-04-22T13:34:11.999Z</time></trkpt><trkpt lat="45.031545268937364" lon="9.612909035783732"><ele>67.0</ele><time>2026-04-22T13:34:13.999Z</time></trkpt><trkpt lat="45.03154303422068" lon="9.61279394030128"><ele>67.0</ele><time>2026-04-22T13:34:14.999Z</time></trkpt><trkpt lat="45.0315579280828" lon="9.612650187149013"><ele>67.0</ele><time>2026-04-22T13:34:16.999Z</time></trkpt><trkpt lat="45.03154950061964" lon="9.61247528296605"><ele>67.0</ele><time>2026-04-22T13:34:18.999Z</time></trkpt><trkpt lat="45.03154655155464" lon="9.612381514373158"><ele>67.0</ele><time>2026-04-22T13:34:19.999Z</time></trkpt><trkpt lat="45.03154876297892" lon="9.6122097054006"><ele>67.0</ele><time>2026-04-22T13:34:21.999Z</time></trkpt><trkpt lat="45.031553539367465" lon="9.612035639358789"><ele>67.0</ele><time>2026-04-22T13:34:23.999Z</time></trkpt><trkpt lat="45.03156539554355" lon="9.611883528247644"><ele>67.0</ele><time>2026-04-22T13:34:25.999Z</time></trkpt><trkpt lat="45.031561447911756" lon="9.611784537894387"><ele>66.8</ele><time>2026-04-22T13:34:26.999Z</time></trkpt><trkpt lat="45.031561091753574" lon="9.611689575947402"><ele>66.6</ele><time>2026-04-22T13:34:27.999Z</time></trkpt><trkpt lat="45.03156652304655" lon="9.611515982992243"><ele>66.39999999999999</ele><time>2026-04-22T13:34:29.999Z</time></trkpt><trkpt lat="45.031557930372024" lon="9.611349104814174"><ele>66.2</ele><time>2026-04-22T13:34:31.999Z</time></trkpt><trkpt lat="45.031568079141834" lon="9.611172407073596"><ele>66.0</ele><time>2026-04-22T13:34:33.999Z</time></trkpt><trkpt lat="45.03157285127553" lon="9.611071000272851"><ele>66.0</ele><time>2026-04-22T13:34:34.999Z</time></trkpt><trkpt lat="45.03157544448837" lon="9.61093128287398"><ele>66.0</ele><time>2026-04-22T13:34:36.999Z</time></trkpt><trkpt lat="45.03157529768798" lon="9.610823699082117"><ele>66.0</ele><time>2026-04-22T13:34:37.999Z</time></trkpt><trkpt lat="45.031573559179705" lon="9.610732323408149"><ele>66.0</ele><time>2026-04-22T13:34:38.999Z</time></trkpt><trkpt lat="45.03157722953859" lon="9.610639412976182"><ele>66.0</ele><time>2026-04-22T13:34:39.999Z</time></trkpt><trkpt lat="45.03158189560179" lon="9.610463689644806"><ele>66.0</ele><time>2026-04-22T13:34:41.999Z</time></trkpt><trkpt lat="45.03159173851026" lon="9.610294745080783"><ele>66.0</ele><time>2026-04-22T13:34:44Z</time></trkpt><trkpt lat="45.031590920559395" lon="9.610199143244042"><ele>66.0</ele><time>2026-04-22T13:34:45Z</time></trkpt><trkpt lat="45.03159364557395" lon="9.610108404857753"><ele>66.0</ele><time>2026-04-22T13:34:46Z</time></trkpt><trkpt lat="45.03159943119497" lon="9.61001778857469"><ele>66.0</ele><time>2026-04-22T13:34:47Z</time></trkpt><trkpt lat="45.031593418933895" lon="9.609925087503656"><ele>66.0</ele><time>2026-04-22T13:34:48Z</time></trkpt><trkpt lat="45.031580813317284" lon="9.60974105683493"><ele>66.0</ele><time>2026-04-22T13:34:50Z</time></trkpt><trkpt lat="45.03157764590446" lon="9.609641107776426"><ele>66.2</ele><time>2026-04-22T13:34:51Z</time></trkpt><trkpt lat="45.03159373793208" lon="9.609472578609612"><ele>66.39999999999999</ele><time>2026-04-22T13:34:53Z</time></trkpt><trkpt lat="45.03158331914963" lon="9.609296180206192"><ele>66.6</ele><time>2026-04-22T13:34:55Z</time></trkpt><trkpt lat="45.031572216091696" lon="9.609208065918342"><ele>66.8</ele><time>2026-04-22T13:34:56Z</time></trkpt><trkpt lat="45.03155182752428" lon="9.609044859641774"><ele>67.0</ele><time>2026-04-22T13:34:58Z</time></trkpt><trkpt lat="45.03153463896228" lon="9.608864034128404"><ele>67.0</ele><time>2026-04-22T13:35:00Z</time></trkpt><trkpt lat="45.031526097237354" lon="9.608696830925197"><ele>67.0</ele><time>2026-04-22T13:35:02Z</time></trkpt><trkpt lat="45.031521170186124" lon="9.608520838199826"><ele>67.0</ele><time>2026-04-22T13:35:04Z</time></trkpt><trkpt lat="45.03151818113898" lon="9.608357119926625"><ele>67.0</ele><time>2026-04-22T13:35:06Z</time></trkpt><trkpt lat="45.03150722340668" lon="9.608208438718417"><ele>67.0</ele><time>2026-04-22T13:35:08Z</time></trkpt><trkpt lat="45.031512100269296" lon="9.608086131847154"><ele>67.0</ele><time>2026-04-22T13:35:10Z</time></trkpt><trkpt lat="45.03150589215848" lon="9.607948144665372"><ele>67.0</ele><time>2026-04-22T13:35:12Z</time></trkpt><trkpt lat="45.03150809943834" lon="9.60779428296235"><ele>67.0</ele><time>2026-04-22T13:35:14Z</time></trkpt><trkpt lat="45.03150889069465" lon="9.607623649269364"><ele>67.0</ele><time>2026-04-22T13:35:16Z</time></trkpt><trkpt lat="45.031509351781104" lon="9.607526221857293"><ele>67.0</ele><time>2026-04-22T13:35:17Z</time></trkpt><trkpt lat="45.03150414236291" lon="9.607343581398773"><ele>67.0</ele><time>2026-04-22T13:35:19Z</time></trkpt><trkpt lat="45.03151114164249" lon="9.60724343538167"><ele>67.0</ele><time>2026-04-22T13:35:20Z</time></trkpt><trkpt lat="45.03151025029665" lon="9.607147924673866"><ele>67.0</ele><time>2026-04-22T13:35:21Z</time></trkpt><trkpt lat="45.03151598324706" lon="9.606974626028459"><ele>67.0</ele><time>2026-04-22T13:35:23Z</time></trkpt><trkpt lat="45.0315080991313" lon="9.606796744971017"><ele>66.8</ele><time>2026-04-22T13:35:25Z</time></trkpt><trkpt lat="45.03151570067632" lon="9.606703676563624"><ele>66.6</ele><time>2026-04-22T13:35:26Z</time></trkpt><trkpt lat="45.03150777575395" lon="9.606537397980805"><ele>66.39999999999999</ele><time>2026-04-22T13:35:28Z</time></trkpt><trkpt lat="45.03151632163023" lon="9.60637722424879"><ele>66.2</ele><time>2026-04-22T13:35:30Z</time></trkpt><trkpt lat="45.031519070376206" lon="9.60620324527832"><ele>66.0</ele><time>2026-04-22T13:35:32Z</time></trkpt><trkpt lat="45.03152074435371" lon="9.606028144782988"><ele>66.2</ele><time>2026-04-22T13:35:34Z</time></trkpt><trkpt lat="45.03151980930526" lon="9.605868103367545"><ele>66.39999999999999</ele><time>2026-04-22T13:35:36Z</time></trkpt><trkpt lat="45.03150817312808" lon="9.605723912081745"><ele>66.6</ele><time>2026-04-22T13:35:38Z</time></trkpt><trkpt lat="45.03150333414905" lon="9.605565420751569"><ele>66.8</ele><time>2026-04-22T13:35:40Z</time></trkpt><trkpt lat="45.03149376544316" lon="9.605404736701335"><ele>67.0</ele><time>2026-04-22T13:35:42Z</time></trkpt><trkpt lat="45.031481710903996" lon="9.605259541150364"><ele>67.0</ele><time>2026-04-22T13:35:44Z</time></trkpt><trkpt lat="45.03148813789511" lon="9.605113497988166"><ele>67.0</ele><time>2026-04-22T13:35:46Z</time></trkpt><trkpt lat="45.031480823649616" lon="9.604989007651987"><ele>67.0</ele><time>2026-04-22T13:35:48Z</time></trkpt><trkpt lat="45.03143696961975" lon="9.604879973455377"><ele>67.0</ele><time>2026-04-22T13:35:50Z</time></trkpt><trkpt lat="45.03140598844133" lon="9.604791660164546"><ele>67.0</ele><time>2026-04-22T13:35:51.999Z</time></trkpt><trkpt lat="45.031391731899795" lon="9.60465818450184"><ele>67.0</ele><time>2026-04-22T13:35:54.999Z</time></trkpt><trkpt lat="45.03137980342654" lon="9.604539762948502"><ele>67.0</ele><time>2026-04-22T13:35:56.999Z</time></trkpt><trkpt lat="45.031367091988415" lon="9.604410651004715"><ele>67.0</ele><time>2026-04-22T13:35:58.999Z</time></trkpt><trkpt lat="45.03138772502947" lon="9.60432104335315"><ele>67.0</ele><time>2026-04-22T13:35:59.999Z</time></trkpt><trkpt lat="45.031399742499445" lon="9.60419914387667"><ele>67.0</ele><time>2026-04-22T13:36:00.999Z</time></trkpt><trkpt lat="45.031395260118586" lon="9.604064863936747"><ele>67.0</ele><time>2026-04-22T13:36:02.999Z</time></trkpt><trkpt lat="45.03131475187393" lon="9.603995494266497"><ele>67.0</ele><time>2026-04-22T13:36:03.999Z</time></trkpt><trkpt lat="45.03132735603363" lon="9.60387830258405"><ele>67.0</ele><time>2026-04-22T13:36:05.999Z</time></trkpt><trkpt lat="45.03133670465768" lon="9.603779893643885"><ele>67.0</ele><time>2026-04-22T13:36:06.999Z</time></trkpt><trkpt lat="45.03128319551047" lon="9.60361224009473"><ele>67.0</ele><time>2026-04-22T13:36:08.999Z</time></trkpt><trkpt lat="45.0313246727932" lon="9.603417414985886"><ele>67.0</ele><time>2026-04-22T13:36:11.999Z</time></trkpt><trkpt lat="45.031322119610294" lon="9.603328171752215"><ele>67.0</ele><time>2026-04-22T13:36:12.999Z</time></trkpt><trkpt lat="45.03133410525706" lon="9.603186468514417"><ele>66.83333333333333</ele><time>2026-04-22T13:36:14.999Z</time></trkpt><trkpt lat="45.0313658323363" lon="9.603066556293486"><ele>66.66666666666666</ele><time>2026-04-22T13:36:16.999Z</time></trkpt><trkpt lat="45.03136542437334" lon="9.602944538584854"><ele>66.5</ele><time>2026-04-22T13:36:18.999Z</time></trkpt><trkpt lat="45.031365027403474" lon="9.602825808392655"><ele>66.33333333333333</ele><time>2026-04-22T13:36:20.999Z</time></trkpt><trkpt lat="45.031364632031284" lon="9.602707557462534"><ele>66.16666666666667</ele><time>2026-04-22T13:36:22.999Z</time></trkpt><trkpt lat="45.03135187005271" lon="9.602607340984516"><ele>66.0</ele><time>2026-04-22T13:36:24.999Z</time></trkpt><trkpt lat="45.03136386741955" lon="9.602478870215778"><ele>66.0</ele><time>2026-04-22T13:36:26.999Z</time></trkpt><trkpt lat="45.03136334188408" lon="9.602321688735993"><ele>66.0</ele><time>2026-04-22T13:36:28.999Z</time></trkpt><trkpt lat="45.031362793004284" lon="9.602157524368078"><ele>66.0</ele><time>2026-04-22T13:36:30.999Z</time></trkpt><trkpt lat="45.031362634603504" lon="9.602047025480843"><ele>66.0</ele><time>2026-04-22T13:36:31.999Z</time></trkpt><trkpt lat="45.03135291510761" lon="9.601881866303653"><ele>66.0</ele><time>2026-04-22T13:36:33.999Z</time></trkpt><trkpt lat="45.03135846654817" lon="9.601747914243717"><ele>65.8</ele><time>2026-04-22T13:36:35.999Z</time></trkpt><trkpt lat="45.03138264889317" lon="9.60161244457183"><ele>65.6</ele><time>2026-04-22T13:36:36.999Z</time></trkpt><trkpt lat="45.03136164640111" lon="9.601432758112992"><ele>65.4</ele><time>2026-04-22T13:36:38.999Z</time></trkpt><trkpt lat="45.03137762673692" lon="9.601341373742608"><ele>65.2</ele><time>2026-04-22T13:36:39.999Z</time></trkpt><trkpt lat="45.03138860067056" lon="9.601241476932096"><ele>65.0</ele><time>2026-04-22T13:36:40.999Z</time></trkpt><trkpt lat="45.03136752540069" lon="9.601096644734648"><ele>65.0</ele><time>2026-04-22T13:36:42.999Z</time></trkpt><trkpt lat="45.03135924508343" lon="9.600988185431893"><ele>65.0</ele><time>2026-04-22T13:36:44.999Z</time></trkpt><trkpt lat="45.03138001908" lon="9.600880316694425"><ele>65.0</ele><time>2026-04-22T13:36:45.999Z</time></trkpt><trkpt lat="45.03139140423146" lon="9.600760813666312"><ele>65.0</ele><time>2026-04-22T13:36:46.999Z</time></trkpt><trkpt lat="45.0313931834212" lon="9.600665105047584"><ele>65.0</ele><time>2026-04-22T13:36:47.999Z</time></trkpt><trkpt lat="45.031378417328696" lon="9.600545866784914"><ele>65.0</ele><time>2026-04-22T13:36:50Z</time></trkpt><trkpt lat="45.03134393198036" lon="9.600436977858337"><ele>64.83333333333334</ele><time>2026-04-22T13:36:51Z</time></trkpt><trkpt lat="45.03135958864066" lon="9.600280313651101"><ele>64.66666666666667</ele><time>2026-04-22T13:36:53Z</time></trkpt><trkpt lat="45.03137038636242" lon="9.60017730714589"><ele>64.5</ele><time>2026-04-22T13:36:54Z</time></trkpt><trkpt lat="45.031369077093544" lon="9.600071319448974"><ele>64.33333333333333</ele><time>2026-04-22T13:36:55Z</time></trkpt><trkpt lat="45.031366769243306" lon="9.599960621009656"><ele>64.16666666666666</ele><time>2026-04-22T13:36:56Z</time></trkpt><trkpt lat="45.03137854694498" lon="9.599812450993825"><ele>64.0</ele><time>2026-04-22T13:36:58Z</time></trkpt><trkpt lat="45.03138573957117" lon="9.599667969614098"><ele>63.99999999999999</ele><time>2026-04-22T13:37:00Z</time></trkpt><trkpt lat="45.03138423571927" lon="9.599517304567486"><ele>64.0</ele><time>2026-04-22T13:37:02Z</time></trkpt><trkpt lat="45.03138482530147" lon="9.599401497743784"><ele>64.0</ele><time>2026-04-22T13:37:03Z</time></trkpt><trkpt lat="45.031391222500375" lon="9.59930075832662"><ele>64.0</ele><time>2026-04-22T13:37:04Z</time></trkpt><trkpt lat="45.03139180459479" lon="9.599163262954844"><ele>63.99999999999999</ele><time>2026-04-22T13:37:06Z</time></trkpt><trkpt lat="45.031391323990874" lon="9.599062712401357"><ele>64.0</ele><time>2026-04-22T13:37:07Z</time></trkpt><trkpt lat="45.031390769885526" lon="9.598946786222657"><ele>63.83333333333333</ele><time>2026-04-22T13:37:08Z</time></trkpt><trkpt lat="45.03139034252825" lon="9.598857375707254"><ele>63.666666666666664</ele><time>2026-04-22T13:37:09Z</time></trkpt><trkpt lat="45.031389819116086" lon="9.59874786814958"><ele>63.5</ele><time>2026-04-22T13:37:10Z</time></trkpt><trkpt lat="45.03139900305518" lon="9.598591112932002"><ele>63.33333333333333</ele><time>2026-04-22T13:37:12Z</time></trkpt><trkpt lat="45.03139305886804" lon="9.598451769322251"><ele>63.166666666666664</ele><time>2026-04-22T13:37:14Z</time></trkpt><trkpt lat="45.031382810296" lon="9.598333993294633"><ele>63.0</ele><time>2026-04-22T13:37:15Z</time></trkpt><trkpt lat="45.03138709890782" lon="9.598171805407455"><ele>62.8</ele><time>2026-04-22T13:37:17Z</time></trkpt><trkpt lat="45.03138656872928" lon="9.598038324120573"><ele>62.599999999999994</ele><time>2026-04-22T13:37:18Z</time></trkpt><trkpt lat="45.031385745010276" lon="9.59783093637886"><ele>62.400000000000006</ele><time>2026-04-22T13:37:20Z</time></trkpt><trkpt lat="45.0313850736321" lon="9.597661902301986"><ele>62.2</ele><time>2026-04-22T13:37:22Z</time></trkpt><trkpt lat="45.03138458205291" lon="9.597538135087843"><ele>62.0</ele><time>2026-04-22T13:37:24Z</time></trkpt><trkpt lat="45.03139033631497" lon="9.597406243867145"><ele>62.0</ele><time>2026-04-22T13:37:26Z</time></trkpt><trkpt lat="45.031394736338434" lon="9.597298713667406"><ele>62.0</ele><time>2026-04-22T13:37:27Z</time></trkpt><trkpt lat="45.03139728265987" lon="9.597129679321359"><ele>62.0</ele><time>2026-04-22T13:37:29Z</time></trkpt><trkpt lat="45.031387672266625" lon="9.596981591051682"><ele>62.0</ele><time>2026-04-22T13:37:31Z</time></trkpt><trkpt lat="45.031379587473594" lon="9.596807387227152"><ele>62.0</ele><time>2026-04-22T13:37:33Z</time></trkpt><trkpt lat="45.03135257809977" lon="9.596674260317249"><ele>62.50000000000001</ele><time>2026-04-22T13:37:35Z</time></trkpt><trkpt lat="45.031335096380005" lon="9.596540571775531"><ele>63.0</ele><time>2026-04-22T13:37:37Z</time></trkpt><trkpt lat="45.03133633384931" lon="9.596423907823706"><ele>63.5</ele><time>2026-04-22T13:37:39Z</time></trkpt><trkpt lat="45.03134649954962" lon="9.596335048959725"><ele>64.0</ele><time>2026-04-22T13:37:41Z</time></trkpt><trkpt lat="45.03139326198958" lon="9.596206278510314"><ele>64.5</ele><time>2026-04-22T13:37:43Z</time></trkpt><trkpt lat="45.03139638767116" lon="9.596098840423632"><ele>65.0</ele><time>2026-04-22T13:37:45Z</time></trkpt><trkpt lat="45.03140950686154" lon="9.595982638130403"><ele>65.0</ele><time>2026-04-22T13:37:47Z</time></trkpt><trkpt lat="45.03146718268819" lon="9.595924881363514"><ele>65.0</ele><time>2026-04-22T13:37:49Z</time></trkpt><trkpt lat="45.03153933579483" lon="9.596003545798792"><ele>65.0</ele><time>2026-04-22T13:37:50.999Z</time></trkpt><trkpt lat="45.031567635255264" lon="9.596104453682427"><ele>65.0</ele><time>2026-04-22T13:37:52.999Z</time></trkpt><trkpt lat="45.03160079617266" lon="9.596225933417916"><ele>65.0</ele><time>2026-04-22T13:37:54.999Z</time></trkpt><trkpt lat="45.03163398796054" lon="9.596352273207476"><ele>65.0</ele><time>2026-04-22T13:37:56.999Z</time></trkpt><trkpt lat="45.031662557343125" lon="9.596504085565623"><ele>65.16666666666667</ele><time>2026-04-22T13:37:58.999Z</time></trkpt><trkpt lat="45.03169945905186" lon="9.59666195040074"><ele>65.33333333333334</ele><time>2026-04-22T13:38:00.999Z</time></trkpt><trkpt lat="45.03171586598688" lon="9.596751145283724"><ele>65.5</ele><time>2026-04-22T13:38:01.999Z</time></trkpt><trkpt lat="45.03173402650484" lon="9.596840886699097"><ele>65.66666666666667</ele><time>2026-04-22T13:38:02.999Z</time></trkpt><trkpt lat="45.03175198519241" lon="9.596932779760138"><ele>65.83333333333333</ele><time>2026-04-22T13:38:03.999Z</time></trkpt><trkpt lat="45.03177662239253" lon="9.597031407195397"><ele>66.0</ele><time>2026-04-22T13:38:04.999Z</time></trkpt><trkpt lat="45.03179831404936" lon="9.597128159837963"><ele>65.66666666666667</ele><time>2026-04-22T13:38:05.999Z</time></trkpt><trkpt lat="45.03181472244908" lon="9.597227147053854"><ele>65.33333333333333</ele><time>2026-04-22T13:38:06.999Z</time></trkpt><trkpt lat="45.031826302404426" lon="9.597318092544967"><ele>65.0</ele><time>2026-04-22T13:38:07.999Z</time></trkpt><trkpt lat="45.03185035862766" lon="9.597405973674041"><ele>64.66666666666666</ele><time>2026-04-22T13:38:08.999Z</time></trkpt><trkpt lat="45.03189993091914" lon="9.59746557391135"><ele>64.33333333333333</ele><time>2026-04-22T13:38:09.999Z</time></trkpt><trkpt lat="45.031952004274245" lon="9.597520055428609"><ele>64.0</ele><time>2026-04-22T13:38:10.999Z</time></trkpt><trkpt lat="45.03205350128776" lon="9.597602042817682"><ele>64.0</ele><time>2026-04-22T13:38:12.999Z</time></trkpt><trkpt lat="45.03214964625477" lon="9.597661664450039"><ele>64.0</ele><time>2026-04-22T13:38:14.999Z</time></trkpt><trkpt lat="45.032242073209076" lon="9.597727510442159"><ele>64.0</ele><time>2026-04-22T13:38:16.999Z</time></trkpt><trkpt lat="45.03234168539972" lon="9.597790193752537"><ele>64.0</ele><time>2026-04-22T13:38:18.999Z</time></trkpt><trkpt lat="45.03243460654669" lon="9.597854946523071"><ele>64.0</ele><time>2026-04-22T13:38:20.999Z</time></trkpt><trkpt lat="45.03253366418663" lon="9.597930885820395"><ele>64.2</ele><time>2026-04-22T13:38:22.999Z</time></trkpt><trkpt lat="45.03259759187636" lon="9.597963500471245"><ele>64.4</ele><time>2026-04-22T13:38:23.999Z</time></trkpt><trkpt lat="45.03269608892891" lon="9.598034900292173"><ele>64.6</ele><time>2026-04-22T13:38:25.999Z</time></trkpt><trkpt lat="45.03277500140491" lon="9.598089124841467"><ele>64.8</ele><time>2026-04-22T13:38:27.999Z</time></trkpt><trkpt lat="45.03288151952506" lon="9.598158489967968"><ele>65.0</ele><time>2026-04-22T13:38:29.999Z</time></trkpt><trkpt lat="45.032947251857486" lon="9.598199756185283"><ele>65.0</ele><time>2026-04-22T13:38:30.999Z</time></trkpt><trkpt lat="45.03300609803566" lon="9.598239967647176"><ele>65.0</ele><time>2026-04-22T13:38:31.999Z</time></trkpt><trkpt lat="45.033084298849886" lon="9.598288515475577"><ele>65.0</ele><time>2026-04-22T13:38:33.999Z</time></trkpt><trkpt lat="45.033181676405995" lon="9.598358604468293"><ele>65.0</ele><time>2026-04-22T13:38:35.999Z</time></trkpt><trkpt lat="45.0332724526058" lon="9.598420938331076"><ele>65.0</ele><time>2026-04-22T13:38:37.999Z</time></trkpt><trkpt lat="45.03336536413359" lon="9.598464793600918"><ele>65.33333333333334</ele><time>2026-04-22T13:38:39.999Z</time></trkpt><trkpt lat="45.033431022501304" lon="9.598497604703164"><ele>65.66666666666667</ele><time>2026-04-22T13:38:41.999Z</time></trkpt><trkpt lat="45.03350232869311" lon="9.598459670895776"><ele>66.0</ele><time>2026-04-22T13:38:43.999Z</time></trkpt><trkpt lat="45.03353773697264" lon="9.598372913836574"><ele>66.33333333333333</ele><time>2026-04-22T13:38:45.999Z</time></trkpt><trkpt lat="45.03354180611253" lon="9.598263880805801"><ele>66.66666666666666</ele><time>2026-04-22T13:38:47.999Z</time></trkpt><trkpt lat="45.033568036895545" lon="9.598158230462708"><ele>67.0</ele><time>2026-04-22T13:38:49.999Z</time></trkpt><trkpt lat="45.03357491843465" lon="9.598039262867358"><ele>67.0</ele><time>2026-04-22T13:38:51.999Z</time></trkpt><trkpt lat="45.03360933606136" lon="9.597923964596596"><ele>67.0</ele><time>2026-04-22T13:38:53.999Z</time></trkpt><trkpt lat="45.03361452755788" lon="9.597780266678784"><ele>67.0</ele><time>2026-04-22T13:38:56Z</time></trkpt><trkpt lat="45.03363947919682" lon="9.59766409802225"><ele>67.0</ele><time>2026-04-22T13:38:58Z</time></trkpt><trkpt lat="45.033644060308745" lon="9.597521313472186"><ele>67.0</ele><time>2026-04-22T13:39:00Z</time></trkpt><trkpt lat="45.03365192718507" lon="9.597373812438837"><ele>67.0</ele><time>2026-04-22T13:39:02Z</time></trkpt><trkpt lat="45.033666230817126" lon="9.597226093253452"><ele>67.0</ele><time>2026-04-22T13:39:04Z</time></trkpt><trkpt lat="45.03367856417026" lon="9.597080048516096"><ele>67.0</ele><time>2026-04-22T13:39:06Z</time></trkpt><trkpt lat="45.03369154314297" lon="9.596950133713838"><ele>67.0</ele><time>2026-04-22T13:39:08Z</time></trkpt><trkpt lat="45.033704522029126" lon="9.596806055623007"><ele>67.0</ele><time>2026-04-22T13:39:10Z</time></trkpt><trkpt lat="45.03371245002914" lon="9.59666924158269"><ele>67.2</ele><time>2026-04-22T13:39:12Z</time></trkpt><trkpt lat="45.033729528325715" lon="9.59654907280227"><ele>67.4</ele><time>2026-04-22T13:39:14Z</time></trkpt><trkpt lat="45.03374340859952" lon="9.596413390868246"><ele>67.6</ele><time>2026-04-22T13:39:16Z</time></trkpt><trkpt lat="45.033758784683975" lon="9.59628020297573"><ele>67.8</ele><time>2026-04-22T13:39:18Z</time></trkpt><trkpt lat="45.03377648769156" lon="9.59616527262331"><ele>68.0</ele><time>2026-04-22T13:39:20Z</time></trkpt><trkpt lat="45.033789934661016" lon="9.596032513409515"><ele>68.2</ele><time>2026-04-22T13:39:22Z</time></trkpt><trkpt lat="45.03388227443163" lon="9.595978175296029"><ele>68.4</ele><time>2026-04-22T13:39:24Z</time></trkpt><trkpt lat="45.03398907448127" lon="9.59602001284067"><ele>68.60000000000001</ele><time>2026-04-22T13:39:26Z</time></trkpt><trkpt lat="45.03408810001428" lon="9.596028126828601"><ele>68.8</ele><time>2026-04-22T13:39:28Z</time></trkpt><trkpt lat="45.03419605470095" lon="9.596055665367881"><ele>69.0</ele><time>2026-04-22T13:39:30Z</time></trkpt><trkpt lat="45.03430181396943" lon="9.596074728270995"><ele>68.60000000000001</ele><time>2026-04-22T13:39:32Z</time></trkpt><trkpt lat="45.03440488612843" lon="9.596090509186812"><ele>68.2</ele><time>2026-04-22T13:39:34Z</time></trkpt><trkpt lat="45.03453063088532" lon="9.596110514258811"><ele>67.80000000000001</ele><time>2026-04-22T13:39:36Z</time></trkpt><trkpt lat="45.0346236317817" lon="9.596139208145324"><ele>67.4</ele><time>2026-04-22T13:39:38Z</time></trkpt><trkpt lat="45.03472836328111" lon="9.596155326767828"><ele>67.0</ele><time>2026-04-22T13:39:40Z</time></trkpt><trkpt lat="45.0348411222075" lon="9.596186233672784"><ele>67.0</ele><time>2026-04-22T13:39:42Z</time></trkpt><trkpt lat="45.03496833484505" lon="9.596217097028136"><ele>67.0</ele><time>2026-04-22T13:39:44Z</time></trkpt><trkpt lat="45.03508633861383" lon="9.596244388083589"><ele>67.0</ele><time>2026-04-22T13:39:46Z</time></trkpt><trkpt lat="45.035203258882575" lon="9.59626258020081"><ele>67.0</ele><time>2026-04-22T13:39:48Z</time></trkpt><trkpt lat="45.03532412402099" lon="9.596297635571624"><ele>67.0</ele><time>2026-04-22T13:39:50Z</time></trkpt><trkpt lat="45.035450270800936" lon="9.596312377136819"><ele>67.0</ele><time>2026-04-22T13:39:52Z</time></trkpt><trkpt lat="45.035516749261184" lon="9.596326755580378"><ele>67.0</ele><time>2026-04-22T13:39:53Z</time></trkpt><trkpt lat="45.03563663137702" lon="9.596348880806794"><ele>67.0</ele><time>2026-04-22T13:39:55Z</time></trkpt><trkpt lat="45.03570407939638" lon="9.596360879487559"><ele>67.0</ele><time>2026-04-22T13:39:56Z</time></trkpt><trkpt lat="45.035822670462856" lon="9.596414697481617"><ele>67.2</ele><time>2026-04-22T13:39:58Z</time></trkpt><trkpt lat="45.035909580596744" lon="9.59650962209205"><ele>67.4</ele><time>2026-04-22T13:40:00Z</time></trkpt><trkpt lat="45.03597294822708" lon="9.596549702076885"><ele>67.6</ele><time>2026-04-22T13:40:01Z</time></trkpt><trkpt lat="45.03606580274474" lon="9.596642217714379"><ele>67.8</ele><time>2026-04-22T13:40:03Z</time></trkpt><trkpt lat="45.03614773075888" lon="9.5967187473983"><ele>68.0</ele><time>2026-04-22T13:40:05Z</time></trkpt><trkpt lat="45.0362386335601" lon="9.596799006648263"><ele>68.0</ele><time>2026-04-22T13:40:06.999Z</time></trkpt><trkpt lat="45.03632946302949" lon="9.596862834192242"><ele>68.0</ele><time>2026-04-22T13:40:08.999Z</time></trkpt><trkpt lat="45.036382989758" lon="9.596929140466619"><ele>68.0</ele><time>2026-04-22T13:40:09.999Z</time></trkpt><trkpt lat="45.036491700297894" lon="9.597018025202674"><ele>68.0</ele><time>2026-04-22T13:40:11.999Z</time></trkpt><trkpt lat="45.0365821481918" lon="9.597103425031715"><ele>68.0</ele><time>2026-04-22T13:40:13.999Z</time></trkpt><trkpt lat="45.03669042164982" lon="9.59716289536828"><ele>67.5</ele><time>2026-04-22T13:40:15.999Z</time></trkpt><trkpt lat="45.03680860682489" lon="9.59716578218645"><ele>67.0</ele><time>2026-04-22T13:40:17.999Z</time></trkpt><trkpt lat="45.03693502449625" lon="9.597114022539929"><ele>66.5</ele><time>2026-04-22T13:40:19.999Z</time></trkpt><trkpt lat="45.03705896624232" lon="9.597099242021889"><ele>66.0</ele><time>2026-04-22T13:40:21.999Z</time></trkpt><trkpt lat="45.037172558683196" lon="9.597080247780685"><ele>66.0</ele><time>2026-04-22T13:40:23.999Z</time></trkpt><trkpt lat="45.03728518346021" lon="9.59707147420212"><ele>66.0</ele><time>2026-04-22T13:40:25.999Z</time></trkpt><trkpt lat="45.037353589690674" lon="9.597078929633467"><ele>66.0</ele><time>2026-04-22T13:40:26.999Z</time></trkpt><trkpt lat="45.03743455052186" lon="9.597039154547359"><ele>66.0</ele><time>2026-04-22T13:40:28.999Z</time></trkpt><trkpt lat="45.037503874310765" lon="9.597044505711153"><ele>66.0</ele><time>2026-04-22T13:40:29.999Z</time></trkpt><trkpt lat="45.03761894260141" lon="9.5970415404619"><ele>65.39999999999999</ele><time>2026-04-22T13:40:31.999Z</time></trkpt><trkpt lat="45.037740299320504" lon="9.597039539366627"><ele>64.8</ele><time>2026-04-22T13:40:33.999Z</time></trkpt><trkpt lat="45.0378543083797" lon="9.597039203750946"><ele>64.19999999999999</ele><time>2026-04-22T13:40:35.999Z</time></trkpt><trkpt lat="45.03794948781322" lon="9.597027034387951"><ele>63.599999999999994</ele><time>2026-04-22T13:40:37.999Z</time></trkpt><trkpt lat="45.03805784802629" lon="9.597030117917187"><ele>63.0</ele><time>2026-04-22T13:40:39.999Z</time></trkpt><trkpt lat="45.03817202488419" lon="9.597015462164741"><ele>63.0</ele><time>2026-04-22T13:40:41.999Z</time></trkpt><trkpt lat="45.038281145316645" lon="9.597010206749111"><ele>63.0</ele><time>2026-04-22T13:40:43.999Z</time></trkpt><trkpt lat="45.03838699617146" lon="9.596996316122583"><ele>63.0</ele><time>2026-04-22T13:40:45.999Z</time></trkpt><trkpt lat="45.03848827484277" lon="9.596983951140546"><ele>63.0</ele><time>2026-04-22T13:40:47.999Z</time></trkpt><trkpt lat="45.03856659321634" lon="9.597007207296217"><ele>63.0</ele><time>2026-04-22T13:40:49.999Z</time></trkpt><trkpt lat="45.03859221675164" lon="9.59713478410026"><ele>63.8</ele><time>2026-04-22T13:40:50.999Z</time></trkpt><trkpt lat="45.03860560637918" lon="9.597267269308833"><ele>64.6</ele><time>2026-04-22T13:40:52.999Z</time></trkpt><trkpt lat="45.03864255477607" lon="9.597400320128504"><ele>65.4</ele><time>2026-04-22T13:40:54.999Z</time></trkpt><trkpt lat="45.03867410881986" lon="9.597527483110836"><ele>66.2</ele><time>2026-04-22T13:40:56.999Z</time></trkpt><trkpt lat="45.03870516342965" lon="9.59765951270299"><ele>67.0</ele><time>2026-04-22T13:40:58.999Z</time></trkpt><trkpt lat="45.038744056484575" lon="9.597795626024585"><ele>66.8</ele><time>2026-04-22T13:41:01Z</time></trkpt><trkpt lat="45.038779691453676" lon="9.597920575321625"><ele>66.6</ele><time>2026-04-22T13:41:03Z</time></trkpt><trkpt lat="45.03881728275229" lon="9.598066837746222"><ele>66.39999999999999</ele><time>2026-04-22T13:41:05Z</time></trkpt><trkpt lat="45.0388541207771" lon="9.598201191655733"><ele>66.2</ele><time>2026-04-22T13:41:07Z</time></trkpt><trkpt lat="45.038884527934826" lon="9.598333708276948"><ele>66.0</ele><time>2026-04-22T13:41:09Z</time></trkpt><trkpt lat="45.038925961864365" lon="9.598450591009252"><ele>66.0</ele><time>2026-04-22T13:41:11Z</time></trkpt><trkpt lat="45.0389645463238" lon="9.598592590688542"><ele>66.0</ele><time>2026-04-22T13:41:13Z</time></trkpt><trkpt lat="45.0389945290627" lon="9.598720352923554"><ele>66.0</ele><time>2026-04-22T13:41:15Z</time></trkpt><trkpt lat="45.039049477964305" lon="9.598826437968892"><ele>66.0</ele><time>2026-04-22T13:41:17Z</time></trkpt><trkpt lat="45.039092291531645" lon="9.598966189892092"><ele>66.0</ele><time>2026-04-22T13:41:19Z</time></trkpt><trkpt lat="45.039140828256016" lon="9.599086398692307"><ele>66.0</ele><time>2026-04-22T13:41:21Z</time></trkpt><trkpt lat="45.03918289465438" lon="9.599221924021707"><ele>66.0</ele><time>2026-04-22T13:41:23Z</time></trkpt><trkpt lat="45.039241987329206" lon="9.599338801717751"><ele>66.0</ele><time>2026-04-22T13:41:25Z</time></trkpt><trkpt lat="45.03930844766385" lon="9.59946408526745"><ele>66.0</ele><time>2026-04-22T13:41:27Z</time></trkpt><trkpt lat="45.03936607523249" lon="9.599595674630278"><ele>66.0</ele><time>2026-04-22T13:41:29Z</time></trkpt><trkpt lat="45.0394278558752" lon="9.599719056017348"><ele>65.6</ele><time>2026-04-22T13:41:31Z</time></trkpt><trkpt lat="45.03947297719833" lon="9.59982191153765"><ele>65.19999999999999</ele><time>2026-04-22T13:41:33Z</time></trkpt><trkpt lat="45.039541602658296" lon="9.59994793560844"><ele>64.80000000000001</ele><time>2026-04-22T13:41:35Z</time></trkpt><trkpt lat="45.03960461552934" lon="9.600050504445592"><ele>64.4</ele><time>2026-04-22T13:41:37Z</time></trkpt><trkpt lat="45.03967093550878" lon="9.600176651475117"><ele>64.0</ele><time>2026-04-22T13:41:39Z</time></trkpt><trkpt lat="45.03974029141299" lon="9.600293110142768"><ele>64.4</ele><time>2026-04-22T13:41:41Z</time></trkpt><trkpt lat="45.03980445675694" lon="9.600409590554294"><ele>64.80000000000001</ele><time>2026-04-22T13:41:43Z</time></trkpt><trkpt lat="45.03984955315546" lon="9.600472001499476"><ele>65.19999999999999</ele><time>2026-04-22T13:41:44Z</time></trkpt><trkpt lat="45.039930449415344" lon="9.600595954112512"><ele>65.6</ele><time>2026-04-22T13:41:46Z</time></trkpt><trkpt lat="45.04000364995604" lon="9.600708292666582"><ele>66.0</ele><time>2026-04-22T13:41:48Z</time></trkpt><trkpt lat="45.04007266043689" lon="9.600816838087276"><ele>66.0</ele><time>2026-04-22T13:41:50Z</time></trkpt><trkpt lat="45.0401459170579" lon="9.600943240572812"><ele>66.0</ele><time>2026-04-22T13:41:52Z</time></trkpt><trkpt lat="45.04021886463863" lon="9.601053014686322"><ele>66.0</ele><time>2026-04-22T13:41:54Z</time></trkpt><trkpt lat="45.04028246260087" lon="9.601173989305066"><ele>66.0</ele><time>2026-04-22T13:41:56Z</time></trkpt><trkpt lat="45.04035448899422" lon="9.601281117518585"><ele>66.0</ele><time>2026-04-22T13:41:58Z</time></trkpt><trkpt lat="45.040418848644066" lon="9.601389905120275"><ele>66.0</ele><time>2026-04-22T13:42:00Z</time></trkpt><trkpt lat="45.04050480519551" lon="9.601497947509147"><ele>66.0</ele><time>2026-04-22T13:42:02Z</time></trkpt><trkpt lat="45.04057460030682" lon="9.601605132768684"><ele>66.0</ele><time>2026-04-22T13:42:04Z</time></trkpt><trkpt lat="45.040642951643996" lon="9.60172378617185"><ele>66.0</ele><time>2026-04-22T13:42:06Z</time></trkpt><trkpt lat="45.04071231776901" lon="9.601823774922483"><ele>66.0</ele><time>2026-04-22T13:42:07.999Z</time></trkpt><trkpt lat="45.04079627258408" lon="9.60192573043386"><ele>66.2</ele><time>2026-04-22T13:42:09.999Z</time></trkpt><trkpt lat="45.040865208506794" lon="9.602033945061626"><ele>66.39999999999999</ele><time>2026-04-22T13:42:11.999Z</time></trkpt><trkpt lat="45.04094116311588" lon="9.602153569828065"><ele>66.6</ele><time>2026-04-22T13:42:13.999Z</time></trkpt><trkpt lat="45.04102298885679" lon="9.602269838369725"><ele>66.8</ele><time>2026-04-22T13:42:15.999Z</time></trkpt><trkpt lat="45.04108154533203" lon="9.60238433095905"><ele>67.0</ele><time>2026-04-22T13:42:17.999Z</time></trkpt><trkpt lat="45.04114950662303" lon="9.602488868748116"><ele>67.0</ele><time>2026-04-22T13:42:19.999Z</time></trkpt><trkpt lat="45.041214662073074" lon="9.60258986732652"><ele>67.0</ele><time>2026-04-22T13:42:21.999Z</time></trkpt><trkpt lat="45.04128404280965" lon="9.602686706781114"><ele>67.0</ele><time>2026-04-22T13:42:23.999Z</time></trkpt><trkpt lat="45.04134467291792" lon="9.60279275174046"><ele>67.0</ele><time>2026-04-22T13:42:25.999Z</time></trkpt><trkpt lat="45.04139383117492" lon="9.602848508334414"><ele>67.0</ele><time>2026-04-22T13:42:26.999Z</time></trkpt><trkpt lat="45.041466612335874" lon="9.602956971354255"><ele>67.0</ele><time>2026-04-22T13:42:28.999Z</time></trkpt><trkpt lat="45.04153960404856" lon="9.603068097842067"><ele>67.0</ele><time>2026-04-22T13:42:30.999Z</time></trkpt><trkpt lat="45.041617322958196" lon="9.603166013427911"><ele>67.0</ele><time>2026-04-22T13:42:32.999Z</time></trkpt><trkpt lat="45.04168295752137" lon="9.603273641821266"><ele>67.0</ele><time>2026-04-22T13:42:34.999Z</time></trkpt><trkpt lat="45.04172700353947" lon="9.603341444335697"><ele>67.0</ele><time>2026-04-22T13:42:35.999Z</time></trkpt><trkpt lat="45.04180846867291" lon="9.603466975893491"><ele>66.8</ele><time>2026-04-22T13:42:37.999Z</time></trkpt><trkpt lat="45.04187937643285" lon="9.603567852621916"><ele>66.6</ele><time>2026-04-22T13:42:39.999Z</time></trkpt><trkpt lat="45.04195063213109" lon="9.603697143407084"><ele>66.39999999999999</ele><time>2026-04-22T13:42:41.999Z</time></trkpt><trkpt lat="45.04201357892866" lon="9.603803634837554"><ele>66.2</ele><time>2026-04-22T13:42:43.999Z</time></trkpt><trkpt lat="45.04205853778199" lon="9.603868411242328"><ele>66.0</ele><time>2026-04-22T13:42:44.999Z</time></trkpt><trkpt lat="45.04213068934494" lon="9.603981033253117"><ele>65.75</ele><time>2026-04-22T13:42:46.999Z</time></trkpt><trkpt lat="45.04222213104597" lon="9.604086034472985"><ele>65.5</ele><time>2026-04-22T13:42:48.999Z</time></trkpt><trkpt lat="45.04229611932499" lon="9.604192077285454"><ele>65.25</ele><time>2026-04-22T13:42:50.999Z</time></trkpt><trkpt lat="45.04238756385077" lon="9.604307232758988"><ele>65.0</ele><time>2026-04-22T13:42:52.999Z</time></trkpt><trkpt lat="45.04246310702303" lon="9.604410935515622"><ele>65.0</ele><time>2026-04-22T13:42:54.999Z</time></trkpt><trkpt lat="45.04253711934085" lon="9.60451610461686"><ele>65.0</ele><time>2026-04-22T13:42:56.999Z</time></trkpt><trkpt lat="45.042609230050346" lon="9.6046208545654"><ele>65.0</ele><time>2026-04-22T13:42:58.999Z</time></trkpt><trkpt lat="45.042689552624445" lon="9.604709857922389"><ele>65.0</ele><time>2026-04-22T13:43:00.999Z</time></trkpt><trkpt lat="45.04277139036284" lon="9.604787918155894"><ele>65.0</ele><time>2026-04-22T13:43:02.999Z</time></trkpt><trkpt lat="45.04285107974967" lon="9.60488240868755"><ele>65.0</ele><time>2026-04-22T13:43:04.999Z</time></trkpt><trkpt lat="45.04292219072402" lon="9.604970720419157"><ele>65.0</ele><time>2026-04-22T13:43:07Z</time></trkpt><trkpt lat="45.04300691040022" lon="9.60504960354393"><ele>65.0</ele><time>2026-04-22T13:43:09Z</time></trkpt><trkpt lat="45.04309430890904" lon="9.605128132944603"><ele>65.0</ele><time>2026-04-22T13:43:11Z</time></trkpt><trkpt lat="45.0431896521739" lon="9.60518298161614"><ele>65.0</ele><time>2026-04-22T13:43:13Z</time></trkpt><trkpt lat="45.04328504486974" lon="9.60528159802117"><ele>65.0</ele><time>2026-04-22T13:43:15Z</time></trkpt><trkpt lat="45.04335050736925" lon="9.60534617088019"><ele>65.0</ele><time>2026-04-22T13:43:17Z</time></trkpt><trkpt lat="45.04349305061359" lon="9.605209471724205"><ele>65.0</ele><time>2026-04-22T13:43:18Z</time></trkpt><trkpt lat="45.04355599254271" lon="9.605193908693204"><ele>65.0</ele><time>2026-04-22T13:43:19Z</time></trkpt><trkpt lat="45.043672780114235" lon="9.605192097043114"><ele>65.0</ele><time>2026-04-22T13:43:21Z</time></trkpt><trkpt lat="45.04374065347627" lon="9.605204544115848"><ele>65.0</ele><time>2026-04-22T13:43:22Z</time></trkpt><trkpt lat="45.04385439302012" lon="9.605259087226852"><ele>65.0</ele><time>2026-04-22T13:43:24Z</time></trkpt><trkpt lat="45.0439165878393" lon="9.605289716621293"><ele>65.0</ele><time>2026-04-22T13:43:25Z</time></trkpt><trkpt lat="45.04401277259546" lon="9.605337856204184"><ele>65.0</ele><time>2026-04-22T13:43:27Z</time></trkpt><trkpt lat="45.04409669442179" lon="9.605425074903668"><ele>65.0</ele><time>2026-04-22T13:43:29Z</time></trkpt><trkpt lat="45.044198426904885" lon="9.605484422411"><ele>64.75</ele><time>2026-04-22T13:43:31Z</time></trkpt><trkpt lat="45.04431093972548" lon="9.605574191207166"><ele>64.5</ele><time>2026-04-22T13:43:33Z</time></trkpt><trkpt lat="45.044405528340604" lon="9.605643250966418"><ele>64.25</ele><time>2026-04-22T13:43:35Z</time></trkpt><trkpt lat="45.04451715967961" lon="9.605697084463062"><ele>64.0</ele><time>2026-04-22T13:43:37Z</time></trkpt><trkpt lat="45.044614396518824" lon="9.60573575287303"><ele>63.99999999999999</ele><time>2026-04-22T13:43:39Z</time></trkpt><trkpt lat="45.044717098955225" lon="9.60573328004089"><ele>64.0</ele><time>2026-04-22T13:43:40Z</time></trkpt><trkpt lat="45.04479146427435" lon="9.605763858477454"><ele>64.0</ele><time>2026-04-22T13:43:41Z</time></trkpt><trkpt lat="45.04487939800674" lon="9.605742398499066"><ele>64.0</ele><time>2026-04-22T13:43:43Z</time></trkpt><trkpt lat="45.044963312579995" lon="9.605718520624515"><ele>63.99999999999999</ele><time>2026-04-22T13:43:45Z</time></trkpt><trkpt lat="45.04505268585112" lon="9.605695780873997"><ele>64.0</ele><time>2026-04-22T13:43:47Z</time></trkpt><trkpt lat="45.04527694278141" lon="9.605664344170691"><ele>64.0</ele><time>2026-04-22T13:43:52Z</time></trkpt><trkpt lat="45.04537220741268" lon="9.605675176795893"><ele>64.0</ele><time>2026-04-22T13:43:54Z</time></trkpt><trkpt lat="45.04546626258843" lon="9.60567756522747"><ele>64.0</ele><time>2026-04-22T13:43:56Z</time></trkpt><trkpt lat="45.04561117841546" lon="9.605709783196591"><ele>64.0</ele><time>2026-04-22T13:43:58Z</time></trkpt><trkpt lat="45.04572299951531" lon="9.605711399189522"><ele>64.0</ele><time>2026-04-22T13:44:00Z</time></trkpt><trkpt lat="45.04583766160208" lon="9.605715028309563"><ele>64.4</ele><time>2026-04-22T13:44:02Z</time></trkpt><trkpt lat="45.045901242107774" lon="9.605718706032464"><ele>64.80000000000001</ele><time>2026-04-22T13:44:03Z</time></trkpt><trkpt lat="45.04596914610634" lon="9.605708624074735"><ele>65.19999999999999</ele><time>2026-04-22T13:44:04Z</time></trkpt><trkpt lat="45.0460864702611" lon="9.605699520167859"><ele>65.6</ele><time>2026-04-22T13:44:06Z</time></trkpt><trkpt lat="45.04619755723679" lon="9.605706478144764"><ele>66.0</ele><time>2026-04-22T13:44:08Z</time></trkpt><trkpt lat="45.04630221775652" lon="9.60568973268229"><ele>66.0</ele><time>2026-04-22T13:44:10Z</time></trkpt><trkpt lat="45.046371293765574" lon="9.605687304438922"><ele>66.0</ele><time>2026-04-22T13:44:11Z</time></trkpt><trkpt lat="45.04643780612802" lon="9.605686916986125"><ele>66.0</ele><time>2026-04-22T13:44:12Z</time></trkpt><trkpt lat="45.04651481461055" lon="9.605687017883579"><ele>66.0</ele><time>2026-04-22T13:44:12.999Z</time></trkpt><trkpt lat="45.04658115209501" lon="9.605683901259091"><ele>66.0</ele><time>2026-04-22T13:44:13.999Z</time></trkpt><trkpt lat="45.046646982455805" lon="9.605683349507318"><ele>66.0</ele><time>2026-04-22T13:44:14.999Z</time></trkpt><trkpt lat="45.04671236122042" lon="9.605681797720788"><ele>66.0</ele><time>2026-04-22T13:44:15.999Z</time></trkpt><trkpt lat="45.0467818135653" lon="9.605674778085234"><ele>65.83333333333333</ele><time>2026-04-22T13:44:16.999Z</time></trkpt><trkpt lat="45.04685558977921" lon="9.605668777327923"><ele>65.66666666666667</ele><time>2026-04-22T13:44:17.999Z</time></trkpt><trkpt lat="45.04692059935454" lon="9.605665598622135"><ele>65.5</ele><time>2026-04-22T13:44:18.999Z</time></trkpt><trkpt lat="45.046987219142906" lon="9.60566494672333"><ele>65.33333333333334</ele><time>2026-04-22T13:44:19.999Z</time></trkpt><trkpt lat="45.047119793685894" lon="9.605649880453276"><ele>65.16666666666667</ele><time>2026-04-22T13:44:21.999Z</time></trkpt><trkpt lat="45.04718688787203" lon="9.605656237224743"><ele>65.0</ele><time>2026-04-22T13:44:22.999Z</time></trkpt><trkpt lat="45.04725938826032" lon="9.60564499317844"><ele>65.0</ele><time>2026-04-22T13:44:23.999Z</time></trkpt><trkpt lat="45.047382956239005" lon="9.60564887949488"><ele>65.0</ele><time>2026-04-22T13:44:25.999Z</time></trkpt><trkpt lat="45.047508506815554" lon="9.605643842919822"><ele>65.0</ele><time>2026-04-22T13:44:27.999Z</time></trkpt><trkpt lat="45.04762309885481" lon="9.605632371772241"><ele>65.0</ele><time>2026-04-22T13:44:29.999Z</time></trkpt><trkpt lat="45.04775035559386" lon="9.605634620091898"><ele>64.8</ele><time>2026-04-22T13:44:31.999Z</time></trkpt><trkpt lat="45.047864312850464" lon="9.605635530453746"><ele>64.6</ele><time>2026-04-22T13:44:33.999Z</time></trkpt><trkpt lat="45.047936875678815" lon="9.605663386778904"><ele>64.4</ele><time>2026-04-22T13:44:34.999Z</time></trkpt><trkpt lat="45.04804148222213" lon="9.605666226414183"><ele>64.2</ele><time>2026-04-22T13:44:36.999Z</time></trkpt><trkpt lat="45.04815400341686" lon="9.605673056727086"><ele>64.0</ele><time>2026-04-22T13:44:38.999Z</time></trkpt><trkpt lat="45.04826031349548" lon="9.605662014367166"><ele>64.0</ele><time>2026-04-22T13:44:40.999Z</time></trkpt><trkpt lat="45.048373160772044" lon="9.60566146288211"><ele>64.0</ele><time>2026-04-22T13:44:42.999Z</time></trkpt><trkpt lat="45.048456135488486" lon="9.605644314487646"><ele>64.0</ele><time>2026-04-22T13:44:43.999Z</time></trkpt><trkpt lat="45.04855707936624" lon="9.605650141493921"><ele>64.0</ele><time>2026-04-22T13:44:45.999Z</time></trkpt><trkpt lat="45.048642135856944" lon="9.605623790634114"><ele>64.0</ele><time>2026-04-22T13:44:47.999Z</time></trkpt><trkpt lat="45.04873236646134" lon="9.605637800935785"><ele>64.0</ele><time>2026-04-22T13:44:49.999Z</time></trkpt><trkpt lat="45.048797465060034" lon="9.605645890696653"><ele>64.0</ele><time>2026-04-22T13:44:50.999Z</time></trkpt><trkpt lat="45.04893828312149" lon="9.60566436265192"><ele>64.0</ele><time>2026-04-22T13:44:53.999Z</time></trkpt><trkpt lat="45.049044777796034" lon="9.605678834739148"><ele>64.0</ele><time>2026-04-22T13:44:57.999Z</time></trkpt><trkpt lat="45.04912259870262" lon="9.605559073556025"><ele>64.0</ele><time>2026-04-22T13:44:58.999Z</time></trkpt><trkpt lat="45.04921884186913" lon="9.60555537469399"><ele>63.99999999999999</ele><time>2026-04-22T13:44:59.999Z</time></trkpt><trkpt lat="45.049281637405365" lon="9.605548498544248"><ele>64.0</ele><time>2026-04-22T13:45:00.999Z</time></trkpt><trkpt lat="45.04935193172047" lon="9.605573129014694"><ele>64.0</ele><time>2026-04-22T13:45:01.999Z</time></trkpt><trkpt lat="45.04941867908055" lon="9.605563432227592"><ele>64.0</ele><time>2026-04-22T13:45:02.999Z</time></trkpt><trkpt lat="45.049494077780714" lon="9.605548308252187"><ele>63.99999999999999</ele><time>2026-04-22T13:45:03.999Z</time></trkpt><trkpt lat="45.049584344066425" lon="9.605518671520946"><ele>64.0</ele><time>2026-04-22T13:45:05.999Z</time></trkpt><trkpt lat="45.04970874378933" lon="9.60551700261956"><ele>64.0</ele><time>2026-04-22T13:45:07.999Z</time></trkpt><trkpt lat="45.04981408416328" lon="9.605501832820796"><ele>64.0</ele><time>2026-04-22T13:45:09.999Z</time></trkpt><trkpt lat="45.049924552592266" lon="9.60550289954534"><ele>64.0</ele><time>2026-04-22T13:45:11.999Z</time></trkpt><trkpt lat="45.050051895649815" lon="9.605514551894794"><ele>64.0</ele><time>2026-04-22T13:45:14Z</time></trkpt><trkpt lat="45.050156905741495" lon="9.605507182428417"><ele>64.0</ele><time>2026-04-22T13:45:16Z</time></trkpt><trkpt lat="45.05027216205092" lon="9.605520678985167"><ele>63.400000000000006</ele><time>2026-04-22T13:45:18Z</time></trkpt><trkpt lat="45.05033523823928" lon="9.60552717023531"><ele>62.800000000000004</ele><time>2026-04-22T13:45:19Z</time></trkpt><trkpt lat="45.05045712508745" lon="9.605523816257708"><ele>62.199999999999996</ele><time>2026-04-22T13:45:21Z</time></trkpt><trkpt lat="45.05052532983735" lon="9.60552915998023"><ele>61.599999999999994</ele><time>2026-04-22T13:45:22Z</time></trkpt><trkpt lat="45.0506470147937" lon="9.605551978942803"><ele>61.0</ele><time>2026-04-22T13:45:24Z</time></trkpt><trkpt lat="45.05076326429834" lon="9.605554427980543"><ele>61.4</ele><time>2026-04-22T13:45:26Z</time></trkpt><trkpt lat="45.05086127550993" lon="9.605557033815504"><ele>61.8</ele><time>2026-04-22T13:45:28Z</time></trkpt><trkpt lat="45.050961653827436" lon="9.605566325359652"><ele>62.199999999999996</ele><time>2026-04-22T13:45:30Z</time></trkpt><trkpt lat="45.051064532389475" lon="9.605560036136678"><ele>62.599999999999994</ele><time>2026-04-22T13:45:32Z</time></trkpt><trkpt lat="45.0511768399893" lon="9.6055582573544"><ele>63.0</ele><time>2026-04-22T13:45:34Z</time></trkpt><trkpt lat="45.05129495618206" lon="9.605555158687185"><ele>63.0</ele><time>2026-04-22T13:45:36Z</time></trkpt><trkpt lat="45.05141306888584" lon="9.60555543835851"><ele>63.0</ele><time>2026-04-22T13:45:38Z</time></trkpt><trkpt lat="45.05153069212508" lon="9.60556403251752"><ele>63.0</ele><time>2026-04-22T13:45:40Z</time></trkpt><trkpt lat="45.051628702941315" lon="9.60556921473664"><ele>63.0</ele><time>2026-04-22T13:45:42Z</time></trkpt><trkpt lat="45.0517399761147" lon="9.60557467939545"><ele>63.0</ele><time>2026-04-22T13:45:44Z</time></trkpt><trkpt lat="45.051836965271114" lon="9.60558066578869"><ele>62.833333333333336</ele><time>2026-04-22T13:45:46Z</time></trkpt><trkpt lat="45.05192618179392" lon="9.605587955782415"><ele>62.66666666666667</ele><time>2026-04-22T13:45:48Z</time></trkpt><trkpt lat="45.052018535797515" lon="9.60558994763742"><ele>62.5</ele><time>2026-04-22T13:45:50Z</time></trkpt><trkpt lat="45.05209026982739" lon="9.605622920557243"><ele>62.333333333333336</ele><time>2026-04-22T13:45:52Z</time></trkpt><trkpt lat="45.05216614273562" lon="9.605651032639267"><ele>62.16666666666667</ele><time>2026-04-22T13:45:54Z</time></trkpt><trkpt lat="45.05224765698586" lon="9.605679777409966"><ele>62.0</ele><time>2026-04-22T13:45:56Z</time></trkpt><trkpt lat="45.05233877451906" lon="9.60537955696728"><ele>61.66666666666667</ele><time>2026-04-22T13:46:03Z</time></trkpt><trkpt lat="45.05235918424178" lon="9.605290958240182"><ele>61.333333333333336</ele><time>2026-04-22T13:46:04Z</time></trkpt><trkpt lat="45.05237505996612" lon="9.605204276801086"><ele>61.0</ele><time>2026-04-22T13:46:05Z</time></trkpt><trkpt lat="45.052386913612686" lon="9.605114881274439"><ele>60.66666666666667</ele><time>2026-04-22T13:46:06Z</time></trkpt><trkpt lat="45.05239649271601" lon="9.604950399330304"><ele>60.333333333333336</ele><time>2026-04-22T13:46:08Z</time></trkpt><trkpt lat="45.05240546699876" lon="9.604857002130908"><ele>60.0</ele><time>2026-04-22T13:46:09Z</time></trkpt><trkpt lat="45.05241752166959" lon="9.604696357661535"><ele>60.0</ele><time>2026-04-22T13:46:11Z</time></trkpt><trkpt lat="45.052426741053914" lon="9.60452418754959"><ele>60.0</ele><time>2026-04-22T13:46:13Z</time></trkpt><trkpt lat="45.05245706920422" lon="9.604371245552175"><ele>60.0</ele><time>2026-04-22T13:46:15Z</time></trkpt><trkpt lat="45.05247023387458" lon="9.604206670745297"><ele>60.0</ele><time>2026-04-22T13:46:17Z</time></trkpt><trkpt lat="45.05248899990434" lon="9.604053492371929"><ele>60.0</ele><time>2026-04-22T13:46:18.999Z</time></trkpt><trkpt lat="45.05251624255271" lon="9.603910275981887"><ele>60.0</ele><time>2026-04-22T13:46:20.999Z</time></trkpt><trkpt lat="45.05252316977847" lon="9.603755796674376"><ele>60.0</ele><time>2026-04-22T13:46:22.999Z</time></trkpt><trkpt lat="45.05251370938598" lon="9.603661451836587"><ele>59.0</ele><time>2026-04-22T13:46:23.999Z</time></trkpt></trkseg></trk></gpx>